<?xml version='1.0' encoding='UTF-8'?><gpx version="1.1" creator="JPX - https://github.com/jenetics/jpx" xmlns="http://www.topografix.com/GPX/1/1"><trk><trkseg><trkpt lat="45.106328951759906" lon="7.677213901345358"><ele>245.0</ele><time>2026-04-19T08:20:32Z</time></trkpt><trkpt lat="45.106327484337776" lon="7.677329374227508"><ele>245.0</ele><time>2026-04-19T08:20:37Z</time></trkpt><trkpt lat="45.10627547053204" lon="7.677409499992198"><ele>245.0</ele><time>2026-04-19T08:21:51Z</time></trkpt><trkpt lat="45.10617754959052" lon="7.677415706463229"><ele>245.0</ele><time>2026-04-19T08:21:54Z</time></trkpt><trkpt lat="45.106069435045654" lon="7.677370557999841"><ele>245.0</ele><time>2026-04-19T08:21:56Z</time></trkpt><trkpt lat="45.10601272031164" lon="7.6772722467279255"><ele>245.0</ele><time>2026-04-19T08:21:57Z</time></trkpt><trkpt lat="45.10591127041326" lon="7.677257212215873"><ele>245.0</ele><time>2026-04-19T08:21:59Z</time></trkpt><trkpt lat="45.10582848191646" lon="7.6771746075301115"><ele>245.0</ele><time>2026-04-19T08:22:01Z</time></trkpt><trkpt lat="45.10582533020406" lon="7.676986129055047"><ele>245.0</ele><time>2026-04-19T08:22:02Z</time></trkpt><trkpt lat="45.105821969995645" lon="7.676843715924617"><ele>245.0</ele><time>2026-04-19T08:22:03Z</time></trkpt><trkpt lat="45.105834094044035" lon="7.676698599206897"><ele>244.4</ele><time>2026-04-19T08:22:04Z</time></trkpt><trkpt lat="45.10584225050825" lon="7.676564370617416"><ele>243.8</ele><time>2026-04-19T08:22:05Z</time></trkpt><trkpt lat="45.105850128774264" lon="7.676455934298447"><ele>243.2</ele><time>2026-04-19T08:22:06Z</time></trkpt><trkpt lat="45.10586596207258" lon="7.676299782313708"><ele>242.6</ele><time>2026-04-19T08:22:08Z</time></trkpt><trkpt lat="45.105885507570996" lon="7.676137040041424"><ele>242.0</ele><time>2026-04-19T08:22:10Z</time></trkpt><trkpt lat="45.10589255736748" lon="7.676033371149822"><ele>241.8</ele><time>2026-04-19T08:22:11Z</time></trkpt><trkpt lat="45.10590210481676" lon="7.675884616537731"><ele>241.6</ele><time>2026-04-19T08:22:12Z</time></trkpt><trkpt lat="45.10591125407084" lon="7.675725625733797"><ele>241.40000000000003</ele><time>2026-04-19T08:22:13Z</time></trkpt><trkpt lat="45.105924855153795" lon="7.675569971021397"><ele>241.20000000000002</ele><time>2026-04-19T08:22:14Z</time></trkpt><trkpt lat="45.105929722238606" lon="7.675453568044875"><ele>241.0</ele><time>2026-04-19T08:22:15Z</time></trkpt><trkpt lat="45.10594622435233" lon="7.675348974127783"><ele>241.0</ele><time>2026-04-19T08:22:16Z</time></trkpt><trkpt lat="45.105969461952725" lon="7.675216949784127"><ele>241.0</ele><time>2026-04-19T08:22:18Z</time></trkpt><trkpt lat="45.10615178306814" lon="7.67527591997013"><ele>241.0</ele><time>2026-04-19T08:22:19Z</time></trkpt><trkpt lat="45.10627578522058" lon="7.675291121064701"><ele>241.0</ele><time>2026-04-19T08:22:20Z</time></trkpt><trkpt lat="45.106409756112754" lon="7.675326035488162"><ele>241.0</ele><time>2026-04-19T08:22:21Z</time></trkpt><trkpt lat="45.10653578280353" lon="7.675353071207703"><ele>241.0</ele><time>2026-04-19T08:22:22Z</time></trkpt><trkpt lat="45.106671284197915" lon="7.675375379609375"><ele>241.0</ele><time>2026-04-19T08:22:23Z</time></trkpt><trkpt lat="45.10681744201433" lon="7.675396470650423"><ele>241.0</ele><time>2026-04-19T08:22:24Z</time></trkpt><trkpt lat="45.1069629693617" lon="7.675417839607107"><ele>241.0</ele><time>2026-04-19T08:22:25Z</time></trkpt><trkpt lat="45.10709260587459" lon="7.675438326892182"><ele>241.00000000000003</ele><time>2026-04-19T08:22:26Z</time></trkpt><trkpt lat="45.10719452350098" lon="7.675459301821313"><ele>241.00000000000003</ele><time>2026-04-19T08:22:27Z</time></trkpt><trkpt lat="45.10726473344749" lon="7.675476866509216"><ele>241.0</ele><time>2026-04-19T08:22:28Z</time></trkpt><trkpt lat="45.10732987874432" lon="7.675467161889843"><ele>241.0</ele><time>2026-04-19T08:22:30Z</time></trkpt><trkpt lat="45.10741439767644" lon="7.67531481883294"><ele>241.0</ele><time>2026-04-19T08:22:33Z</time></trkpt><trkpt lat="45.10744768939021" lon="7.675190116597619"><ele>241.0</ele><time>2026-04-19T08:22:34Z</time></trkpt><trkpt lat="45.10748284375022" lon="7.675027116637968"><ele>241.0</ele><time>2026-04-19T08:22:35Z</time></trkpt><trkpt lat="45.107513374661345" lon="7.67485222214025"><ele>241.0</ele><time>2026-04-19T08:22:36Z</time></trkpt><trkpt lat="45.10754720148511" lon="7.674683603809234"><ele>241.0</ele><time>2026-04-19T08:22:37Z</time></trkpt><trkpt lat="45.107581072653154" lon="7.674510944476641"><ele>241.0</ele><time>2026-04-19T08:22:38Z</time></trkpt><trkpt lat="45.107616544401765" lon="7.674330647849484"><ele>241.0</ele><time>2026-04-19T08:22:39Z</time></trkpt><trkpt lat="45.107653957045116" lon="7.674140451702253"><ele>241.0</ele><time>2026-04-19T08:22:40Z</time></trkpt><trkpt lat="45.10769374342074" lon="7.673944491874605"><ele>241.0</ele><time>2026-04-19T08:22:41Z</time></trkpt><trkpt lat="45.107729510059336" lon="7.673773929886095"><ele>241.00000000000003</ele><time>2026-04-19T08:22:42Z</time></trkpt><trkpt lat="45.10775309192151" lon="7.673629566009232"><ele>241.00000000000003</ele><time>2026-04-19T08:22:43Z</time></trkpt><trkpt lat="45.10777371480876" lon="7.673525652998878"><ele>241.0</ele><time>2026-04-19T08:22:44Z</time></trkpt><trkpt lat="45.10780715980843" lon="7.673409109723291"><ele>241.0</ele><time>2026-04-19T08:22:46Z</time></trkpt><trkpt lat="45.10798471642255" lon="7.673491536139607"><ele>241.25</ele><time>2026-04-19T08:22:47Z</time></trkpt><trkpt lat="45.10809967811991" lon="7.67350931030465"><ele>241.5</ele><time>2026-04-19T08:22:48Z</time></trkpt><trkpt lat="45.10823037989229" lon="7.673537079234245"><ele>241.75</ele><time>2026-04-19T08:22:49Z</time></trkpt><trkpt lat="45.10838423584718" lon="7.6735771949899965"><ele>242.0</ele><time>2026-04-19T08:22:50Z</time></trkpt><trkpt lat="45.10854099131483" lon="7.673613730152134"><ele>242.0</ele><time>2026-04-19T08:22:51Z</time></trkpt><trkpt lat="45.108652585273944" lon="7.673608245517189"><ele>242.0</ele><time>2026-04-19T08:22:52Z</time></trkpt><trkpt lat="45.10875457585732" lon="7.673622098149211"><ele>242.0</ele><time>2026-04-19T08:22:53Z</time></trkpt><trkpt lat="45.10883545295259" lon="7.673650050724367"><ele>242.0</ele><time>2026-04-19T08:22:54Z</time></trkpt><trkpt lat="45.10895084635857" lon="7.673593630555998"><ele>242.0</ele><time>2026-04-19T08:22:56Z</time></trkpt><trkpt lat="45.109000617162316" lon="7.673485566725552"><ele>242.0</ele><time>2026-04-19T08:22:57Z</time></trkpt><trkpt lat="45.109039552001136" lon="7.673344574504229"><ele>242.0</ele><time>2026-04-19T08:22:58Z</time></trkpt><trkpt lat="45.109073045144285" lon="7.673143051088362"><ele>242.0</ele><time>2026-04-19T08:22:59Z</time></trkpt><trkpt lat="45.10910271711549" lon="7.672922697647583"><ele>242.0</ele><time>2026-04-19T08:23:00Z</time></trkpt><trkpt lat="45.10914784626318" lon="7.672705627855259"><ele>243.0</ele><time>2026-04-19T08:23:01Z</time></trkpt><trkpt lat="45.10919834537198" lon="7.672494099447474"><ele>244.0</ele><time>2026-04-19T08:23:02Z</time></trkpt><trkpt lat="45.109244844910684" lon="7.672272075703903"><ele>245.0</ele><time>2026-04-19T08:23:03Z</time></trkpt><trkpt lat="45.109296335576055" lon="7.672031699913313"><ele>245.0</ele><time>2026-04-19T08:23:04Z</time></trkpt><trkpt lat="45.10934584842618" lon="7.671802296684735"><ele>245.0</ele><time>2026-04-19T08:23:05Z</time></trkpt><trkpt lat="45.109391363006914" lon="7.6715749059661515"><ele>245.0</ele><time>2026-04-19T08:23:06Z</time></trkpt><trkpt lat="45.10945695980333" lon="7.671354529343578"><ele>245.0</ele><time>2026-04-19T08:23:07Z</time></trkpt><trkpt lat="45.109487205540354" lon="7.671120618506362"><ele>245.0</ele><time>2026-04-19T08:23:08Z</time></trkpt><trkpt lat="45.1095380092534" lon="7.670901257699175"><ele>245.0</ele><time>2026-04-19T08:23:09Z</time></trkpt><trkpt lat="45.10958342259544" lon="7.670672252529823"><ele>245.0</ele><time>2026-04-19T08:23:10Z</time></trkpt><trkpt lat="45.10963442096666" lon="7.670441185465427"><ele>245.0</ele><time>2026-04-19T08:23:11Z</time></trkpt><trkpt lat="45.10968381071434" lon="7.670214824339842"><ele>245.0</ele><time>2026-04-19T08:23:12Z</time></trkpt><trkpt lat="45.10973387287833" lon="7.669979513200942"><ele>245.0</ele><time>2026-04-19T08:23:13Z</time></trkpt><trkpt lat="45.1097841052074" lon="7.6697379854543115"><ele>245.0</ele><time>2026-04-19T08:23:14Z</time></trkpt><trkpt lat="45.10983998371567" lon="7.669498646538839"><ele>245.0</ele><time>2026-04-19T08:23:15Z</time></trkpt><trkpt lat="45.1098934359976" lon="7.669259348456324"><ele>245.0</ele><time>2026-04-19T08:23:16Z</time></trkpt><trkpt lat="45.109944200240236" lon="7.669014255500073"><ele>245.0</ele><time>2026-04-19T08:23:17Z</time></trkpt><trkpt lat="45.109995779141734" lon="7.668773320416608"><ele>245.0</ele><time>2026-04-19T08:23:18Z</time></trkpt><trkpt lat="45.1100463044024" lon="7.668532573127392"><ele>245.0</ele><time>2026-04-19T08:23:19Z</time></trkpt><trkpt lat="45.11009480432832" lon="7.668285477170006"><ele>245.0</ele><time>2026-04-19T08:23:20Z</time></trkpt><trkpt lat="45.11014915987854" lon="7.668048000641035"><ele>245.0</ele><time>2026-04-19T08:23:21Z</time></trkpt><trkpt lat="45.110194537963494" lon="7.667839162879506"><ele>245.25</ele><time>2026-04-19T08:23:22Z</time></trkpt><trkpt lat="45.11023493363303" lon="7.667648316246487"><ele>245.5</ele><time>2026-04-19T08:23:23Z</time></trkpt><trkpt lat="45.11026866482202" lon="7.6674713500415335"><ele>245.75</ele><time>2026-04-19T08:23:24Z</time></trkpt><trkpt lat="45.110306662888334" lon="7.667303827808942"><ele>246.0</ele><time>2026-04-19T08:23:25Z</time></trkpt><trkpt lat="45.11033512010401" lon="7.667154888394625"><ele>246.0</ele><time>2026-04-19T08:23:26Z</time></trkpt><trkpt lat="45.11037202496202" lon="7.667056833763088"><ele>246.0</ele><time>2026-04-19T08:23:27Z</time></trkpt><trkpt lat="45.11039061586113" lon="7.666969343605234"><ele>246.0</ele><time>2026-04-19T08:23:29Z</time></trkpt><trkpt lat="45.11045766726753" lon="7.666948696090613"><ele>246.0</ele><time>2026-04-19T08:23:31Z</time></trkpt><trkpt lat="45.1105662942556" lon="7.6669648861688335"><ele>246.0</ele><time>2026-04-19T08:23:33Z</time></trkpt><trkpt lat="45.11063656314938" lon="7.666971265110353"><ele>246.0</ele><time>2026-04-19T08:23:34Z</time></trkpt><trkpt lat="45.11069945584664" lon="7.666982659383461"><ele>245.83333333333334</ele><time>2026-04-19T08:23:35Z</time></trkpt><trkpt lat="45.11076257016881" lon="7.666988134718182"><ele>245.66666666666669</ele><time>2026-04-19T08:23:36Z</time></trkpt><trkpt lat="45.11085222687322" lon="7.666998606339994"><ele>245.5</ele><time>2026-04-19T08:23:38Z</time></trkpt><trkpt lat="45.110921927296346" lon="7.6670000479307525"><ele>245.33333333333334</ele><time>2026-04-19T08:23:42Z</time></trkpt><trkpt lat="45.1110072643676" lon="7.667021767330367"><ele>245.16666666666669</ele><time>2026-04-19T08:23:52Z</time></trkpt><trkpt lat="45.11110263015159" lon="7.66691215116065"><ele>245.0</ele><time>2026-04-19T08:23:54Z</time></trkpt><trkpt lat="45.11116573117069" lon="7.666827545262183"><ele>245.0</ele><time>2026-04-19T08:23:55Z</time></trkpt><trkpt lat="45.1111564278393" lon="7.666690696946658"><ele>245.0</ele><time>2026-04-19T08:23:56Z</time></trkpt><trkpt lat="45.11113869026286" lon="7.666539890467687"><ele>245.0</ele><time>2026-04-19T08:23:57Z</time></trkpt><trkpt lat="45.111129829174" lon="7.66637295634148"><ele>245.0</ele><time>2026-04-19T08:23:58Z</time></trkpt><trkpt lat="45.11113048233704" lon="7.666183601828921"><ele>245.0</ele><time>2026-04-19T08:23:59Z</time></trkpt><trkpt lat="45.11112896020847" lon="7.666000630843983"><ele>245.0</ele><time>2026-04-19T08:24:00Z</time></trkpt><trkpt lat="45.11112300790002" lon="7.66582727904407"><ele>245.0</ele><time>2026-04-19T08:24:01Z</time></trkpt><trkpt lat="45.11112125728209" lon="7.665656272722848"><ele>245.0</ele><time>2026-04-19T08:24:02Z</time></trkpt><trkpt lat="45.111131197178736" lon="7.6654891710278505"><ele>245.0</ele><time>2026-04-19T08:24:03Z</time></trkpt><trkpt lat="45.11116585504328" lon="7.665327957629784"><ele>245.0</ele><time>2026-04-19T08:24:04Z</time></trkpt><trkpt lat="45.11120734912255" lon="7.665155425590625"><ele>245.0</ele><time>2026-04-19T08:24:05Z</time></trkpt><trkpt lat="45.11127820270492" lon="7.664973230828943"><ele>245.0</ele><time>2026-04-19T08:24:06Z</time></trkpt><trkpt lat="45.11134104621909" lon="7.664767507461171"><ele>245.0</ele><time>2026-04-19T08:24:07Z</time></trkpt><trkpt lat="45.111398337252574" lon="7.664548547136587"><ele>245.0</ele><time>2026-04-19T08:24:08Z</time></trkpt><trkpt lat="45.11145278292791" lon="7.6643418980935065"><ele>245.0</ele><time>2026-04-19T08:24:09Z</time></trkpt><trkpt lat="45.11150712435976" lon="7.664163206769238"><ele>245.2</ele><time>2026-04-19T08:24:10Z</time></trkpt><trkpt lat="45.111553701541304" lon="7.6640082814989725"><ele>245.4</ele><time>2026-04-19T08:24:11Z</time></trkpt><trkpt lat="45.11158180737028" lon="7.663867000857831"><ele>245.60000000000002</ele><time>2026-04-19T08:24:12Z</time></trkpt><trkpt lat="45.111595371872916" lon="7.6637383559138605"><ele>245.8</ele><time>2026-04-19T08:24:13Z</time></trkpt><trkpt lat="45.111610073469" lon="7.6636223087959925"><ele>246.0</ele><time>2026-04-19T08:24:14Z</time></trkpt><trkpt lat="45.1116357025536" lon="7.663521981464775"><ele>246.25</ele><time>2026-04-19T08:24:15Z</time></trkpt><trkpt lat="45.11163986224018" lon="7.663432710347328"><ele>246.5</ele><time>2026-04-19T08:24:16Z</time></trkpt><trkpt lat="45.11179055913873" lon="7.66341844363916"><ele>246.75</ele><time>2026-04-19T08:24:17Z</time></trkpt><trkpt lat="45.1119163649048" lon="7.663386338960386"><ele>247.0</ele><time>2026-04-19T08:24:18Z</time></trkpt><trkpt lat="45.11208282555662" lon="7.6633378174034394"><ele>247.0</ele><time>2026-04-19T08:24:19Z</time></trkpt><trkpt lat="45.11228884976557" lon="7.663310942062333"><ele>247.0</ele><time>2026-04-19T08:24:20Z</time></trkpt><trkpt lat="45.11251201718269" lon="7.6632528208869815"><ele>247.0</ele><time>2026-04-19T08:24:21Z</time></trkpt><trkpt lat="45.112728256830245" lon="7.663186737916077"><ele>245.5</ele><time>2026-04-19T08:24:22Z</time></trkpt><trkpt lat="45.112959677362504" lon="7.663111955210204"><ele>244.0</ele><time>2026-04-19T08:24:23Z</time></trkpt><trkpt lat="45.113201766542105" lon="7.6630323191863114"><ele>242.0</ele><time>2026-04-19T08:24:24Z</time></trkpt><trkpt lat="45.113441899294834" lon="7.662941904328125"><ele>240.0</ele><time>2026-04-19T08:24:25Z</time></trkpt><trkpt lat="45.11368221820295" lon="7.662853323986076"><ele>243.5</ele><time>2026-04-19T08:24:26Z</time></trkpt><trkpt lat="45.11392823957448" lon="7.662763181398226"><ele>247.0</ele><time>2026-04-19T08:24:27Z</time></trkpt><trkpt lat="45.11417588930568" lon="7.662668824984159"><ele>247.0</ele><time>2026-04-19T08:24:28Z</time></trkpt><trkpt lat="45.114422507599784" lon="7.6625755655920305"><ele>247.0</ele><time>2026-04-19T08:24:29Z</time></trkpt><trkpt lat="45.11467332905706" lon="7.662477267376444"><ele>245.0</ele><time>2026-04-19T08:24:30Z</time></trkpt><trkpt lat="45.11492701658549" lon="7.662388639612806"><ele>243.0</ele><time>2026-04-19T08:24:31Z</time></trkpt><trkpt lat="45.11518524469903" lon="7.6623026450840666"><ele>243.0</ele><time>2026-04-19T08:24:32Z</time></trkpt><trkpt lat="45.115435955518485" lon="7.6622189818688735"><ele>243.0</ele><time>2026-04-19T08:24:33Z</time></trkpt><trkpt lat="45.11569039892136" lon="7.662124829569123"><ele>243.5</ele><time>2026-04-19T08:24:34Z</time></trkpt><trkpt lat="45.11594385622871" lon="7.6620266886609505"><ele>244.0</ele><time>2026-04-19T08:24:35Z</time></trkpt><trkpt lat="45.11619232302927" lon="7.661917705954609"><ele>244.0</ele><time>2026-04-19T08:24:36Z</time></trkpt><trkpt lat="45.11645165906457" lon="7.661787907817167"><ele>244.0</ele><time>2026-04-19T08:24:37Z</time></trkpt><trkpt lat="45.11669279602791" lon="7.661639075673256"><ele>241.5</ele><time>2026-04-19T08:24:38Z</time></trkpt><trkpt lat="45.11692784322764" lon="7.661469775986289"><ele>239.0</ele><time>2026-04-19T08:24:39Z</time></trkpt><trkpt lat="45.11716214779649" lon="7.661290295591356"><ele>239.0</ele><time>2026-04-19T08:24:40Z</time></trkpt><trkpt lat="45.117387640028866" lon="7.661133075893492"><ele>239.0</ele><time>2026-04-19T08:24:41Z</time></trkpt><trkpt lat="45.11762191359044" lon="7.661014450694268"><ele>239.5</ele><time>2026-04-19T08:24:42Z</time></trkpt><trkpt lat="45.11785594577218" lon="7.660899222400356"><ele>240.0</ele><time>2026-04-19T08:24:43Z</time></trkpt><trkpt lat="45.11809525031367" lon="7.660820682368492"><ele>239.0</ele><time>2026-04-19T08:24:44Z</time></trkpt><trkpt lat="45.118338459390124" lon="7.6607752902540165"><ele>238.0</ele><time>2026-04-19T08:24:45Z</time></trkpt><trkpt lat="45.118576278197914" lon="7.660769362192194"><ele>238.0</ele><time>2026-04-19T08:24:46Z</time></trkpt><trkpt lat="45.118814486817776" lon="7.6607942577195836"><ele>238.0</ele><time>2026-04-19T08:24:47Z</time></trkpt><trkpt lat="45.11904519198152" lon="7.660846719361956"><ele>237.0</ele><time>2026-04-19T08:24:48Z</time></trkpt><trkpt lat="45.11927829133728" lon="7.660907150712998"><ele>236.0</ele><time>2026-04-19T08:24:49Z</time></trkpt><trkpt lat="45.11949477607721" lon="7.660964930663038"><ele>236.0</ele><time>2026-04-19T08:24:50Z</time></trkpt><trkpt lat="45.11969780905133" lon="7.661004721848202"><ele>236.0</ele><time>2026-04-19T08:24:51Z</time></trkpt><trkpt lat="45.11989390133001" lon="7.661059616751024"><ele>236.0</ele><time>2026-04-19T08:24:52Z</time></trkpt><trkpt lat="45.12009207791813" lon="7.66110755177621"><ele>234.0</ele><time>2026-04-19T08:24:53Z</time></trkpt><trkpt lat="45.12029692944127" lon="7.66116306413231"><ele>232.0</ele><time>2026-04-19T08:24:54Z</time></trkpt><trkpt lat="45.120502017207514" lon="7.661216871254232"><ele>230.0</ele><time>2026-04-19T08:24:55Z</time></trkpt><trkpt lat="45.12069682975817" lon="7.661260179650569"><ele>231.33333333333334</ele><time>2026-04-19T08:24:56Z</time></trkpt><trkpt lat="45.120892779265056" lon="7.661289962128857"><ele>232.66666666666669</ele><time>2026-04-19T08:24:57Z</time></trkpt><trkpt lat="45.12109138822348" lon="7.661299662359978"><ele>234.0</ele><time>2026-04-19T08:24:58Z</time></trkpt><trkpt lat="45.12129446931169" lon="7.661287083225058"><ele>234.0</ele><time>2026-04-19T08:24:59Z</time></trkpt><trkpt lat="45.1214954749357" lon="7.661261766722592"><ele>234.0</ele><time>2026-04-19T08:25:00Z</time></trkpt><trkpt lat="45.12169779431649" lon="7.661178392265707"><ele>234.0</ele><time>2026-04-19T08:25:01Z</time></trkpt><trkpt lat="45.121906782443716" lon="7.661112303529616"><ele>234.66666666666669</ele><time>2026-04-19T08:25:02Z</time></trkpt><trkpt lat="45.12211744798997" lon="7.661032374607759"><ele>235.33333333333334</ele><time>2026-04-19T08:25:03Z</time></trkpt><trkpt lat="45.12233286179284" lon="7.660952658719471"><ele>236.0</ele><time>2026-04-19T08:25:04Z</time></trkpt><trkpt lat="45.12255124620339" lon="7.660873803474375"><ele>236.0</ele><time>2026-04-19T08:25:05Z</time></trkpt><trkpt lat="45.122767925428136" lon="7.660793819704006"><ele>236.0</ele><time>2026-04-19T08:25:06Z</time></trkpt><trkpt lat="45.12298131681068" lon="7.660710927973728"><ele>236.0</ele><time>2026-04-19T08:25:07Z</time></trkpt><trkpt lat="45.12320131092838" lon="7.660624042823461"><ele>237.5</ele><time>2026-04-19T08:25:08Z</time></trkpt><trkpt lat="45.12342409209158" lon="7.66052861698941"><ele>239.0</ele><time>2026-04-19T08:25:09Z</time></trkpt><trkpt lat="45.12364971843298" lon="7.660435491980615"><ele>239.0</ele><time>2026-04-19T08:25:10Z</time></trkpt><trkpt lat="45.12387086610132" lon="7.660345299550025"><ele>239.0</ele><time>2026-04-19T08:25:11Z</time></trkpt><trkpt lat="45.12409136541213" lon="7.660254595598274"><ele>238.5</ele><time>2026-04-19T08:25:12Z</time></trkpt><trkpt lat="45.124310876150844" lon="7.660163225771093"><ele>238.0</ele><time>2026-04-19T08:25:13Z</time></trkpt><trkpt lat="45.124525071462884" lon="7.660076293075761"><ele>238.0</ele><time>2026-04-19T08:25:14Z</time></trkpt><trkpt lat="45.124735155190315" lon="7.659990558474741"><ele>238.0</ele><time>2026-04-19T08:25:15Z</time></trkpt><trkpt lat="45.124949370622794" lon="7.659904728487171"><ele>238.0</ele><time>2026-04-19T08:25:16Z</time></trkpt><trkpt lat="45.125161262431405" lon="7.659822306135861"><ele>238.0</ele><time>2026-04-19T08:25:17Z</time></trkpt><trkpt lat="45.125366846175346" lon="7.659741165999875"><ele>238.0</ele><time>2026-04-19T08:25:18Z</time></trkpt><trkpt lat="45.12557615582644" lon="7.659660188230679"><ele>238.0</ele><time>2026-04-19T08:25:19Z</time></trkpt><trkpt lat="45.12578384276531" lon="7.659578264425432"><ele>238.33333333333331</ele><time>2026-04-19T08:25:20Z</time></trkpt><trkpt lat="45.12599261349827" lon="7.659494616527786"><ele>238.66666666666669</ele><time>2026-04-19T08:25:21Z</time></trkpt><trkpt lat="45.126204564279014" lon="7.659411923487303"><ele>239.0</ele><time>2026-04-19T08:25:22Z</time></trkpt><trkpt lat="45.12641581391224" lon="7.659327406850946"><ele>240.0</ele><time>2026-04-19T08:25:23Z</time></trkpt><trkpt lat="45.12662979617207" lon="7.659240061584054"><ele>241.0</ele><time>2026-04-19T08:25:24Z</time></trkpt><trkpt lat="45.12684567833001" lon="7.659151906099889"><ele>242.0</ele><time>2026-04-19T08:25:25Z</time></trkpt><trkpt lat="45.127061729006" lon="7.659065598149516"><ele>242.0</ele><time>2026-04-19T08:25:26Z</time></trkpt><trkpt lat="45.12727514635972" lon="7.658977861026163"><ele>242.0</ele><time>2026-04-19T08:25:27Z</time></trkpt><trkpt lat="45.127495028950484" lon="7.658897742399842"><ele>242.0</ele><time>2026-04-19T08:25:28Z</time></trkpt><trkpt lat="45.127725220185795" lon="7.658814823981091"><ele>241.5</ele><time>2026-04-19T08:25:29Z</time></trkpt><trkpt lat="45.127948202340036" lon="7.6587198125464955"><ele>241.0</ele><time>2026-04-19T08:25:30Z</time></trkpt><trkpt lat="45.1281700053619" lon="7.658624156477852"><ele>241.5</ele><time>2026-04-19T08:25:31Z</time></trkpt><trkpt lat="45.12838865156002" lon="7.658529602796243"><ele>242.0</ele><time>2026-04-19T08:25:32Z</time></trkpt><trkpt lat="45.12859988755212" lon="7.658426715677813"><ele>242.0</ele><time>2026-04-19T08:25:33Z</time></trkpt><trkpt lat="45.12879952081682" lon="7.65831279126682"><ele>242.0</ele><time>2026-04-19T08:25:34Z</time></trkpt><trkpt lat="45.1289784246672" lon="7.658190809582116"><ele>242.0</ele><time>2026-04-19T08:25:35Z</time></trkpt><trkpt lat="45.129144364318876" lon="7.658065768872907"><ele>242.0</ele><time>2026-04-19T08:25:36Z</time></trkpt><trkpt lat="45.129295780388276" lon="7.657937818709278"><ele>242.0</ele><time>2026-04-19T08:25:37Z</time></trkpt><trkpt lat="45.12943636104703" lon="7.65781850202039"><ele>242.0</ele><time>2026-04-19T08:25:38Z</time></trkpt><trkpt lat="45.12956312988636" lon="7.657716876531815"><ele>241.8</ele><time>2026-04-19T08:25:39Z</time></trkpt><trkpt lat="45.12967898448638" lon="7.657624803649558"><ele>241.6</ele><time>2026-04-19T08:25:40Z</time></trkpt><trkpt lat="45.129771742837214" lon="7.657571761480291"><ele>241.40000000000003</ele><time>2026-04-19T08:25:41Z</time></trkpt><trkpt lat="45.12985914355605" lon="7.65753327917468"><ele>241.20000000000002</ele><time>2026-04-19T08:25:42Z</time></trkpt><trkpt lat="45.129938384243076" lon="7.657534784026585"><ele>241.0</ele><time>2026-04-19T08:25:43Z</time></trkpt><trkpt lat="45.130006451319" lon="7.657567877333742"><ele>240.99999999999997</ele><time>2026-04-19T08:25:44Z</time></trkpt><trkpt lat="45.13007278230546" lon="7.657658045094819"><ele>241.0</ele><time>2026-04-19T08:25:46Z</time></trkpt><trkpt lat="45.13010301391417" lon="7.657740508838891"><ele>241.0</ele><time>2026-04-19T08:25:48Z</time></trkpt><trkpt lat="45.13011274630637" lon="7.657838470103003"><ele>241.0</ele><time>2026-04-19T08:25:49Z</time></trkpt><trkpt lat="45.13011991228367" lon="7.657957446589838"><ele>240.99999999999997</ele><time>2026-04-19T08:25:50Z</time></trkpt><trkpt lat="45.13015098505197" lon="7.658078495881239"><ele>241.0</ele><time>2026-04-19T08:25:51Z</time></trkpt><trkpt lat="45.130206717898524" lon="7.65820663500503"><ele>241.0</ele><time>2026-04-19T08:25:52Z</time></trkpt><trkpt lat="45.13028666932944" lon="7.658326649168492"><ele>241.0</ele><time>2026-04-19T08:25:53Z</time></trkpt><trkpt lat="45.13038202648917" lon="7.658415112752192"><ele>241.0</ele><time>2026-04-19T08:25:54Z</time></trkpt><trkpt lat="45.130490924140986" lon="7.658454105642047"><ele>241.0</ele><time>2026-04-19T08:25:55Z</time></trkpt><trkpt lat="45.13063686842348" lon="7.658463527056367"><ele>241.0</ele><time>2026-04-19T08:25:56Z</time></trkpt><trkpt lat="45.130806748186856" lon="7.658448331181129"><ele>241.0</ele><time>2026-04-19T08:25:57Z</time></trkpt><trkpt lat="45.13095101067311" lon="7.658467055596979"><ele>241.0</ele><time>2026-04-19T08:25:58Z</time></trkpt><trkpt lat="45.131081698769165" lon="7.658519821536457"><ele>241.0</ele><time>2026-04-19T08:25:59Z</time></trkpt><trkpt lat="45.13122019480695" lon="7.65853048289078"><ele>241.0</ele><time>2026-04-19T08:26:00Z</time></trkpt><trkpt lat="45.13135306313039" lon="7.658482628197785"><ele>241.0</ele><time>2026-04-19T08:26:01Z</time></trkpt><trkpt lat="45.13145382053351" lon="7.658378448153973"><ele>241.0</ele><time>2026-04-19T08:26:02Z</time></trkpt><trkpt lat="45.13153366943914" lon="7.658218881997437"><ele>241.33333333333331</ele><time>2026-04-19T08:26:03Z</time></trkpt><trkpt lat="45.13158758883373" lon="7.658013801857298"><ele>241.66666666666669</ele><time>2026-04-19T08:26:04Z</time></trkpt><trkpt lat="45.13161682763159" lon="7.657768322311526"><ele>242.0</ele><time>2026-04-19T08:26:05Z</time></trkpt><trkpt lat="45.13166025965428" lon="7.657533202604397"><ele>241.33333333333334</ele><time>2026-04-19T08:26:06Z</time></trkpt><trkpt lat="45.13175187967928" lon="7.657352066270194"><ele>240.66666666666669</ele><time>2026-04-19T08:26:07Z</time></trkpt><trkpt lat="45.13187595250694" lon="7.657229816189807"><ele>240.0</ele><time>2026-04-19T08:26:08Z</time></trkpt><trkpt lat="45.132026058539566" lon="7.657148804403321"><ele>240.0</ele><time>2026-04-19T08:26:09Z</time></trkpt><trkpt lat="45.13218856516787" lon="7.657067043889184"><ele>240.0</ele><time>2026-04-19T08:26:10Z</time></trkpt><trkpt lat="45.13234963512406" lon="7.656980704357971"><ele>240.0</ele><time>2026-04-19T08:26:11Z</time></trkpt><trkpt lat="45.13252363728322" lon="7.656916495927256"><ele>240.0</ele><time>2026-04-19T08:26:12Z</time></trkpt><trkpt lat="45.13269339525202" lon="7.656858228582099"><ele>240.0</ele><time>2026-04-19T08:26:13Z</time></trkpt><trkpt lat="45.13284468037186" lon="7.65680262182545"><ele>240.0</ele><time>2026-04-19T08:26:14Z</time></trkpt><trkpt lat="45.13298349487859" lon="7.656751461610672"><ele>240.0</ele><time>2026-04-19T08:26:15Z</time></trkpt><trkpt lat="45.1331113025383" lon="7.656702988412905"><ele>240.0</ele><time>2026-04-19T08:26:16Z</time></trkpt><trkpt lat="45.13322448155129" lon="7.656662096195798"><ele>240.0</ele><time>2026-04-19T08:26:17Z</time></trkpt><trkpt lat="45.133317162450695" lon="7.656632280276209"><ele>240.0</ele><time>2026-04-19T08:26:18Z</time></trkpt><trkpt lat="45.1334109223334" lon="7.656620673464017"><ele>240.0</ele><time>2026-04-19T08:26:19Z</time></trkpt><trkpt lat="45.13349358859199" lon="7.656650861792917"><ele>240.0</ele><time>2026-04-19T08:26:20Z</time></trkpt><trkpt lat="45.13357109099711" lon="7.656712073141437"><ele>240.0</ele><time>2026-04-19T08:26:21Z</time></trkpt><trkpt lat="45.133635165227126" lon="7.656812776448805"><ele>240.0</ele><time>2026-04-19T08:26:22Z</time></trkpt><trkpt lat="45.133682174220475" lon="7.656946660678981"><ele>240.0</ele><time>2026-04-19T08:26:23Z</time></trkpt><trkpt lat="45.133727470798554" lon="7.65711673077193"><ele>240.0</ele><time>2026-04-19T08:26:24Z</time></trkpt><trkpt lat="45.13377837899644" lon="7.657297534481497"><ele>240.0</ele><time>2026-04-19T08:26:25Z</time></trkpt><trkpt lat="45.13384634643046" lon="7.65749596787998"><ele>240.0</ele><time>2026-04-19T08:26:26Z</time></trkpt><trkpt lat="45.13393972188303" lon="7.657691124280938"><ele>240.0</ele><time>2026-04-19T08:26:27Z</time></trkpt><trkpt lat="45.134050985717664" lon="7.657860635951555"><ele>240.66666666666669</ele><time>2026-04-19T08:26:28Z</time></trkpt><trkpt lat="45.13419353478556" lon="7.657998101322068"><ele>241.33333333333334</ele><time>2026-04-19T08:26:29Z</time></trkpt><trkpt lat="45.13434591261541" lon="7.658134585334364"><ele>242.0</ele><time>2026-04-19T08:26:30Z</time></trkpt><trkpt lat="45.134481783492234" lon="7.658266952650903"><ele>242.0</ele><time>2026-04-19T08:26:31Z</time></trkpt><trkpt lat="45.13458890527431" lon="7.658396495984445"><ele>242.0</ele><time>2026-04-19T08:26:32Z</time></trkpt><trkpt lat="45.134679419471624" lon="7.6585430883176295"><ele>242.0</ele><time>2026-04-19T08:26:33Z</time></trkpt><trkpt lat="45.134736209454665" lon="7.65869279580165"><ele>242.0</ele><time>2026-04-19T08:26:34Z</time></trkpt><trkpt lat="45.134767507709064" lon="7.65882380632373"><ele>242.2</ele><time>2026-04-19T08:26:35Z</time></trkpt><trkpt lat="45.13479258131428" lon="7.658918500423194"><ele>242.39999999999998</ele><time>2026-04-19T08:26:36Z</time></trkpt><trkpt lat="45.13485334525661" lon="7.6589909083351735"><ele>242.60000000000002</ele><time>2026-04-19T08:26:37Z</time></trkpt><trkpt lat="45.134932033329726" lon="7.659030029654666"><ele>242.8</ele><time>2026-04-19T08:26:38Z</time></trkpt><trkpt lat="45.135039479068844" lon="7.659014022961242"><ele>243.0</ele><time>2026-04-19T08:26:39Z</time></trkpt><trkpt lat="45.135171922466135" lon="7.658967770380224"><ele>243.25</ele><time>2026-04-19T08:26:40Z</time></trkpt><trkpt lat="45.13530704176842" lon="7.658933552845878"><ele>243.5</ele><time>2026-04-19T08:26:41Z</time></trkpt><trkpt lat="45.135447218091315" lon="7.658911962570562"><ele>243.75</ele><time>2026-04-19T08:26:42Z</time></trkpt><trkpt lat="45.13560739702732" lon="7.658905492358041"><ele>244.0</ele><time>2026-04-19T08:26:43Z</time></trkpt><trkpt lat="45.13576756930929" lon="7.6588994630477325"><ele>244.66666666666666</ele><time>2026-04-19T08:26:44Z</time></trkpt><trkpt lat="45.13592421710476" lon="7.658888338461436"><ele>245.33333333333331</ele><time>2026-04-19T08:26:45Z</time></trkpt><trkpt lat="45.136076661619896" lon="7.658872104879358"><ele>246.0</ele><time>2026-04-19T08:26:46Z</time></trkpt><trkpt lat="45.1362303934144" lon="7.6588566482083555"><ele>246.0</ele><time>2026-04-19T08:26:47Z</time></trkpt><trkpt lat="45.13638276913409" lon="7.658844671578257"><ele>246.0</ele><time>2026-04-19T08:26:48Z</time></trkpt><trkpt lat="45.13653620373757" lon="7.658829516557389"><ele>246.0</ele><time>2026-04-19T08:26:49Z</time></trkpt><trkpt lat="45.13668973233539" lon="7.6588159972581575"><ele>246.0</ele><time>2026-04-19T08:26:50Z</time></trkpt><trkpt lat="45.13684254691076" lon="7.658804105939405"><ele>246.0</ele><time>2026-04-19T08:26:51Z</time></trkpt><trkpt lat="45.13699463129417" lon="7.658791958199895"><ele>246.0</ele><time>2026-04-19T08:26:52Z</time></trkpt><trkpt lat="45.1371482436631" lon="7.658777666378397"><ele>246.0</ele><time>2026-04-19T08:26:53Z</time></trkpt><trkpt lat="45.137304298285244" lon="7.658762051848983"><ele>246.0</ele><time>2026-04-19T08:26:54Z</time></trkpt><trkpt lat="45.13745731661516" lon="7.6587480336590525"><ele>246.0</ele><time>2026-04-19T08:26:55Z</time></trkpt><trkpt lat="45.13759560116885" lon="7.658737340991442"><ele>246.0</ele><time>2026-04-19T08:26:56Z</time></trkpt><trkpt lat="45.137718920711926" lon="7.658728751680304"><ele>246.33333333333334</ele><time>2026-04-19T08:26:57Z</time></trkpt><trkpt lat="45.13782102652497" lon="7.658725680402241"><ele>246.66666666666669</ele><time>2026-04-19T08:26:58Z</time></trkpt><trkpt lat="45.13789832410213" lon="7.6587276506454165"><ele>247.0</ele><time>2026-04-19T08:26:59Z</time></trkpt><trkpt lat="45.137969744465266" lon="7.6587348982939485"><ele>247.33333333333334</ele><time>2026-04-19T08:27:00Z</time></trkpt><trkpt lat="45.13805574181807" lon="7.658728486903037"><ele>247.66666666666669</ele><time>2026-04-19T08:27:01Z</time></trkpt><trkpt lat="45.13815735926482" lon="7.65871383432378"><ele>248.0</ele><time>2026-04-19T08:27:02Z</time></trkpt><trkpt lat="45.13827574237627" lon="7.65869792727338"><ele>248.0</ele><time>2026-04-19T08:27:03Z</time></trkpt><trkpt lat="45.13840663262082" lon="7.658689661716664"><ele>248.0</ele><time>2026-04-19T08:27:04Z</time></trkpt><trkpt lat="45.138544312188785" lon="7.658674071309743"><ele>248.0</ele><time>2026-04-19T08:27:05Z</time></trkpt><trkpt lat="45.1386835344375" lon="7.6586602351583695"><ele>248.0</ele><time>2026-04-19T08:27:06Z</time></trkpt><trkpt lat="45.138830802865776" lon="7.658645154170188"><ele>248.0</ele><time>2026-04-19T08:27:07Z</time></trkpt><trkpt lat="45.138985587895185" lon="7.658628373660279"><ele>248.0</ele><time>2026-04-19T08:27:08Z</time></trkpt><trkpt lat="45.13914471540469" lon="7.658613374144782"><ele>248.0</ele><time>2026-04-19T08:27:09Z</time></trkpt><trkpt lat="45.13929893296991" lon="7.658595490581322"><ele>248.0</ele><time>2026-04-19T08:27:10Z</time></trkpt><trkpt lat="45.13945440120525" lon="7.65857831863407"><ele>248.0</ele><time>2026-04-19T08:27:11Z</time></trkpt><trkpt lat="45.13960271794709" lon="7.658570043664319"><ele>248.0</ele><time>2026-04-19T08:27:12Z</time></trkpt><trkpt lat="45.13973551484529" lon="7.658565932976726"><ele>248.0</ele><time>2026-04-19T08:27:13Z</time></trkpt><trkpt lat="45.139851012548455" lon="7.658554225937213"><ele>248.0</ele><time>2026-04-19T08:27:14Z</time></trkpt><trkpt lat="45.139951306375934" lon="7.658540272736549"><ele>248.0</ele><time>2026-04-19T08:27:15Z</time></trkpt><trkpt lat="45.140037082578644" lon="7.658553666966002"><ele>248.0</ele><time>2026-04-19T08:27:16Z</time></trkpt><trkpt lat="45.14011731266285" lon="7.658591415654302"><ele>248.0</ele><time>2026-04-19T08:27:17Z</time></trkpt><trkpt lat="45.14021551976483" lon="7.658611414833726"><ele>248.0</ele><time>2026-04-19T08:27:18Z</time></trkpt><trkpt lat="45.14033835021456" lon="7.658592500199313"><ele>248.0</ele><time>2026-04-19T08:27:19Z</time></trkpt><trkpt lat="45.14045491374946" lon="7.658623431078997"><ele>248.0</ele><time>2026-04-19T08:27:20Z</time></trkpt><trkpt lat="45.140613225634695" lon="7.658645079815864"><ele>248.0</ele><time>2026-04-19T08:27:21Z</time></trkpt><trkpt lat="45.14076848999682" lon="7.658697053837107"><ele>248.0</ele><time>2026-04-19T08:27:22Z</time></trkpt><trkpt lat="45.14093730795255" lon="7.6587493857666225"><ele>248.25</ele><time>2026-04-19T08:27:23Z</time></trkpt><trkpt lat="45.1410901353571" lon="7.658787658603228"><ele>248.5</ele><time>2026-04-19T08:27:24Z</time></trkpt><trkpt lat="45.14120886332132" lon="7.658818640540747"><ele>248.75</ele><time>2026-04-19T08:27:25Z</time></trkpt><trkpt lat="45.14130617701641" lon="7.6588496694707064"><ele>249.0</ele><time>2026-04-19T08:27:26Z</time></trkpt><trkpt lat="45.14138634467643" lon="7.65888353119802"><ele>249.0</ele><time>2026-04-19T08:27:27Z</time></trkpt><trkpt lat="45.141462241346645" lon="7.658923175996278"><ele>248.99999999999997</ele><time>2026-04-19T08:27:28Z</time></trkpt><trkpt lat="45.141548854805805" lon="7.658987510429428"><ele>248.99999999999997</ele><time>2026-04-19T08:27:29Z</time></trkpt><trkpt lat="45.14166706412284" lon="7.658932221902682"><ele>249.0</ele><time>2026-04-19T08:27:30Z</time></trkpt><trkpt lat="45.1417969744496" lon="7.658925644958496"><ele>249.0</ele><time>2026-04-19T08:27:31Z</time></trkpt><trkpt lat="45.1419367739244" lon="7.6589320756382975"><ele>249.0</ele><time>2026-04-19T08:27:32Z</time></trkpt><trkpt lat="45.14207878120446" lon="7.658949637390361"><ele>249.0</ele><time>2026-04-19T08:27:33Z</time></trkpt><trkpt lat="45.14222403227779" lon="7.658945243892233"><ele>249.0</ele><time>2026-04-19T08:27:34Z</time></trkpt><trkpt lat="45.142378722992525" lon="7.658927845497238"><ele>249.0</ele><time>2026-04-19T08:27:35Z</time></trkpt><trkpt lat="45.14254097395981" lon="7.658907228143748"><ele>249.33333333333331</ele><time>2026-04-19T08:27:36Z</time></trkpt><trkpt lat="45.14270171550889" lon="7.658877094908008"><ele>249.66666666666666</ele><time>2026-04-19T08:27:37Z</time></trkpt><trkpt lat="45.142865990523006" lon="7.658874602273841"><ele>250.0</ele><time>2026-04-19T08:27:38Z</time></trkpt><trkpt lat="45.143020095852876" lon="7.65885112665107"><ele>250.0</ele><time>2026-04-19T08:27:39Z</time></trkpt><trkpt lat="45.1431766529109" lon="7.658821187019012"><ele>250.0</ele><time>2026-04-19T08:27:40Z</time></trkpt><trkpt lat="45.14333433418145" lon="7.658791645572701"><ele>250.0</ele><time>2026-04-19T08:27:41Z</time></trkpt><trkpt lat="45.14349282460339" lon="7.658764096066721"><ele>250.33333333333331</ele><time>2026-04-19T08:27:42Z</time></trkpt><trkpt lat="45.143648813698455" lon="7.658736981351473"><ele>250.66666666666669</ele><time>2026-04-19T08:27:43Z</time></trkpt><trkpt lat="45.14380438606958" lon="7.658688723879052"><ele>251.0</ele><time>2026-04-19T08:27:44Z</time></trkpt><trkpt lat="45.14396338396742" lon="7.658682301353056"><ele>251.0</ele><time>2026-04-19T08:27:45Z</time></trkpt><trkpt lat="45.144122968496504" lon="7.658635602721695"><ele>251.0</ele><time>2026-04-19T08:27:46Z</time></trkpt><trkpt lat="45.144284315245976" lon="7.658611800331605"><ele>251.0</ele><time>2026-04-19T08:27:47Z</time></trkpt><trkpt lat="45.14444779938345" lon="7.658586082573926"><ele>251.0</ele><time>2026-04-19T08:27:48Z</time></trkpt><trkpt lat="45.144590240481975" lon="7.658559402541266"><ele>251.0</ele><time>2026-04-19T08:27:49Z</time></trkpt><trkpt lat="45.14472095358878" lon="7.658535394864125"><ele>251.0</ele><time>2026-04-19T08:27:50Z</time></trkpt><trkpt lat="45.14483617842451" lon="7.658513041499057"><ele>251.0</ele><time>2026-04-19T08:27:51Z</time></trkpt><trkpt lat="45.14493141093713" lon="7.65849251960277"><ele>250.8</ele><time>2026-04-19T08:27:52Z</time></trkpt><trkpt lat="45.14499603779164" lon="7.658478800799784"><ele>250.60000000000002</ele><time>2026-04-19T08:27:53Z</time></trkpt><trkpt lat="45.145119330860695" lon="7.658461829782803"><ele>250.4</ele><time>2026-04-19T08:27:55Z</time></trkpt><trkpt lat="45.145203650613404" lon="7.658441567483087"><ele>250.2</ele><time>2026-04-19T08:27:56Z</time></trkpt><trkpt lat="45.145294777908944" lon="7.658424710107593"><ele>250.0</ele><time>2026-04-19T08:27:57Z</time></trkpt><trkpt lat="45.14538972551057" lon="7.658398579918835"><ele>250.0</ele><time>2026-04-19T08:27:58Z</time></trkpt><trkpt lat="45.14550414737557" lon="7.658367458916959"><ele>250.0</ele><time>2026-04-19T08:27:59Z</time></trkpt><trkpt lat="45.14562412574771" lon="7.6583394590715805"><ele>250.0</ele><time>2026-04-19T08:28:00Z</time></trkpt><trkpt lat="45.14574412331182" lon="7.658310205767104"><ele>250.0</ele><time>2026-04-19T08:28:01Z</time></trkpt><trkpt lat="45.14585925871707" lon="7.658278097727372"><ele>250.8</ele><time>2026-04-19T08:28:02Z</time></trkpt><trkpt lat="45.14597170194984" lon="7.65824900535157"><ele>251.6</ele><time>2026-04-19T08:28:03Z</time></trkpt><trkpt lat="45.14607913826383" lon="7.658230070047966"><ele>252.39999999999998</ele><time>2026-04-19T08:28:04Z</time></trkpt><trkpt lat="45.14617167231009" lon="7.658207872601634"><ele>253.2</ele><time>2026-04-19T08:28:05Z</time></trkpt><trkpt lat="45.14624891348865" lon="7.658190487261076"><ele>254.0</ele><time>2026-04-19T08:28:06Z</time></trkpt><trkpt lat="45.14631493350604" lon="7.6581764396057395"><ele>254.0</ele><time>2026-04-19T08:28:07Z</time></trkpt><trkpt lat="45.14640347161026" lon="7.658153775498597"><ele>253.99999999999997</ele><time>2026-04-19T08:28:09Z</time></trkpt><trkpt lat="45.14648943733671" lon="7.658117277438097"><ele>253.99999999999997</ele><time>2026-04-19T08:28:11Z</time></trkpt><trkpt lat="45.14658853104139" lon="7.658214233681021"><ele>254.0</ele><time>2026-04-19T08:28:13Z</time></trkpt><trkpt lat="45.146585077276846" lon="7.658347369006153"><ele>254.0</ele><time>2026-04-19T08:28:14Z</time></trkpt><trkpt lat="45.14659281776105" lon="7.658485331610831"><ele>254.0</ele><time>2026-04-19T08:28:15Z</time></trkpt><trkpt lat="45.146596116495985" lon="7.658633017174395"><ele>253.99999999999997</ele><time>2026-04-19T08:28:16Z</time></trkpt><trkpt lat="45.14659895296277" lon="7.658775004052958"><ele>253.99999999999997</ele><time>2026-04-19T08:28:17Z</time></trkpt><trkpt lat="45.14661534304951" lon="7.658908297035698"><ele>254.0</ele><time>2026-04-19T08:28:18Z</time></trkpt><trkpt lat="45.1466263912906" lon="7.659026492932103"><ele>254.0</ele><time>2026-04-19T08:28:19Z</time></trkpt><trkpt lat="45.14664161305886" lon="7.659139433606307"><ele>254.0</ele><time>2026-04-19T08:28:20Z</time></trkpt><trkpt lat="45.14666947435458" lon="7.659245746813342"><ele>254.0</ele><time>2026-04-19T08:28:21Z</time></trkpt><trkpt lat="45.14670117508367" lon="7.659348341341014"><ele>254.0</ele><time>2026-04-19T08:28:22Z</time></trkpt><trkpt lat="45.14672093619359" lon="7.659447457189091"><ele>254.0</ele><time>2026-04-19T08:28:23Z</time></trkpt><trkpt lat="45.146726146351085" lon="7.659552084875664"><ele>254.0</ele><time>2026-04-19T08:28:24Z</time></trkpt><trkpt lat="45.14673506540447" lon="7.659648483491719"><ele>254.0</ele><time>2026-04-19T08:28:25Z</time></trkpt><trkpt lat="45.14675497156698" lon="7.659736691700177"><ele>254.0</ele><time>2026-04-19T08:28:26Z</time></trkpt><trkpt lat="45.14685351797132" lon="7.65981757504569"><ele>253.83333333333334</ele><time>2026-04-19T08:28:28Z</time></trkpt><trkpt lat="45.14692228515508" lon="7.659847777402361"><ele>253.66666666666669</ele><time>2026-04-19T08:28:29Z</time></trkpt><trkpt lat="45.14698873400387" lon="7.659887999745333"><ele>253.5</ele><time>2026-04-19T08:28:30Z</time></trkpt><trkpt lat="45.14706064264426" lon="7.6599431231393345"><ele>253.33333333333331</ele><time>2026-04-19T08:28:31Z</time></trkpt><trkpt lat="45.147143957725135" lon="7.660009119889102"><ele>253.16666666666666</ele><time>2026-04-19T08:28:32Z</time></trkpt><trkpt lat="45.14723495732374" lon="7.660088804899521"><ele>253.0</ele><time>2026-04-19T08:28:33Z</time></trkpt><trkpt lat="45.147331189669224" lon="7.660170136698426"><ele>253.2</ele><time>2026-04-19T08:28:34Z</time></trkpt><trkpt lat="45.14743578313531" lon="7.660252236576745"><ele>253.4</ele><time>2026-04-19T08:28:35Z</time></trkpt><trkpt lat="45.14752369982763" lon="7.660320107991293"><ele>253.59999999999997</ele><time>2026-04-19T08:28:36Z</time></trkpt><trkpt lat="45.1476145492919" lon="7.660399514742007"><ele>253.79999999999998</ele><time>2026-04-19T08:28:37Z</time></trkpt><trkpt lat="45.14770988076798" lon="7.660477168338902"><ele>254.0</ele><time>2026-04-19T08:28:38Z</time></trkpt><trkpt lat="45.14780612600157" lon="7.660552118958246"><ele>254.0</ele><time>2026-04-19T08:28:39Z</time></trkpt><trkpt lat="45.14790450775989" lon="7.660627389262388"><ele>253.99999999999997</ele><time>2026-04-19T08:28:40Z</time></trkpt><trkpt lat="45.147995133496515" lon="7.660718555749185"><ele>253.99999999999997</ele><time>2026-04-19T08:28:41Z</time></trkpt><trkpt lat="45.14809603135011" lon="7.660768292789272"><ele>254.0</ele><time>2026-04-19T08:28:42Z</time></trkpt><trkpt lat="45.14816942418423" lon="7.660854606311621"><ele>254.0</ele><time>2026-04-19T08:28:43Z</time></trkpt><trkpt lat="45.14825605730416" lon="7.660925116444544"><ele>253.79999999999998</ele><time>2026-04-19T08:28:44Z</time></trkpt><trkpt lat="45.14834717879386" lon="7.660993744532102"><ele>253.59999999999997</ele><time>2026-04-19T08:28:45Z</time></trkpt><trkpt lat="45.14843611386755" lon="7.661065127805665"><ele>253.4</ele><time>2026-04-19T08:28:46Z</time></trkpt><trkpt lat="45.14852556279391" lon="7.661135108051434"><ele>253.2</ele><time>2026-04-19T08:28:47Z</time></trkpt><trkpt lat="45.148612830612976" lon="7.661202500351231"><ele>253.0</ele><time>2026-04-19T08:28:48Z</time></trkpt><trkpt lat="45.14869356317711" lon="7.661266140404702"><ele>253.16666666666666</ele><time>2026-04-19T08:28:49Z</time></trkpt><trkpt lat="45.148768195006404" lon="7.6613249496400355"><ele>253.33333333333331</ele><time>2026-04-19T08:28:50Z</time></trkpt><trkpt lat="45.148833180652666" lon="7.661376977866411"><ele>253.5</ele><time>2026-04-19T08:28:51Z</time></trkpt><trkpt lat="45.148930628055666" lon="7.661437672363351"><ele>253.66666666666669</ele><time>2026-04-19T08:28:53Z</time></trkpt><trkpt lat="45.14902469737519" lon="7.661460536433163"><ele>253.83333333333334</ele><time>2026-04-19T08:28:55Z</time></trkpt><trkpt lat="45.14908758455392" lon="7.66147203811761"><ele>254.0</ele><time>2026-04-19T08:28:56Z</time></trkpt><trkpt lat="45.14916115311461" lon="7.6614536912681865"><ele>254.0</ele><time>2026-04-19T08:28:57Z</time></trkpt><trkpt lat="45.14924734547675" lon="7.661429211272884"><ele>254.0</ele><time>2026-04-19T08:28:58Z</time></trkpt><trkpt lat="45.14934696861421" lon="7.661401327390108"><ele>254.0</ele><time>2026-04-19T08:28:59Z</time></trkpt><trkpt lat="45.149470251570015" lon="7.661367301304784"><ele>254.0</ele><time>2026-04-19T08:29:00Z</time></trkpt><trkpt lat="45.14962293751961" lon="7.661324922885064"><ele>254.0</ele><time>2026-04-19T08:29:01Z</time></trkpt><trkpt lat="45.14977011501507" lon="7.661279378002739"><ele>254.0</ele><time>2026-04-19T08:29:02Z</time></trkpt><trkpt lat="45.14990551373588" lon="7.66123218879599"><ele>254.0</ele><time>2026-04-19T08:29:03Z</time></trkpt><trkpt lat="45.15002239187247" lon="7.661177601172663"><ele>254.0</ele><time>2026-04-19T08:29:04Z</time></trkpt><trkpt lat="45.15011007114108" lon="7.661099583921098"><ele>253.66666666666669</ele><time>2026-04-19T08:29:05Z</time></trkpt><trkpt lat="45.1501940053817" lon="7.661052111211032"><ele>253.33333333333334</ele><time>2026-04-19T08:29:06Z</time></trkpt><trkpt lat="45.15025384015608" lon="7.661010204350353"><ele>253.0</ele><time>2026-04-19T08:29:07Z</time></trkpt><trkpt lat="45.15031458861563" lon="7.66098050514957"><ele>252.66666666666669</ele><time>2026-04-19T08:29:08Z</time></trkpt><trkpt lat="45.15043851465932" lon="7.661002446489694"><ele>252.33333333333334</ele><time>2026-04-19T08:29:10Z</time></trkpt><trkpt lat="45.15051754732688" lon="7.66096832902809"><ele>252.0</ele><time>2026-04-19T08:29:11Z</time></trkpt><trkpt lat="45.15057586751817" lon="7.660884707060774"><ele>252.0</ele><time>2026-04-19T08:29:12Z</time></trkpt><trkpt lat="45.150662767061824" lon="7.6607865561347195"><ele>252.0</ele><time>2026-04-19T08:29:13Z</time></trkpt><trkpt lat="45.15076037988421" lon="7.660690699838602"><ele>252.0</ele><time>2026-04-19T08:29:14Z</time></trkpt><trkpt lat="45.15085968166072" lon="7.660607851342603"><ele>252.0</ele><time>2026-04-19T08:29:15Z</time></trkpt><trkpt lat="45.15096439405117" lon="7.660551701912192"><ele>252.6</ele><time>2026-04-19T08:29:16Z</time></trkpt><trkpt lat="45.151049093776635" lon="7.660507160785751"><ele>253.2</ele><time>2026-04-19T08:29:17Z</time></trkpt><trkpt lat="45.151109927539835" lon="7.660464936757277"><ele>253.8</ele><time>2026-04-19T08:29:18Z</time></trkpt><trkpt lat="45.15122524967034" lon="7.660418626679208"><ele>254.4</ele><time>2026-04-19T08:29:20Z</time></trkpt><trkpt lat="45.151301232222764" lon="7.66037778366682"><ele>255.0</ele><time>2026-04-19T08:29:21Z</time></trkpt><trkpt lat="45.15137161828865" lon="7.660292932901815"><ele>255.2</ele><time>2026-04-19T08:29:22Z</time></trkpt><trkpt lat="45.151453199258384" lon="7.660211656711684"><ele>255.4</ele><time>2026-04-19T08:29:23Z</time></trkpt><trkpt lat="45.1515436607117" lon="7.660133881341941"><ele>255.60000000000002</ele><time>2026-04-19T08:29:24Z</time></trkpt><trkpt lat="45.15163870708888" lon="7.660060592183175"><ele>255.8</ele><time>2026-04-19T08:29:25Z</time></trkpt><trkpt lat="45.15172510809935" lon="7.659995323818101"><ele>256.0</ele><time>2026-04-19T08:29:26Z</time></trkpt><trkpt lat="45.15180632906044" lon="7.659936744965518"><ele>256.2</ele><time>2026-04-19T08:29:27Z</time></trkpt><trkpt lat="45.15188959002256" lon="7.659874307145358"><ele>256.40000000000003</ele><time>2026-04-19T08:29:28Z</time></trkpt><trkpt lat="45.15198238171014" lon="7.659807845824084"><ele>256.6</ele><time>2026-04-19T08:29:29Z</time></trkpt><trkpt lat="45.15207158964093" lon="7.65972591487417"><ele>256.8</ele><time>2026-04-19T08:29:30Z</time></trkpt><trkpt lat="45.152159236460875" lon="7.6596610780669065"><ele>257.0</ele><time>2026-04-19T08:29:31Z</time></trkpt><trkpt lat="45.152236207917696" lon="7.659620602792173"><ele>257.0</ele><time>2026-04-19T08:29:32Z</time></trkpt><trkpt lat="45.15230224039673" lon="7.659605412922466"><ele>257.0</ele><time>2026-04-19T08:29:33Z</time></trkpt><trkpt lat="45.152403767912" lon="7.659506805599437"><ele>257.0</ele><time>2026-04-19T08:29:35Z</time></trkpt><trkpt lat="45.15245594109974" lon="7.659432865670098"><ele>257.0</ele><time>2026-04-19T08:29:36Z</time></trkpt><trkpt lat="45.152523369619935" lon="7.659386747712018"><ele>257.0</ele><time>2026-04-19T08:29:37Z</time></trkpt><trkpt lat="45.152602379783644" lon="7.659338608550161"><ele>257.0</ele><time>2026-04-19T08:29:38Z</time></trkpt><trkpt lat="45.152677198868155" lon="7.65927824679899"><ele>257.25</ele><time>2026-04-19T08:29:39Z</time></trkpt><trkpt lat="45.15275644989124" lon="7.659210367757926"><ele>257.5</ele><time>2026-04-19T08:29:40Z</time></trkpt><trkpt lat="45.15286582869141" lon="7.659150238677488"><ele>257.75</ele><time>2026-04-19T08:29:41Z</time></trkpt><trkpt lat="45.152983723590744" lon="7.659059375095199"><ele>258.0</ele><time>2026-04-19T08:29:42Z</time></trkpt><trkpt lat="45.153111436333184" lon="7.658956279730996"><ele>258.25</ele><time>2026-04-19T08:29:43Z</time></trkpt><trkpt lat="45.15323035944454" lon="7.658848432379637"><ele>258.5</ele><time>2026-04-19T08:29:44Z</time></trkpt><trkpt lat="45.15335785290022" lon="7.658771383647861"><ele>258.75</ele><time>2026-04-19T08:29:45Z</time></trkpt><trkpt lat="45.15343031963635" lon="7.65869151330476"><ele>259.0</ele><time>2026-04-19T08:29:46Z</time></trkpt><trkpt lat="45.15351603508966" lon="7.658619100516276"><ele>259.66666666666663</ele><time>2026-04-19T08:29:47Z</time></trkpt><trkpt lat="45.153592381204994" lon="7.658554602984655"><ele>260.3333333333333</ele><time>2026-04-19T08:29:48Z</time></trkpt><trkpt lat="45.15365991071132" lon="7.658497553769282"><ele>261.0</ele><time>2026-04-19T08:29:49Z</time></trkpt><trkpt lat="45.15372325525395" lon="7.658444040022527"><ele>261.6666666666667</ele><time>2026-04-19T08:29:50Z</time></trkpt><trkpt lat="45.15378354240193" lon="7.658392872039478"><ele>262.33333333333337</ele><time>2026-04-19T08:29:51Z</time></trkpt><trkpt lat="45.153845763928615" lon="7.658339736596308"><ele>263.0</ele><time>2026-04-19T08:29:52Z</time></trkpt><trkpt lat="45.15393686400593" lon="7.6582619407888854"><ele>263.0</ele><time>2026-04-19T08:29:54Z</time></trkpt><trkpt lat="45.15402300843663" lon="7.658195979310062"><ele>263.0</ele><time>2026-04-19T08:29:56Z</time></trkpt><trkpt lat="45.154142819337714" lon="7.658107349218976"><ele>263.0</ele><time>2026-04-19T08:29:58Z</time></trkpt><trkpt lat="45.154222492238965" lon="7.658058959577218"><ele>263.0</ele><time>2026-04-19T08:29:59Z</time></trkpt><trkpt lat="45.15431930517954" lon="7.658008801988189"><ele>263.0</ele><time>2026-04-19T08:30:00Z</time></trkpt><trkpt lat="45.15442201484913" lon="7.657960287622372"><ele>262.0</ele><time>2026-04-19T08:30:01Z</time></trkpt><trkpt lat="45.154530085421754" lon="7.657910476303163"><ele>261.0</ele><time>2026-04-19T08:30:02Z</time></trkpt><trkpt lat="45.154641632430724" lon="7.657871341957725"><ele>260.0</ele><time>2026-04-19T08:30:03Z</time></trkpt><trkpt lat="45.15475363059806" lon="7.657868416020921"><ele>259.0</ele><time>2026-04-19T08:30:04Z</time></trkpt><trkpt lat="45.15487969882144" lon="7.657863168852086"><ele>259.0</ele><time>2026-04-19T08:30:05Z</time></trkpt><trkpt lat="45.1550122127285" lon="7.657859591010033"><ele>259.0</ele><time>2026-04-19T08:30:06Z</time></trkpt><trkpt lat="45.155149584970225" lon="7.657855881994349"><ele>259.0</ele><time>2026-04-19T08:30:07Z</time></trkpt><trkpt lat="45.15530128021584" lon="7.657831847847283"><ele>259.0</ele><time>2026-04-19T08:30:08Z</time></trkpt><trkpt lat="45.155435720459934" lon="7.657838573976686"><ele>259.0</ele><time>2026-04-19T08:30:09Z</time></trkpt><trkpt lat="45.15556712269127" lon="7.657868546045918"><ele>259.0</ele><time>2026-04-19T08:30:10Z</time></trkpt><trkpt lat="45.15569038987713" lon="7.657878190618719"><ele>259.0</ele><time>2026-04-19T08:30:11Z</time></trkpt><trkpt lat="45.15580594015586" lon="7.657873350246614"><ele>259.0</ele><time>2026-04-19T08:30:12Z</time></trkpt><trkpt lat="45.1559043881075" lon="7.657898208472313"><ele>259.0</ele><time>2026-04-19T08:30:13Z</time></trkpt><trkpt lat="45.15598603511671" lon="7.657923121282087"><ele>259.0</ele><time>2026-04-19T08:30:14Z</time></trkpt><trkpt lat="45.15605975131435" lon="7.657951228267019"><ele>259.0</ele><time>2026-04-19T08:30:15Z</time></trkpt><trkpt lat="45.15614744429908" lon="7.657980768319757"><ele>259.0</ele><time>2026-04-19T08:30:16Z</time></trkpt><trkpt lat="45.1562515450594" lon="7.657996637131366"><ele>259.0</ele><time>2026-04-19T08:30:17Z</time></trkpt><trkpt lat="45.156370273296744" lon="7.658038528197198"><ele>259.0</ele><time>2026-04-19T08:30:18Z</time></trkpt><trkpt lat="45.15647630366348" lon="7.658076230086514"><ele>259.0</ele><time>2026-04-19T08:30:19Z</time></trkpt><trkpt lat="45.156561165223984" lon="7.658104990116919"><ele>259.0</ele><time>2026-04-19T08:30:20Z</time></trkpt><trkpt lat="45.15667257336686" lon="7.658195252062722"><ele>259.0</ele><time>2026-04-19T08:30:22Z</time></trkpt><trkpt lat="45.156725411989456" lon="7.65825383076077"><ele>259.0</ele><time>2026-04-19T08:30:23Z</time></trkpt><trkpt lat="45.15683742149526" lon="7.658248563920203"><ele>259.2</ele><time>2026-04-19T08:30:25Z</time></trkpt><trkpt lat="45.156878118329494" lon="7.6580912540390935"><ele>259.4</ele><time>2026-04-19T08:30:27Z</time></trkpt><trkpt lat="45.15685236690761" lon="7.657939569051674"><ele>259.6</ele><time>2026-04-19T08:30:29Z</time></trkpt><trkpt lat="45.15671202825372" lon="7.657923430058638"><ele>259.8</ele><time>2026-04-19T08:30:30Z</time></trkpt><trkpt lat="45.156644731686974" lon="7.657968038515"><ele>260.0</ele><time>2026-04-19T08:30:31Z</time></trkpt><trkpt lat="45.15662374483618" lon="7.6580654461287185"><ele>260.0</ele><time>2026-04-19T08:30:32Z</time></trkpt><trkpt lat="45.15664727696838" lon="7.658220990942922"><ele>260.0</ele><time>2026-04-19T08:30:34Z</time></trkpt><trkpt lat="45.156691835699164" lon="7.658305221469204"><ele>260.0</ele><time>2026-04-19T08:30:35Z</time></trkpt><trkpt lat="45.15674648226095" lon="7.658402971597172"><ele>260.0</ele><time>2026-04-19T08:30:37Z</time></trkpt><trkpt lat="45.15674750679412" lon="7.658579660029947"><ele>260.0</ele><time>2026-04-19T08:30:39Z</time></trkpt><trkpt lat="45.15674963993477" lon="7.6587066121942975"><ele>260.0</ele><time>2026-04-19T08:30:40Z</time></trkpt><trkpt lat="45.156753368811636" lon="7.658852877376438"><ele>260.0</ele><time>2026-04-19T08:30:41Z</time></trkpt><trkpt lat="45.15675529985303" lon="7.659002683054732"><ele>260.0</ele><time>2026-04-19T08:30:42Z</time></trkpt><trkpt lat="45.156756734328326" lon="7.6591484750098795"><ele>260.0</ele><time>2026-04-19T08:30:43Z</time></trkpt><trkpt lat="45.15675661802759" lon="7.659298615588394"><ele>260.0</ele><time>2026-04-19T08:30:44Z</time></trkpt><trkpt lat="45.15675461367416" lon="7.6594584113368445"><ele>259.6</ele><time>2026-04-19T08:30:45Z</time></trkpt><trkpt lat="45.15674606774367" lon="7.659613958404238"><ele>259.2</ele><time>2026-04-19T08:30:46Z</time></trkpt><trkpt lat="45.15672713103711" lon="7.659758684796168"><ele>258.8</ele><time>2026-04-19T08:30:47Z</time></trkpt><trkpt lat="45.15670403216156" lon="7.659898339791108"><ele>258.4</ele><time>2026-04-19T08:30:48Z</time></trkpt><trkpt lat="45.15667226898137" lon="7.660034458075647"><ele>258.0</ele><time>2026-04-19T08:30:49Z</time></trkpt><trkpt lat="45.156637607579114" lon="7.660164694242115"><ele>258.0</ele><time>2026-04-19T08:30:50Z</time></trkpt><trkpt lat="45.15660192275154" lon="7.660278518731562"><ele>258.0</ele><time>2026-04-19T08:30:51Z</time></trkpt><trkpt lat="45.15656989278975" lon="7.660366714045448"><ele>258.0</ele><time>2026-04-19T08:30:52Z</time></trkpt><trkpt lat="45.156528795738005" lon="7.660442967879515"><ele>258.0</ele><time>2026-04-19T08:30:54Z</time></trkpt><trkpt lat="45.15661465128579" lon="7.6605140013376225"><ele>258.0</ele><time>2026-04-19T08:30:57Z</time></trkpt><trkpt lat="45.15641830680325" lon="7.6606712611809575"><ele>257.6</ele><time>2026-04-19T08:31:21Z</time></trkpt><trkpt lat="45.15634428523155" lon="7.6607535130175535"><ele>257.20000000000005</ele><time>2026-04-19T08:31:22Z</time></trkpt><trkpt lat="45.15626429199151" lon="7.660850921842309"><ele>256.8</ele><time>2026-04-19T08:31:23Z</time></trkpt><trkpt lat="45.15617708529287" lon="7.660945628222581"><ele>256.40000000000003</ele><time>2026-04-19T08:31:24Z</time></trkpt><trkpt lat="45.15608304544015" lon="7.661032207449263"><ele>256.0</ele><time>2026-04-19T08:31:25Z</time></trkpt><trkpt lat="45.15597806670581" lon="7.66110226688123"><ele>256.0</ele><time>2026-04-19T08:31:26Z</time></trkpt><trkpt lat="45.15586651173474" lon="7.661173141256719"><ele>256.0</ele><time>2026-04-19T08:31:27Z</time></trkpt><trkpt lat="45.155760757988716" lon="7.661229347759932"><ele>256.0</ele><time>2026-04-19T08:31:28Z</time></trkpt><trkpt lat="45.15565302224452" lon="7.661306106760047"><ele>256.0</ele><time>2026-04-19T08:31:29Z</time></trkpt><trkpt lat="45.155549059205875" lon="7.661378646892929"><ele>256.25</ele><time>2026-04-19T08:31:30Z</time></trkpt><trkpt lat="45.15543513127931" lon="7.6614654681348275"><ele>256.5</ele><time>2026-04-19T08:31:31Z</time></trkpt><trkpt lat="45.155318707946996" lon="7.661544229574818"><ele>256.75</ele><time>2026-04-19T08:31:32Z</time></trkpt><trkpt lat="45.15520248361446" lon="7.6616223342259095"><ele>257.0</ele><time>2026-04-19T08:31:33Z</time></trkpt><trkpt lat="45.15509057741038" lon="7.6616997405086265"><ele>257.0</ele><time>2026-04-19T08:31:34Z</time></trkpt><trkpt lat="45.15498865112254" lon="7.661772611489402"><ele>257.0</ele><time>2026-04-19T08:31:35Z</time></trkpt><trkpt lat="45.15489789949778" lon="7.6618353306817895"><ele>257.0</ele><time>2026-04-19T08:31:36Z</time></trkpt><trkpt lat="45.15481308637769" lon="7.661890856784441"><ele>257.0</ele><time>2026-04-19T08:31:37Z</time></trkpt><trkpt lat="45.15472925385557" lon="7.661944878221567"><ele>257.0</ele><time>2026-04-19T08:31:38Z</time></trkpt><trkpt lat="45.154646037187334" lon="7.662000302005852"><ele>256.8</ele><time>2026-04-19T08:31:39Z</time></trkpt><trkpt lat="45.15456790841671" lon="7.662049799787116"><ele>256.6</ele><time>2026-04-19T08:31:40Z</time></trkpt><trkpt lat="45.154482882640565" lon="7.66210998486752"><ele>256.40000000000003</ele><time>2026-04-19T08:31:42Z</time></trkpt><trkpt lat="45.15446871501817" lon="7.6623056556699565"><ele>256.2</ele><time>2026-04-19T08:31:46Z</time></trkpt><trkpt lat="45.15450353393946" lon="7.662409333178248"><ele>256.0</ele><time>2026-04-19T08:31:47Z</time></trkpt><trkpt lat="45.154536435325355" lon="7.662507267369343"><ele>256.0</ele><time>2026-04-19T08:31:48Z</time></trkpt><trkpt lat="45.15458729135712" lon="7.662608738976027"><ele>255.99999999999997</ele><time>2026-04-19T08:31:49Z</time></trkpt><trkpt lat="45.15459636248955" lon="7.662702131292478"><ele>256.0</ele><time>2026-04-19T08:31:50Z</time></trkpt><trkpt lat="45.15459224573862" lon="7.662800341470117"><ele>256.0</ele><time>2026-04-19T08:31:51Z</time></trkpt><trkpt lat="45.15459245545754" lon="7.662898611693435"><ele>255.99999999999997</ele><time>2026-04-19T08:31:52Z</time></trkpt><trkpt lat="45.15460596754855" lon="7.662993063799013"><ele>256.0</ele><time>2026-04-19T08:31:53Z</time></trkpt><trkpt lat="45.15465247634062" lon="7.663058381188095"><ele>256.0</ele><time>2026-04-19T08:31:54Z</time></trkpt><trkpt lat="45.15472532360241" lon="7.663057677570432"><ele>256.0</ele><time>2026-04-19T08:31:55Z</time></trkpt><trkpt lat="45.154806847474326" lon="7.66301671529454"><ele>256.0</ele><time>2026-04-19T08:31:56Z</time></trkpt><trkpt lat="45.1548774738976" lon="7.662932494155779"><ele>256.0</ele><time>2026-04-19T08:31:57Z</time></trkpt><trkpt lat="45.15496989977074" lon="7.6629881208242425"><ele>256.0</ele><time>2026-04-19T08:31:58Z</time></trkpt><trkpt lat="45.155075647019665" lon="7.6630208926226"><ele>256.0</ele><time>2026-04-19T08:31:59Z</time></trkpt><trkpt lat="45.155195381790556" lon="7.663066489331457"><ele>256.0</ele><time>2026-04-19T08:32:00Z</time></trkpt><trkpt lat="45.155327957715265" lon="7.663117098990591"><ele>256.0</ele><time>2026-04-19T08:32:01Z</time></trkpt><trkpt lat="45.15545713763676" lon="7.663143138565846"><ele>256.0</ele><time>2026-04-19T08:32:02Z</time></trkpt><trkpt lat="45.15558890013898" lon="7.6631902084544725"><ele>256.0</ele><time>2026-04-19T08:32:03Z</time></trkpt><trkpt lat="45.155728358558086" lon="7.663227742350577"><ele>256.0</ele><time>2026-04-19T08:32:04Z</time></trkpt><trkpt lat="45.15587765705489" lon="7.6632464300943095"><ele>256.0</ele><time>2026-04-19T08:32:05Z</time></trkpt><trkpt lat="45.15602980736618" lon="7.6632429738837855"><ele>256.0</ele><time>2026-04-19T08:32:06Z</time></trkpt><trkpt lat="45.15617803679251" lon="7.663234931278372"><ele>256.0</ele><time>2026-04-19T08:32:07Z</time></trkpt><trkpt lat="45.156318257043885" lon="7.663231909540367"><ele>256.0</ele><time>2026-04-19T08:32:08Z</time></trkpt><trkpt lat="45.1564541228776" lon="7.663234355947591"><ele>256.0</ele><time>2026-04-19T08:32:09Z</time></trkpt><trkpt lat="45.156591100397094" lon="7.663239112573813"><ele>256.0</ele><time>2026-04-19T08:32:10Z</time></trkpt><trkpt lat="45.15673016363652" lon="7.663244085226795"><ele>256.25</ele><time>2026-04-19T08:32:11Z</time></trkpt><trkpt lat="45.15687057477262" lon="7.663246981178178"><ele>256.5</ele><time>2026-04-19T08:32:12Z</time></trkpt><trkpt lat="45.157011735212016" lon="7.66324964915434"><ele>256.75</ele><time>2026-04-19T08:32:13Z</time></trkpt><trkpt lat="45.15715333880198" lon="7.66325017596758"><ele>257.0</ele><time>2026-04-19T08:32:14Z</time></trkpt><trkpt lat="45.15729672720091" lon="7.663254020874046"><ele>257.0</ele><time>2026-04-19T08:32:15Z</time></trkpt><trkpt lat="45.157439586323655" lon="7.6632586581339"><ele>257.0</ele><time>2026-04-19T08:32:16Z</time></trkpt><trkpt lat="45.15757933123183" lon="7.663263259509453"><ele>257.0</ele><time>2026-04-19T08:32:17Z</time></trkpt><trkpt lat="45.15771485006544" lon="7.663267103003757"><ele>257.0</ele><time>2026-04-19T08:32:18Z</time></trkpt><trkpt lat="45.15784415899984" lon="7.663268155743829"><ele>257.0</ele><time>2026-04-19T08:32:19Z</time></trkpt><trkpt lat="45.15796669547081" lon="7.663294433431592"><ele>257.0</ele><time>2026-04-19T08:32:20Z</time></trkpt><trkpt lat="45.15808270629498" lon="7.663340770642808"><ele>257.0</ele><time>2026-04-19T08:32:21Z</time></trkpt><trkpt lat="45.15819408087135" lon="7.663406739064394"><ele>257.0</ele><time>2026-04-19T08:32:22Z</time></trkpt><trkpt lat="45.158292938829106" lon="7.663505249974797"><ele>257.0</ele><time>2026-04-19T08:32:23Z</time></trkpt><trkpt lat="45.15838016034413" lon="7.663627182195452"><ele>257.0</ele><time>2026-04-19T08:32:24Z</time></trkpt><trkpt lat="45.15845544451762" lon="7.6637642666645185"><ele>257.0</ele><time>2026-04-19T08:32:25Z</time></trkpt><trkpt lat="45.15852003153939" lon="7.663912208550071"><ele>257.0</ele><time>2026-04-19T08:32:26Z</time></trkpt><trkpt lat="45.158567421552334" lon="7.664079609567142"><ele>257.0</ele><time>2026-04-19T08:32:27Z</time></trkpt><trkpt lat="45.15860852487334" lon="7.66425771307968"><ele>257.0</ele><time>2026-04-19T08:32:28Z</time></trkpt><trkpt lat="45.15864961936073" lon="7.664438796420451"><ele>257.0</ele><time>2026-04-19T08:32:29Z</time></trkpt><trkpt lat="45.15868719146133" lon="7.664612632438478"><ele>257.0</ele><time>2026-04-19T08:32:30Z</time></trkpt><trkpt lat="45.158722601377136" lon="7.66478134273211"><ele>256.75</ele><time>2026-04-19T08:32:31Z</time></trkpt><trkpt lat="45.15876754557892" lon="7.664955507550715"><ele>256.5</ele><time>2026-04-19T08:32:32Z</time></trkpt><trkpt lat="45.15882218260007" lon="7.665128919414564"><ele>256.25</ele><time>2026-04-19T08:32:33Z</time></trkpt><trkpt lat="45.15888975834667" lon="7.665297069454742"><ele>256.0</ele><time>2026-04-19T08:32:34Z</time></trkpt><trkpt lat="45.15897184545533" lon="7.665450953353771"><ele>255.5</ele><time>2026-04-19T08:32:35Z</time></trkpt><trkpt lat="45.15905646610092" lon="7.665589071048733"><ele>255.0</ele><time>2026-04-19T08:32:36Z</time></trkpt><trkpt lat="45.15913619881363" lon="7.66572283556977"><ele>254.5</ele><time>2026-04-19T08:32:37Z</time></trkpt><trkpt lat="45.1592173442517" lon="7.665871654288887"><ele>254.0</ele><time>2026-04-19T08:32:38Z</time></trkpt><trkpt lat="45.15929801991909" lon="7.666015722468663"><ele>254.0</ele><time>2026-04-19T08:32:39Z</time></trkpt><trkpt lat="45.159371950307246" lon="7.6661498414585445"><ele>254.0</ele><time>2026-04-19T08:32:40Z</time></trkpt><trkpt lat="45.15945551100199" lon="7.666274089013986"><ele>254.0</ele><time>2026-04-19T08:32:41Z</time></trkpt><trkpt lat="45.15955803469223" lon="7.6663843395621365"><ele>254.0</ele><time>2026-04-19T08:32:42Z</time></trkpt><trkpt lat="45.159661281960986" lon="7.666475211388327"><ele>254.0</ele><time>2026-04-19T08:32:43Z</time></trkpt><trkpt lat="45.1597752156538" lon="7.666537810324483"><ele>254.0</ele><time>2026-04-19T08:32:44Z</time></trkpt><trkpt lat="45.15990011215359" lon="7.666591161639172"><ele>254.0</ele><time>2026-04-19T08:32:45Z</time></trkpt><trkpt lat="45.16000407074357" lon="7.66666228409218"><ele>254.0</ele><time>2026-04-19T08:32:46Z</time></trkpt><trkpt lat="45.16010147639497" lon="7.66678015406673"><ele>254.0</ele><time>2026-04-19T08:32:47Z</time></trkpt><trkpt lat="45.16018992646227" lon="7.666920774801874"><ele>254.0</ele><time>2026-04-19T08:32:48Z</time></trkpt><trkpt lat="45.160273259257195" lon="7.667073867109189"><ele>254.0</ele><time>2026-04-19T08:32:49Z</time></trkpt><trkpt lat="45.16036263575364" lon="7.667233206005999"><ele>254.0</ele><time>2026-04-19T08:32:50Z</time></trkpt><trkpt lat="45.16045505987108" lon="7.667392684999805"><ele>254.0</ele><time>2026-04-19T08:32:51Z</time></trkpt><trkpt lat="45.16054579784296" lon="7.667563681419519"><ele>254.0</ele><time>2026-04-19T08:32:52Z</time></trkpt><trkpt lat="45.160636357768766" lon="7.667742626308295"><ele>254.0</ele><time>2026-04-19T08:32:53Z</time></trkpt><trkpt lat="45.16072763951238" lon="7.667914057162894"><ele>254.66666666666669</ele><time>2026-04-19T08:32:54Z</time></trkpt><trkpt lat="45.1608274473828" lon="7.668073926028695"><ele>255.33333333333331</ele><time>2026-04-19T08:32:55Z</time></trkpt><trkpt lat="45.16094243067885" lon="7.6682228945977435"><ele>256.0</ele><time>2026-04-19T08:32:56Z</time></trkpt><trkpt lat="45.16106408393316" lon="7.66836568152114"><ele>256.0</ele><time>2026-04-19T08:32:57Z</time></trkpt><trkpt lat="45.16119113081264" lon="7.668507299850606"><ele>256.0</ele><time>2026-04-19T08:32:58Z</time></trkpt><trkpt lat="45.16131973369468" lon="7.668644699231244"><ele>256.0</ele><time>2026-04-19T08:32:59Z</time></trkpt><trkpt lat="45.16144735320817" lon="7.668783262135773"><ele>256.0</ele><time>2026-04-19T08:33:00Z</time></trkpt><trkpt lat="45.1615762969152" lon="7.668926228383273"><ele>256.0</ele><time>2026-04-19T08:33:01Z</time></trkpt><trkpt lat="45.16170359572743" lon="7.6690626272731475"><ele>256.0</ele><time>2026-04-19T08:33:02Z</time></trkpt><trkpt lat="45.16182705593254" lon="7.669192043473328"><ele>256.0</ele><time>2026-04-19T08:33:03Z</time></trkpt><trkpt lat="45.161953493398265" lon="7.669322553101202"><ele>256.0</ele><time>2026-04-19T08:33:04Z</time></trkpt><trkpt lat="45.16207753384108" lon="7.669455411823533"><ele>256.0</ele><time>2026-04-19T08:33:05Z</time></trkpt><trkpt lat="45.16219817382048" lon="7.66958564523049"><ele>255.75</ele><time>2026-04-19T08:33:06Z</time></trkpt><trkpt lat="45.162309072216324" lon="7.669703230231496"><ele>255.5</ele><time>2026-04-19T08:33:07Z</time></trkpt><trkpt lat="45.16240762088405" lon="7.669817088123878"><ele>255.25</ele><time>2026-04-19T08:33:08Z</time></trkpt><trkpt lat="45.16247881037845" lon="7.669950196633497"><ele>255.0</ele><time>2026-04-19T08:33:09Z</time></trkpt><trkpt lat="45.16251874704687" lon="7.6700966572235005"><ele>255.0</ele><time>2026-04-19T08:33:10Z</time></trkpt><trkpt lat="45.1625224180785" lon="7.670242391672768"><ele>255.0</ele><time>2026-04-19T08:33:11Z</time></trkpt><trkpt lat="45.16247578530878" lon="7.670389196275944"><ele>255.0</ele><time>2026-04-19T08:33:12Z</time></trkpt><trkpt lat="45.16246975422921" lon="7.670535873235246"><ele>255.0</ele><time>2026-04-19T08:33:13Z</time></trkpt><trkpt lat="45.16253353781802" lon="7.670656881866958"><ele>255.0</ele><time>2026-04-19T08:33:14Z</time></trkpt><trkpt lat="45.16259873095574" lon="7.670766293158636"><ele>255.25</ele><time>2026-04-19T08:33:15Z</time></trkpt><trkpt lat="45.16268513723301" lon="7.670876660914457"><ele>255.5</ele><time>2026-04-19T08:33:16Z</time></trkpt><trkpt lat="45.16278365128574" lon="7.6709994895028"><ele>255.75</ele><time>2026-04-19T08:33:17Z</time></trkpt><trkpt lat="45.16287260816235" lon="7.671127373614739"><ele>256.0</ele><time>2026-04-19T08:33:18Z</time></trkpt><trkpt lat="45.162944508105724" lon="7.671248020031987"><ele>255.99999999999997</ele><time>2026-04-19T08:33:19Z</time></trkpt><trkpt lat="45.16299948491714" lon="7.671330004719342"><ele>256.0</ele><time>2026-04-19T08:33:20Z</time></trkpt><trkpt lat="45.16304086160282" lon="7.671439720988205"><ele>256.0</ele><time>2026-04-19T08:33:22Z</time></trkpt><trkpt lat="45.16307492920677" lon="7.67152650273446"><ele>256.0</ele><time>2026-04-19T08:33:27Z</time></trkpt><trkpt lat="45.163174365053514" lon="7.671602520778956"><ele>255.99999999999997</ele><time>2026-04-19T08:33:29Z</time></trkpt><trkpt lat="45.163230996526636" lon="7.671660557520119"><ele>256.0</ele><time>2026-04-19T08:33:30Z</time></trkpt><trkpt lat="45.16329488029326" lon="7.671761018746807"><ele>256.0</ele><time>2026-04-19T08:33:31Z</time></trkpt><trkpt lat="45.163384944808215" lon="7.671884683697736"><ele>256.0</ele><time>2026-04-19T08:33:32Z</time></trkpt><trkpt lat="45.16348094683748" lon="7.672019452400218"><ele>256.0</ele><time>2026-04-19T08:33:33Z</time></trkpt><trkpt lat="45.16357311271289" lon="7.672162803408605"><ele>256.0</ele><time>2026-04-19T08:33:34Z</time></trkpt><trkpt lat="45.163672298830846" lon="7.672307204461048"><ele>256.0</ele><time>2026-04-19T08:33:35Z</time></trkpt><trkpt lat="45.163770407764666" lon="7.672450189394865"><ele>256.0</ele><time>2026-04-19T08:33:36Z</time></trkpt><trkpt lat="45.16387134046608" lon="7.672593309680999"><ele>256.0</ele><time>2026-04-19T08:33:37Z</time></trkpt><trkpt lat="45.163969557423336" lon="7.672729675740756"><ele>256.0</ele><time>2026-04-19T08:33:38Z</time></trkpt><trkpt lat="45.16406166375099" lon="7.672861902288663"><ele>256.0</ele><time>2026-04-19T08:33:39Z</time></trkpt><trkpt lat="45.16414319925223" lon="7.672979235781365"><ele>256.0</ele><time>2026-04-19T08:33:40Z</time></trkpt><trkpt lat="45.16423371377989" lon="7.673079038280664"><ele>256.0</ele><time>2026-04-19T08:33:41Z</time></trkpt><trkpt lat="45.16434368128579" lon="7.673155166627471"><ele>256.0</ele><time>2026-04-19T08:33:42Z</time></trkpt><trkpt lat="45.164476415387405" lon="7.673202775747503"><ele>256.0</ele><time>2026-04-19T08:33:43Z</time></trkpt><trkpt lat="45.164626279173355" lon="7.67323228968556"><ele>256.0</ele><time>2026-04-19T08:33:44Z</time></trkpt><trkpt lat="45.164784823896596" lon="7.673267967511589"><ele>256.0</ele><time>2026-04-19T08:33:45Z</time></trkpt><trkpt lat="45.164955110387424" lon="7.673305499013994"><ele>255.66666666666666</ele><time>2026-04-19T08:33:46Z</time></trkpt><trkpt lat="45.165127937565664" lon="7.673343311212537"><ele>255.33333333333331</ele><time>2026-04-19T08:33:47Z</time></trkpt><trkpt lat="45.16529863037001" lon="7.673377503311138"><ele>255.0</ele><time>2026-04-19T08:33:48Z</time></trkpt><trkpt lat="45.16546323357519" lon="7.673416019186752"><ele>255.0</ele><time>2026-04-19T08:33:49Z</time></trkpt><trkpt lat="45.16562890583238" lon="7.673454304762187"><ele>255.0</ele><time>2026-04-19T08:33:50Z</time></trkpt><trkpt lat="45.165797277054494" lon="7.67349386510987"><ele>255.0</ele><time>2026-04-19T08:33:51Z</time></trkpt><trkpt lat="45.16596700725537" lon="7.673533083582856"><ele>255.33333333333331</ele><time>2026-04-19T08:33:52Z</time></trkpt><trkpt lat="45.166134860223885" lon="7.673571217565665"><ele>255.66666666666666</ele><time>2026-04-19T08:33:53Z</time></trkpt><trkpt lat="45.16629740467965" lon="7.673608679034722"><ele>256.0</ele><time>2026-04-19T08:33:54Z</time></trkpt><trkpt lat="45.16644731119692" lon="7.67364420491113"><ele>256.5</ele><time>2026-04-19T08:33:55Z</time></trkpt><trkpt lat="45.166583666650354" lon="7.673676417482826"><ele>257.0</ele><time>2026-04-19T08:33:56Z</time></trkpt><trkpt lat="45.16670895762855" lon="7.67370425204663"><ele>257.5</ele><time>2026-04-19T08:33:57Z</time></trkpt><trkpt lat="45.16682522087416" lon="7.673731451300123"><ele>258.0</ele><time>2026-04-19T08:33:58Z</time></trkpt><trkpt lat="45.166922983597864" lon="7.673755866035232"><ele>258.0</ele><time>2026-04-19T08:33:59Z</time></trkpt><trkpt lat="45.16700402790736" lon="7.673776739471519"><ele>258.0</ele><time>2026-04-19T08:34:00Z</time></trkpt><trkpt lat="45.16710085901588" lon="7.673787857627548"><ele>258.0</ele><time>2026-04-19T08:34:02Z</time></trkpt><trkpt lat="45.16718326371051" lon="7.673785519108065"><ele>258.0</ele><time>2026-04-19T08:34:04Z</time></trkpt><trkpt lat="45.167255133199546" lon="7.673854240387226"><ele>258.0</ele><time>2026-04-19T08:34:06Z</time></trkpt><trkpt lat="45.167236018136755" lon="7.6739926153399"><ele>258.0</ele><time>2026-04-19T08:34:07Z</time></trkpt><trkpt lat="45.16721460485489" lon="7.674110187121856"><ele>258.0</ele><time>2026-04-19T08:34:08Z</time></trkpt><trkpt lat="45.16718753963158" lon="7.674239126211208"><ele>258.0</ele><time>2026-04-19T08:34:09Z</time></trkpt><trkpt lat="45.16715540341498" lon="7.674371497271396"><ele>258.0</ele><time>2026-04-19T08:34:10Z</time></trkpt><trkpt lat="45.16712486315396" lon="7.674514409469756"><ele>258.0</ele><time>2026-04-19T08:34:11Z</time></trkpt><trkpt lat="45.16709042568935" lon="7.674675397295321"><ele>258.0</ele><time>2026-04-19T08:34:12Z</time></trkpt><trkpt lat="45.16704944183388" lon="7.674851030832808"><ele>257.5</ele><time>2026-04-19T08:34:13Z</time></trkpt><trkpt lat="45.16700770085635" lon="7.675027172742625"><ele>257.0</ele><time>2026-04-19T08:34:14Z</time></trkpt><trkpt lat="45.166962657071174" lon="7.675216078804544"><ele>256.5</ele><time>2026-04-19T08:34:15Z</time></trkpt><trkpt lat="45.16691360397817" lon="7.675421328112696"><ele>256.0</ele><time>2026-04-19T08:34:16Z</time></trkpt><trkpt lat="45.16686169499401" lon="7.675632290660402"><ele>256.0</ele><time>2026-04-19T08:34:17Z</time></trkpt><trkpt lat="45.16680193474375" lon="7.675846503875844"><ele>256.0</ele><time>2026-04-19T08:34:18Z</time></trkpt><trkpt lat="45.166735673311656" lon="7.6760755840177195"><ele>256.0</ele><time>2026-04-19T08:34:19Z</time></trkpt><trkpt lat="45.16666651013393" lon="7.6763162031852366"><ele>256.0</ele><time>2026-04-19T08:34:20Z</time></trkpt><trkpt lat="45.16659571389911" lon="7.6765531982643225"><ele>256.0</ele><time>2026-04-19T08:34:21Z</time></trkpt><trkpt lat="45.16652926271223" lon="7.676783843909468"><ele>256.0</ele><time>2026-04-19T08:34:22Z</time></trkpt><trkpt lat="45.16645982185336" lon="7.677022196650044"><ele>256.0</ele><time>2026-04-19T08:34:23Z</time></trkpt><trkpt lat="45.166389289802915" lon="7.677263039969515"><ele>256.0</ele><time>2026-04-19T08:34:24Z</time></trkpt><trkpt lat="45.166318165591505" lon="7.677509130240201"><ele>256.0</ele><time>2026-04-19T08:34:25Z</time></trkpt><trkpt lat="45.166246097581656" lon="7.677759349653475"><ele>256.0</ele><time>2026-04-19T08:34:26Z</time></trkpt><trkpt lat="45.1661713952116" lon="7.6780107278043985"><ele>256.0</ele><time>2026-04-19T08:34:27Z</time></trkpt><trkpt lat="45.16609767899246" lon="7.6782650791512035"><ele>256.0</ele><time>2026-04-19T08:34:28Z</time></trkpt><trkpt lat="45.166023320570545" lon="7.678524251762292"><ele>255.33333333333331</ele><time>2026-04-19T08:34:29Z</time></trkpt><trkpt lat="45.16594784481888" lon="7.678786541810974"><ele>254.66666666666669</ele><time>2026-04-19T08:34:30Z</time></trkpt><trkpt lat="45.16587248451507" lon="7.679047638690493"><ele>254.0</ele><time>2026-04-19T08:34:31Z</time></trkpt><trkpt lat="45.165798256127616" lon="7.679304427532871"><ele>253.66666666666669</ele><time>2026-04-19T08:34:32Z</time></trkpt><trkpt lat="45.16572694877064" lon="7.679558988763709"><ele>253.33333333333331</ele><time>2026-04-19T08:34:33Z</time></trkpt><trkpt lat="45.16565794553296" lon="7.6798070404827055"><ele>253.0</ele><time>2026-04-19T08:34:34Z</time></trkpt><trkpt lat="45.165591207460515" lon="7.680050772295516"><ele>253.33333333333331</ele><time>2026-04-19T08:34:35Z</time></trkpt><trkpt lat="45.16553213780573" lon="7.680296431148227"><ele>253.66666666666669</ele><time>2026-04-19T08:34:36Z</time></trkpt><trkpt lat="45.16547495869798" lon="7.680553355169853"><ele>254.0</ele><time>2026-04-19T08:34:37Z</time></trkpt><trkpt lat="45.165421027063665" lon="7.680812426563875"><ele>254.0</ele><time>2026-04-19T08:34:38Z</time></trkpt><trkpt lat="45.16537455889124" lon="7.681073177979682"><ele>254.0</ele><time>2026-04-19T08:34:39Z</time></trkpt><trkpt lat="45.165339539819705" lon="7.6813341119568355"><ele>254.0</ele><time>2026-04-19T08:34:40Z</time></trkpt><trkpt lat="45.16531963740584" lon="7.681593231567072"><ele>254.0</ele><time>2026-04-19T08:34:41Z</time></trkpt><trkpt lat="45.16532115858608" lon="7.681853510084373"><ele>254.0</ele><time>2026-04-19T08:34:42Z</time></trkpt><trkpt lat="45.16533354684253" lon="7.682116315713514"><ele>254.0</ele><time>2026-04-19T08:34:43Z</time></trkpt><trkpt lat="45.16535889119385" lon="7.682374536195858"><ele>254.0</ele><time>2026-04-19T08:34:44Z</time></trkpt><trkpt lat="45.16539683041673" lon="7.682621542148766"><ele>254.0</ele><time>2026-04-19T08:34:45Z</time></trkpt><trkpt lat="45.165447776380674" lon="7.682864401445414"><ele>254.0</ele><time>2026-04-19T08:34:46Z</time></trkpt><trkpt lat="45.16551398466505" lon="7.68309652463066"><ele>254.0</ele><time>2026-04-19T08:34:47Z</time></trkpt><trkpt lat="45.165591071510754" lon="7.683315731612978"><ele>254.0</ele><time>2026-04-19T08:34:48Z</time></trkpt><trkpt lat="45.16566959819017" lon="7.683524196557996"><ele>254.0</ele><time>2026-04-19T08:34:49Z</time></trkpt><trkpt lat="45.1657412654963" lon="7.683719722929314"><ele>254.66666666666669</ele><time>2026-04-19T08:34:50Z</time></trkpt><trkpt lat="45.165814530995796" lon="7.683914043863928"><ele>255.33333333333331</ele><time>2026-04-19T08:34:51Z</time></trkpt><trkpt lat="45.16589075102995" lon="7.684117703684849"><ele>256.0</ele><time>2026-04-19T08:34:52Z</time></trkpt><trkpt lat="45.165957468966866" lon="7.684327946111661"><ele>256.3333333333333</ele><time>2026-04-19T08:34:53Z</time></trkpt><trkpt lat="45.16600000938573" lon="7.684535233360116"><ele>256.6666666666667</ele><time>2026-04-19T08:34:54Z</time></trkpt><trkpt lat="45.16601548151247" lon="7.684756645603682"><ele>257.0</ele><time>2026-04-19T08:34:55Z</time></trkpt><trkpt lat="45.166010686458065" lon="7.684976472024793"><ele>257.0</ele><time>2026-04-19T08:34:56Z</time></trkpt><trkpt lat="45.16598138235533" lon="7.685193322397858"><ele>257.0</ele><time>2026-04-19T08:34:57Z</time></trkpt><trkpt lat="45.16593446591877" lon="7.685414992233437"><ele>257.0</ele><time>2026-04-19T08:34:58Z</time></trkpt><trkpt lat="45.16586835971481" lon="7.685631264989842"><ele>256.0</ele><time>2026-04-19T08:34:59Z</time></trkpt><trkpt lat="45.165782059931026" lon="7.685831052766383"><ele>255.0</ele><time>2026-04-19T08:35:00Z</time></trkpt><trkpt lat="45.16567286033207" lon="7.685999216690776"><ele>254.0</ele><time>2026-04-19T08:35:01Z</time></trkpt><trkpt lat="45.165548256842236" lon="7.6861118073760135"><ele>253.0</ele><time>2026-04-19T08:35:02Z</time></trkpt><trkpt lat="45.16544534560334" lon="7.686212743928581"><ele>252.0</ele><time>2026-04-19T08:35:03Z</time></trkpt><trkpt lat="45.16536020707245" lon="7.686276589019071"><ele>251.0</ele><time>2026-04-19T08:35:04Z</time></trkpt><trkpt lat="45.165306366862154" lon="7.686328226037142"><ele>250.0</ele><time>2026-04-19T08:35:05Z</time></trkpt><trkpt lat="45.1653861023563" lon="7.686555534561405"><ele>250.0</ele><time>2026-04-19T08:35:09Z</time></trkpt><trkpt lat="45.16545109151281" lon="7.686556597503777"><ele>250.0</ele><time>2026-04-19T08:35:10Z</time></trkpt><trkpt lat="45.16552476689398" lon="7.686506634670706"><ele>250.0</ele><time>2026-04-19T08:35:11Z</time></trkpt><trkpt lat="45.165599598155765" lon="7.686434365794291"><ele>250.0</ele><time>2026-04-19T08:35:12Z</time></trkpt><trkpt lat="45.16568173035602" lon="7.686335287712951"><ele>250.0</ele><time>2026-04-19T08:35:13Z</time></trkpt><trkpt lat="45.16576548576628" lon="7.686215210714941"><ele>251.0</ele><time>2026-04-19T08:35:14Z</time></trkpt><trkpt lat="45.16583452706172" lon="7.68608820362469"><ele>252.0</ele><time>2026-04-19T08:35:15Z</time></trkpt><trkpt lat="45.16590610187251" lon="7.685951845696887"><ele>253.0</ele><time>2026-04-19T08:35:16Z</time></trkpt><trkpt lat="45.16597520926649" lon="7.6857982945054095"><ele>254.0</ele><time>2026-04-19T08:35:17Z</time></trkpt><trkpt lat="45.16605358571006" lon="7.685653141745456"><ele>254.0</ele><time>2026-04-19T08:35:18Z</time></trkpt><trkpt lat="45.16611075382717" lon="7.685493672663963"><ele>254.0</ele><time>2026-04-19T08:35:19Z</time></trkpt><trkpt lat="45.16615639570542" lon="7.685337235909089"><ele>254.0</ele><time>2026-04-19T08:35:20Z</time></trkpt><trkpt lat="45.166188788576086" lon="7.685191208362889"><ele>254.0</ele><time>2026-04-19T08:35:21Z</time></trkpt><trkpt lat="45.16620494891958" lon="7.68505676536423"><ele>254.50000000000003</ele><time>2026-04-19T08:35:22Z</time></trkpt><trkpt lat="45.16621762419692" lon="7.684935068693257"><ele>255.0</ele><time>2026-04-19T08:35:23Z</time></trkpt><trkpt lat="45.16622684289356" lon="7.684825491593189"><ele>255.5</ele><time>2026-04-19T08:35:24Z</time></trkpt><trkpt lat="45.16623913890095" lon="7.684729389143131"><ele>256.0</ele><time>2026-04-19T08:35:25Z</time></trkpt><trkpt lat="45.16629086628071" lon="7.6846044303314125"><ele>256.5</ele><time>2026-04-19T08:35:27Z</time></trkpt><trkpt lat="45.166363504673534" lon="7.684620162491388"><ele>257.0</ele><time>2026-04-19T08:35:28Z</time></trkpt><trkpt lat="45.166452715538796" lon="7.684615510633164"><ele>255.5</ele><time>2026-04-19T08:35:29Z</time></trkpt><trkpt lat="45.166577696331075" lon="7.684609053986371"><ele>254.0</ele><time>2026-04-19T08:35:30Z</time></trkpt><trkpt lat="45.16670763855925" lon="7.684586292840952"><ele>252.5</ele><time>2026-04-19T08:35:31Z</time></trkpt><trkpt lat="45.166833052067204" lon="7.684574571123251"><ele>251.0</ele><time>2026-04-19T08:35:32Z</time></trkpt><trkpt lat="45.16696639154043" lon="7.684571293471908"><ele>251.0</ele><time>2026-04-19T08:35:33Z</time></trkpt><trkpt lat="45.1671028110418" lon="7.684561519257358"><ele>251.0</ele><time>2026-04-19T08:35:34Z</time></trkpt><trkpt lat="45.16723841431555" lon="7.684554328244276"><ele>251.0</ele><time>2026-04-19T08:35:35Z</time></trkpt><trkpt lat="45.167371995086924" lon="7.684552242529321"><ele>251.0</ele><time>2026-04-19T08:35:36Z</time></trkpt><trkpt lat="45.16750353738193" lon="7.684541967186506"><ele>251.25</ele><time>2026-04-19T08:35:37Z</time></trkpt><trkpt lat="45.1676341472775" lon="7.684539975179774"><ele>251.5</ele><time>2026-04-19T08:35:38Z</time></trkpt><trkpt lat="45.167762639594564" lon="7.684534791222373"><ele>251.75</ele><time>2026-04-19T08:35:39Z</time></trkpt><trkpt lat="45.16788960212496" lon="7.684529567056677"><ele>252.0</ele><time>2026-04-19T08:35:40Z</time></trkpt><trkpt lat="45.168013908427156" lon="7.684523010842189"><ele>252.0</ele><time>2026-04-19T08:35:41Z</time></trkpt><trkpt lat="45.168133141680784" lon="7.684510384843615"><ele>252.0</ele><time>2026-04-19T08:35:42Z</time></trkpt><trkpt lat="45.168248180115" lon="7.684491520212107"><ele>252.0</ele><time>2026-04-19T08:35:43Z</time></trkpt><trkpt lat="45.168360672225745" lon="7.684457097414101"><ele>252.0</ele><time>2026-04-19T08:35:44Z</time></trkpt><trkpt lat="45.168473514903226" lon="7.684412859300042"><ele>252.33333333333334</ele><time>2026-04-19T08:35:45Z</time></trkpt><trkpt lat="45.16857578908945" lon="7.684376179262149"><ele>252.66666666666669</ele><time>2026-04-19T08:35:46Z</time></trkpt><trkpt lat="45.16866534170852" lon="7.68435924614251"><ele>253.0</ele><time>2026-04-19T08:35:47Z</time></trkpt><trkpt lat="45.168742723788526" lon="7.684345310917982"><ele>253.33333333333334</ele><time>2026-04-19T08:35:48Z</time></trkpt><trkpt lat="45.16880794745699" lon="7.68434337756211"><ele>253.66666666666669</ele><time>2026-04-19T08:35:49Z</time></trkpt><trkpt lat="45.16891033331715" lon="7.684354057772661"><ele>254.0</ele><time>2026-04-19T08:35:51Z</time></trkpt><trkpt lat="45.16875582103738" lon="7.684345445161096"><ele>254.0</ele><time>2026-04-19T08:36:54Z</time></trkpt><trkpt lat="45.16867117267319" lon="7.684369119515962"><ele>253.99999999999997</ele><time>2026-04-19T08:36:55Z</time></trkpt><trkpt lat="45.16858299700768" lon="7.68438310910831"><ele>253.99999999999997</ele><time>2026-04-19T08:36:56Z</time></trkpt><trkpt lat="45.16847713074519" lon="7.684407734997489"><ele>254.0</ele><time>2026-04-19T08:36:57Z</time></trkpt><trkpt lat="45.16835491564219" lon="7.684442255441275"><ele>254.0</ele><time>2026-04-19T08:36:58Z</time></trkpt><trkpt lat="45.168223814795375" lon="7.684476428662152"><ele>253.5</ele><time>2026-04-19T08:36:59Z</time></trkpt><trkpt lat="45.1680922869714" lon="7.684509567229927"><ele>253.0</ele><time>2026-04-19T08:37:00Z</time></trkpt><trkpt lat="45.167968584677546" lon="7.684521757685715"><ele>252.5</ele><time>2026-04-19T08:37:01Z</time></trkpt><trkpt lat="45.16783886142155" lon="7.684527166134985"><ele>252.0</ele><time>2026-04-19T08:37:02Z</time></trkpt><trkpt lat="45.16771309129311" lon="7.684522306236091"><ele>252.0</ele><time>2026-04-19T08:37:03Z</time></trkpt><trkpt lat="45.16759058754653" lon="7.684523122839846"><ele>252.0</ele><time>2026-04-19T08:37:04Z</time></trkpt><trkpt lat="45.16748337037542" lon="7.68452620534693"><ele>252.0</ele><time>2026-04-19T08:37:05Z</time></trkpt><trkpt lat="45.1673775284072" lon="7.684528709409455"><ele>252.0</ele><time>2026-04-19T08:37:06Z</time></trkpt><trkpt lat="45.1672819369734" lon="7.684533451001342"><ele>252.0</ele><time>2026-04-19T08:37:07Z</time></trkpt><trkpt lat="45.167194717567476" lon="7.684541177158386"><ele>251.8</ele><time>2026-04-19T08:37:08Z</time></trkpt><trkpt lat="45.16711702926264" lon="7.684545901323047"><ele>251.6</ele><time>2026-04-19T08:37:09Z</time></trkpt><trkpt lat="45.16703960012242" lon="7.684547012029506"><ele>251.40000000000003</ele><time>2026-04-19T08:37:10Z</time></trkpt><trkpt lat="45.1669472024201" lon="7.684552107746453"><ele>251.20000000000002</ele><time>2026-04-19T08:37:11Z</time></trkpt><trkpt lat="45.16683942542906" lon="7.684556522739586"><ele>251.0</ele><time>2026-04-19T08:37:12Z</time></trkpt><trkpt lat="45.16672674032719" lon="7.684565005949438"><ele>251.00000000000003</ele><time>2026-04-19T08:37:13Z</time></trkpt><trkpt lat="45.166618440026994" lon="7.6845748700335585"><ele>251.0</ele><time>2026-04-19T08:37:14Z</time></trkpt><trkpt lat="45.166519986385985" lon="7.6845778975012475"><ele>251.0</ele><time>2026-04-19T08:37:15Z</time></trkpt><trkpt lat="45.166432817059686" lon="7.684577034684413"><ele>251.0</ele><time>2026-04-19T08:37:16Z</time></trkpt><trkpt lat="45.166363706308324" lon="7.684582970983893"><ele>251.00000000000003</ele><time>2026-04-19T08:37:17Z</time></trkpt><trkpt lat="45.1662968666742" lon="7.684602569789581"><ele>251.0</ele><time>2026-04-19T08:37:18Z</time></trkpt><trkpt lat="45.166225647644964" lon="7.684623199765731"><ele>251.60000000000002</ele><time>2026-04-19T08:37:19Z</time></trkpt><trkpt lat="45.16617964377579" lon="7.684706410215333"><ele>252.20000000000002</ele><time>2026-04-19T08:37:20Z</time></trkpt><trkpt lat="45.16616945733593" lon="7.684833307546154"><ele>252.79999999999998</ele><time>2026-04-19T08:37:21Z</time></trkpt><trkpt lat="45.16616766566202" lon="7.684979020346361"><ele>253.39999999999998</ele><time>2026-04-19T08:37:22Z</time></trkpt><trkpt lat="45.16616365142994" lon="7.685147407931406"><ele>254.0</ele><time>2026-04-19T08:37:23Z</time></trkpt><trkpt lat="45.16612737334565" lon="7.685312088038256"><ele>254.0</ele><time>2026-04-19T08:37:24Z</time></trkpt><trkpt lat="45.16607799089868" lon="7.6854817362682715"><ele>254.0</ele><time>2026-04-19T08:37:25Z</time></trkpt><trkpt lat="45.16602399550682" lon="7.685670091771741"><ele>254.0</ele><time>2026-04-19T08:37:26Z</time></trkpt><trkpt lat="45.16595195920649" lon="7.685840116241378"><ele>254.0</ele><time>2026-04-19T08:37:27Z</time></trkpt><trkpt lat="45.16587210825316" lon="7.685994705434617"><ele>253.0</ele><time>2026-04-19T08:37:28Z</time></trkpt><trkpt lat="45.16578537326481" lon="7.686134429159062"><ele>252.0</ele><time>2026-04-19T08:37:29Z</time></trkpt><trkpt lat="45.165686344172535" lon="7.686272005679212"><ele>251.0</ele><time>2026-04-19T08:37:30Z</time></trkpt><trkpt lat="45.16559723194324" lon="7.686389436847312"><ele>250.0</ele><time>2026-04-19T08:37:31Z</time></trkpt><trkpt lat="45.16552483737069" lon="7.6864807442456975"><ele>249.99999999999997</ele><time>2026-04-19T08:37:32Z</time></trkpt><trkpt lat="45.16545961986146" lon="7.686532841385309"><ele>250.0</ele><time>2026-04-19T08:37:33Z</time></trkpt><trkpt lat="45.165396213503755" lon="7.686542783412547"><ele>250.0</ele><time>2026-04-19T08:37:34Z</time></trkpt><trkpt lat="45.16532327478401" lon="7.686472166737118"><ele>250.0</ele><time>2026-04-19T08:37:36Z</time></trkpt><trkpt lat="45.16531485682195" lon="7.686379206666608"><ele>249.99999999999997</ele><time>2026-04-19T08:37:43Z</time></trkpt><trkpt lat="45.16526942663063" lon="7.6863129698107375"><ele>250.0</ele><time>2026-04-19T08:37:45Z</time></trkpt><trkpt lat="45.165120533543586" lon="7.6864237449192805"><ele>250.0</ele><time>2026-04-19T08:37:46Z</time></trkpt><trkpt lat="45.16502364540357" lon="7.6865062317131185"><ele>250.0</ele><time>2026-04-19T08:37:47Z</time></trkpt><trkpt lat="45.164920579856634" lon="7.686615802854053"><ele>250.0</ele><time>2026-04-19T08:37:48Z</time></trkpt><trkpt lat="45.16481462590504" lon="7.686703518425152"><ele>250.0</ele><time>2026-04-19T08:37:49Z</time></trkpt><trkpt lat="45.16468639906455" lon="7.686805208854509"><ele>250.0</ele><time>2026-04-19T08:37:50Z</time></trkpt><trkpt lat="45.16456123312304" lon="7.686902269334883"><ele>250.0</ele><time>2026-04-19T08:37:51Z</time></trkpt><trkpt lat="45.16443005849126" lon="7.687014684731004"><ele>250.0</ele><time>2026-04-19T08:37:52Z</time></trkpt><trkpt lat="45.16430141628304" lon="7.687131051478928"><ele>250.0</ele><time>2026-04-19T08:37:53Z</time></trkpt><trkpt lat="45.16417817660725" lon="7.687260337818022"><ele>249.66666666666666</ele><time>2026-04-19T08:37:54Z</time></trkpt><trkpt lat="45.16406700232587" lon="7.687413521335503"><ele>249.33333333333331</ele><time>2026-04-19T08:37:55Z</time></trkpt><trkpt lat="45.16397463661601" lon="7.687587683108753"><ele>249.0</ele><time>2026-04-19T08:37:56Z</time></trkpt><trkpt lat="45.16387154813396" lon="7.6877590958251885"><ele>249.0</ele><time>2026-04-19T08:37:57Z</time></trkpt><trkpt lat="45.16379962396374" lon="7.687962008529041"><ele>249.0</ele><time>2026-04-19T08:37:58Z</time></trkpt><trkpt lat="45.163745344667774" lon="7.688190609665862"><ele>249.0</ele><time>2026-04-19T08:37:59Z</time></trkpt><trkpt lat="45.16370988884837" lon="7.6884316126793175"><ele>248.66666666666669</ele><time>2026-04-19T08:38:00Z</time></trkpt><trkpt lat="45.163639972937226" lon="7.688658305026859"><ele>248.33333333333334</ele><time>2026-04-19T08:38:01Z</time></trkpt><trkpt lat="45.163580438470895" lon="7.6888908098511175"><ele>248.0</ele><time>2026-04-19T08:38:02Z</time></trkpt><trkpt lat="45.163516880371894" lon="7.689128866318347"><ele>248.0</ele><time>2026-04-19T08:38:03Z</time></trkpt><trkpt lat="45.16345234536947" lon="7.6893619573314025"><ele>248.0</ele><time>2026-04-19T08:38:04Z</time></trkpt><trkpt lat="45.16338867929936" lon="7.689590166204852"><ele>248.0</ele><time>2026-04-19T08:38:05Z</time></trkpt><trkpt lat="45.16332641060723" lon="7.689813366118237"><ele>248.0</ele><time>2026-04-19T08:38:06Z</time></trkpt><trkpt lat="45.163265403916256" lon="7.690032042649975"><ele>248.0</ele><time>2026-04-19T08:38:07Z</time></trkpt><trkpt lat="45.16320185307879" lon="7.690245453539893"><ele>248.0</ele><time>2026-04-19T08:38:08Z</time></trkpt><trkpt lat="45.163136945370674" lon="7.690458176549004"><ele>247.66666666666669</ele><time>2026-04-19T08:38:09Z</time></trkpt><trkpt lat="45.16306753493967" lon="7.690667199003043"><ele>247.33333333333331</ele><time>2026-04-19T08:38:10Z</time></trkpt><trkpt lat="45.16299296859783" lon="7.690869964452913"><ele>247.0</ele><time>2026-04-19T08:38:11Z</time></trkpt><trkpt lat="45.16291749834393" lon="7.691073096949246"><ele>247.0</ele><time>2026-04-19T08:38:12Z</time></trkpt><trkpt lat="45.16284247521932" lon="7.691277627364929"><ele>247.0</ele><time>2026-04-19T08:38:13Z</time></trkpt><trkpt lat="45.16276823623141" lon="7.69147655582952"><ele>247.0</ele><time>2026-04-19T08:38:14Z</time></trkpt><trkpt lat="45.162692237259805" lon="7.691678979553255"><ele>247.0</ele><time>2026-04-19T08:38:15Z</time></trkpt><trkpt lat="45.16261910819082" lon="7.691873759267658"><ele>247.0</ele><time>2026-04-19T08:38:16Z</time></trkpt><trkpt lat="45.16254521051089" lon="7.692070585967829"><ele>247.0</ele><time>2026-04-19T08:38:17Z</time></trkpt><trkpt lat="45.16247529729791" lon="7.692264349237947"><ele>247.0</ele><time>2026-04-19T08:38:18Z</time></trkpt><trkpt lat="45.16241008011437" lon="7.692447733952491"><ele>247.0</ele><time>2026-04-19T08:38:19Z</time></trkpt><trkpt lat="45.16235180229618" lon="7.692611605729158"><ele>247.0</ele><time>2026-04-19T08:38:20Z</time></trkpt><trkpt lat="45.16231180046035" lon="7.692758124998544"><ele>247.0</ele><time>2026-04-19T08:38:21Z</time></trkpt><trkpt lat="45.16226375918868" lon="7.692857762901081"><ele>246.8</ele><time>2026-04-19T08:38:22Z</time></trkpt><trkpt lat="45.1622108625955" lon="7.692961555722595"><ele>246.6</ele><time>2026-04-19T08:38:24Z</time></trkpt><trkpt lat="45.16235229514075" lon="7.6930310699039035"><ele>246.40000000000003</ele><time>2026-04-19T08:38:27Z</time></trkpt><trkpt lat="45.162288456935386" lon="7.693024153405322"><ele>246.20000000000002</ele><time>2026-04-19T08:38:54Z</time></trkpt><trkpt lat="45.16221542389905" lon="7.693032151868868"><ele>246.0</ele><time>2026-04-19T08:38:58Z</time></trkpt><trkpt lat="45.16214749578127" lon="7.693183251937831"><ele>246.0</ele><time>2026-04-19T08:39:00Z</time></trkpt><trkpt lat="45.16213514441609" lon="7.693316923022428"><ele>246.00000000000003</ele><time>2026-04-19T08:39:01Z</time></trkpt><trkpt lat="45.162095680781526" lon="7.69345102018248"><ele>246.00000000000003</ele><time>2026-04-19T08:39:02Z</time></trkpt><trkpt lat="45.16206659153711" lon="7.693601915333175"><ele>246.0</ele><time>2026-04-19T08:39:03Z</time></trkpt><trkpt lat="45.16205302781648" lon="7.693760228189897"><ele>246.0</ele><time>2026-04-19T08:39:04Z</time></trkpt><trkpt lat="45.16202178123466" lon="7.693913849969889"><ele>246.25</ele><time>2026-04-19T08:39:05Z</time></trkpt><trkpt lat="45.161995679045944" lon="7.694074475533721"><ele>246.5</ele><time>2026-04-19T08:39:06Z</time></trkpt><trkpt lat="45.16197365783192" lon="7.6942417397867375"><ele>246.75</ele><time>2026-04-19T08:39:07Z</time></trkpt><trkpt lat="45.16197360718187" lon="7.694417060397703"><ele>247.0</ele><time>2026-04-19T08:39:08Z</time></trkpt><trkpt lat="45.16197963691605" lon="7.69459504764979"><ele>246.5</ele><time>2026-04-19T08:39:09Z</time></trkpt><trkpt lat="45.161996089626896" lon="7.694768805249662"><ele>246.0</ele><time>2026-04-19T08:39:10Z</time></trkpt><trkpt lat="45.16201500596542" lon="7.6949447736316525"><ele>245.5</ele><time>2026-04-19T08:39:11Z</time></trkpt><trkpt lat="45.16201471869803" lon="7.6951301343393625"><ele>245.0</ele><time>2026-04-19T08:39:12Z</time></trkpt><trkpt lat="45.16204757281316" lon="7.695309901446917"><ele>244.75</ele><time>2026-04-19T08:39:13Z</time></trkpt><trkpt lat="45.16206132363194" lon="7.695501959590214"><ele>244.5</ele><time>2026-04-19T08:39:14Z</time></trkpt><trkpt lat="45.162083511777006" lon="7.695698157849486"><ele>244.25</ele><time>2026-04-19T08:39:15Z</time></trkpt><trkpt lat="45.16210446066285" lon="7.695887906243621"><ele>244.0</ele><time>2026-04-19T08:39:16Z</time></trkpt><trkpt lat="45.16212376195056" lon="7.69605855296154"><ele>244.0</ele><time>2026-04-19T08:39:17Z</time></trkpt><trkpt lat="45.16214358039634" lon="7.696219176399092"><ele>244.0</ele><time>2026-04-19T08:39:18Z</time></trkpt><trkpt lat="45.16216352863432" lon="7.69640273580963"><ele>244.0</ele><time>2026-04-19T08:39:19Z</time></trkpt><trkpt lat="45.16218974502257" lon="7.696599356159906"><ele>244.0</ele><time>2026-04-19T08:39:20Z</time></trkpt><trkpt lat="45.16221572351551" lon="7.696807892894043"><ele>244.0</ele><time>2026-04-19T08:39:21Z</time></trkpt><trkpt lat="45.162243508378715" lon="7.697029829467887"><ele>244.0</ele><time>2026-04-19T08:39:22Z</time></trkpt><trkpt lat="45.16227171541816" lon="7.6972543982903"><ele>244.0</ele><time>2026-04-19T08:39:23Z</time></trkpt><trkpt lat="45.162298546035935" lon="7.697468523477041"><ele>244.0</ele><time>2026-04-19T08:39:24Z</time></trkpt><trkpt lat="45.16232883404996" lon="7.6976832452052575"><ele>244.0</ele><time>2026-04-19T08:39:25Z</time></trkpt><trkpt lat="45.16235827540319" lon="7.6978898378656915"><ele>244.0</ele><time>2026-04-19T08:39:26Z</time></trkpt><trkpt lat="45.16238751958771" lon="7.698093470933708"><ele>243.75</ele><time>2026-04-19T08:39:27Z</time></trkpt><trkpt lat="45.16241916524171" lon="7.698284266587829"><ele>243.5</ele><time>2026-04-19T08:39:28Z</time></trkpt><trkpt lat="45.16245975229126" lon="7.69847013672416"><ele>243.25</ele><time>2026-04-19T08:39:29Z</time></trkpt><trkpt lat="45.16250688613586" lon="7.698646665137856"><ele>243.0</ele><time>2026-04-19T08:39:30Z</time></trkpt><trkpt lat="45.16256239984546" lon="7.698814819358607"><ele>243.0</ele><time>2026-04-19T08:39:31Z</time></trkpt><trkpt lat="45.16262411017545" lon="7.698981650988457"><ele>243.0</ele><time>2026-04-19T08:39:32Z</time></trkpt><trkpt lat="45.1626836229086" lon="7.699147934295124"><ele>243.0</ele><time>2026-04-19T08:39:33Z</time></trkpt><trkpt lat="45.162738325760344" lon="7.699308001188572"><ele>243.0</ele><time>2026-04-19T08:39:34Z</time></trkpt><trkpt lat="45.16279049584511" lon="7.699470220364233"><ele>243.0</ele><time>2026-04-19T08:39:35Z</time></trkpt><trkpt lat="45.16281300407474" lon="7.699633941325629"><ele>243.0</ele><time>2026-04-19T08:39:36Z</time></trkpt><trkpt lat="45.16283207129218" lon="7.6997800551149425"><ele>243.0</ele><time>2026-04-19T08:39:37Z</time></trkpt><trkpt lat="45.162839121154335" lon="7.699920717047329"><ele>243.0</ele><time>2026-04-19T08:39:38Z</time></trkpt><trkpt lat="45.16283455520524" lon="7.700030501394068"><ele>243.0</ele><time>2026-04-19T08:39:39Z</time></trkpt><trkpt lat="45.162834309187986" lon="7.700157902506256"><ele>243.4</ele><time>2026-04-19T08:39:41Z</time></trkpt><trkpt lat="45.16288372514886" lon="7.700289990407242"><ele>243.8</ele><time>2026-04-19T08:40:41Z</time></trkpt><trkpt lat="45.16289598681417" lon="7.700411724577014"><ele>244.2</ele><time>2026-04-19T08:40:42Z</time></trkpt><trkpt lat="45.16291462355659" lon="7.700540152590017"><ele>244.6</ele><time>2026-04-19T08:40:43Z</time></trkpt><trkpt lat="45.162936665224436" lon="7.700699463738202"><ele>245.0</ele><time>2026-04-19T08:40:44Z</time></trkpt><trkpt lat="45.1629618318125" lon="7.700889033489614"><ele>244.75</ele><time>2026-04-19T08:40:45Z</time></trkpt><trkpt lat="45.16299459649418" lon="7.701088801178752"><ele>244.5</ele><time>2026-04-19T08:40:46Z</time></trkpt><trkpt lat="45.16302408839779" lon="7.701288983767425"><ele>244.25</ele><time>2026-04-19T08:40:47Z</time></trkpt><trkpt lat="45.163049177538205" lon="7.7014924338540185"><ele>244.0</ele><time>2026-04-19T08:40:48Z</time></trkpt><trkpt lat="45.163073106938505" lon="7.701690720921751"><ele>244.0</ele><time>2026-04-19T08:40:49Z</time></trkpt><trkpt lat="45.16309554258553" lon="7.7018744939264545"><ele>244.0</ele><time>2026-04-19T08:40:50Z</time></trkpt><trkpt lat="45.163118289913236" lon="7.702050753810221"><ele>244.0</ele><time>2026-04-19T08:40:51Z</time></trkpt><trkpt lat="45.16314624475703" lon="7.702245390039447"><ele>244.0</ele><time>2026-04-19T08:40:52Z</time></trkpt><trkpt lat="45.16317918496181" lon="7.702467382941515"><ele>244.33333333333331</ele><time>2026-04-19T08:40:53Z</time></trkpt><trkpt lat="45.16321179079292" lon="7.70269866997663"><ele>244.66666666666669</ele><time>2026-04-19T08:40:54Z</time></trkpt><trkpt lat="45.163243888505164" lon="7.702934254294882"><ele>245.0</ele><time>2026-04-19T08:40:55Z</time></trkpt><trkpt lat="45.163281811837145" lon="7.703189939620177"><ele>244.33333333333334</ele><time>2026-04-19T08:40:56Z</time></trkpt><trkpt lat="45.16332351580508" lon="7.703451428335062"><ele>243.66666666666669</ele><time>2026-04-19T08:40:57Z</time></trkpt><trkpt lat="45.16336078111933" lon="7.703711969564804"><ele>243.0</ele><time>2026-04-19T08:40:58Z</time></trkpt><trkpt lat="45.16339847953151" lon="7.703963533190176"><ele>242.66666666666669</ele><time>2026-04-19T08:40:59Z</time></trkpt><trkpt lat="45.163435450507755" lon="7.704208784863121"><ele>242.33333333333334</ele><time>2026-04-19T08:41:00Z</time></trkpt><trkpt lat="45.16347174140432" lon="7.704462293553289"><ele>242.0</ele><time>2026-04-19T08:41:01Z</time></trkpt><trkpt lat="45.163510637359174" lon="7.7047228976886215"><ele>241.66666666666669</ele><time>2026-04-19T08:41:02Z</time></trkpt><trkpt lat="45.1635527537088" lon="7.704982466786888"><ele>241.33333333333331</ele><time>2026-04-19T08:41:03Z</time></trkpt><trkpt lat="45.16359428635949" lon="7.70522391563218"><ele>241.0</ele><time>2026-04-19T08:41:04Z</time></trkpt><trkpt lat="45.16363506575749" lon="7.705445996645159"><ele>240.66666666666666</ele><time>2026-04-19T08:41:05Z</time></trkpt><trkpt lat="45.16367501365782" lon="7.705665421530055"><ele>240.33333333333331</ele><time>2026-04-19T08:41:06Z</time></trkpt><trkpt lat="45.16371418182054" lon="7.705883141850185"><ele>240.0</ele><time>2026-04-19T08:41:07Z</time></trkpt><trkpt lat="45.16375153853629" lon="7.706105163235387"><ele>240.0</ele><time>2026-04-19T08:41:08Z</time></trkpt><trkpt lat="45.163790718008194" lon="7.706325679802534"><ele>240.0</ele><time>2026-04-19T08:41:09Z</time></trkpt><trkpt lat="45.16382313979618" lon="7.706539919554593"><ele>240.0</ele><time>2026-04-19T08:41:10Z</time></trkpt><trkpt lat="45.16385408538387" lon="7.706762649316842"><ele>240.33333333333331</ele><time>2026-04-19T08:41:11Z</time></trkpt><trkpt lat="45.163865622104304" lon="7.706992595643119"><ele>240.66666666666666</ele><time>2026-04-19T08:41:12Z</time></trkpt><trkpt lat="45.163856016806626" lon="7.707218959156199"><ele>241.0</ele><time>2026-04-19T08:41:13Z</time></trkpt><trkpt lat="45.16383432774485" lon="7.707435607179201"><ele>241.0</ele><time>2026-04-19T08:41:14Z</time></trkpt><trkpt lat="45.163812226828256" lon="7.707635200951756"><ele>241.0</ele><time>2026-04-19T08:41:15Z</time></trkpt><trkpt lat="45.16379711382321" lon="7.707816450026571"><ele>241.0</ele><time>2026-04-19T08:41:16Z</time></trkpt><trkpt lat="45.163786244281084" lon="7.707980342174634"><ele>241.0</ele><time>2026-04-19T08:41:17Z</time></trkpt><trkpt lat="45.16377408636961" lon="7.708117202757783"><ele>240.60000000000002</ele><time>2026-04-19T08:41:18Z</time></trkpt><trkpt lat="45.163751699217435" lon="7.708215915631273"><ele>240.20000000000002</ele><time>2026-04-19T08:41:19Z</time></trkpt><trkpt lat="45.163658266193686" lon="7.708325136984943"><ele>239.79999999999998</ele><time>2026-04-19T08:41:21Z</time></trkpt><trkpt lat="45.1635861120243" lon="7.708461658797303"><ele>239.39999999999998</ele><time>2026-04-19T08:41:23Z</time></trkpt><trkpt lat="45.16361009333591" lon="7.708572639671187"><ele>239.0</ele><time>2026-04-19T08:41:24Z</time></trkpt><trkpt lat="45.16360008508653" lon="7.70867315484588"><ele>239.0</ele><time>2026-04-19T08:41:25Z</time></trkpt><trkpt lat="45.16358993198935" lon="7.708771065804006"><ele>238.99999999999997</ele><time>2026-04-19T08:41:26Z</time></trkpt><trkpt lat="45.1635389729456" lon="7.708848483304429"><ele>238.99999999999997</ele><time>2026-04-19T08:41:27Z</time></trkpt><trkpt lat="45.16346742185682" lon="7.708909585115735"><ele>239.0</ele><time>2026-04-19T08:41:28Z</time></trkpt><trkpt lat="45.163371830178306" lon="7.708975122586131"><ele>239.0</ele><time>2026-04-19T08:41:29Z</time></trkpt><trkpt lat="45.16325517420455" lon="7.7090865787121094"><ele>239.0</ele><time>2026-04-19T08:41:30Z</time></trkpt><trkpt lat="45.163147200939186" lon="7.709230722201921"><ele>239.0</ele><time>2026-04-19T08:41:31Z</time></trkpt><trkpt lat="45.1630194161484" lon="7.709379959567296"><ele>239.0</ele><time>2026-04-19T08:41:32Z</time></trkpt><trkpt lat="45.16289451271051" lon="7.70954043804293"><ele>239.33333333333334</ele><time>2026-04-19T08:41:33Z</time></trkpt><trkpt lat="45.16277356093437" lon="7.709691006895129"><ele>239.66666666666669</ele><time>2026-04-19T08:41:34Z</time></trkpt><trkpt lat="45.162657826940695" lon="7.709849913572222"><ele>240.0</ele><time>2026-04-19T08:41:35Z</time></trkpt><trkpt lat="45.16255153297804" lon="7.709981618696471"><ele>240.0</ele><time>2026-04-19T08:41:36Z</time></trkpt><trkpt lat="45.16244727266241" lon="7.710100015201928"><ele>240.0</ele><time>2026-04-19T08:41:37Z</time></trkpt><trkpt lat="45.16234486246312" lon="7.710196351107"><ele>240.0</ele><time>2026-04-19T08:41:38Z</time></trkpt><trkpt lat="45.16224950024874" lon="7.710280276630514"><ele>240.0</ele><time>2026-04-19T08:41:39Z</time></trkpt><trkpt lat="45.162156402714686" lon="7.710325694828662"><ele>239.33333333333331</ele><time>2026-04-19T08:41:40Z</time></trkpt><trkpt lat="45.16208328705411" lon="7.710386146657522"><ele>238.66666666666666</ele><time>2026-04-19T08:41:41Z</time></trkpt><trkpt lat="45.16199106483949" lon="7.710378311003178"><ele>238.0</ele><time>2026-04-19T08:41:43Z</time></trkpt><trkpt lat="45.162000398371724" lon="7.710918523647859"><ele>238.0</ele><time>2026-04-19T08:41:52Z</time></trkpt><trkpt lat="45.16207573813215" lon="7.7109340636854995"><ele>238.0</ele><time>2026-04-19T08:41:53Z</time></trkpt><trkpt lat="45.162145435277644" lon="7.710950297522175"><ele>238.0</ele><time>2026-04-19T08:41:54Z</time></trkpt><trkpt lat="45.162223659546825" lon="7.710951118686447"><ele>238.0</ele><time>2026-04-19T08:41:55Z</time></trkpt><trkpt lat="45.162392625305294" lon="7.710200136162969"><ele>238.5</ele><time>2026-04-19T08:41:56Z</time></trkpt><trkpt lat="45.16249679435677" lon="7.710081205265582"><ele>239.0</ele><time>2026-04-19T08:41:57Z</time></trkpt><trkpt lat="45.16261176630162" lon="7.7099535071426475"><ele>239.5</ele><time>2026-04-19T08:41:58Z</time></trkpt><trkpt lat="45.16272401062507" lon="7.709825957275852"><ele>240.0</ele><time>2026-04-19T08:41:59Z</time></trkpt><trkpt lat="45.16283795358615" lon="7.709681595661878"><ele>240.0</ele><time>2026-04-19T08:42:00Z</time></trkpt><trkpt lat="45.16295398827063" lon="7.709528917439628"><ele>240.0</ele><time>2026-04-19T08:42:01Z</time></trkpt><trkpt lat="45.163074317300236" lon="7.709372033478102"><ele>240.0</ele><time>2026-04-19T08:42:02Z</time></trkpt><trkpt lat="45.1631885003509" lon="7.709226688246744"><ele>239.8</ele><time>2026-04-19T08:42:03Z</time></trkpt><trkpt lat="45.163289183893724" lon="7.709106100573709"><ele>239.6</ele><time>2026-04-19T08:42:04Z</time></trkpt><trkpt lat="45.163381958441896" lon="7.709001281733579"><ele>239.39999999999998</ele><time>2026-04-19T08:42:05Z</time></trkpt><trkpt lat="45.16346908362239" lon="7.708912539403535"><ele>239.2</ele><time>2026-04-19T08:42:06Z</time></trkpt><trkpt lat="45.16354826313385" lon="7.708849141816732"><ele>239.0</ele><time>2026-04-19T08:42:07Z</time></trkpt><trkpt lat="45.16362270411798" lon="7.70880173248109"><ele>239.0</ele><time>2026-04-19T08:42:08Z</time></trkpt><trkpt lat="45.16368136771026" lon="7.708764210408237"><ele>238.99999999999997</ele><time>2026-04-19T08:42:09Z</time></trkpt><trkpt lat="45.16380646026407" lon="7.708704859217025"><ele>238.99999999999997</ele><time>2026-04-19T08:42:11Z</time></trkpt><trkpt lat="45.16387773121121" lon="7.7086736453293705"><ele>239.0</ele><time>2026-04-19T08:42:12Z</time></trkpt><trkpt lat="45.16397136847446" lon="7.70862019485321"><ele>239.0</ele><time>2026-04-19T08:42:13Z</time></trkpt><trkpt lat="45.16408928458372" lon="7.708544358758197"><ele>239.33333333333334</ele><time>2026-04-19T08:42:14Z</time></trkpt><trkpt lat="45.16422975603216" lon="7.70845912976421"><ele>239.66666666666669</ele><time>2026-04-19T08:42:15Z</time></trkpt><trkpt lat="45.16438039927064" lon="7.708371879009597"><ele>240.0</ele><time>2026-04-19T08:42:16Z</time></trkpt><trkpt lat="45.16453668272667" lon="7.708285422651493"><ele>240.0</ele><time>2026-04-19T08:42:17Z</time></trkpt><trkpt lat="45.16469136326489" lon="7.708195404489687"><ele>240.0</ele><time>2026-04-19T08:42:18Z</time></trkpt><trkpt lat="45.164848646866844" lon="7.708102512311823"><ele>240.0</ele><time>2026-04-19T08:42:19Z</time></trkpt><trkpt lat="45.16500942029481" lon="7.708005466004121"><ele>240.66666666666669</ele><time>2026-04-19T08:42:20Z</time></trkpt><trkpt lat="45.16515610600953" lon="7.707919312696127"><ele>241.33333333333334</ele><time>2026-04-19T08:42:21Z</time></trkpt><trkpt lat="45.16529996895836" lon="7.707834690465855"><ele>242.0</ele><time>2026-04-19T08:42:22Z</time></trkpt><trkpt lat="45.165445725367725" lon="7.707747353926941"><ele>242.0</ele><time>2026-04-19T08:42:23Z</time></trkpt><trkpt lat="45.16558299740478" lon="7.707664174993683"><ele>242.0</ele><time>2026-04-19T08:42:24Z</time></trkpt><trkpt lat="45.16572140407367" lon="7.707585075736825"><ele>242.0</ele><time>2026-04-19T08:42:25Z</time></trkpt><trkpt lat="45.16585552913203" lon="7.707511513983574"><ele>242.0</ele><time>2026-04-19T08:42:26Z</time></trkpt><trkpt lat="45.16598601466958" lon="7.707438555666259"><ele>241.8</ele><time>2026-04-19T08:42:27Z</time></trkpt><trkpt lat="45.166099504371026" lon="7.707370834041963"><ele>241.6</ele><time>2026-04-19T08:42:28Z</time></trkpt><trkpt lat="45.166204147808" lon="7.707310695042695"><ele>241.40000000000003</ele><time>2026-04-19T08:42:29Z</time></trkpt><trkpt lat="45.16629816820954" lon="7.707256921031116"><ele>241.20000000000002</ele><time>2026-04-19T08:42:30Z</time></trkpt><trkpt lat="45.166399122032075" lon="7.707205522235537"><ele>241.0</ele><time>2026-04-19T08:42:32Z</time></trkpt><trkpt lat="45.1665115582824" lon="7.707136532453295"><ele>240.99999999999997</ele><time>2026-04-19T08:42:34Z</time></trkpt><trkpt lat="45.1665721012898" lon="7.707083284487143"><ele>241.0</ele><time>2026-04-19T08:42:35Z</time></trkpt><trkpt lat="45.166638355530985" lon="7.707044340984488"><ele>241.0</ele><time>2026-04-19T08:42:36Z</time></trkpt><trkpt lat="45.166721385210735" lon="7.707007977675411"><ele>241.0</ele><time>2026-04-19T08:42:37Z</time></trkpt><trkpt lat="45.16679427924855" lon="7.706981681871423"><ele>240.99999999999997</ele><time>2026-04-19T08:42:38Z</time></trkpt><trkpt lat="45.166879108468954" lon="7.706915795946328"><ele>241.0</ele><time>2026-04-19T08:42:39Z</time></trkpt><trkpt lat="45.166974101474565" lon="7.706840730536371"><ele>241.20000000000002</ele><time>2026-04-19T08:42:40Z</time></trkpt><trkpt lat="45.16707638158129" lon="7.706776215523158"><ele>241.40000000000003</ele><time>2026-04-19T08:42:41Z</time></trkpt><trkpt lat="45.16716667858542" lon="7.706720015365393"><ele>241.6</ele><time>2026-04-19T08:42:42Z</time></trkpt><trkpt lat="45.16725507930303" lon="7.706666505305591"><ele>241.8</ele><time>2026-04-19T08:42:43Z</time></trkpt><trkpt lat="45.167330965157376" lon="7.706636466709163"><ele>242.0</ele><time>2026-04-19T08:42:44Z</time></trkpt><trkpt lat="45.167399597890274" lon="7.706609730029151"><ele>242.16666666666669</ele><time>2026-04-19T08:42:45Z</time></trkpt><trkpt lat="45.167463518931456" lon="7.706599921985753"><ele>242.33333333333334</ele><time>2026-04-19T08:42:46Z</time></trkpt><trkpt lat="45.16753479433838" lon="7.706594243914495"><ele>242.5</ele><time>2026-04-19T08:42:47Z</time></trkpt><trkpt lat="45.1676233113411" lon="7.706589407645516"><ele>242.66666666666669</ele><time>2026-04-19T08:42:48Z</time></trkpt><trkpt lat="45.16770692538619" lon="7.706599252081407"><ele>242.83333333333334</ele><time>2026-04-19T08:42:49Z</time></trkpt><trkpt lat="45.16779509934719" lon="7.706591376745392"><ele>243.0</ele><time>2026-04-19T08:42:50Z</time></trkpt><trkpt lat="45.16788283118781" lon="7.7065923047001474"><ele>243.0</ele><time>2026-04-19T08:42:51Z</time></trkpt><trkpt lat="45.167969596063614" lon="7.706599481009513"><ele>243.0</ele><time>2026-04-19T08:42:52Z</time></trkpt><trkpt lat="45.16805936400729" lon="7.706603295691816"><ele>243.0</ele><time>2026-04-19T08:42:53Z</time></trkpt><trkpt lat="45.16813006044043" lon="7.706617028065682"><ele>243.0</ele><time>2026-04-19T08:42:54Z</time></trkpt><trkpt lat="45.168124521809474" lon="7.706730440352766"><ele>243.0</ele><time>2026-04-19T08:42:58Z</time></trkpt><trkpt lat="45.16811043256519" lon="7.706848514785438"><ele>243.0</ele><time>2026-04-19T08:42:59Z</time></trkpt><trkpt lat="45.1680906710985" lon="7.706985307916483"><ele>243.0</ele><time>2026-04-19T08:43:00Z</time></trkpt><trkpt lat="45.16805405651872" lon="7.707094633424786"><ele>243.0</ele><time>2026-04-19T08:43:01Z</time></trkpt><trkpt lat="45.1680518146966" lon="7.7071982885746575"><ele>243.0</ele><time>2026-04-19T08:43:02Z</time></trkpt><trkpt lat="45.16802928595548" lon="7.707321023590803"><ele>243.0</ele><time>2026-04-19T08:43:03Z</time></trkpt><trkpt lat="45.168018536606766" lon="7.7074815359960285"><ele>243.0</ele><time>2026-04-19T08:43:04Z</time></trkpt><trkpt lat="45.16800340749849" lon="7.70766396874899"><ele>243.0</ele><time>2026-04-19T08:43:05Z</time></trkpt><trkpt lat="45.16798488276076" lon="7.707853584295855"><ele>243.0</ele><time>2026-04-19T08:43:06Z</time></trkpt><trkpt lat="45.16796368624429" lon="7.708057119269774"><ele>243.0</ele><time>2026-04-19T08:43:07Z</time></trkpt><trkpt lat="45.16794289965641" lon="7.708259009993016"><ele>243.0</ele><time>2026-04-19T08:43:08Z</time></trkpt><trkpt lat="45.167923724466846" lon="7.708439191804392"><ele>243.0</ele><time>2026-04-19T08:43:09Z</time></trkpt><trkpt lat="45.16790223484005" lon="7.708594758629628"><ele>243.0</ele><time>2026-04-19T08:43:10Z</time></trkpt><trkpt lat="45.16787843191256" lon="7.7087255859864685"><ele>243.0</ele><time>2026-04-19T08:43:11Z</time></trkpt><trkpt lat="45.16786499579105" lon="7.708827591367965"><ele>243.0</ele><time>2026-04-19T08:43:12Z</time></trkpt><trkpt lat="45.16788003480724" lon="7.708943271270546"><ele>243.0</ele><time>2026-04-19T08:43:14Z</time></trkpt><trkpt lat="45.167983270831435" lon="7.709019122598496"><ele>243.0</ele><time>2026-04-19T08:43:16Z</time></trkpt><trkpt lat="45.16806417642908" lon="7.70904538096341"><ele>243.0</ele><time>2026-04-19T08:43:17Z</time></trkpt><trkpt lat="45.168157104648564" lon="7.709066002895221"><ele>243.0</ele><time>2026-04-19T08:43:18Z</time></trkpt><trkpt lat="45.1682660773412" lon="7.709096804033745"><ele>243.0</ele><time>2026-04-19T08:43:19Z</time></trkpt><trkpt lat="45.168395599205624" lon="7.709142717496512"><ele>243.0</ele><time>2026-04-19T08:43:20Z</time></trkpt><trkpt lat="45.168523058676115" lon="7.709182151078382"><ele>243.5</ele><time>2026-04-19T08:43:21Z</time></trkpt><trkpt lat="45.16864019978023" lon="7.709231149001779"><ele>244.0</ele><time>2026-04-19T08:43:22Z</time></trkpt><trkpt lat="45.16876279997912" lon="7.7092725444940795"><ele>244.5</ele><time>2026-04-19T08:43:23Z</time></trkpt><trkpt lat="45.168880057261404" lon="7.709312903711384"><ele>245.0</ele><time>2026-04-19T08:43:24Z</time></trkpt><trkpt lat="45.16898712381985" lon="7.709352913687072"><ele>244.83333333333334</ele><time>2026-04-19T08:43:25Z</time></trkpt><trkpt lat="45.169079378329414" lon="7.70938789902631"><ele>244.66666666666669</ele><time>2026-04-19T08:43:26Z</time></trkpt><trkpt lat="45.16916049259533" lon="7.709414706867195"><ele>244.5</ele><time>2026-04-19T08:43:27Z</time></trkpt><trkpt lat="45.169246239945466" lon="7.709439886209755"><ele>244.33333333333331</ele><time>2026-04-19T08:43:28Z</time></trkpt><trkpt lat="45.16934656279038" lon="7.709475745941288"><ele>244.16666666666666</ele><time>2026-04-19T08:43:30Z</time></trkpt><trkpt lat="45.16939063961485" lon="7.709544447466497"><ele>244.0</ele><time>2026-04-19T08:43:32Z</time></trkpt><trkpt lat="45.16939025369843" lon="7.7097092758312495"><ele>244.0</ele><time>2026-04-19T08:43:34Z</time></trkpt><trkpt lat="45.169381717209774" lon="7.709834037812967"><ele>243.99999999999997</ele><time>2026-04-19T08:43:35Z</time></trkpt><trkpt lat="45.169366837774" lon="7.70998461524203"><ele>243.99999999999997</ele><time>2026-04-19T08:43:36Z</time></trkpt><trkpt lat="45.169353278914166" lon="7.7101540958800046"><ele>244.0</ele><time>2026-04-19T08:43:37Z</time></trkpt><trkpt lat="45.169344971985424" lon="7.710333761395343"><ele>244.0</ele><time>2026-04-19T08:43:38Z</time></trkpt><trkpt lat="45.16934046915348" lon="7.710512779884572"><ele>244.0</ele><time>2026-04-19T08:43:39Z</time></trkpt><trkpt lat="45.16933442115149" lon="7.710697537582829"><ele>244.0</ele><time>2026-04-19T08:43:40Z</time></trkpt><trkpt lat="45.16932687952475" lon="7.710882419430648"><ele>244.0</ele><time>2026-04-19T08:43:41Z</time></trkpt><trkpt lat="45.169315982711" lon="7.711073652642536"><ele>244.0</ele><time>2026-04-19T08:43:42Z</time></trkpt><trkpt lat="45.16930182696241" lon="7.711268547312597"><ele>244.0</ele><time>2026-04-19T08:43:43Z</time></trkpt><trkpt lat="45.16928216187666" lon="7.711460431902384"><ele>244.0</ele><time>2026-04-19T08:43:44Z</time></trkpt><trkpt lat="45.16926151635958" lon="7.711640555753534"><ele>244.0</ele><time>2026-04-19T08:43:45Z</time></trkpt><trkpt lat="45.169241500840585" lon="7.7117984258064345"><ele>244.0</ele><time>2026-04-19T08:43:46Z</time></trkpt><trkpt lat="45.16922782684906" lon="7.711946422508672"><ele>243.99999999999997</ele><time>2026-04-19T08:43:47Z</time></trkpt><trkpt lat="45.16921164630931" lon="7.712077301863399"><ele>244.0</ele><time>2026-04-19T08:43:48Z</time></trkpt><trkpt lat="45.169197650418056" lon="7.712196477214867"><ele>244.0</ele><time>2026-04-19T08:43:49Z</time></trkpt><trkpt lat="45.16919094950932" lon="7.712289162261712"><ele>244.0</ele><time>2026-04-19T08:43:50Z</time></trkpt><trkpt lat="45.16917510090579" lon="7.712392671586524"><ele>243.99999999999997</ele><time>2026-04-19T08:43:52Z</time></trkpt><trkpt lat="45.169171117972276" lon="7.712524524762732"><ele>244.0</ele><time>2026-04-19T08:44:31Z</time></trkpt><trkpt lat="45.169261154043305" lon="7.712611544882558"><ele>244.0</ele><time>2026-04-19T08:44:33Z</time></trkpt><trkpt lat="45.16932723141241" lon="7.712640023197187"><ele>243.99999999999997</ele><time>2026-04-19T08:44:34Z</time></trkpt><trkpt lat="45.169415537988655" lon="7.712667148370997"><ele>243.99999999999997</ele><time>2026-04-19T08:44:35Z</time></trkpt><trkpt lat="45.16955625882785" lon="7.712683087047816"><ele>244.0</ele><time>2026-04-19T08:44:36Z</time></trkpt><trkpt lat="45.16969963869288" lon="7.7127099941469615"><ele>244.0</ele><time>2026-04-19T08:44:37Z</time></trkpt><trkpt lat="45.169838031511716" lon="7.712750102539019"><ele>243.33333333333331</ele><time>2026-04-19T08:44:38Z</time></trkpt><trkpt lat="45.16998334531855" lon="7.7127895708045555"><ele>242.66666666666669</ele><time>2026-04-19T08:44:39Z</time></trkpt><trkpt lat="45.170142673648876" lon="7.712826384929224"><ele>242.0</ele><time>2026-04-19T08:44:40Z</time></trkpt><trkpt lat="45.170316584544466" lon="7.712860515071365"><ele>242.0</ele><time>2026-04-19T08:44:41Z</time></trkpt><trkpt lat="45.17050243138149" lon="7.7128997378707425"><ele>242.0</ele><time>2026-04-19T08:44:42Z</time></trkpt><trkpt lat="45.17068677277073" lon="7.712945918723762"><ele>242.0</ele><time>2026-04-19T08:44:43Z</time></trkpt><trkpt lat="45.17087115029093" lon="7.71299366006138"><ele>241.33333333333334</ele><time>2026-04-19T08:44:44Z</time></trkpt><trkpt lat="45.1710553528937" lon="7.713040595892573"><ele>240.66666666666669</ele><time>2026-04-19T08:44:45Z</time></trkpt><trkpt lat="45.17123251236677" lon="7.713082241931147"><ele>240.0</ele><time>2026-04-19T08:44:46Z</time></trkpt><trkpt lat="45.17140515267683" lon="7.713122028057051"><ele>241.0</ele><time>2026-04-19T08:44:47Z</time></trkpt><trkpt lat="45.1715742319011" lon="7.713158595399141"><ele>242.0</ele><time>2026-04-19T08:44:48Z</time></trkpt><trkpt lat="45.17174015501653" lon="7.713195209898581"><ele>243.0</ele><time>2026-04-19T08:44:49Z</time></trkpt><trkpt lat="45.171905509625006" lon="7.713236364428424"><ele>243.0</ele><time>2026-04-19T08:44:50Z</time></trkpt><trkpt lat="45.17206492831604" lon="7.713274242305344"><ele>243.0</ele><time>2026-04-19T08:44:51Z</time></trkpt><trkpt lat="45.1722243050269" lon="7.713310003245588"><ele>243.0</ele><time>2026-04-19T08:44:52Z</time></trkpt><trkpt lat="45.1723824869312" lon="7.71334170672731"><ele>243.33333333333331</ele><time>2026-04-19T08:44:53Z</time></trkpt><trkpt lat="45.172538171346794" lon="7.7133723648861805"><ele>243.66666666666666</ele><time>2026-04-19T08:44:54Z</time></trkpt><trkpt lat="45.172692958597324" lon="7.713410492969082"><ele>244.0</ele><time>2026-04-19T08:44:55Z</time></trkpt><trkpt lat="45.17284873363446" lon="7.713455083982351"><ele>244.0</ele><time>2026-04-19T08:44:56Z</time></trkpt><trkpt lat="45.17301230554961" lon="7.713499480907213"><ele>244.0</ele><time>2026-04-19T08:44:57Z</time></trkpt><trkpt lat="45.17318652965033" lon="7.713545158862224"><ele>244.0</ele><time>2026-04-19T08:44:58Z</time></trkpt><trkpt lat="45.17336525898158" lon="7.713582483743823"><ele>244.33333333333331</ele><time>2026-04-19T08:44:59Z</time></trkpt><trkpt lat="45.1735439228086" lon="7.71361721365658"><ele>244.66666666666669</ele><time>2026-04-19T08:45:00Z</time></trkpt><trkpt lat="45.17372253956052" lon="7.713658622564716"><ele>245.0</ele><time>2026-04-19T08:45:01Z</time></trkpt><trkpt lat="45.173900394410886" lon="7.713699935885589"><ele>245.0</ele><time>2026-04-19T08:45:02Z</time></trkpt><trkpt lat="45.17407608662139" lon="7.713741031073078"><ele>245.0</ele><time>2026-04-19T08:45:03Z</time></trkpt><trkpt lat="45.174250454313345" lon="7.713781810453882"><ele>245.0</ele><time>2026-04-19T08:45:04Z</time></trkpt><trkpt lat="45.17442466246661" lon="7.713822985962661"><ele>245.0</ele><time>2026-04-19T08:45:05Z</time></trkpt><trkpt lat="45.17459654543617" lon="7.71386358260814"><ele>245.0</ele><time>2026-04-19T08:45:06Z</time></trkpt><trkpt lat="45.17476685837776" lon="7.713904181674946"><ele>245.0</ele><time>2026-04-19T08:45:07Z</time></trkpt><trkpt lat="45.17494104213293" lon="7.7139435590822405"><ele>245.66666666666669</ele><time>2026-04-19T08:45:08Z</time></trkpt><trkpt lat="45.17511263879724" lon="7.713988342718868"><ele>246.33333333333331</ele><time>2026-04-19T08:45:09Z</time></trkpt><trkpt lat="45.17528419531605" lon="7.7140335215502045"><ele>247.0</ele><time>2026-04-19T08:45:10Z</time></trkpt><trkpt lat="45.175447275288114" lon="7.714078068765047"><ele>247.0</ele><time>2026-04-19T08:45:11Z</time></trkpt><trkpt lat="45.175610260030126" lon="7.714117122982051"><ele>247.0</ele><time>2026-04-19T08:45:12Z</time></trkpt><trkpt lat="45.17576558248456" lon="7.714140167618886"><ele>247.0</ele><time>2026-04-19T08:45:13Z</time></trkpt><trkpt lat="45.17592643310703" lon="7.714177461820856"><ele>246.33333333333331</ele><time>2026-04-19T08:45:14Z</time></trkpt><trkpt lat="45.17608648367466" lon="7.714214630453483"><ele>245.66666666666669</ele><time>2026-04-19T08:45:15Z</time></trkpt><trkpt lat="45.17624702434983" lon="7.714252923748537"><ele>245.0</ele><time>2026-04-19T08:45:16Z</time></trkpt><trkpt lat="45.17640634166286" lon="7.71429375398487"><ele>245.0</ele><time>2026-04-19T08:45:17Z</time></trkpt><trkpt lat="45.17656494491023" lon="7.714334701805228"><ele>245.0</ele><time>2026-04-19T08:45:18Z</time></trkpt><trkpt lat="45.17672293108728" lon="7.714367617012229"><ele>245.0</ele><time>2026-04-19T08:45:19Z</time></trkpt><trkpt lat="45.17688222781738" lon="7.714398453945277"><ele>245.0</ele><time>2026-04-19T08:45:20Z</time></trkpt><trkpt lat="45.17704124739062" lon="7.714428001635961"><ele>245.0</ele><time>2026-04-19T08:45:21Z</time></trkpt><trkpt lat="45.17719892664304" lon="7.714461780849167"><ele>245.0</ele><time>2026-04-19T08:45:22Z</time></trkpt><trkpt lat="45.17735480173954" lon="7.714495973790754"><ele>245.0</ele><time>2026-04-19T08:45:23Z</time></trkpt><trkpt lat="45.17750726672182" lon="7.714523515917228"><ele>245.0</ele><time>2026-04-19T08:45:24Z</time></trkpt><trkpt lat="45.1776575276275" lon="7.714560786178896"><ele>245.0</ele><time>2026-04-19T08:45:25Z</time></trkpt><trkpt lat="45.17780575046624" lon="7.714601105120667"><ele>245.0</ele><time>2026-04-19T08:45:26Z</time></trkpt><trkpt lat="45.17795073058219" lon="7.714635781084694"><ele>245.0</ele><time>2026-04-19T08:45:27Z</time></trkpt><trkpt lat="45.17809792773329" lon="7.714668896538058"><ele>245.0</ele><time>2026-04-19T08:45:28Z</time></trkpt><trkpt lat="45.17824423866861" lon="7.714700500994443"><ele>245.0</ele><time>2026-04-19T08:45:29Z</time></trkpt><trkpt lat="45.17838790374374" lon="7.714730376323502"><ele>245.25</ele><time>2026-04-19T08:45:30Z</time></trkpt><trkpt lat="45.17852400780875" lon="7.714753781939469"><ele>245.5</ele><time>2026-04-19T08:45:31Z</time></trkpt><trkpt lat="45.178656157352144" lon="7.714808968542865"><ele>245.75</ele><time>2026-04-19T08:45:32Z</time></trkpt><trkpt lat="45.17879333075889" lon="7.714825794808084"><ele>246.0</ele><time>2026-04-19T08:45:33Z</time></trkpt><trkpt lat="45.17891395138398" lon="7.714867850976493"><ele>246.0</ele><time>2026-04-19T08:45:34Z</time></trkpt><trkpt lat="45.179028547626935" lon="7.714910674140567"><ele>246.00000000000003</ele><time>2026-04-19T08:45:35Z</time></trkpt><trkpt lat="45.1791302622088" lon="7.714953624006177"><ele>246.00000000000003</ele><time>2026-04-19T08:45:36Z</time></trkpt><trkpt lat="45.17921693098873" lon="7.715004765747777"><ele>246.0</ele><time>2026-04-19T08:45:37Z</time></trkpt><trkpt lat="45.17929322939702" lon="7.715053345411602"><ele>246.0</ele><time>2026-04-19T08:45:38Z</time></trkpt><trkpt lat="45.1793526830006" lon="7.715101192576383"><ele>246.0</ele><time>2026-04-19T08:45:39Z</time></trkpt><trkpt lat="45.179414847245255" lon="7.715180864869897"><ele>246.00000000000003</ele><time>2026-04-19T08:45:41Z</time></trkpt><trkpt lat="45.17947611635036" lon="7.715232576766767"><ele>246.00000000000003</ele><time>2026-04-19T08:45:45Z</time></trkpt><trkpt lat="45.17951950353092" lon="7.715311758278045"><ele>246.0</ele><time>2026-04-19T08:45:47Z</time></trkpt><trkpt lat="45.179593822406645" lon="7.715385012864685"><ele>246.0</ele><time>2026-04-19T08:45:49Z</time></trkpt><trkpt lat="45.17979298054376" lon="7.715440249394967"><ele>246.0</ele><time>2026-04-19T08:45:51Z</time></trkpt><trkpt lat="45.17984989508071" lon="7.715353162096812"><ele>246.0</ele><time>2026-04-19T08:45:52Z</time></trkpt><trkpt lat="45.17987705411218" lon="7.7152470384455345"><ele>246.0</ele><time>2026-04-19T08:45:53Z</time></trkpt><trkpt lat="45.179841897081864" lon="7.715123474338821"><ele>246.0</ele><time>2026-04-19T08:45:54Z</time></trkpt><trkpt lat="45.17981767436879" lon="7.715036108279839"><ele>246.0</ele><time>2026-04-19T08:45:55Z</time></trkpt><trkpt lat="45.179830846346725" lon="7.714867710578079"><ele>246.0</ele><time>2026-04-19T08:45:57Z</time></trkpt><trkpt lat="45.17984874219034" lon="7.714778766239662"><ele>246.0</ele><time>2026-04-19T08:45:58Z</time></trkpt><trkpt lat="45.17986731333884" lon="7.714686448718912"><ele>246.0</ele><time>2026-04-19T08:45:59Z</time></trkpt><trkpt lat="45.179888132288" lon="7.71458477530445"><ele>246.0</ele><time>2026-04-19T08:46:00Z</time></trkpt><trkpt lat="45.17991246165816" lon="7.714469466819482"><ele>246.0</ele><time>2026-04-19T08:46:01Z</time></trkpt><trkpt lat="45.17994106500445" lon="7.7143339025010595"><ele>246.0</ele><time>2026-04-19T08:46:02Z</time></trkpt><trkpt lat="45.17995199976153" lon="7.714207372214051"><ele>246.0</ele><time>2026-04-19T08:46:03Z</time></trkpt><trkpt lat="45.17998307856175" lon="7.714088250977081"><ele>246.20000000000002</ele><time>2026-04-19T08:46:04Z</time></trkpt><trkpt lat="45.18001535585586" lon="7.713962774787478"><ele>246.40000000000003</ele><time>2026-04-19T08:46:05Z</time></trkpt><trkpt lat="45.18003608574087" lon="7.713823273930194"><ele>246.6</ele><time>2026-04-19T08:46:06Z</time></trkpt><trkpt lat="45.180066572267705" lon="7.713690826097646"><ele>246.8</ele><time>2026-04-19T08:46:07Z</time></trkpt><trkpt lat="45.180097146905275" lon="7.713560609283673"><ele>247.0</ele><time>2026-04-19T08:46:08Z</time></trkpt><trkpt lat="45.18012615470301" lon="7.713429513290772"><ele>247.16666666666666</ele><time>2026-04-19T08:46:09Z</time></trkpt><trkpt lat="45.18014726189716" lon="7.713317047749591"><ele>247.33333333333331</ele><time>2026-04-19T08:46:10Z</time></trkpt><trkpt lat="45.18016955483065" lon="7.713210694346337"><ele>247.5</ele><time>2026-04-19T08:46:11Z</time></trkpt><trkpt lat="45.18019284634583" lon="7.713113028980265"><ele>247.66666666666669</ele><time>2026-04-19T08:46:12Z</time></trkpt><trkpt lat="45.18021463618688" lon="7.7130123761587654"><ele>247.83333333333334</ele><time>2026-04-19T08:46:13Z</time></trkpt><trkpt lat="45.18023453512412" lon="7.712910568339399"><ele>248.0</ele><time>2026-04-19T08:46:14Z</time></trkpt><trkpt lat="45.180255012979536" lon="7.712800480047015"><ele>247.8</ele><time>2026-04-19T08:46:15Z</time></trkpt><trkpt lat="45.1802793907305" lon="7.71267827769383"><ele>247.60000000000002</ele><time>2026-04-19T08:46:16Z</time></trkpt><trkpt lat="45.18031299000944" lon="7.712542404634446"><ele>247.39999999999998</ele><time>2026-04-19T08:46:17Z</time></trkpt><trkpt lat="45.18034646304724" lon="7.712404081475458"><ele>247.2</ele><time>2026-04-19T08:46:18Z</time></trkpt><trkpt lat="45.1803791968747" lon="7.712265379994694"><ele>247.0</ele><time>2026-04-19T08:46:19Z</time></trkpt><trkpt lat="45.180412433287636" lon="7.7121250431611355"><ele>247.0</ele><time>2026-04-19T08:46:20Z</time></trkpt><trkpt lat="45.180444165294766" lon="7.711992916430488"><ele>247.0</ele><time>2026-04-19T08:46:21Z</time></trkpt><trkpt lat="45.18047687792453" lon="7.711858263559308"><ele>247.0</ele><time>2026-04-19T08:46:22Z</time></trkpt><trkpt lat="45.18050759161965" lon="7.7117291113496345"><ele>247.0</ele><time>2026-04-19T08:46:23Z</time></trkpt><trkpt lat="45.18053867684831" lon="7.711601063252306"><ele>247.0</ele><time>2026-04-19T08:46:24Z</time></trkpt><trkpt lat="45.18056908362286" lon="7.711478142296166"><ele>247.33333333333331</ele><time>2026-04-19T08:46:25Z</time></trkpt><trkpt lat="45.180601512812025" lon="7.711367342403561"><ele>247.66666666666666</ele><time>2026-04-19T08:46:26Z</time></trkpt><trkpt lat="45.18063311078133" lon="7.711257483451004"><ele>248.0</ele><time>2026-04-19T08:46:27Z</time></trkpt><trkpt lat="45.18065944889405" lon="7.71115426148013"><ele>248.33333333333331</ele><time>2026-04-19T08:46:28Z</time></trkpt><trkpt lat="45.18068563138398" lon="7.711055316625201"><ele>248.66666666666666</ele><time>2026-04-19T08:46:29Z</time></trkpt><trkpt lat="45.18071044391653" lon="7.710964649071288"><ele>249.0</ele><time>2026-04-19T08:46:30Z</time></trkpt><trkpt lat="45.180736988021025" lon="7.7108598492574485"><ele>249.16666666666666</ele><time>2026-04-19T08:46:31Z</time></trkpt><trkpt lat="45.180767988056715" lon="7.710751746266247"><ele>249.33333333333331</ele><time>2026-04-19T08:46:32Z</time></trkpt><trkpt lat="45.180803912099314" lon="7.710640166438819"><ele>249.5</ele><time>2026-04-19T08:46:33Z</time></trkpt><trkpt lat="45.18084304194599" lon="7.710529661792786"><ele>249.66666666666666</ele><time>2026-04-19T08:46:34Z</time></trkpt><trkpt lat="45.18087111097436" lon="7.710432230668864"><ele>249.83333333333331</ele><time>2026-04-19T08:46:35Z</time></trkpt><trkpt lat="45.18090299093487" lon="7.710335388816672"><ele>250.0</ele><time>2026-04-19T08:46:36Z</time></trkpt><trkpt lat="45.18093287406782" lon="7.710247563335226"><ele>250.2</ele><time>2026-04-19T08:46:37Z</time></trkpt><trkpt lat="45.180962914503645" lon="7.710162007267428"><ele>250.4</ele><time>2026-04-19T08:46:38Z</time></trkpt><trkpt lat="45.18101480580439" lon="7.710012992547043"><ele>250.60000000000002</ele><time>2026-04-19T08:46:40Z</time></trkpt><trkpt lat="45.181058172565756" lon="7.709876868475935"><ele>250.8</ele><time>2026-04-19T08:46:42Z</time></trkpt><trkpt lat="45.18109661154842" lon="7.709757414119714"><ele>251.0</ele><time>2026-04-19T08:46:44Z</time></trkpt><trkpt lat="45.18113344579675" lon="7.709647139139894"><ele>251.00000000000003</ele><time>2026-04-19T08:46:46Z</time></trkpt><trkpt lat="45.18115410445934" lon="7.709557081626351"><ele>251.0</ele><time>2026-04-19T08:46:48Z</time></trkpt><trkpt lat="45.181201278186734" lon="7.7094266143749834"><ele>251.0</ele><time>2026-04-19T08:46:56Z</time></trkpt><trkpt lat="45.1812618859021" lon="7.709288611446079"><ele>251.0</ele><time>2026-04-19T08:46:58Z</time></trkpt><trkpt lat="45.181278825451436" lon="7.709196200765998"><ele>251.00000000000003</ele><time>2026-04-19T08:46:59Z</time></trkpt><trkpt lat="45.18130084321898" lon="7.70909633938609"><ele>251.0</ele><time>2026-04-19T08:47:00Z</time></trkpt><trkpt lat="45.181337693721474" lon="7.708989225320391"><ele>250.8</ele><time>2026-04-19T08:47:01Z</time></trkpt><trkpt lat="45.1813795420007" lon="7.708878763889079"><ele>250.60000000000002</ele><time>2026-04-19T08:47:02Z</time></trkpt><trkpt lat="45.181425468533085" lon="7.708765468716276"><ele>250.4</ele><time>2026-04-19T08:47:03Z</time></trkpt><trkpt lat="45.181468095298854" lon="7.7086460362480755"><ele>250.2</ele><time>2026-04-19T08:47:04Z</time></trkpt><trkpt lat="45.18151370821287" lon="7.708515185445173"><ele>250.0</ele><time>2026-04-19T08:47:05Z</time></trkpt><trkpt lat="45.1815631649939" lon="7.708372393769633"><ele>250.5</ele><time>2026-04-19T08:47:06Z</time></trkpt><trkpt lat="45.18161187716282" lon="7.708225722634427"><ele>251.0</ele><time>2026-04-19T08:47:07Z</time></trkpt><trkpt lat="45.18166234045462" lon="7.708081295697334"><ele>251.5</ele><time>2026-04-19T08:47:08Z</time></trkpt><trkpt lat="45.181713175035" lon="7.707937799273406"><ele>252.0</ele><time>2026-04-19T08:47:09Z</time></trkpt><trkpt lat="45.18176392799259" lon="7.707792331246802"><ele>251.75</ele><time>2026-04-19T08:47:10Z</time></trkpt><trkpt lat="45.181814339899844" lon="7.707644900730063"><ele>251.5</ele><time>2026-04-19T08:47:11Z</time></trkpt><trkpt lat="45.181866758015545" lon="7.707492680182003"><ele>251.25</ele><time>2026-04-19T08:47:12Z</time></trkpt><trkpt lat="45.181918250916496" lon="7.707338555107623"><ele>251.0</ele><time>2026-04-19T08:47:13Z</time></trkpt><trkpt lat="45.18196810995992" lon="7.707185291952882"><ele>251.0</ele><time>2026-04-19T08:47:14Z</time></trkpt><trkpt lat="45.18201965479015" lon="7.7070321505498285"><ele>251.0</ele><time>2026-04-19T08:47:15Z</time></trkpt><trkpt lat="45.18207020956873" lon="7.706882897791114"><ele>251.0</ele><time>2026-04-19T08:47:16Z</time></trkpt><trkpt lat="45.18211819804931" lon="7.706736679430662"><ele>251.0</ele><time>2026-04-19T08:47:17Z</time></trkpt><trkpt lat="45.182164820383115" lon="7.706591493515453"><ele>251.0</ele><time>2026-04-19T08:47:18Z</time></trkpt><trkpt lat="45.182210249942024" lon="7.706447565259476"><ele>251.0</ele><time>2026-04-19T08:47:19Z</time></trkpt><trkpt lat="45.18225473501816" lon="7.706298544173453"><ele>251.0</ele><time>2026-04-19T08:47:20Z</time></trkpt><trkpt lat="45.18229839511384" lon="7.706143437619444"><ele>251.0</ele><time>2026-04-19T08:47:21Z</time></trkpt><trkpt lat="45.182337233296735" lon="7.705983731315841"><ele>251.0</ele><time>2026-04-19T08:47:22Z</time></trkpt><trkpt lat="45.18237351751364" lon="7.705814572773413"><ele>251.00000000000003</ele><time>2026-04-19T08:47:23Z</time></trkpt><trkpt lat="45.182407430619705" lon="7.70565333868534"><ele>251.00000000000003</ele><time>2026-04-19T08:47:24Z</time></trkpt><trkpt lat="45.1824363220026" lon="7.705508340921444"><ele>251.0</ele><time>2026-04-19T08:47:25Z</time></trkpt><trkpt lat="45.18245960918139" lon="7.7053744500234815"><ele>251.0</ele><time>2026-04-19T08:47:26Z</time></trkpt><trkpt lat="45.18247941161601" lon="7.705251935149422"><ele>251.20000000000002</ele><time>2026-04-19T08:47:27Z</time></trkpt><trkpt lat="45.18250021034831" lon="7.70513705398708"><ele>251.40000000000003</ele><time>2026-04-19T08:47:28Z</time></trkpt><trkpt lat="45.18251728669509" lon="7.705032097185004"><ele>251.6</ele><time>2026-04-19T08:47:29Z</time></trkpt><trkpt lat="45.18253312910116" lon="7.704935448663119"><ele>251.8</ele><time>2026-04-19T08:47:30Z</time></trkpt><trkpt lat="45.182554696949694" lon="7.704762103417095"><ele>252.0</ele><time>2026-04-19T08:47:32Z</time></trkpt><trkpt lat="45.18257761115927" lon="7.704594796454788"><ele>252.0</ele><time>2026-04-19T08:47:34Z</time></trkpt><trkpt lat="45.182623821073996" lon="7.704431971871972"><ele>252.0</ele><time>2026-04-19T08:47:36Z</time></trkpt><trkpt lat="45.18263512889859" lon="7.704334581368719"><ele>252.0</ele><time>2026-04-19T08:47:37Z</time></trkpt><trkpt lat="45.18263019005194" lon="7.704234880047612"><ele>252.0</ele><time>2026-04-19T08:47:38Z</time></trkpt><trkpt lat="45.18257121179417" lon="7.704145782897478"><ele>252.0</ele><time>2026-04-19T08:47:39Z</time></trkpt><trkpt lat="45.182521901286215" lon="7.7040572516989325"><ele>252.0</ele><time>2026-04-19T08:47:40Z</time></trkpt><trkpt lat="45.1824857043246" lon="7.7039512249788835"><ele>251.75</ele><time>2026-04-19T08:47:41Z</time></trkpt><trkpt lat="45.18246895233669" lon="7.703823147122731"><ele>251.5</ele><time>2026-04-19T08:47:42Z</time></trkpt><trkpt lat="45.18247422916812" lon="7.703645992704924"><ele>251.25</ele><time>2026-04-19T08:47:43Z</time></trkpt><trkpt lat="45.182472759133425" lon="7.70346104356262"><ele>251.0</ele><time>2026-04-19T08:47:44Z</time></trkpt><trkpt lat="45.1824781898674" lon="7.703252407649365"><ele>251.75</ele><time>2026-04-19T08:47:45Z</time></trkpt><trkpt lat="45.18248619935607" lon="7.703041135426593"><ele>252.5</ele><time>2026-04-19T08:47:46Z</time></trkpt><trkpt lat="45.18248456530036" lon="7.702846018920907"><ele>253.25</ele><time>2026-04-19T08:47:47Z</time></trkpt><trkpt lat="45.18248056884124" lon="7.7026697465758085"><ele>254.0</ele><time>2026-04-19T08:47:48Z</time></trkpt><trkpt lat="45.18247142014752" lon="7.702495608511699"><ele>254.25</ele><time>2026-04-19T08:47:49Z</time></trkpt><trkpt lat="45.18246002133603" lon="7.702320400241432"><ele>254.5</ele><time>2026-04-19T08:47:50Z</time></trkpt><trkpt lat="45.18245102263077" lon="7.7021451047716285"><ele>254.75</ele><time>2026-04-19T08:47:51Z</time></trkpt><trkpt lat="45.182445740818665" lon="7.701965246546816"><ele>255.0</ele><time>2026-04-19T08:47:52Z</time></trkpt><trkpt lat="45.182438882321534" lon="7.7017823163868995"><ele>255.25</ele><time>2026-04-19T08:47:53Z</time></trkpt><trkpt lat="45.18242981612289" lon="7.7016071763433205"><ele>255.5</ele><time>2026-04-19T08:47:54Z</time></trkpt><trkpt lat="45.18241922706883" lon="7.701432279516274"><ele>255.75</ele><time>2026-04-19T08:47:55Z</time></trkpt><trkpt lat="45.18241359630076" lon="7.701254750840717"><ele>256.0</ele><time>2026-04-19T08:47:56Z</time></trkpt><trkpt lat="45.182411959928544" lon="7.701072893067227"><ele>256.0</ele><time>2026-04-19T08:47:57Z</time></trkpt><trkpt lat="45.182408224385384" lon="7.700886164874085"><ele>256.0</ele><time>2026-04-19T08:47:58Z</time></trkpt><trkpt lat="45.182400027481684" lon="7.700696020538569"><ele>256.0</ele><time>2026-04-19T08:47:59Z</time></trkpt><trkpt lat="45.18239305127382" lon="7.7005056486790355"><ele>256.0</ele><time>2026-04-19T08:48:00Z</time></trkpt><trkpt lat="45.182389539586325" lon="7.700303372541162"><ele>255.5</ele><time>2026-04-19T08:48:01Z</time></trkpt><trkpt lat="45.18238527118157" lon="7.700083832788975"><ele>255.0</ele><time>2026-04-19T08:48:02Z</time></trkpt><trkpt lat="45.18237714927402" lon="7.699877955043718"><ele>254.5</ele><time>2026-04-19T08:48:03Z</time></trkpt><trkpt lat="45.18237220732829" lon="7.699685678285541"><ele>254.0</ele><time>2026-04-19T08:48:04Z</time></trkpt><trkpt lat="45.18236820606207" lon="7.699513843144433"><ele>253.79999999999998</ele><time>2026-04-19T08:48:05Z</time></trkpt><trkpt lat="45.182364904437904" lon="7.699355697849162"><ele>253.59999999999997</ele><time>2026-04-19T08:48:06Z</time></trkpt><trkpt lat="45.18236146195992" lon="7.6992095789014074"><ele>253.4</ele><time>2026-04-19T08:48:07Z</time></trkpt><trkpt lat="45.182356839021686" lon="7.699057981981539"><ele>253.2</ele><time>2026-04-19T08:48:08Z</time></trkpt><trkpt lat="45.182359296042556" lon="7.698894614025136"><ele>253.0</ele><time>2026-04-19T08:48:09Z</time></trkpt><trkpt lat="45.18235969370767" lon="7.69873063441355"><ele>253.2</ele><time>2026-04-19T08:48:10Z</time></trkpt><trkpt lat="45.18236100073885" lon="7.698565503947426"><ele>253.4</ele><time>2026-04-19T08:48:11Z</time></trkpt><trkpt lat="45.18236352630371" lon="7.6984036791013555"><ele>253.59999999999997</ele><time>2026-04-19T08:48:12Z</time></trkpt><trkpt lat="45.18236529200893" lon="7.698255661142646"><ele>253.79999999999998</ele><time>2026-04-19T08:48:13Z</time></trkpt><trkpt lat="45.182369856542216" lon="7.698116983184488"><ele>254.0</ele><time>2026-04-19T08:48:14Z</time></trkpt><trkpt lat="45.18237706876834" lon="7.697984021096551"><ele>254.00000000000003</ele><time>2026-04-19T08:48:15Z</time></trkpt><trkpt lat="45.1823818199054" lon="7.69785776843533"><ele>254.0</ele><time>2026-04-19T08:48:16Z</time></trkpt><trkpt lat="45.182383834135564" lon="7.697740035482549"><ele>254.0</ele><time>2026-04-19T08:48:17Z</time></trkpt><trkpt lat="45.18238605332451" lon="7.697629666668869"><ele>254.0</ele><time>2026-04-19T08:48:18Z</time></trkpt><trkpt lat="45.18238955420543" lon="7.697535615684754"><ele>254.00000000000003</ele><time>2026-04-19T08:48:19Z</time></trkpt><trkpt lat="45.18239672017958" lon="7.697439585303662"><ele>254.0</ele><time>2026-04-19T08:48:20Z</time></trkpt><trkpt lat="45.182411134145894" lon="7.697346319320691"><ele>254.00000000000003</ele><time>2026-04-19T08:48:21Z</time></trkpt><trkpt lat="45.1824391054195" lon="7.697256469092732"><ele>254.0</ele><time>2026-04-19T08:48:22Z</time></trkpt><trkpt lat="45.182475856186585" lon="7.697168458668992"><ele>254.0</ele><time>2026-04-19T08:48:23Z</time></trkpt><trkpt lat="45.18251539457824" lon="7.697077699729579"><ele>254.0</ele><time>2026-04-19T08:48:24Z</time></trkpt><trkpt lat="45.18255041932012" lon="7.696994880457497"><ele>254.00000000000003</ele><time>2026-04-19T08:48:25Z</time></trkpt><trkpt lat="45.182549539202626" lon="7.696865591261302"><ele>254.0</ele><time>2026-04-19T08:48:26Z</time></trkpt><trkpt lat="45.18250647361491" lon="7.696755844989908"><ele>253.83333333333334</ele><time>2026-04-19T08:48:27Z</time></trkpt><trkpt lat="45.18247658602356" lon="7.696649684222931"><ele>253.66666666666669</ele><time>2026-04-19T08:48:28Z</time></trkpt><trkpt lat="45.18245294947567" lon="7.696541823299389"><ele>253.5</ele><time>2026-04-19T08:48:29Z</time></trkpt><trkpt lat="45.182460716283984" lon="7.696425977381113"><ele>253.33333333333331</ele><time>2026-04-19T08:48:30Z</time></trkpt><trkpt lat="45.18246811561962" lon="7.6962988364955764"><ele>253.16666666666666</ele><time>2026-04-19T08:48:31Z</time></trkpt><trkpt lat="45.182477108547836" lon="7.696205766660086"><ele>253.0</ele><time>2026-04-19T08:48:32Z</time></trkpt><trkpt lat="45.18249150614009" lon="7.696046280833163"><ele>253.4</ele><time>2026-04-19T08:48:34Z</time></trkpt><trkpt lat="45.18249542909133" lon="7.69594732823544"><ele>253.8</ele><time>2026-04-19T08:48:35Z</time></trkpt><trkpt lat="45.182502286398794" lon="7.695824175930633"><ele>254.2</ele><time>2026-04-19T08:48:36Z</time></trkpt><trkpt lat="45.1825114727079" lon="7.695682547473947"><ele>254.6</ele><time>2026-04-19T08:48:37Z</time></trkpt><trkpt lat="45.18252300348791" lon="7.695525557571372"><ele>255.0</ele><time>2026-04-19T08:48:38Z</time></trkpt><trkpt lat="45.18253775072131" lon="7.6953522025230745"><ele>255.0</ele><time>2026-04-19T08:48:39Z</time></trkpt><trkpt lat="45.18254162236973" lon="7.695190260980261"><ele>255.0</ele><time>2026-04-19T08:48:40Z</time></trkpt><trkpt lat="45.182539468555795" lon="7.695010121833951"><ele>255.0</ele><time>2026-04-19T08:48:41Z</time></trkpt><trkpt lat="45.18253799199256" lon="7.694821144619249"><ele>255.0</ele><time>2026-04-19T08:48:42Z</time></trkpt><trkpt lat="45.182526695138264" lon="7.6946173034811025"><ele>255.66666666666669</ele><time>2026-04-19T08:48:43Z</time></trkpt><trkpt lat="45.182510211919315" lon="7.694401257861589"><ele>256.33333333333337</ele><time>2026-04-19T08:48:44Z</time></trkpt><trkpt lat="45.18249587766232" lon="7.694174141288433"><ele>257.0</ele><time>2026-04-19T08:48:45Z</time></trkpt><trkpt lat="45.182479785464146" lon="7.69394073950428"><ele>257.0</ele><time>2026-04-19T08:48:46Z</time></trkpt><trkpt lat="45.1824617344813" lon="7.6937170682578175"><ele>257.0</ele><time>2026-04-19T08:48:47Z</time></trkpt><trkpt lat="45.182444619322965" lon="7.69349240426076"><ele>257.0</ele><time>2026-04-19T08:48:48Z</time></trkpt><trkpt lat="45.18242845137911" lon="7.693269050770536"><ele>257.33333333333337</ele><time>2026-04-19T08:48:49Z</time></trkpt><trkpt lat="45.18241275588162" lon="7.6930422015581525"><ele>257.6666666666667</ele><time>2026-04-19T08:48:50Z</time></trkpt><trkpt lat="45.182396055797746" lon="7.692819200544798"><ele>258.0</ele><time>2026-04-19T08:48:51Z</time></trkpt><trkpt lat="45.182384498206005" lon="7.692624755040593"><ele>258.0</ele><time>2026-04-19T08:48:52Z</time></trkpt><trkpt lat="45.182372966596176" lon="7.692425568114171"><ele>258.0</ele><time>2026-04-19T08:48:53Z</time></trkpt><trkpt lat="45.18236035494823" lon="7.692229243204348"><ele>258.0</ele><time>2026-04-19T08:48:54Z</time></trkpt><trkpt lat="45.18234835701219" lon="7.6920285651072895"><ele>258.0</ele><time>2026-04-19T08:48:55Z</time></trkpt><trkpt lat="45.18233794699249" lon="7.691828085228348"><ele>258.0</ele><time>2026-04-19T08:48:56Z</time></trkpt><trkpt lat="45.1823295316022" lon="7.691623042149012"><ele>258.0</ele><time>2026-04-19T08:48:57Z</time></trkpt><trkpt lat="45.182319754118886" lon="7.6914134026118175"><ele>258.0</ele><time>2026-04-19T08:48:58Z</time></trkpt><trkpt lat="45.18230869944188" lon="7.6912139862950974"><ele>258.0</ele><time>2026-04-19T08:48:59Z</time></trkpt><trkpt lat="45.18230008971381" lon="7.6910263701370924"><ele>258.25</ele><time>2026-04-19T08:49:00Z</time></trkpt><trkpt lat="45.18229397166892" lon="7.690843870045049"><ele>258.5</ele><time>2026-04-19T08:49:01Z</time></trkpt><trkpt lat="45.182290473718005" lon="7.690653041063611"><ele>258.75</ele><time>2026-04-19T08:49:02Z</time></trkpt><trkpt lat="45.1822845180491" lon="7.690454335541022"><ele>259.0</ele><time>2026-04-19T08:49:03Z</time></trkpt><trkpt lat="45.182274632375" lon="7.690253161685371"><ele>259.0</ele><time>2026-04-19T08:49:04Z</time></trkpt><trkpt lat="45.182265547332584" lon="7.690046764783801"><ele>259.0</ele><time>2026-04-19T08:49:05Z</time></trkpt><trkpt lat="45.18225883837127" lon="7.689853741943602"><ele>259.0</ele><time>2026-04-19T08:49:06Z</time></trkpt><trkpt lat="45.182251300153105" lon="7.689667028623688"><ele>259.0</ele><time>2026-04-19T08:49:07Z</time></trkpt><trkpt lat="45.18224261301779" lon="7.689490071583117"><ele>259.25</ele><time>2026-04-19T08:49:08Z</time></trkpt><trkpt lat="45.18223043973955" lon="7.689310836619617"><ele>259.5</ele><time>2026-04-19T08:49:09Z</time></trkpt><trkpt lat="45.182214997423685" lon="7.689127601689529"><ele>259.75</ele><time>2026-04-19T08:49:10Z</time></trkpt><trkpt lat="45.18221653771094" lon="7.688933711384016"><ele>260.0</ele><time>2026-04-19T08:49:11Z</time></trkpt><trkpt lat="45.182206608364794" lon="7.688731131738179"><ele>260.0</ele><time>2026-04-19T08:49:12Z</time></trkpt><trkpt lat="45.18218713241382" lon="7.68853309575299"><ele>260.0</ele><time>2026-04-19T08:49:13Z</time></trkpt><trkpt lat="45.18217915136116" lon="7.688340466030967"><ele>260.0</ele><time>2026-04-19T08:49:14Z</time></trkpt><trkpt lat="45.18216916841027" lon="7.688164578978312"><ele>260.0</ele><time>2026-04-19T08:49:15Z</time></trkpt><trkpt lat="45.18216052350628" lon="7.688000219065655"><ele>260.0</ele><time>2026-04-19T08:49:16Z</time></trkpt><trkpt lat="45.182150728028596" lon="7.68785476725606"><ele>260.0</ele><time>2026-04-19T08:49:17Z</time></trkpt><trkpt lat="45.18214419282379" lon="7.687739671063681"><ele>260.0</ele><time>2026-04-19T08:49:18Z</time></trkpt><trkpt lat="45.182146162436375" lon="7.687586533293916"><ele>260.0</ele><time>2026-04-19T08:49:20Z</time></trkpt><trkpt lat="45.182203332274625" lon="7.687511887054728"><ele>260.0</ele><time>2026-04-19T08:49:22Z</time></trkpt><trkpt lat="45.18231261738092" lon="7.687513853193056"><ele>260.1666666666667</ele><time>2026-04-19T08:49:24Z</time></trkpt><trkpt lat="45.18241887422743" lon="7.6875351829192775"><ele>260.33333333333337</ele><time>2026-04-19T08:49:26Z</time></trkpt><trkpt lat="45.1824862518484" lon="7.687520521113496"><ele>260.5</ele><time>2026-04-19T08:49:28Z</time></trkpt><trkpt lat="45.182578341918024" lon="7.687518092225461"><ele>260.6666666666667</ele><time>2026-04-19T08:49:30Z</time></trkpt><trkpt lat="45.18265634849878" lon="7.6875240325064285"><ele>260.8333333333333</ele><time>2026-04-19T08:49:32Z</time></trkpt><trkpt lat="45.18274441323672" lon="7.687518507232087"><ele>261.0</ele><time>2026-04-19T08:49:35Z</time></trkpt><trkpt lat="45.18287078231037" lon="7.687522537037112"><ele>261.0</ele><time>2026-04-19T08:49:50Z</time></trkpt><trkpt lat="45.18296896644776" lon="7.687522537036573"><ele>261.0</ele><time>2026-04-19T08:49:51Z</time></trkpt><trkpt lat="45.18308181574144" lon="7.687522537036534"><ele>261.0</ele><time>2026-04-19T08:49:52Z</time></trkpt><trkpt lat="45.18322520141314" lon="7.68752253703796"><ele>261.0</ele><time>2026-04-19T08:49:53Z</time></trkpt><trkpt lat="45.183394909294954" lon="7.687522537037338"><ele>261.0</ele><time>2026-04-19T08:49:54Z</time></trkpt><trkpt lat="45.1835704197377" lon="7.687522537037532"><ele>261.0</ele><time>2026-04-19T08:49:55Z</time></trkpt><trkpt lat="45.183754705750545" lon="7.687522379771328"><ele>261.0</ele><time>2026-04-19T08:49:56Z</time></trkpt><trkpt lat="45.18395284267408" lon="7.687521285393112"><ele>261.3333333333333</ele><time>2026-04-19T08:49:57Z</time></trkpt><trkpt lat="45.184132219953554" lon="7.687520294630277"><ele>261.66666666666663</ele><time>2026-04-19T08:49:58Z</time></trkpt><trkpt lat="45.18429507232124" lon="7.687519395143201"><ele>262.0</ele><time>2026-04-19T08:49:59Z</time></trkpt><trkpt lat="45.184450714308284" lon="7.68751853547942"><ele>262.0</ele><time>2026-04-19T08:50:00Z</time></trkpt><trkpt lat="45.18460502655695" lon="7.687518044894381"><ele>262.0</ele><time>2026-04-19T08:50:01Z</time></trkpt><trkpt lat="45.18476831721512" lon="7.687517525114875"><ele>262.0</ele><time>2026-04-19T08:50:02Z</time></trkpt><trkpt lat="45.18492273800611" lon="7.6875176724877194"><ele>262.0</ele><time>2026-04-19T08:50:03Z</time></trkpt><trkpt lat="45.18508703983226" lon="7.687516426041958"><ele>262.0</ele><time>2026-04-19T08:50:04Z</time></trkpt><trkpt lat="45.18525139954175" lon="7.687494290338944"><ele>262.0</ele><time>2026-04-19T08:50:05Z</time></trkpt><trkpt lat="45.18541984184576" lon="7.687459058697918"><ele>262.0</ele><time>2026-04-19T08:50:06Z</time></trkpt><trkpt lat="45.18559904874632" lon="7.6874173018886625"><ele>262.0</ele><time>2026-04-19T08:50:07Z</time></trkpt><trkpt lat="45.18578307713038" lon="7.687379288685031"><ele>262.0</ele><time>2026-04-19T08:50:08Z</time></trkpt><trkpt lat="45.18596706474198" lon="7.687340032474411"><ele>262.0</ele><time>2026-04-19T08:50:09Z</time></trkpt><trkpt lat="45.18615190929797" lon="7.687295781597666"><ele>262.0</ele><time>2026-04-19T08:50:10Z</time></trkpt><trkpt lat="45.18633461894275" lon="7.687250036725931"><ele>262.0</ele><time>2026-04-19T08:50:11Z</time></trkpt><trkpt lat="45.18649972518841" lon="7.687186069116327"><ele>262.3333333333333</ele><time>2026-04-19T08:50:12Z</time></trkpt><trkpt lat="45.18666379132926" lon="7.6871551362377915"><ele>262.6666666666667</ele><time>2026-04-19T08:50:13Z</time></trkpt><trkpt lat="45.18681390298062" lon="7.687120048720384"><ele>263.0</ele><time>2026-04-19T08:50:14Z</time></trkpt><trkpt lat="45.18696288556873" lon="7.6870833567357915"><ele>263.0</ele><time>2026-04-19T08:50:15Z</time></trkpt><trkpt lat="45.187118149286476" lon="7.687039326503321"><ele>263.0</ele><time>2026-04-19T08:50:16Z</time></trkpt><trkpt lat="45.18728045614022" lon="7.6869885810646394"><ele>263.0</ele><time>2026-04-19T08:50:17Z</time></trkpt><trkpt lat="45.18744114016717" lon="7.6869488902932295"><ele>263.0</ele><time>2026-04-19T08:50:18Z</time></trkpt><trkpt lat="45.18759852352866" lon="7.686915344887049"><ele>263.0</ele><time>2026-04-19T08:50:19Z</time></trkpt><trkpt lat="45.18774845871143" lon="7.686881744054048"><ele>263.0</ele><time>2026-04-19T08:50:20Z</time></trkpt><trkpt lat="45.18789654043451" lon="7.686878709830993"><ele>263.0</ele><time>2026-04-19T08:50:21Z</time></trkpt><trkpt lat="45.18804265668051" lon="7.686830870280543"><ele>263.0</ele><time>2026-04-19T08:50:22Z</time></trkpt><trkpt lat="45.188205060897005" lon="7.68679737266617"><ele>263.0</ele><time>2026-04-19T08:50:23Z</time></trkpt><trkpt lat="45.188377587703386" lon="7.6867856216123815"><ele>263.33333333333337</ele><time>2026-04-19T08:50:24Z</time></trkpt><trkpt lat="45.188548455071995" lon="7.686750860490419"><ele>263.6666666666667</ele><time>2026-04-19T08:50:25Z</time></trkpt><trkpt lat="45.18871968835539" lon="7.68671565562671"><ele>264.0</ele><time>2026-04-19T08:50:26Z</time></trkpt><trkpt lat="45.18889192702343" lon="7.68667749978025"><ele>264.3333333333333</ele><time>2026-04-19T08:50:27Z</time></trkpt><trkpt lat="45.18906339896105" lon="7.686638986844188"><ele>264.66666666666663</ele><time>2026-04-19T08:50:28Z</time></trkpt><trkpt lat="45.189231986235754" lon="7.686599595455209"><ele>265.0</ele><time>2026-04-19T08:50:29Z</time></trkpt><trkpt lat="45.18939271410356" lon="7.686562040446329"><ele>265.0</ele><time>2026-04-19T08:50:30Z</time></trkpt><trkpt lat="45.189543009607185" lon="7.686527017948712"><ele>265.0</ele><time>2026-04-19T08:50:31Z</time></trkpt><trkpt lat="45.18967942802759" lon="7.686482101550937"><ele>265.0</ele><time>2026-04-19T08:50:32Z</time></trkpt><trkpt lat="45.18981058451888" lon="7.686457549457483"><ele>265.0</ele><time>2026-04-19T08:50:33Z</time></trkpt><trkpt lat="45.189947576747755" lon="7.686433020475917"><ele>265.0</ele><time>2026-04-19T08:50:34Z</time></trkpt><trkpt lat="45.190087486707014" lon="7.686404615843518"><ele>265.0</ele><time>2026-04-19T08:50:35Z</time></trkpt><trkpt lat="45.19022141447801" lon="7.686375234849867"><ele>265.0</ele><time>2026-04-19T08:50:36Z</time></trkpt><trkpt lat="45.190344512532036" lon="7.686347125967598"><ele>265.0</ele><time>2026-04-19T08:50:37Z</time></trkpt><trkpt lat="45.19045901044256" lon="7.686309796835616"><ele>265.0</ele><time>2026-04-19T08:50:38Z</time></trkpt><trkpt lat="45.19057106337219" lon="7.686259572543197"><ele>265.0</ele><time>2026-04-19T08:50:39Z</time></trkpt><trkpt lat="45.190695008109316" lon="7.686198683511047"><ele>265.0</ele><time>2026-04-19T08:50:40Z</time></trkpt><trkpt lat="45.19083137774043" lon="7.686144314523247"><ele>265.0</ele><time>2026-04-19T08:50:41Z</time></trkpt><trkpt lat="45.19097448300201" lon="7.68608031577758"><ele>265.0</ele><time>2026-04-19T08:50:42Z</time></trkpt><trkpt lat="45.19112114604798" lon="7.686014043015825"><ele>265.0</ele><time>2026-04-19T08:50:43Z</time></trkpt><trkpt lat="45.19127393589483" lon="7.685944123552582"><ele>265.0</ele><time>2026-04-19T08:50:44Z</time></trkpt><trkpt lat="45.19142401464071" lon="7.685876347363857"><ele>265.66666666666663</ele><time>2026-04-19T08:50:45Z</time></trkpt><trkpt lat="45.1915726390332" lon="7.685806492667211"><ele>266.3333333333333</ele><time>2026-04-19T08:50:46Z</time></trkpt><trkpt lat="45.19172061869786" lon="7.6857365078180715"><ele>267.0</ele><time>2026-04-19T08:50:47Z</time></trkpt><trkpt lat="45.191875369066324" lon="7.685665091197715"><ele>267.0</ele><time>2026-04-19T08:50:48Z</time></trkpt><trkpt lat="45.1920334200122" lon="7.685594883277914"><ele>267.0</ele><time>2026-04-19T08:50:49Z</time></trkpt><trkpt lat="45.19218561767201" lon="7.685528621657866"><ele>267.0</ele><time>2026-04-19T08:50:50Z</time></trkpt><trkpt lat="45.192326447521395" lon="7.6854611069194485"><ele>267.5</ele><time>2026-04-19T08:50:51Z</time></trkpt><trkpt lat="45.19246060660681" lon="7.6853978027641165"><ele>268.0</ele><time>2026-04-19T08:50:52Z</time></trkpt><trkpt lat="45.19259100435772" lon="7.685334044585354"><ele>268.5</ele><time>2026-04-19T08:50:53Z</time></trkpt><trkpt lat="45.19272271014427" lon="7.685272611371139"><ele>269.0</ele><time>2026-04-19T08:50:54Z</time></trkpt><trkpt lat="45.192857269745076" lon="7.685223363887568"><ele>269.0</ele><time>2026-04-19T08:50:55Z</time></trkpt><trkpt lat="45.19298785044314" lon="7.685197579696685"><ele>269.0</ele><time>2026-04-19T08:50:56Z</time></trkpt><trkpt lat="45.19310773221641" lon="7.6851562289163065"><ele>269.0</ele><time>2026-04-19T08:50:57Z</time></trkpt><trkpt lat="45.19322989412348" lon="7.68511873707512"><ele>269.0</ele><time>2026-04-19T08:50:58Z</time></trkpt><trkpt lat="45.19336153329072" lon="7.685070009612167"><ele>269.0</ele><time>2026-04-19T08:50:59Z</time></trkpt><trkpt lat="45.19350863799227" lon="7.685048671171453"><ele>269.0</ele><time>2026-04-19T08:51:00Z</time></trkpt><trkpt lat="45.19367204821279" lon="7.685038123776386"><ele>269.0</ele><time>2026-04-19T08:51:01Z</time></trkpt><trkpt lat="45.19383150180064" lon="7.685001634920303"><ele>269.0</ele><time>2026-04-19T08:51:02Z</time></trkpt><trkpt lat="45.193989525328234" lon="7.684963986549038"><ele>269.0</ele><time>2026-04-19T08:51:03Z</time></trkpt><trkpt lat="45.19414133989858" lon="7.6849093689052825"><ele>269.0</ele><time>2026-04-19T08:51:04Z</time></trkpt><trkpt lat="45.194281477807756" lon="7.6848833799711125"><ele>268.8</ele><time>2026-04-19T08:51:05Z</time></trkpt><trkpt lat="45.194404453719194" lon="7.68486093067407"><ele>268.59999999999997</ele><time>2026-04-19T08:51:06Z</time></trkpt><trkpt lat="45.19451866320964" lon="7.684839917179804"><ele>268.4</ele><time>2026-04-19T08:51:07Z</time></trkpt><trkpt lat="45.194619666400456" lon="7.68482196165435"><ele>268.2</ele><time>2026-04-19T08:51:08Z</time></trkpt><trkpt lat="45.194705819770284" lon="7.684807192010133"><ele>268.0</ele><time>2026-04-19T08:51:09Z</time></trkpt><trkpt lat="45.194770448757545" lon="7.6847966287232365"><ele>268.2</ele><time>2026-04-19T08:51:10Z</time></trkpt><trkpt lat="45.19484108541999" lon="7.684753359528168"><ele>268.4</ele><time>2026-04-19T08:51:14Z</time></trkpt><trkpt lat="45.19491991365036" lon="7.684718539047768"><ele>268.59999999999997</ele><time>2026-04-19T08:51:16Z</time></trkpt><trkpt lat="45.1950501236175" lon="7.6846328454190616"><ele>268.8</ele><time>2026-04-19T08:51:18Z</time></trkpt><trkpt lat="45.1951380176123" lon="7.684579711388683"><ele>269.0</ele><time>2026-04-19T08:51:19Z</time></trkpt><trkpt lat="45.195218167056694" lon="7.684531259039934"><ele>269.0</ele><time>2026-04-19T08:51:20Z</time></trkpt><trkpt lat="45.195312876859255" lon="7.6844740045784405"><ele>269.0</ele><time>2026-04-19T08:51:21Z</time></trkpt><trkpt lat="45.19539443114473" lon="7.6844247030231"><ele>269.0</ele><time>2026-04-19T08:51:22Z</time></trkpt><trkpt lat="45.19548045231092" lon="7.684372701153158"><ele>269.0</ele><time>2026-04-19T08:51:23Z</time></trkpt><trkpt lat="45.19556856322799" lon="7.68431867441622"><ele>269.0</ele><time>2026-04-19T08:51:24Z</time></trkpt><trkpt lat="45.19565204816397" lon="7.684266380116638"><ele>269.4</ele><time>2026-04-19T08:51:25Z</time></trkpt><trkpt lat="45.19573440240117" lon="7.684190055413526"><ele>269.79999999999995</ele><time>2026-04-19T08:51:26Z</time></trkpt><trkpt lat="45.195827403765115" lon="7.684137884776672"><ele>270.20000000000005</ele><time>2026-04-19T08:51:27Z</time></trkpt><trkpt lat="45.19590167716737" lon="7.684093705934112"><ele>270.6</ele><time>2026-04-19T08:51:28Z</time></trkpt><trkpt lat="45.196005249157444" lon="7.684086994592331"><ele>271.0</ele><time>2026-04-19T08:51:29Z</time></trkpt><trkpt lat="45.19610337327244" lon="7.68407471991092"><ele>271.0</ele><time>2026-04-19T08:51:30Z</time></trkpt><trkpt lat="45.19620444316501" lon="7.684064622821642"><ele>271.0</ele><time>2026-04-19T08:51:31Z</time></trkpt><trkpt lat="45.19630642939794" lon="7.684038643293892"><ele>271.0</ele><time>2026-04-19T08:51:32Z</time></trkpt><trkpt lat="45.19642782477283" lon="7.684032054833675"><ele>271.0</ele><time>2026-04-19T08:51:33Z</time></trkpt><trkpt lat="45.19653353669445" lon="7.68405036938554"><ele>271.0</ele><time>2026-04-19T08:51:34Z</time></trkpt><trkpt lat="45.19664532866355" lon="7.684024438104264"><ele>270.8</ele><time>2026-04-19T08:51:35Z</time></trkpt><trkpt lat="45.196747849922396" lon="7.684022537673796"><ele>270.6</ele><time>2026-04-19T08:51:36Z</time></trkpt><trkpt lat="45.196855034748566" lon="7.6840376609705245"><ele>270.4</ele><time>2026-04-19T08:51:37Z</time></trkpt><trkpt lat="45.196949655103474" lon="7.684032929957446"><ele>270.2</ele><time>2026-04-19T08:51:38Z</time></trkpt><trkpt lat="45.197046875931996" lon="7.684024620538567"><ele>270.0</ele><time>2026-04-19T08:51:39Z</time></trkpt><trkpt lat="45.197130161653924" lon="7.684027357145798"><ele>270.0</ele><time>2026-04-19T08:51:40Z</time></trkpt><trkpt lat="45.19720579396696" lon="7.684030865852801"><ele>270.0</ele><time>2026-04-19T08:51:41Z</time></trkpt><trkpt lat="45.19728203659426" lon="7.6840884098294175"><ele>270.0</ele><time>2026-04-19T08:51:42Z</time></trkpt><trkpt lat="45.19734774208438" lon="7.6841381452858295"><ele>270.0</ele><time>2026-04-19T08:51:43Z</time></trkpt><trkpt lat="45.19742573737583" lon="7.684202287159061"><ele>270.0</ele><time>2026-04-19T08:51:44Z</time></trkpt><trkpt lat="45.19751209999366" lon="7.684273344505532"><ele>270.0</ele><time>2026-04-19T08:51:45Z</time></trkpt><trkpt lat="45.197591268297835" lon="7.6843362466093055"><ele>270.0</ele><time>2026-04-19T08:51:46Z</time></trkpt><trkpt lat="45.19767919554737" lon="7.68434958105822"><ele>270.0</ele><time>2026-04-19T08:51:47Z</time></trkpt><trkpt lat="45.19779452774753" lon="7.6843690503070095"><ele>270.0</ele><time>2026-04-19T08:51:48Z</time></trkpt><trkpt lat="45.197926578078935" lon="7.684363521760603"><ele>270.0</ele><time>2026-04-19T08:51:49Z</time></trkpt><trkpt lat="45.198061125773435" lon="7.684355222732543"><ele>270.4</ele><time>2026-04-19T08:51:50Z</time></trkpt><trkpt lat="45.19816840281646" lon="7.684378144207099"><ele>270.8</ele><time>2026-04-19T08:51:51Z</time></trkpt><trkpt lat="45.19825957473009" lon="7.684369500113178"><ele>271.2</ele><time>2026-04-19T08:51:52Z</time></trkpt><trkpt lat="45.198354758503314" lon="7.684363040126752"><ele>271.6</ele><time>2026-04-19T08:51:53Z</time></trkpt><trkpt lat="45.19844627614734" lon="7.684362899114788"><ele>272.0</ele><time>2026-04-19T08:51:54Z</time></trkpt><trkpt lat="45.19852683863368" lon="7.684394694106707"><ele>272.2</ele><time>2026-04-19T08:51:55Z</time></trkpt><trkpt lat="45.1985950390437" lon="7.684468163760333"><ele>272.4</ele><time>2026-04-19T08:51:56Z</time></trkpt><trkpt lat="45.19867687975606" lon="7.684529126483795"><ele>272.6</ele><time>2026-04-19T08:51:57Z</time></trkpt><trkpt lat="45.19877052726735" lon="7.684555330306411"><ele>272.8</ele><time>2026-04-19T08:51:58Z</time></trkpt><trkpt lat="45.19886917603839" lon="7.684617527101741"><ele>273.0</ele><time>2026-04-19T08:51:59Z</time></trkpt><trkpt lat="45.19897042232144" lon="7.684673242341462"><ele>272.4</ele><time>2026-04-19T08:52:00Z</time></trkpt><trkpt lat="45.19908045974262" lon="7.684704653821533"><ele>271.8</ele><time>2026-04-19T08:52:01Z</time></trkpt><trkpt lat="45.199183862043526" lon="7.684759552290601"><ele>271.2</ele><time>2026-04-19T08:52:02Z</time></trkpt><trkpt lat="45.19928981730284" lon="7.684812358118481"><ele>270.6</ele><time>2026-04-19T08:52:03Z</time></trkpt><trkpt lat="45.19938534492339" lon="7.684863901482029"><ele>270.0</ele><time>2026-04-19T08:52:04Z</time></trkpt><trkpt lat="45.19948689598531" lon="7.684916779051141"><ele>270.0</ele><time>2026-04-19T08:52:05Z</time></trkpt><trkpt lat="45.19958026621883" lon="7.68496812381705"><ele>270.0</ele><time>2026-04-19T08:52:06Z</time></trkpt><trkpt lat="45.19965845165384" lon="7.685012607708453"><ele>270.0</ele><time>2026-04-19T08:52:07Z</time></trkpt><trkpt lat="45.19973225686116" lon="7.685076171560263"><ele>270.0</ele><time>2026-04-19T08:52:08Z</time></trkpt><trkpt lat="45.19982616658417" lon="7.685129430402594"><ele>270.0</ele><time>2026-04-19T08:52:09Z</time></trkpt><trkpt lat="45.19991051265235" lon="7.685178955291911"><ele>270.1666666666667</ele><time>2026-04-19T08:52:10Z</time></trkpt><trkpt lat="45.19999030024449" lon="7.685223076036251"><ele>270.3333333333333</ele><time>2026-04-19T08:52:11Z</time></trkpt><trkpt lat="45.20007065927386" lon="7.685250869689903"><ele>270.5</ele><time>2026-04-19T08:52:12Z</time></trkpt><trkpt lat="45.20014622371053" lon="7.6852456855565014"><ele>270.66666666666663</ele><time>2026-04-19T08:52:13Z</time></trkpt><trkpt lat="45.200215127454435" lon="7.685271999142358"><ele>270.8333333333333</ele><time>2026-04-19T08:52:14Z</time></trkpt><trkpt lat="45.20028003621877" lon="7.685243742993729"><ele>271.0</ele><time>2026-04-19T08:52:15Z</time></trkpt><trkpt lat="45.200349522304265" lon="7.68524374299364"><ele>271.0</ele><time>2026-04-19T08:52:16Z</time></trkpt><trkpt lat="45.20043200277415" lon="7.685385183983897"><ele>271.0</ele><time>2026-04-19T08:52:17Z</time></trkpt><trkpt lat="45.20052035728662" lon="7.685426630420456"><ele>271.0</ele><time>2026-04-19T08:52:18Z</time></trkpt><trkpt lat="45.20060191710667" lon="7.6854644985626335"><ele>271.0</ele><time>2026-04-19T08:52:19Z</time></trkpt><trkpt lat="45.20068873586149" lon="7.685507966771914"><ele>271.0</ele><time>2026-04-19T08:52:20Z</time></trkpt><trkpt lat="45.20077721873032" lon="7.685547083674328"><ele>271.40000000000003</ele><time>2026-04-19T08:52:21Z</time></trkpt><trkpt lat="45.2008654032719" lon="7.685590671133995"><ele>271.8</ele><time>2026-04-19T08:52:22Z</time></trkpt><trkpt lat="45.200948377644345" lon="7.685634306770035"><ele>272.20000000000005</ele><time>2026-04-19T08:52:23Z</time></trkpt><trkpt lat="45.20102954738794" lon="7.685680772065014"><ele>272.6</ele><time>2026-04-19T08:52:24Z</time></trkpt><trkpt lat="45.201114608818465" lon="7.685725183325954"><ele>273.0</ele><time>2026-04-19T08:52:25Z</time></trkpt><trkpt lat="45.201204007958005" lon="7.685768605983556"><ele>273.0</ele><time>2026-04-19T08:52:26Z</time></trkpt><trkpt lat="45.20129425044648" lon="7.685816212845658"><ele>273.0</ele><time>2026-04-19T08:52:27Z</time></trkpt><trkpt lat="45.201380751338036" lon="7.685865795012744"><ele>273.0</ele><time>2026-04-19T08:52:28Z</time></trkpt><trkpt lat="45.201462928576795" lon="7.685910924394485"><ele>273.0</ele><time>2026-04-19T08:52:29Z</time></trkpt><trkpt lat="45.20156033825871" lon="7.685958936588505"><ele>273.0</ele><time>2026-04-19T08:52:30Z</time></trkpt><trkpt lat="45.20164474345121" lon="7.686008741188474"><ele>273.0</ele><time>2026-04-19T08:52:31Z</time></trkpt><trkpt lat="45.20172569805537" lon="7.686050615977799"><ele>273.0</ele><time>2026-04-19T08:52:32Z</time></trkpt><trkpt lat="45.20181913235228" lon="7.686099575916229"><ele>273.0</ele><time>2026-04-19T08:52:33Z</time></trkpt><trkpt lat="45.20190427756624" lon="7.6861469985022435"><ele>273.0</ele><time>2026-04-19T08:52:34Z</time></trkpt><trkpt lat="45.20198461525935" lon="7.686189897615474"><ele>273.0</ele><time>2026-04-19T08:52:35Z</time></trkpt><trkpt lat="45.202068165539266" lon="7.686240436433995"><ele>273.0</ele><time>2026-04-19T08:52:36Z</time></trkpt><trkpt lat="45.202149222124184" lon="7.686286682439255"><ele>273.0</ele><time>2026-04-19T08:52:37Z</time></trkpt><trkpt lat="45.202231701106946" lon="7.686340871633084"><ele>273.0</ele><time>2026-04-19T08:52:38Z</time></trkpt><trkpt lat="45.20230644625197" lon="7.686384829065398"><ele>273.0</ele><time>2026-04-19T08:52:39Z</time></trkpt><trkpt lat="45.20241358995774" lon="7.686444739157791"><ele>273.0</ele><time>2026-04-19T08:52:41Z</time></trkpt><trkpt lat="45.20248804110252" lon="7.686488155655241"><ele>273.1666666666667</ele><time>2026-04-19T08:52:43Z</time></trkpt><trkpt lat="45.202555227998815" lon="7.686520035355068"><ele>273.3333333333333</ele><time>2026-04-19T08:52:46Z</time></trkpt><trkpt lat="45.202616748568595" lon="7.686552316801155"><ele>273.5</ele><time>2026-04-19T08:52:49Z</time></trkpt><trkpt lat="45.202684245610165" lon="7.6865992237122684"><ele>273.66666666666663</ele><time>2026-04-19T08:52:51Z</time></trkpt><trkpt lat="45.20277411828053" lon="7.686645354605198"><ele>273.8333333333333</ele><time>2026-04-19T08:52:53Z</time></trkpt><trkpt lat="45.20288938466623" lon="7.686705001670935"><ele>274.0</ele><time>2026-04-19T08:52:55Z</time></trkpt><trkpt lat="45.20296705384568" lon="7.686745756780243"><ele>274.0</ele><time>2026-04-19T08:52:56Z</time></trkpt><trkpt lat="45.203051848557145" lon="7.686788137467126"><ele>274.0</ele><time>2026-04-19T08:52:57Z</time></trkpt><trkpt lat="45.20314961084303" lon="7.686837845512865"><ele>274.0</ele><time>2026-04-19T08:52:58Z</time></trkpt><trkpt lat="45.2032398807336" lon="7.68688255719272"><ele>274.0</ele><time>2026-04-19T08:52:59Z</time></trkpt><trkpt lat="45.20332569470827" lon="7.686927860858492"><ele>274.0</ele><time>2026-04-19T08:53:00Z</time></trkpt><trkpt lat="45.20342231249282" lon="7.686973414572251"><ele>273.3333333333333</ele><time>2026-04-19T08:53:01Z</time></trkpt><trkpt lat="45.20350507920007" lon="7.687011454917334"><ele>272.66666666666663</ele><time>2026-04-19T08:53:02Z</time></trkpt><trkpt lat="45.203585707864036" lon="7.687056634218766"><ele>272.0</ele><time>2026-04-19T08:53:03Z</time></trkpt><trkpt lat="45.203667097492485" lon="7.687101733180774"><ele>271.3333333333333</ele><time>2026-04-19T08:53:04Z</time></trkpt><trkpt lat="45.20375931647439" lon="7.687143017135232"><ele>270.6666666666667</ele><time>2026-04-19T08:53:05Z</time></trkpt><trkpt lat="45.20383995692724" lon="7.687188314370399"><ele>270.0</ele><time>2026-04-19T08:53:06Z</time></trkpt><trkpt lat="45.203930912442665" lon="7.687235064794537"><ele>270.2</ele><time>2026-04-19T08:53:07Z</time></trkpt><trkpt lat="45.20402349582289" lon="7.687282785159579"><ele>270.4</ele><time>2026-04-19T08:53:08Z</time></trkpt><trkpt lat="45.20411392129778" lon="7.687321584870751"><ele>270.6</ele><time>2026-04-19T08:53:09Z</time></trkpt><trkpt lat="45.204202236576975" lon="7.687352998093531"><ele>270.8</ele><time>2026-04-19T08:53:10Z</time></trkpt><trkpt lat="45.20429225424514" lon="7.687384870650448"><ele>271.0</ele><time>2026-04-19T08:53:11Z</time></trkpt><trkpt lat="45.204378877562746" lon="7.687417318776841"><ele>271.0</ele><time>2026-04-19T08:53:12Z</time></trkpt><trkpt lat="45.20446353416659" lon="7.687445740801436"><ele>271.0</ele><time>2026-04-19T08:53:13Z</time></trkpt><trkpt lat="45.2045411471515" lon="7.687475129322102"><ele>271.0</ele><time>2026-04-19T08:53:14Z</time></trkpt><trkpt lat="45.204614747960115" lon="7.68750423499097"><ele>271.0</ele><time>2026-04-19T08:53:15Z</time></trkpt><trkpt lat="45.2046880997407" lon="7.687530811795831"><ele>271.0</ele><time>2026-04-19T08:53:16Z</time></trkpt><trkpt lat="45.204756920954054" lon="7.68755206102923"><ele>271.0</ele><time>2026-04-19T08:53:17Z</time></trkpt><trkpt lat="45.20486096449801" lon="7.687592115959603"><ele>271.3333333333333</ele><time>2026-04-19T08:53:19Z</time></trkpt><trkpt lat="45.20498687405104" lon="7.687637576659254"><ele>271.66666666666663</ele><time>2026-04-19T08:53:21Z</time></trkpt><trkpt lat="45.20505791594565" lon="7.6876620032784935"><ele>272.0</ele><time>2026-04-19T08:53:22Z</time></trkpt><trkpt lat="45.2051351658266" lon="7.687693252757502"><ele>272.3333333333333</ele><time>2026-04-19T08:53:23Z</time></trkpt><trkpt lat="45.20520391102248" lon="7.687726004020782"><ele>272.6666666666667</ele><time>2026-04-19T08:53:24Z</time></trkpt><trkpt lat="45.20529339369035" lon="7.687752985915288"><ele>273.0</ele><time>2026-04-19T08:53:25Z</time></trkpt><trkpt lat="45.205367212718656" lon="7.687780563102559"><ele>273.0</ele><time>2026-04-19T08:53:26Z</time></trkpt><trkpt lat="45.20542946705098" lon="7.687809826770637"><ele>273.0</ele><time>2026-04-19T08:53:27Z</time></trkpt><trkpt lat="45.205494753652346" lon="7.687837575646852"><ele>273.0</ele><time>2026-04-19T08:53:28Z</time></trkpt><trkpt lat="45.20557496449733" lon="7.687865743660885"><ele>273.0</ele><time>2026-04-19T08:53:29Z</time></trkpt><trkpt lat="45.20565077567077" lon="7.687891539716042"><ele>273.0</ele><time>2026-04-19T08:53:30Z</time></trkpt><trkpt lat="45.20572323688606" lon="7.687931414594122"><ele>273.0</ele><time>2026-04-19T08:53:31Z</time></trkpt><trkpt lat="45.205792684069" lon="7.68795891665333"><ele>273.0</ele><time>2026-04-19T08:53:32Z</time></trkpt><trkpt lat="45.20586701210863" lon="7.687978551388062"><ele>273.5</ele><time>2026-04-19T08:53:33Z</time></trkpt><trkpt lat="45.20593616513238" lon="7.688006697185514"><ele>274.0</ele><time>2026-04-19T08:53:34Z</time></trkpt><trkpt lat="45.206031903022016" lon="7.688037051292773"><ele>274.5</ele><time>2026-04-19T08:53:36Z</time></trkpt><trkpt lat="45.20610771638465" lon="7.68805562884203"><ele>275.0</ele><time>2026-04-19T08:53:38Z</time></trkpt><trkpt lat="45.20618952577463" lon="7.688072719985169"><ele>275.5</ele><time>2026-04-19T08:53:40Z</time></trkpt><trkpt lat="45.20628831362392" lon="7.688097851047144"><ele>276.0</ele><time>2026-04-19T08:53:42Z</time></trkpt><trkpt lat="45.206387128630475" lon="7.6881702863362404"><ele>276.0</ele><time>2026-04-19T08:53:44Z</time></trkpt><trkpt lat="45.20645827419716" lon="7.6882034615948776"><ele>276.0</ele><time>2026-04-19T08:53:45Z</time></trkpt><trkpt lat="45.206532782172104" lon="7.688233958607945"><ele>276.0</ele><time>2026-04-19T08:53:46Z</time></trkpt><trkpt lat="45.2066048275661" lon="7.688268230816191"><ele>276.0</ele><time>2026-04-19T08:53:47Z</time></trkpt><trkpt lat="45.206675154029384" lon="7.688300767749506"><ele>276.0</ele><time>2026-04-19T08:53:48Z</time></trkpt><trkpt lat="45.20674179315334" lon="7.6883389557062225"><ele>276.0</ele><time>2026-04-19T08:53:49Z</time></trkpt><trkpt lat="45.20681000990501" lon="7.688367200870785"><ele>276.0</ele><time>2026-04-19T08:53:50Z</time></trkpt><trkpt lat="45.2068859799515" lon="7.688403821907079"><ele>275.8333333333333</ele><time>2026-04-19T08:53:51Z</time></trkpt><trkpt lat="45.206963634010165" lon="7.688433994753105"><ele>275.6666666666667</ele><time>2026-04-19T08:53:52Z</time></trkpt><trkpt lat="45.20704058861894" lon="7.6884647298134805"><ele>275.5</ele><time>2026-04-19T08:53:53Z</time></trkpt><trkpt lat="45.20711155444086" lon="7.688493942014965"><ele>275.33333333333337</ele><time>2026-04-19T08:53:54Z</time></trkpt><trkpt lat="45.207193947339704" lon="7.688528192027577"><ele>275.1666666666667</ele><time>2026-04-19T08:53:55Z</time></trkpt><trkpt lat="45.207273807470166" lon="7.688561146758239"><ele>275.0</ele><time>2026-04-19T08:53:56Z</time></trkpt><trkpt lat="45.20734906443341" lon="7.688594250272199"><ele>275.0</ele><time>2026-04-19T08:53:57Z</time></trkpt><trkpt lat="45.20741927563739" lon="7.688624996173191"><ele>275.0</ele><time>2026-04-19T08:53:58Z</time></trkpt><trkpt lat="45.20748875126246" lon="7.688657011648192"><ele>275.0</ele><time>2026-04-19T08:53:59Z</time></trkpt><trkpt lat="45.20759072593388" lon="7.6886813902652955"><ele>275.0</ele><time>2026-04-19T08:54:01Z</time></trkpt><trkpt lat="45.20767752537345" lon="7.688659146622249"><ele>275.0</ele><time>2026-04-19T08:54:03Z</time></trkpt><trkpt lat="45.20775287972308" lon="7.688649000843262"><ele>275.0</ele><time>2026-04-19T08:54:05Z</time></trkpt><trkpt lat="45.207829218401635" lon="7.688676436183497"><ele>275.0</ele><time>2026-04-19T08:54:07Z</time></trkpt><trkpt lat="45.207917872898236" lon="7.688719511626678"><ele>275.0</ele><time>2026-04-19T08:54:09Z</time></trkpt><trkpt lat="45.20798384874307" lon="7.688776767058008"><ele>275.0</ele><time>2026-04-19T08:54:11Z</time></trkpt><trkpt lat="45.208074910275826" lon="7.688838102439821"><ele>275.0</ele><time>2026-04-19T08:54:13Z</time></trkpt><trkpt lat="45.20811508578039" lon="7.68894756783709"><ele>275.0</ele><time>2026-04-19T08:54:14Z</time></trkpt><trkpt lat="45.2081790368935" lon="7.688972916280885"><ele>275.0</ele><time>2026-04-19T08:54:15Z</time></trkpt><trkpt lat="45.20826646296675" lon="7.689010693456713"><ele>274.8</ele><time>2026-04-19T08:54:16Z</time></trkpt><trkpt lat="45.2083598833048" lon="7.689035922385511"><ele>274.6</ele><time>2026-04-19T08:54:17Z</time></trkpt><trkpt lat="45.208471334523345" lon="7.689051742378728"><ele>274.4</ele><time>2026-04-19T08:54:18Z</time></trkpt><trkpt lat="45.2085715773178" lon="7.689108302795647"><ele>274.2</ele><time>2026-04-19T08:54:19Z</time></trkpt><trkpt lat="45.20868283073309" lon="7.689148627103465"><ele>274.0</ele><time>2026-04-19T08:54:20Z</time></trkpt><trkpt lat="45.20879356609249" lon="7.689188763627335"><ele>274.0</ele><time>2026-04-19T08:54:21Z</time></trkpt><trkpt lat="45.20890214370204" lon="7.689227294333521"><ele>274.0</ele><time>2026-04-19T08:54:22Z</time></trkpt><trkpt lat="45.20901188973566" lon="7.689265917987077"><ele>274.0</ele><time>2026-04-19T08:54:23Z</time></trkpt><trkpt lat="45.20912027803227" lon="7.689302913777633"><ele>274.0</ele><time>2026-04-19T08:54:24Z</time></trkpt><trkpt lat="45.20922381868239" lon="7.689337234246886"><ele>274.0</ele><time>2026-04-19T08:54:25Z</time></trkpt><trkpt lat="45.209327582908706" lon="7.6893712544293"><ele>274.0</ele><time>2026-04-19T08:54:26Z</time></trkpt><trkpt lat="45.209425066180415" lon="7.689402819743412"><ele>274.0</ele><time>2026-04-19T08:54:27Z</time></trkpt><trkpt lat="45.209516807790045" lon="7.689432525921911"><ele>274.0</ele><time>2026-04-19T08:54:28Z</time></trkpt><trkpt lat="45.209598868461036" lon="7.689440848862895"><ele>274.0</ele><time>2026-04-19T08:54:29Z</time></trkpt><trkpt lat="45.20966740131341" lon="7.689481288448935"><ele>274.0</ele><time>2026-04-19T08:54:30Z</time></trkpt><trkpt lat="45.20973206309029" lon="7.689502226099824"><ele>274.0</ele><time>2026-04-19T08:54:31Z</time></trkpt><trkpt lat="45.209848623915285" lon="7.689540601024131"><ele>274.00000000000006</ele><time>2026-04-19T08:54:33Z</time></trkpt><trkpt lat="45.209917015998876" lon="7.689540682788576"><ele>274.0</ele><time>2026-04-19T08:54:34Z</time></trkpt><trkpt lat="45.20998615281568" lon="7.689567117855259"><ele>274.0</ele><time>2026-04-19T08:54:35Z</time></trkpt><trkpt lat="45.21005927054078" lon="7.689592630895277"><ele>274.0</ele><time>2026-04-19T08:54:36Z</time></trkpt><trkpt lat="45.2101373175074" lon="7.68962493669278"><ele>274.0</ele><time>2026-04-19T08:54:37Z</time></trkpt><trkpt lat="45.210211516179506" lon="7.689646492314414"><ele>274.00000000000006</ele><time>2026-04-19T08:54:38Z</time></trkpt><trkpt lat="45.21028481199849" lon="7.689677261674152"><ele>274.0</ele><time>2026-04-19T08:54:39Z</time></trkpt><trkpt lat="45.21036513074164" lon="7.689707656599746"><ele>274.0</ele><time>2026-04-19T08:54:40Z</time></trkpt><trkpt lat="45.21045403934369" lon="7.6897395746452055"><ele>274.0</ele><time>2026-04-19T08:54:41Z</time></trkpt><trkpt lat="45.21055329590595" lon="7.689797685837099"><ele>274.0</ele><time>2026-04-19T08:54:42Z</time></trkpt><trkpt lat="45.210655122951295" lon="7.6898209492818355"><ele>274.0</ele><time>2026-04-19T08:54:43Z</time></trkpt><trkpt lat="45.21074499012534" lon="7.689877630020047"><ele>274.0</ele><time>2026-04-19T08:54:44Z</time></trkpt><trkpt lat="45.210839443531846" lon="7.689896052689831"><ele>274.3333333333333</ele><time>2026-04-19T08:54:45Z</time></trkpt><trkpt lat="45.21093332985687" lon="7.689937994266513"><ele>274.66666666666663</ele><time>2026-04-19T08:54:46Z</time></trkpt><trkpt lat="45.21101309096083" lon="7.689965982855706"><ele>275.0</ele><time>2026-04-19T08:54:47Z</time></trkpt><trkpt lat="45.211077920930585" lon="7.689961825538778"><ele>275.3333333333333</ele><time>2026-04-19T08:54:48Z</time></trkpt><trkpt lat="45.211180625682545" lon="7.6900055952289526"><ele>275.6666666666667</ele><time>2026-04-19T08:54:50Z</time></trkpt><trkpt lat="45.211259888363834" lon="7.6899953043464055"><ele>276.0</ele><time>2026-04-19T08:54:52Z</time></trkpt><trkpt lat="45.211328028392785" lon="7.690141205460036"><ele>276.0</ele><time>2026-04-19T08:54:55Z</time></trkpt><trkpt lat="45.21134541272251" lon="7.6902379267793455"><ele>276.0</ele><time>2026-04-19T08:54:56Z</time></trkpt><trkpt lat="45.21135035442498" lon="7.690376597408514"><ele>276.0</ele><time>2026-04-19T08:54:57Z</time></trkpt><trkpt lat="45.21134093643702" lon="7.690521025302809"><ele>276.0</ele><time>2026-04-19T08:54:58Z</time></trkpt><trkpt lat="45.211325555019336" lon="7.690678135314429"><ele>276.0</ele><time>2026-04-19T08:54:59Z</time></trkpt><trkpt lat="45.21130731724548" lon="7.6908476790711795"><ele>275.75</ele><time>2026-04-19T08:55:00Z</time></trkpt><trkpt lat="45.211288503104385" lon="7.6910250691026505"><ele>275.5</ele><time>2026-04-19T08:55:01Z</time></trkpt><trkpt lat="45.21128413386931" lon="7.691216512225146"><ele>275.25</ele><time>2026-04-19T08:55:02Z</time></trkpt><trkpt lat="45.21126796137244" lon="7.691413813163676"><ele>275.0</ele><time>2026-04-19T08:55:03Z</time></trkpt><trkpt lat="45.21125685920182" lon="7.6916119457634275"><ele>274.5</ele><time>2026-04-19T08:55:04Z</time></trkpt><trkpt lat="45.211254864219285" lon="7.691813206316158"><ele>274.0</ele><time>2026-04-19T08:55:05Z</time></trkpt><trkpt lat="45.211246312228425" lon="7.692013554812497"><ele>273.5</ele><time>2026-04-19T08:55:06Z</time></trkpt><trkpt lat="45.21123128180592" lon="7.692214545880984"><ele>273.0</ele><time>2026-04-19T08:55:07Z</time></trkpt><trkpt lat="45.21119778527588" lon="7.692380684291683"><ele>273.0</ele><time>2026-04-19T08:55:08Z</time></trkpt><trkpt lat="45.211171849378744" lon="7.692521844334022"><ele>273.0</ele><time>2026-04-19T08:55:09Z</time></trkpt><trkpt lat="45.21112638955188" lon="7.692630325429389"><ele>273.0</ele><time>2026-04-19T08:55:10Z</time></trkpt><trkpt lat="45.21105463601924" lon="7.692711933017407"><ele>273.0</ele><time>2026-04-19T08:55:11Z</time></trkpt><trkpt lat="45.21096848246609" lon="7.692796984872428"><ele>273.0</ele><time>2026-04-19T08:55:12Z</time></trkpt><trkpt lat="45.21085863571647" lon="7.692856481551694"><ele>273.0</ele><time>2026-04-19T08:55:13Z</time></trkpt><trkpt lat="45.21074442233305" lon="7.69292886414554"><ele>273.0</ele><time>2026-04-19T08:55:14Z</time></trkpt><trkpt lat="45.21062365397792" lon="7.693005303434238"><ele>273.0</ele><time>2026-04-19T08:55:15Z</time></trkpt><trkpt lat="45.21050134571809" lon="7.693075052458908"><ele>273.0</ele><time>2026-04-19T08:55:16Z</time></trkpt><trkpt lat="45.21038557533099" lon="7.693139458040124"><ele>272.5</ele><time>2026-04-19T08:55:17Z</time></trkpt><trkpt lat="45.210272974282354" lon="7.6932071880156006"><ele>272.0</ele><time>2026-04-19T08:55:18Z</time></trkpt><trkpt lat="45.21017174016308" lon="7.693298106177093"><ele>271.5</ele><time>2026-04-19T08:55:19Z</time></trkpt><trkpt lat="45.21007854874893" lon="7.693389293098815"><ele>271.0</ele><time>2026-04-19T08:55:20Z</time></trkpt><trkpt lat="45.20998848760686" lon="7.69344584390833"><ele>271.0</ele><time>2026-04-19T08:55:21Z</time></trkpt><trkpt lat="45.2098837040503" lon="7.693422017714477"><ele>271.0</ele><time>2026-04-19T08:55:22Z</time></trkpt><trkpt lat="45.209777653846515" lon="7.69334215711969"><ele>271.0</ele><time>2026-04-19T08:55:23Z</time></trkpt><trkpt lat="45.209658726262106" lon="7.693262868897285"><ele>271.0</ele><time>2026-04-19T08:55:24Z</time></trkpt><trkpt lat="45.20953586001421" lon="7.693199518085989"><ele>271.2</ele><time>2026-04-19T08:55:25Z</time></trkpt><trkpt lat="45.2094261680056" lon="7.693119614524137"><ele>271.40000000000003</ele><time>2026-04-19T08:55:26Z</time></trkpt><trkpt lat="45.20932736560455" lon="7.69305689521808"><ele>271.6</ele><time>2026-04-19T08:55:27Z</time></trkpt><trkpt lat="45.20924145918545" lon="7.69300793986405"><ele>271.8</ele><time>2026-04-19T08:55:28Z</time></trkpt><trkpt lat="45.20916677689341" lon="7.692988069188125"><ele>272.0</ele><time>2026-04-19T08:55:29Z</time></trkpt><trkpt lat="45.20909098865315" lon="7.693013091208258"><ele>272.0</ele><time>2026-04-19T08:55:30Z</time></trkpt><trkpt lat="45.20901835122595" lon="7.693079923942666"><ele>272.0</ele><time>2026-04-19T08:55:31Z</time></trkpt><trkpt lat="45.20894355003525" lon="7.693143517951424"><ele>272.0</ele><time>2026-04-19T08:55:32Z</time></trkpt><trkpt lat="45.20893517172821" lon="7.69333398787648"><ele>272.0</ele><time>2026-04-19T08:55:33Z</time></trkpt><trkpt lat="45.208930912159154" lon="7.693503015771333"><ele>272.0</ele><time>2026-04-19T08:55:34Z</time></trkpt><trkpt lat="45.20893494236779" lon="7.693698032524092"><ele>271.6666666666667</ele><time>2026-04-19T08:55:35Z</time></trkpt><trkpt lat="45.20892168467071" lon="7.693899983335221"><ele>271.3333333333333</ele><time>2026-04-19T08:55:36Z</time></trkpt><trkpt lat="45.20890647323583" lon="7.6941224865416675"><ele>271.0</ele><time>2026-04-19T08:55:37Z</time></trkpt><trkpt lat="45.20889227199002" lon="7.694342499723966"><ele>270.75</ele><time>2026-04-19T08:55:38Z</time></trkpt><trkpt lat="45.208879068701" lon="7.694554493760665"><ele>270.5</ele><time>2026-04-19T08:55:39Z</time></trkpt><trkpt lat="45.20885647444916" lon="7.694759374225913"><ele>270.25</ele><time>2026-04-19T08:55:40Z</time></trkpt><trkpt lat="45.20881447780802" lon="7.694968699806686"><ele>270.0</ele><time>2026-04-19T08:55:41Z</time></trkpt><trkpt lat="45.20876626782613" lon="7.695181917661369"><ele>270.0</ele><time>2026-04-19T08:55:42Z</time></trkpt><trkpt lat="45.20871013903832" lon="7.69539685033996"><ele>270.0</ele><time>2026-04-19T08:55:43Z</time></trkpt><trkpt lat="45.20865225053691" lon="7.695625379378491"><ele>270.0</ele><time>2026-04-19T08:55:44Z</time></trkpt><trkpt lat="45.208593651926876" lon="7.695849831744366"><ele>269.6666666666667</ele><time>2026-04-19T08:55:45Z</time></trkpt><trkpt lat="45.20853072729903" lon="7.696087842134619"><ele>269.33333333333337</ele><time>2026-04-19T08:55:46Z</time></trkpt><trkpt lat="45.208467206869855" lon="7.696326825317166"><ele>269.0</ele><time>2026-04-19T08:55:47Z</time></trkpt><trkpt lat="45.208405505605356" lon="7.69657399736263"><ele>269.0</ele><time>2026-04-19T08:55:48Z</time></trkpt><trkpt lat="45.2083438711836" lon="7.696811710490947"><ele>269.0</ele><time>2026-04-19T08:55:49Z</time></trkpt><trkpt lat="45.2082836654133" lon="7.697049066714936"><ele>269.0</ele><time>2026-04-19T08:55:50Z</time></trkpt><trkpt lat="45.208222044771766" lon="7.697297989763699"><ele>269.0</ele><time>2026-04-19T08:55:51Z</time></trkpt><trkpt lat="45.20816211321435" lon="7.697546551025169"><ele>269.0</ele><time>2026-04-19T08:55:52Z</time></trkpt><trkpt lat="45.20810368231546" lon="7.6977882922073295"><ele>269.0</ele><time>2026-04-19T08:55:53Z</time></trkpt><trkpt lat="45.20804468674055" lon="7.6980287161634715"><ele>269.0</ele><time>2026-04-19T08:55:54Z</time></trkpt><trkpt lat="45.207987989571066" lon="7.698262272188481"><ele>269.0</ele><time>2026-04-19T08:55:55Z</time></trkpt><trkpt lat="45.207935894277064" lon="7.698489886840245"><ele>269.0</ele><time>2026-04-19T08:55:56Z</time></trkpt><trkpt lat="45.20788813865053" lon="7.6987125483598025"><ele>268.33333333333337</ele><time>2026-04-19T08:55:57Z</time></trkpt><trkpt lat="45.20783996760191" lon="7.698929695772574"><ele>267.6666666666667</ele><time>2026-04-19T08:55:58Z</time></trkpt><trkpt lat="45.20779286130591" lon="7.6991406512994045"><ele>267.0</ele><time>2026-04-19T08:55:59Z</time></trkpt><trkpt lat="45.20774853282597" lon="7.699347025869172"><ele>267.0</ele><time>2026-04-19T08:56:00Z</time></trkpt><trkpt lat="45.207706371538244" lon="7.69955418247126"><ele>267.0</ele><time>2026-04-19T08:56:01Z</time></trkpt><trkpt lat="45.207660517154146" lon="7.699760618361811"><ele>267.0</ele><time>2026-04-19T08:56:02Z</time></trkpt><trkpt lat="45.20760909404261" lon="7.699956080701971"><ele>267.0</ele><time>2026-04-19T08:56:03Z</time></trkpt><trkpt lat="45.207564457053664" lon="7.700141958206889"><ele>267.0</ele><time>2026-04-19T08:56:04Z</time></trkpt><trkpt lat="45.207522734051366" lon="7.700316129904329"><ele>267.0</ele><time>2026-04-19T08:56:05Z</time></trkpt><trkpt lat="45.20745686109367" lon="7.700454941109366"><ele>267.0</ele><time>2026-04-19T08:56:06Z</time></trkpt><trkpt lat="45.207403443725646" lon="7.700573360521136"><ele>266.6</ele><time>2026-04-19T08:56:07Z</time></trkpt><trkpt lat="45.20731137050946" lon="7.7006472085787"><ele>266.2</ele><time>2026-04-19T08:56:08Z</time></trkpt><trkpt lat="45.20721029582203" lon="7.7007311699792735"><ele>265.8</ele><time>2026-04-19T08:56:09Z</time></trkpt><trkpt lat="45.20712849456466" lon="7.7008405089473895"><ele>265.4</ele><time>2026-04-19T08:56:10Z</time></trkpt><trkpt lat="45.20704545747227" lon="7.700932038992447"><ele>265.0</ele><time>2026-04-19T08:56:11Z</time></trkpt><trkpt lat="45.20698814932829" lon="7.701085752181255"><ele>264.5</ele><time>2026-04-19T08:56:12Z</time></trkpt><trkpt lat="45.20693118112721" lon="7.701265960126608"><ele>264.0</ele><time>2026-04-19T08:56:13Z</time></trkpt><trkpt lat="45.20684197190897" lon="7.701433228981617"><ele>263.5</ele><time>2026-04-19T08:56:14Z</time></trkpt><trkpt lat="45.20675419105257" lon="7.701609650357001"><ele>263.0</ele><time>2026-04-19T08:56:15Z</time></trkpt><trkpt lat="45.20666008715152" lon="7.701781888017257"><ele>262.75</ele><time>2026-04-19T08:56:16Z</time></trkpt><trkpt lat="45.20655720388318" lon="7.701924261113918"><ele>262.5</ele><time>2026-04-19T08:56:17Z</time></trkpt><trkpt lat="45.20644188509783" lon="7.7020485439582504"><ele>262.25</ele><time>2026-04-19T08:56:18Z</time></trkpt><trkpt lat="45.20631398625528" lon="7.702178253692204"><ele>262.0</ele><time>2026-04-19T08:56:19Z</time></trkpt><trkpt lat="45.20618933399879" lon="7.70230794360475"><ele>262.0</ele><time>2026-04-19T08:56:20Z</time></trkpt><trkpt lat="45.206068490405094" lon="7.702449249070739"><ele>262.0</ele><time>2026-04-19T08:56:21Z</time></trkpt><trkpt lat="45.20596544128734" lon="7.702601241357067"><ele>262.0</ele><time>2026-04-19T08:56:22Z</time></trkpt><trkpt lat="45.20588063093503" lon="7.702717163244557"><ele>262.0</ele><time>2026-04-19T08:56:23Z</time></trkpt><trkpt lat="45.205779154794705" lon="7.7028091817127295"><ele>262.0</ele><time>2026-04-19T08:56:24Z</time></trkpt><trkpt lat="45.20570045288611" lon="7.7029368829206355"><ele>262.0</ele><time>2026-04-19T08:56:25Z</time></trkpt><trkpt lat="45.205633786713356" lon="7.703083172525752"><ele>262.0</ele><time>2026-04-19T08:56:26Z</time></trkpt><trkpt lat="45.205592203006894" lon="7.7032589032416645"><ele>262.0</ele><time>2026-04-19T08:56:27Z</time></trkpt><trkpt lat="45.205566873393394" lon="7.703458905430085"><ele>261.3333333333333</ele><time>2026-04-19T08:56:28Z</time></trkpt><trkpt lat="45.20554070607663" lon="7.703677586168574"><ele>260.6666666666667</ele><time>2026-04-19T08:56:29Z</time></trkpt><trkpt lat="45.20551339549766" lon="7.703908651294823"><ele>260.0</ele><time>2026-04-19T08:56:30Z</time></trkpt><trkpt lat="45.20549432169269" lon="7.7041466672158725"><ele>260.0</ele><time>2026-04-19T08:56:31Z</time></trkpt><trkpt lat="45.20548061515058" lon="7.704384651971809"><ele>260.0</ele><time>2026-04-19T08:56:32Z</time></trkpt><trkpt lat="45.20546617182102" lon="7.704601601122846"><ele>260.0</ele><time>2026-04-19T08:56:33Z</time></trkpt><trkpt lat="45.2054739728792" lon="7.704802505711409"><ele>260.0</ele><time>2026-04-19T08:56:34Z</time></trkpt><trkpt lat="45.20551414104314" lon="7.704996268670603"><ele>260.0</ele><time>2026-04-19T08:56:35Z</time></trkpt><trkpt lat="45.20555474897335" lon="7.705192982701331"><ele>260.0</ele><time>2026-04-19T08:56:36Z</time></trkpt><trkpt lat="45.20555485438893" lon="7.705399218984974"><ele>260.0</ele><time>2026-04-19T08:56:37Z</time></trkpt><trkpt lat="45.20554559418725" lon="7.705598344154137"><ele>260.5</ele><time>2026-04-19T08:56:38Z</time></trkpt><trkpt lat="45.205541888631515" lon="7.705794370405572"><ele>261.0</ele><time>2026-04-19T08:56:39Z</time></trkpt><trkpt lat="45.20551716174985" lon="7.705981643082213"><ele>261.5</ele><time>2026-04-19T08:56:40Z</time></trkpt><trkpt lat="45.20549583957691" lon="7.7061685528788475"><ele>262.0</ele><time>2026-04-19T08:56:41Z</time></trkpt><trkpt lat="45.20547722717126" lon="7.706352291424528"><ele>262.0</ele><time>2026-04-19T08:56:42Z</time></trkpt><trkpt lat="45.20546516966057" lon="7.706514811201295"><ele>262.0</ele><time>2026-04-19T08:56:43Z</time></trkpt><trkpt lat="45.2054540252263" lon="7.706654535584377"><ele>262.0</ele><time>2026-04-19T08:56:44Z</time></trkpt><trkpt lat="45.205437814487766" lon="7.706798096441285"><ele>262.0</ele><time>2026-04-19T08:56:45Z</time></trkpt><trkpt lat="45.205417097855324" lon="7.706956894314939"><ele>262.0</ele><time>2026-04-19T08:56:46Z</time></trkpt><trkpt lat="45.20539750062037" lon="7.707128452435007"><ele>262.0</ele><time>2026-04-19T08:56:47Z</time></trkpt><trkpt lat="45.205381145580745" lon="7.707322311650359"><ele>262.0</ele><time>2026-04-19T08:56:48Z</time></trkpt><trkpt lat="45.2053576688631" lon="7.707538957475879"><ele>262.0</ele><time>2026-04-19T08:56:49Z</time></trkpt><trkpt lat="45.20532716251595" lon="7.707765231953302"><ele>261.66666666666663</ele><time>2026-04-19T08:56:50Z</time></trkpt><trkpt lat="45.20528900007266" lon="7.707988028475516"><ele>261.3333333333333</ele><time>2026-04-19T08:56:51Z</time></trkpt><trkpt lat="45.2052398837102" lon="7.7082036736917"><ele>261.0</ele><time>2026-04-19T08:56:52Z</time></trkpt><trkpt lat="45.20518841796088" lon="7.708424240079178"><ele>260.6666666666667</ele><time>2026-04-19T08:56:53Z</time></trkpt><trkpt lat="45.205144363609456" lon="7.708640456957247"><ele>260.33333333333337</ele><time>2026-04-19T08:56:54Z</time></trkpt><trkpt lat="45.20510523426625" lon="7.708851035842143"><ele>260.0</ele><time>2026-04-19T08:56:55Z</time></trkpt><trkpt lat="45.20506795395452" lon="7.709053102867697"><ele>260.0</ele><time>2026-04-19T08:56:56Z</time></trkpt><trkpt lat="45.205033061550175" lon="7.709251119047586"><ele>260.0</ele><time>2026-04-19T08:56:57Z</time></trkpt><trkpt lat="45.20499850888297" lon="7.709442883920722"><ele>260.0</ele><time>2026-04-19T08:56:58Z</time></trkpt><trkpt lat="45.204966752717276" lon="7.7096313767168425"><ele>260.0</ele><time>2026-04-19T08:56:59Z</time></trkpt><trkpt lat="45.20493256674983" lon="7.7098210125074"><ele>260.0</ele><time>2026-04-19T08:57:00Z</time></trkpt><trkpt lat="45.20490663896847" lon="7.710012126404306"><ele>260.0</ele><time>2026-04-19T08:57:01Z</time></trkpt><trkpt lat="45.204882604696515" lon="7.710210431466314"><ele>260.0</ele><time>2026-04-19T08:57:02Z</time></trkpt><trkpt lat="45.20485306461611" lon="7.710416655773228"><ele>260.0</ele><time>2026-04-19T08:57:03Z</time></trkpt><trkpt lat="45.20482625978012" lon="7.71062067991531"><ele>259.5</ele><time>2026-04-19T08:57:04Z</time></trkpt><trkpt lat="45.2048012699507" lon="7.710831392362261"><ele>259.0</ele><time>2026-04-19T08:57:05Z</time></trkpt><trkpt lat="45.204781979867185" lon="7.711038066003983"><ele>258.5</ele><time>2026-04-19T08:57:06Z</time></trkpt><trkpt lat="45.20476697028577" lon="7.711223148785663"><ele>258.0</ele><time>2026-04-19T08:57:07Z</time></trkpt><trkpt lat="45.204762039383326" lon="7.711400444455613"><ele>258.0</ele><time>2026-04-19T08:57:08Z</time></trkpt><trkpt lat="45.20477311070656" lon="7.711570878018022"><ele>258.0</ele><time>2026-04-19T08:57:09Z</time></trkpt><trkpt lat="45.204825863515964" lon="7.711723717510565"><ele>258.0</ele><time>2026-04-19T08:57:10Z</time></trkpt><trkpt lat="45.20490152425653" lon="7.71186238921821"><ele>258.0</ele><time>2026-04-19T08:57:11Z</time></trkpt><trkpt lat="45.204970518577866" lon="7.711998227663645"><ele>258.0</ele><time>2026-04-19T08:57:12Z</time></trkpt><trkpt lat="45.20501630588797" lon="7.7121613937400815"><ele>258.0</ele><time>2026-04-19T08:57:13Z</time></trkpt><trkpt lat="45.2050229082319" lon="7.712329385110984"><ele>258.0</ele><time>2026-04-19T08:57:14Z</time></trkpt><trkpt lat="45.205013891115186" lon="7.71250322127849"><ele>258.0</ele><time>2026-04-19T08:57:15Z</time></trkpt><trkpt lat="45.20500311436961" lon="7.712715625506464"><ele>257.3333333333333</ele><time>2026-04-19T08:57:16Z</time></trkpt><trkpt lat="45.20501516369564" lon="7.712922018117401"><ele>256.66666666666663</ele><time>2026-04-19T08:57:17Z</time></trkpt><trkpt lat="45.205008442793556" lon="7.713135441904598"><ele>256.0</ele><time>2026-04-19T08:57:18Z</time></trkpt><trkpt lat="45.20502276151728" lon="7.713357178647464"><ele>256.0</ele><time>2026-04-19T08:57:19Z</time></trkpt><trkpt lat="45.20506622789317" lon="7.713531089579892"><ele>256.0</ele><time>2026-04-19T08:57:20Z</time></trkpt><trkpt lat="45.205095636573944" lon="7.713699620812569"><ele>256.0</ele><time>2026-04-19T08:57:21Z</time></trkpt><trkpt lat="45.20513214489176" lon="7.713853760984607"><ele>256.0</ele><time>2026-04-19T08:57:22Z</time></trkpt><trkpt lat="45.20518955164893" lon="7.713987809583127"><ele>256.2</ele><time>2026-04-19T08:57:23Z</time></trkpt><trkpt lat="45.20527020742564" lon="7.714104007500916"><ele>256.40000000000003</ele><time>2026-04-19T08:57:24Z</time></trkpt><trkpt lat="45.205342681219825" lon="7.714219743021003"><ele>256.6</ele><time>2026-04-19T08:57:25Z</time></trkpt><trkpt lat="45.20538724642574" lon="7.714356838873258"><ele>256.8</ele><time>2026-04-19T08:57:26Z</time></trkpt><trkpt lat="45.205411287922374" lon="7.714499466751567"><ele>257.0</ele><time>2026-04-19T08:57:27Z</time></trkpt><trkpt lat="45.20539631504645" lon="7.714626752266755"><ele>257.1666666666667</ele><time>2026-04-19T08:57:28Z</time></trkpt><trkpt lat="45.20538963194334" lon="7.7147245884250975"><ele>257.33333333333337</ele><time>2026-04-19T08:57:29Z</time></trkpt><trkpt lat="45.205369061921445" lon="7.714812683853276"><ele>257.5</ele><time>2026-04-19T08:57:30Z</time></trkpt><trkpt lat="45.205346246712715" lon="7.714904610830734"><ele>257.6666666666667</ele><time>2026-04-19T08:57:31Z</time></trkpt><trkpt lat="45.20530396411868" lon="7.715020809592685"><ele>257.8333333333333</ele><time>2026-04-19T08:57:32Z</time></trkpt><trkpt lat="45.20526154046015" lon="7.71513339433708"><ele>258.0</ele><time>2026-04-19T08:57:33Z</time></trkpt><trkpt lat="45.20520794316287" lon="7.715265533591209"><ele>258.0</ele><time>2026-04-19T08:57:34Z</time></trkpt><trkpt lat="45.20514944850928" lon="7.715412074216112"><ele>258.0</ele><time>2026-04-19T08:57:35Z</time></trkpt><trkpt lat="45.20508574219895" lon="7.71556923367228"><ele>258.0</ele><time>2026-04-19T08:57:36Z</time></trkpt><trkpt lat="45.20502105724043" lon="7.715727663782498"><ele>258.0</ele><time>2026-04-19T08:57:37Z</time></trkpt><trkpt lat="45.20497940083461" lon="7.715890956258769"><ele>258.0</ele><time>2026-04-19T08:57:38Z</time></trkpt><trkpt lat="45.20491766974073" lon="7.7160532901234955"><ele>258.0</ele><time>2026-04-19T08:57:39Z</time></trkpt><trkpt lat="45.2048600935" lon="7.716198914690186"><ele>258.0</ele><time>2026-04-19T08:57:40Z</time></trkpt><trkpt lat="45.20480927873148" lon="7.716331781855473"><ele>258.0</ele><time>2026-04-19T08:57:41Z</time></trkpt><trkpt lat="45.2047647062238" lon="7.716454226171579"><ele>257.4</ele><time>2026-04-19T08:57:42Z</time></trkpt><trkpt lat="45.20472117674751" lon="7.716567701139941"><ele>256.8</ele><time>2026-04-19T08:57:43Z</time></trkpt><trkpt lat="45.20468099962844" lon="7.716668639231327"><ele>256.2</ele><time>2026-04-19T08:57:44Z</time></trkpt><trkpt lat="45.20464091234187" lon="7.7167795921903535"><ele>255.6</ele><time>2026-04-19T08:57:45Z</time></trkpt><trkpt lat="45.20459470784158" lon="7.716930802019821"><ele>255.0</ele><time>2026-04-19T08:57:46Z</time></trkpt><trkpt lat="45.20453201542829" lon="7.717100444205766"><ele>254.66666666666669</ele><time>2026-04-19T08:57:47Z</time></trkpt><trkpt lat="45.2044745826565" lon="7.717294699130395"><ele>254.33333333333334</ele><time>2026-04-19T08:57:48Z</time></trkpt><trkpt lat="45.20442752609458" lon="7.71751075358431"><ele>254.0</ele><time>2026-04-19T08:57:49Z</time></trkpt><trkpt lat="45.20436111892804" lon="7.717711181254191"><ele>254.0</ele><time>2026-04-19T08:57:50Z</time></trkpt><trkpt lat="45.20428696832141" lon="7.717893343720796"><ele>254.0</ele><time>2026-04-19T08:57:51Z</time></trkpt><trkpt lat="45.20422511133432" lon="7.718068701428283"><ele>254.0</ele><time>2026-04-19T08:57:52Z</time></trkpt><trkpt lat="45.204180618595366" lon="7.718242022400432"><ele>254.0</ele><time>2026-04-19T08:57:53Z</time></trkpt><trkpt lat="45.20411339750285" lon="7.718394330707961"><ele>254.0</ele><time>2026-04-19T08:57:54Z</time></trkpt><trkpt lat="45.204058412374785" lon="7.71855115550988"><ele>254.0</ele><time>2026-04-19T08:57:55Z</time></trkpt><trkpt lat="45.20400535279044" lon="7.718703652783244"><ele>254.0</ele><time>2026-04-19T08:57:56Z</time></trkpt><trkpt lat="45.2039510372727" lon="7.7188505954816895"><ele>254.0</ele><time>2026-04-19T08:57:57Z</time></trkpt><trkpt lat="45.20389663426317" lon="7.718997495904216"><ele>254.0</ele><time>2026-04-19T08:57:58Z</time></trkpt><trkpt lat="45.20384210529332" lon="7.719142583646077"><ele>253.99999999999997</ele><time>2026-04-19T08:57:59Z</time></trkpt><trkpt lat="45.20379112452119" lon="7.719259196112398"><ele>253.99999999999997</ele><time>2026-04-19T08:58:00Z</time></trkpt><trkpt lat="45.20373773458689" lon="7.7193702799194766"><ele>254.0</ele><time>2026-04-19T08:58:01Z</time></trkpt><trkpt lat="45.203691767314076" lon="7.719480546547367"><ele>254.0</ele><time>2026-04-19T08:58:02Z</time></trkpt><trkpt lat="45.20364069680113" lon="7.71959358935004"><ele>253.39999999999998</ele><time>2026-04-19T08:58:03Z</time></trkpt><trkpt lat="45.20360758268313" lon="7.719722849648321"><ele>252.79999999999998</ele><time>2026-04-19T08:58:04Z</time></trkpt><trkpt lat="45.203575715257614" lon="7.719855610954241"><ele>252.20000000000002</ele><time>2026-04-19T08:58:05Z</time></trkpt><trkpt lat="45.203546797625734" lon="7.719993652141701"><ele>251.60000000000002</ele><time>2026-04-19T08:58:06Z</time></trkpt><trkpt lat="45.20351632796386" lon="7.720151091079769"><ele>251.0</ele><time>2026-04-19T08:58:07Z</time></trkpt><trkpt lat="45.20349245681631" lon="7.720317217266375"><ele>251.0</ele><time>2026-04-19T08:58:08Z</time></trkpt><trkpt lat="45.20347458307758" lon="7.720471387808414"><ele>251.00000000000003</ele><time>2026-04-19T08:58:09Z</time></trkpt><trkpt lat="45.20345788348281" lon="7.720608458854123"><ele>251.00000000000003</ele><time>2026-04-19T08:58:10Z</time></trkpt><trkpt lat="45.20344457587951" lon="7.720733768977651"><ele>251.0</ele><time>2026-04-19T08:58:11Z</time></trkpt><trkpt lat="45.20343109758832" lon="7.720851513378274"><ele>251.0</ele><time>2026-04-19T08:58:12Z</time></trkpt><trkpt lat="45.20341898587236" lon="7.720974042665856"><ele>251.0</ele><time>2026-04-19T08:58:13Z</time></trkpt><trkpt lat="45.203405694483685" lon="7.7211111999257165"><ele>251.00000000000003</ele><time>2026-04-19T08:58:14Z</time></trkpt><trkpt lat="45.20338730293057" lon="7.721267411407581"><ele>251.00000000000003</ele><time>2026-04-19T08:58:15Z</time></trkpt><trkpt lat="45.203369222963595" lon="7.721433074891147"><ele>251.0</ele><time>2026-04-19T08:58:16Z</time></trkpt><trkpt lat="45.20335212435569" lon="7.721579152604559"><ele>251.0</ele><time>2026-04-19T08:58:17Z</time></trkpt><trkpt lat="45.20333655759718" lon="7.721720946646433"><ele>251.0</ele><time>2026-04-19T08:58:18Z</time></trkpt><trkpt lat="45.20331564342694" lon="7.7218723280811705"><ele>251.00000000000003</ele><time>2026-04-19T08:58:19Z</time></trkpt><trkpt lat="45.20330204082687" lon="7.722028094489188"><ele>251.00000000000003</ele><time>2026-04-19T08:58:20Z</time></trkpt><trkpt lat="45.20328730693113" lon="7.722183300352683"><ele>251.0</ele><time>2026-04-19T08:58:21Z</time></trkpt><trkpt lat="45.20326700456401" lon="7.722326958041793"><ele>251.0</ele><time>2026-04-19T08:58:22Z</time></trkpt><trkpt lat="45.20323438421982" lon="7.72246776337906"><ele>251.0</ele><time>2026-04-19T08:58:23Z</time></trkpt><trkpt lat="45.20320234607833" lon="7.722597855134762"><ele>251.00000000000003</ele><time>2026-04-19T08:58:24Z</time></trkpt><trkpt lat="45.20315560782777" lon="7.722721747936805"><ele>251.00000000000003</ele><time>2026-04-19T08:58:25Z</time></trkpt><trkpt lat="45.20309882490108" lon="7.722842065158914"><ele>251.0</ele><time>2026-04-19T08:58:26Z</time></trkpt><trkpt lat="45.20303378500678" lon="7.722979033178554"><ele>251.0</ele><time>2026-04-19T08:58:27Z</time></trkpt><trkpt lat="45.20297092642349" lon="7.723119330125753"><ele>250.5</ele><time>2026-04-19T08:58:28Z</time></trkpt><trkpt lat="45.20290787106583" lon="7.723253261587707"><ele>250.0</ele><time>2026-04-19T08:58:29Z</time></trkpt><trkpt lat="45.20284925605916" lon="7.723384954316331"><ele>249.5</ele><time>2026-04-19T08:58:30Z</time></trkpt><trkpt lat="45.20280589532068" lon="7.723530087465411"><ele>249.0</ele><time>2026-04-19T08:58:31Z</time></trkpt><trkpt lat="45.20277274918512" lon="7.723692347297825"><ele>249.0</ele><time>2026-04-19T08:58:32Z</time></trkpt><trkpt lat="45.20276006156698" lon="7.723886090021278"><ele>249.0</ele><time>2026-04-19T08:58:33Z</time></trkpt><trkpt lat="45.20274402520988" lon="7.724094043138221"><ele>249.0</ele><time>2026-04-19T08:58:34Z</time></trkpt><trkpt lat="45.20273018489325" lon="7.724287453879224"><ele>249.0</ele><time>2026-04-19T08:58:35Z</time></trkpt><trkpt lat="45.20271101035393" lon="7.724450401987398"><ele>248.75</ele><time>2026-04-19T08:58:36Z</time></trkpt><trkpt lat="45.202690781524176" lon="7.7246097892387375"><ele>248.5</ele><time>2026-04-19T08:58:37Z</time></trkpt><trkpt lat="45.20267021666604" lon="7.72476995759241"><ele>248.25</ele><time>2026-04-19T08:58:38Z</time></trkpt><trkpt lat="45.20265325375733" lon="7.724937359936728"><ele>248.0</ele><time>2026-04-19T08:58:39Z</time></trkpt><trkpt lat="45.2026370922793" lon="7.725107340177207"><ele>248.0</ele><time>2026-04-19T08:58:40Z</time></trkpt><trkpt lat="45.202618929063206" lon="7.725273380512505"><ele>248.0</ele><time>2026-04-19T08:58:41Z</time></trkpt><trkpt lat="45.202601415121606" lon="7.725417830385904"><ele>248.0</ele><time>2026-04-19T08:58:42Z</time></trkpt><trkpt lat="45.20258604893552" lon="7.725549747414034"><ele>248.0</ele><time>2026-04-19T08:58:43Z</time></trkpt><trkpt lat="45.202575265482125" lon="7.725669183874061"><ele>248.0</ele><time>2026-04-19T08:58:44Z</time></trkpt><trkpt lat="45.20255080609646" lon="7.725781547355603"><ele>248.00000000000003</ele><time>2026-04-19T08:58:45Z</time></trkpt><trkpt lat="45.20250877177116" lon="7.7258687365658485"><ele>248.0</ele><time>2026-04-19T08:58:46Z</time></trkpt><trkpt lat="45.2024454022593" lon="7.7259467676636255"><ele>248.0</ele><time>2026-04-19T08:58:47Z</time></trkpt><trkpt lat="45.20238775938478" lon="7.7260294592299585"><ele>248.0</ele><time>2026-04-19T08:58:48Z</time></trkpt><trkpt lat="45.20237012645528" lon="7.726137960785504"><ele>248.00000000000003</ele><time>2026-04-19T08:58:49Z</time></trkpt><trkpt lat="45.20239717492921" lon="7.726247195221357"><ele>248.0</ele><time>2026-04-19T08:58:50Z</time></trkpt><trkpt lat="45.2024502463049" lon="7.72634966946239"><ele>247.75</ele><time>2026-04-19T08:58:51Z</time></trkpt><trkpt lat="45.2025377231717" lon="7.726410435526122"><ele>247.5</ele><time>2026-04-19T08:58:52Z</time></trkpt><trkpt lat="45.20265995083753" lon="7.726409238662835"><ele>247.25</ele><time>2026-04-19T08:58:53Z</time></trkpt><trkpt lat="45.20277276735926" lon="7.7263682501438815"><ele>247.0</ele><time>2026-04-19T08:58:54Z</time></trkpt><trkpt lat="45.20289565746851" lon="7.726314974299215"><ele>247.0</ele><time>2026-04-19T08:58:55Z</time></trkpt><trkpt lat="45.203020441613425" lon="7.726352981142206"><ele>247.0</ele><time>2026-04-19T08:58:56Z</time></trkpt><trkpt lat="45.20316932181814" lon="7.7264419479084125"><ele>247.0</ele><time>2026-04-19T08:58:57Z</time></trkpt><trkpt lat="45.203332275312384" lon="7.726527590627969"><ele>247.0</ele><time>2026-04-19T08:58:58Z</time></trkpt><trkpt lat="45.20350575923836" lon="7.726602764269514"><ele>247.0</ele><time>2026-04-19T08:58:59Z</time></trkpt><trkpt lat="45.20368678633282" lon="7.726691413610985"><ele>247.0</ele><time>2026-04-19T08:59:00Z</time></trkpt><trkpt lat="45.20386076619123" lon="7.726777546258252"><ele>247.66666666666666</ele><time>2026-04-19T08:59:01Z</time></trkpt><trkpt lat="45.204037338961896" lon="7.726860991097012"><ele>248.33333333333331</ele><time>2026-04-19T08:59:02Z</time></trkpt><trkpt lat="45.20422269703805" lon="7.726949222378447"><ele>249.0</ele><time>2026-04-19T08:59:03Z</time></trkpt><trkpt lat="45.204407170520675" lon="7.727040351041885"><ele>249.0</ele><time>2026-04-19T08:59:04Z</time></trkpt><trkpt lat="45.20459184081419" lon="7.727130359323327"><ele>249.0</ele><time>2026-04-19T08:59:05Z</time></trkpt><trkpt lat="45.20477714870461" lon="7.727218407290312"><ele>249.0</ele><time>2026-04-19T08:59:06Z</time></trkpt><trkpt lat="45.20496528869551" lon="7.727305924463013"><ele>249.0</ele><time>2026-04-19T08:59:07Z</time></trkpt><trkpt lat="45.2051606359838" lon="7.7274012244677115"><ele>249.0</ele><time>2026-04-19T08:59:08Z</time></trkpt><trkpt lat="45.20536268576795" lon="7.7274986747884"><ele>249.0</ele><time>2026-04-19T08:59:09Z</time></trkpt><trkpt lat="45.205564972135434" lon="7.7275973408653424"><ele>249.0</ele><time>2026-04-19T08:59:10Z</time></trkpt><trkpt lat="45.20575977051502" lon="7.727690475693453"><ele>249.0</ele><time>2026-04-19T08:59:11Z</time></trkpt><trkpt lat="45.20596707060482" lon="7.727788777960259"><ele>249.0</ele><time>2026-04-19T08:59:12Z</time></trkpt><trkpt lat="45.206177692252254" lon="7.727884007037116"><ele>248.5</ele><time>2026-04-19T08:59:13Z</time></trkpt><trkpt lat="45.20639307319309" lon="7.727982254914904"><ele>248.0</ele><time>2026-04-19T08:59:14Z</time></trkpt><trkpt lat="45.20660769814542" lon="7.728083221163852"><ele>249.66666666666669</ele><time>2026-04-19T08:59:15Z</time></trkpt><trkpt lat="45.20681187468018" lon="7.728185423640067"><ele>251.33333333333331</ele><time>2026-04-19T08:59:16Z</time></trkpt><trkpt lat="45.20700588796256" lon="7.728281853979011"><ele>253.0</ele><time>2026-04-19T08:59:17Z</time></trkpt><trkpt lat="45.20719687583606" lon="7.728374073691346"><ele>253.33333333333331</ele><time>2026-04-19T08:59:18Z</time></trkpt><trkpt lat="45.20738119988482" lon="7.7284625876716175"><ele>253.66666666666669</ele><time>2026-04-19T08:59:19Z</time></trkpt><trkpt lat="45.20756020284568" lon="7.728549401472935"><ele>254.0</ele><time>2026-04-19T08:59:20Z</time></trkpt><trkpt lat="45.20772971981823" lon="7.728626302663954"><ele>254.0</ele><time>2026-04-19T08:59:21Z</time></trkpt><trkpt lat="45.207891821462184" lon="7.728701519930661"><ele>254.0</ele><time>2026-04-19T08:59:22Z</time></trkpt><trkpt lat="45.208049159467016" lon="7.728774623350613"><ele>254.0</ele><time>2026-04-19T08:59:23Z</time></trkpt><trkpt lat="45.20820681768064" lon="7.728848346779434"><ele>257.6666666666667</ele><time>2026-04-19T08:59:24Z</time></trkpt><trkpt lat="45.208368967274566" lon="7.7289400831794905"><ele>261.3333333333333</ele><time>2026-04-19T08:59:25Z</time></trkpt><trkpt lat="45.20853093779018" lon="7.728995135889652"><ele>265.0</ele><time>2026-04-19T08:59:26Z</time></trkpt><trkpt lat="45.20868707468974" lon="7.729075705100618"><ele>265.0</ele><time>2026-04-19T08:59:27Z</time></trkpt><trkpt lat="45.20884150887206" lon="7.7291472881050005"><ele>265.0</ele><time>2026-04-19T08:59:28Z</time></trkpt><trkpt lat="45.208997798724184" lon="7.729221954931418"><ele>265.0</ele><time>2026-04-19T08:59:29Z</time></trkpt><trkpt lat="45.209151594370404" lon="7.729298050801288"><ele>265.0</ele><time>2026-04-19T08:59:30Z</time></trkpt><trkpt lat="45.20930670420934" lon="7.729375899212718"><ele>265.0</ele><time>2026-04-19T08:59:31Z</time></trkpt><trkpt lat="45.209463229177025" lon="7.729456096118298"><ele>265.0</ele><time>2026-04-19T08:59:32Z</time></trkpt><trkpt lat="45.20962295985505" lon="7.72953142248747"><ele>265.0</ele><time>2026-04-19T08:59:33Z</time></trkpt><trkpt lat="45.20978290897054" lon="7.72960402737478"><ele>265.0</ele><time>2026-04-19T08:59:34Z</time></trkpt><trkpt lat="45.20994549961027" lon="7.729668307055409"><ele>265.0</ele><time>2026-04-19T08:59:35Z</time></trkpt><trkpt lat="45.21011363239659" lon="7.7297193047844015"><ele>265.0</ele><time>2026-04-19T08:59:36Z</time></trkpt><trkpt lat="45.210282388744524" lon="7.729746862196101"><ele>265.0</ele><time>2026-04-19T08:59:37Z</time></trkpt><trkpt lat="45.210451413134635" lon="7.729770467670464"><ele>265.0</ele><time>2026-04-19T08:59:38Z</time></trkpt><trkpt lat="45.21060776989362" lon="7.729788863416629"><ele>265.16666666666663</ele><time>2026-04-19T08:59:39Z</time></trkpt><trkpt lat="45.210727610421735" lon="7.72980355684428"><ele>265.3333333333333</ele><time>2026-04-19T08:59:40Z</time></trkpt><trkpt lat="45.21079540595113" lon="7.729816647118064"><ele>265.5</ele><time>2026-04-19T08:59:41Z</time></trkpt><trkpt lat="45.210867787126716" lon="7.729831363015424"><ele>265.6666666666667</ele><time>2026-04-19T08:59:42Z</time></trkpt><trkpt lat="45.21094791182524" lon="7.729837038512563"><ele>265.83333333333337</ele><time>2026-04-19T08:59:43Z</time></trkpt><trkpt lat="45.21104713482695" lon="7.72983836373304"><ele>266.0</ele><time>2026-04-19T08:59:44Z</time></trkpt><trkpt lat="45.211160801488774" lon="7.729844297918255"><ele>266.0</ele><time>2026-04-19T08:59:45Z</time></trkpt><trkpt lat="45.21128460910514" lon="7.729859211592534"><ele>266.0</ele><time>2026-04-19T08:59:46Z</time></trkpt><trkpt lat="45.21142253065035" lon="7.729876947197601"><ele>266.0</ele><time>2026-04-19T08:59:47Z</time></trkpt><trkpt lat="45.21157022389798" lon="7.7298917337956565"><ele>266.0</ele><time>2026-04-19T08:59:48Z</time></trkpt><trkpt lat="45.211730088705465" lon="7.729912856346625"><ele>266.33333333333337</ele><time>2026-04-19T08:59:49Z</time></trkpt><trkpt lat="45.21188384279312" lon="7.729937766033108"><ele>266.6666666666667</ele><time>2026-04-19T08:59:50Z</time></trkpt><trkpt lat="45.21202968117796" lon="7.729960376778151"><ele>267.0</ele><time>2026-04-19T08:59:51Z</time></trkpt><trkpt lat="45.21218275619137" lon="7.72997817992543"><ele>267.3333333333333</ele><time>2026-04-19T08:59:52Z</time></trkpt><trkpt lat="45.21233331748839" lon="7.72999270577632"><ele>267.66666666666663</ele><time>2026-04-19T08:59:53Z</time></trkpt><trkpt lat="45.212488615844734" lon="7.7300127808776935"><ele>268.0</ele><time>2026-04-19T08:59:54Z</time></trkpt><trkpt lat="45.212645500562296" lon="7.730032592477736"><ele>268.0</ele><time>2026-04-19T08:59:55Z</time></trkpt><trkpt lat="45.212805020587574" lon="7.730049825328199"><ele>268.0</ele><time>2026-04-19T08:59:56Z</time></trkpt><trkpt lat="45.212974292184136" lon="7.730065241984842"><ele>268.0</ele><time>2026-04-19T08:59:57Z</time></trkpt><trkpt lat="45.21315144546111" lon="7.7300868428075304"><ele>268.0</ele><time>2026-04-19T08:59:58Z</time></trkpt><trkpt lat="45.213338136282125" lon="7.730110914673662"><ele>268.0</ele><time>2026-04-19T08:59:59Z</time></trkpt><trkpt lat="45.21353224100056" lon="7.730137390857018"><ele>268.0</ele><time>2026-04-19T09:00:00Z</time></trkpt><trkpt lat="45.21373361892677" lon="7.730159090301723"><ele>268.0</ele><time>2026-04-19T09:00:01Z</time></trkpt><trkpt lat="45.21392863471802" lon="7.730174724915295"><ele>268.0</ele><time>2026-04-19T09:00:02Z</time></trkpt><trkpt lat="45.214117059396614" lon="7.730191595803003"><ele>268.0</ele><time>2026-04-19T09:00:03Z</time></trkpt><trkpt lat="45.21430705883443" lon="7.730213774636515"><ele>268.3333333333333</ele><time>2026-04-19T09:00:04Z</time></trkpt><trkpt lat="45.2144976346717" lon="7.730239288664387"><ele>268.6666666666667</ele><time>2026-04-19T09:00:05Z</time></trkpt><trkpt lat="45.21469013448601" lon="7.730264889309451"><ele>269.0</ele><time>2026-04-19T09:00:06Z</time></trkpt><trkpt lat="45.21488658198786" lon="7.730289307646993"><ele>269.0</ele><time>2026-04-19T09:00:07Z</time></trkpt><trkpt lat="45.215081626922036" lon="7.730313566449724"><ele>269.0</ele><time>2026-04-19T09:00:08Z</time></trkpt><trkpt lat="45.21527100920941" lon="7.73033814906972"><ele>269.0</ele><time>2026-04-19T09:00:09Z</time></trkpt><trkpt lat="45.21546581722628" lon="7.730357576944374"><ele>269.33333333333337</ele><time>2026-04-19T09:00:10Z</time></trkpt><trkpt lat="45.21565757809217" lon="7.7303740068146904"><ele>269.6666666666667</ele><time>2026-04-19T09:00:11Z</time></trkpt><trkpt lat="45.215849131911675" lon="7.730401019499061"><ele>270.0</ele><time>2026-04-19T09:00:12Z</time></trkpt><trkpt lat="45.2160460618361" lon="7.7304325743263"><ele>270.0</ele><time>2026-04-19T09:00:13Z</time></trkpt><trkpt lat="45.21623974436148" lon="7.730451406401828"><ele>270.0</ele><time>2026-04-19T09:00:14Z</time></trkpt><trkpt lat="45.21643668888146" lon="7.73046920237548"><ele>270.0</ele><time>2026-04-19T09:00:15Z</time></trkpt><trkpt lat="45.21663734013591" lon="7.7304960427463785"><ele>269.6666666666667</ele><time>2026-04-19T09:00:16Z</time></trkpt><trkpt lat="45.216835765206966" lon="7.730517295159885"><ele>269.33333333333337</ele><time>2026-04-19T09:00:17Z</time></trkpt><trkpt lat="45.21703213089208" lon="7.730532251704425"><ele>269.0</ele><time>2026-04-19T09:00:18Z</time></trkpt><trkpt lat="45.217222538620966" lon="7.730553220924433"><ele>268.33333333333337</ele><time>2026-04-19T09:00:19Z</time></trkpt><trkpt lat="45.21740977282676" lon="7.730577454359617"><ele>267.6666666666667</ele><time>2026-04-19T09:00:20Z</time></trkpt><trkpt lat="45.21759869840464" lon="7.730599661156171"><ele>267.0</ele><time>2026-04-19T09:00:21Z</time></trkpt><trkpt lat="45.21778850317111" lon="7.730624410767812"><ele>267.0</ele><time>2026-04-19T09:00:22Z</time></trkpt><trkpt lat="45.21797751132775" lon="7.7306463869363"><ele>267.0</ele><time>2026-04-19T09:00:23Z</time></trkpt><trkpt lat="45.2181601382506" lon="7.730666350251234"><ele>267.0</ele><time>2026-04-19T09:00:24Z</time></trkpt><trkpt lat="45.21835238390499" lon="7.730693463767733"><ele>266.6666666666667</ele><time>2026-04-19T09:00:25Z</time></trkpt><trkpt lat="45.218549123737" lon="7.730713893860749"><ele>266.33333333333337</ele><time>2026-04-19T09:00:26Z</time></trkpt><trkpt lat="45.218745116018646" lon="7.730729424119364"><ele>266.0</ele><time>2026-04-19T09:00:27Z</time></trkpt><trkpt lat="45.21894116952482" lon="7.7307428429356095"><ele>266.6666666666667</ele><time>2026-04-19T09:00:28Z</time></trkpt><trkpt lat="45.219141637968875" lon="7.730770594006329"><ele>267.3333333333333</ele><time>2026-04-19T09:00:29Z</time></trkpt><trkpt lat="45.2193421130397" lon="7.7307951059476325"><ele>268.0</ele><time>2026-04-19T09:00:30Z</time></trkpt><trkpt lat="45.21954319134254" lon="7.730823887522116"><ele>268.0</ele><time>2026-04-19T09:00:31Z</time></trkpt><trkpt lat="45.21974715880452" lon="7.730848927510639"><ele>268.0</ele><time>2026-04-19T09:00:32Z</time></trkpt><trkpt lat="45.21995145803833" lon="7.730873392513712"><ele>268.0</ele><time>2026-04-19T09:00:33Z</time></trkpt><trkpt lat="45.22013703455431" lon="7.730884653863686"><ele>268.3333333333333</ele><time>2026-04-19T09:00:34Z</time></trkpt><trkpt lat="45.22032990538564" lon="7.730905763407257"><ele>268.6666666666667</ele><time>2026-04-19T09:00:35Z</time></trkpt><trkpt lat="45.22051820864799" lon="7.730927461357777"><ele>269.0</ele><time>2026-04-19T09:00:36Z</time></trkpt><trkpt lat="45.22070506626335" lon="7.730954277946582"><ele>269.33333333333337</ele><time>2026-04-19T09:00:37Z</time></trkpt><trkpt lat="45.22089283848668" lon="7.730977352927535"><ele>269.6666666666667</ele><time>2026-04-19T09:00:38Z</time></trkpt><trkpt lat="45.22108635429082" lon="7.7309982514306865"><ele>270.0</ele><time>2026-04-19T09:00:39Z</time></trkpt><trkpt lat="45.22128688847826" lon="7.731017994843681"><ele>270.0</ele><time>2026-04-19T09:00:40Z</time></trkpt><trkpt lat="45.22148577031909" lon="7.731042592225814"><ele>270.0</ele><time>2026-04-19T09:00:41Z</time></trkpt><trkpt lat="45.22168799051566" lon="7.731064875834138"><ele>270.0</ele><time>2026-04-19T09:00:42Z</time></trkpt><trkpt lat="45.22189074655081" lon="7.731088009296309"><ele>270.0</ele><time>2026-04-19T09:00:43Z</time></trkpt><trkpt lat="45.22209537669325" lon="7.731114652726754"><ele>270.0</ele><time>2026-04-19T09:00:44Z</time></trkpt><trkpt lat="45.22230167066992" lon="7.731141080488355"><ele>270.0</ele><time>2026-04-19T09:00:45Z</time></trkpt><trkpt lat="45.222506006590116" lon="7.731164462060738"><ele>270.0</ele><time>2026-04-19T09:00:46Z</time></trkpt><trkpt lat="45.22270331868545" lon="7.731189787764457"><ele>270.0</ele><time>2026-04-19T09:00:47Z</time></trkpt><trkpt lat="45.22289805009776" lon="7.731211473493793"><ele>270.0</ele><time>2026-04-19T09:00:48Z</time></trkpt><trkpt lat="45.2230837994547" lon="7.73123339507953"><ele>270.6666666666667</ele><time>2026-04-19T09:00:49Z</time></trkpt><trkpt lat="45.223264562827374" lon="7.731252035005882"><ele>271.33333333333337</ele><time>2026-04-19T09:00:50Z</time></trkpt><trkpt lat="45.22343962357463" lon="7.731273437186548"><ele>272.0</ele><time>2026-04-19T09:00:51Z</time></trkpt><trkpt lat="45.223611787451965" lon="7.731290793163391"><ele>272.0</ele><time>2026-04-19T09:00:52Z</time></trkpt><trkpt lat="45.22377671093016" lon="7.731307415738843"><ele>272.0</ele><time>2026-04-19T09:00:53Z</time></trkpt><trkpt lat="45.223944985860165" lon="7.731331239477435"><ele>272.0</ele><time>2026-04-19T09:00:54Z</time></trkpt><trkpt lat="45.22410911799533" lon="7.731354253786448"><ele>271.6666666666667</ele><time>2026-04-19T09:00:55Z</time></trkpt><trkpt lat="45.22427468261986" lon="7.7313710968090685"><ele>271.3333333333333</ele><time>2026-04-19T09:00:56Z</time></trkpt><trkpt lat="45.22444908355366" lon="7.731395142174091"><ele>271.0</ele><time>2026-04-19T09:00:57Z</time></trkpt><trkpt lat="45.22463155098556" lon="7.731416477184504"><ele>271.0</ele><time>2026-04-19T09:00:58Z</time></trkpt><trkpt lat="45.22481141361634" lon="7.731435019751093"><ele>271.0</ele><time>2026-04-19T09:00:59Z</time></trkpt><trkpt lat="45.22499289055135" lon="7.7314591622734845"><ele>271.0</ele><time>2026-04-19T09:01:00Z</time></trkpt><trkpt lat="45.22517573155072" lon="7.731484096667931"><ele>271.0</ele><time>2026-04-19T09:01:01Z</time></trkpt><trkpt lat="45.22536024584957" lon="7.731508972802185"><ele>271.0</ele><time>2026-04-19T09:01:02Z</time></trkpt><trkpt lat="45.225545414665696" lon="7.731524589560988"><ele>271.0</ele><time>2026-04-19T09:01:03Z</time></trkpt><trkpt lat="45.225726877296175" lon="7.731544337543015"><ele>271.66666666666663</ele><time>2026-04-19T09:01:04Z</time></trkpt><trkpt lat="45.22590088946605" lon="7.731565260700509"><ele>272.3333333333333</ele><time>2026-04-19T09:01:05Z</time></trkpt><trkpt lat="45.226063897466524" lon="7.731580848515345"><ele>273.0</ele><time>2026-04-19T09:01:06Z</time></trkpt><trkpt lat="45.2262115989325" lon="7.73159683227604"><ele>273.0</ele><time>2026-04-19T09:01:07Z</time></trkpt><trkpt lat="45.2263434305088" lon="7.731617065050661"><ele>273.0</ele><time>2026-04-19T09:01:08Z</time></trkpt><trkpt lat="45.226446933075735" lon="7.73163365710006"><ele>273.0</ele><time>2026-04-19T09:01:09Z</time></trkpt><trkpt lat="45.22652163719627" lon="7.731640731769685"><ele>273.0</ele><time>2026-04-19T09:01:10Z</time></trkpt><trkpt lat="45.22658512984062" lon="7.731682589629721"><ele>273.0</ele><time>2026-04-19T09:01:12Z</time></trkpt><trkpt lat="45.22657671478573" lon="7.731811509755207"><ele>273.0</ele><time>2026-04-19T09:01:14Z</time></trkpt><trkpt lat="45.226566403689255" lon="7.731929928514033"><ele>273.0</ele><time>2026-04-19T09:01:22Z</time></trkpt><trkpt lat="45.22655971534176" lon="7.73204555367537"><ele>273.0</ele><time>2026-04-19T09:01:23Z</time></trkpt><trkpt lat="45.22657374225262" lon="7.732216109324288"><ele>273.0</ele><time>2026-04-19T09:01:24Z</time></trkpt><trkpt lat="45.22657174066594" lon="7.732369435741031"><ele>273.0</ele><time>2026-04-19T09:01:25Z</time></trkpt><trkpt lat="45.22657280086361" lon="7.7325267042123516"><ele>273.0</ele><time>2026-04-19T09:01:26Z</time></trkpt><trkpt lat="45.22656576349506" lon="7.73266817056283"><ele>273.0</ele><time>2026-04-19T09:01:27Z</time></trkpt><trkpt lat="45.22656875480097" lon="7.732820209850796"><ele>273.0</ele><time>2026-04-19T09:01:28Z</time></trkpt><trkpt lat="45.226577492289316" lon="7.732967786407324"><ele>273.0</ele><time>2026-04-19T09:01:29Z</time></trkpt><trkpt lat="45.22658973947622" lon="7.733120754597837"><ele>273.0</ele><time>2026-04-19T09:01:30Z</time></trkpt><trkpt lat="45.226585991737934" lon="7.733280212311668"><ele>272.25</ele><time>2026-04-19T09:01:31Z</time></trkpt><trkpt lat="45.22658740983057" lon="7.733452842893396"><ele>271.5</ele><time>2026-04-19T09:01:32Z</time></trkpt><trkpt lat="45.22658876681003" lon="7.733626941560459"><ele>270.75</ele><time>2026-04-19T09:01:33Z</time></trkpt><trkpt lat="45.226592622826864" lon="7.733806974380903"><ele>270.0</ele><time>2026-04-19T09:01:34Z</time></trkpt><trkpt lat="45.22659398893267" lon="7.733988243627852"><ele>269.75</ele><time>2026-04-19T09:01:35Z</time></trkpt><trkpt lat="45.22659653404682" lon="7.734170981156742"><ele>269.5</ele><time>2026-04-19T09:01:36Z</time></trkpt><trkpt lat="45.2265829332031" lon="7.734353906217976"><ele>269.25</ele><time>2026-04-19T09:01:37Z</time></trkpt><trkpt lat="45.22658476817905" lon="7.7345363692269675"><ele>269.0</ele><time>2026-04-19T09:01:38Z</time></trkpt><trkpt lat="45.22659826398156" lon="7.734712085796952"><ele>268.75</ele><time>2026-04-19T09:01:39Z</time></trkpt><trkpt lat="45.22658784919564" lon="7.734883366071072"><ele>268.5</ele><time>2026-04-19T09:01:40Z</time></trkpt><trkpt lat="45.22658903759063" lon="7.735054241323877"><ele>268.25</ele><time>2026-04-19T09:01:41Z</time></trkpt><trkpt lat="45.22659022164478" lon="7.735224492556676"><ele>268.0</ele><time>2026-04-19T09:01:42Z</time></trkpt><trkpt lat="45.22659144469846" lon="7.735400351469653"><ele>268.0</ele><time>2026-04-19T09:01:43Z</time></trkpt><trkpt lat="45.226592686216655" lon="7.735578865173055"><ele>268.0</ele><time>2026-04-19T09:01:44Z</time></trkpt><trkpt lat="45.226610543262346" lon="7.735758190926139"><ele>268.0</ele><time>2026-04-19T09:01:45Z</time></trkpt><trkpt lat="45.226612979750804" lon="7.735941008101453"><ele>268.0</ele><time>2026-04-19T09:01:46Z</time></trkpt><trkpt lat="45.226599931380925" lon="7.736140531093047"><ele>268.25</ele><time>2026-04-19T09:01:47Z</time></trkpt><trkpt lat="45.22661548040699" lon="7.736365689745047"><ele>268.5</ele><time>2026-04-19T09:01:48Z</time></trkpt><trkpt lat="45.22662088352331" lon="7.736575031487444"><ele>268.75</ele><time>2026-04-19T09:01:49Z</time></trkpt><trkpt lat="45.22662360097808" lon="7.7367643447212995"><ele>269.0</ele><time>2026-04-19T09:01:50Z</time></trkpt><trkpt lat="45.22662901004103" lon="7.73694420148149"><ele>269.0</ele><time>2026-04-19T09:01:51Z</time></trkpt><trkpt lat="45.22663009149982" lon="7.737118705151516"><ele>269.0</ele><time>2026-04-19T09:01:52Z</time></trkpt><trkpt lat="45.22663281306458" lon="7.737288934893409"><ele>269.0</ele><time>2026-04-19T09:01:53Z</time></trkpt><trkpt lat="45.22663620388451" lon="7.7374522454900605"><ele>269.0</ele><time>2026-04-19T09:01:54Z</time></trkpt><trkpt lat="45.22663691094936" lon="7.73760801607046"><ele>269.1666666666667</ele><time>2026-04-19T09:01:55Z</time></trkpt><trkpt lat="45.226638795926036" lon="7.7377390252550375"><ele>269.33333333333337</ele><time>2026-04-19T09:01:56Z</time></trkpt><trkpt lat="45.226624665365236" lon="7.737863459425488"><ele>269.5</ele><time>2026-04-19T09:01:57Z</time></trkpt><trkpt lat="45.22663447478842" lon="7.737971586079582"><ele>269.6666666666667</ele><time>2026-04-19T09:01:58Z</time></trkpt><trkpt lat="45.22663410321002" lon="7.738073004066767"><ele>269.8333333333333</ele><time>2026-04-19T09:01:59Z</time></trkpt><trkpt lat="45.226633898937564" lon="7.73816339983093"><ele>270.0</ele><time>2026-04-19T09:02:00Z</time></trkpt><trkpt lat="45.226639309884376" lon="7.7383018224924935"><ele>270.0</ele><time>2026-04-19T09:02:02Z</time></trkpt><trkpt lat="45.22663000460346" lon="7.738406832762766"><ele>270.0</ele><time>2026-04-19T09:02:05Z</time></trkpt><trkpt lat="45.226458226957156" lon="7.738419809534186"><ele>270.0</ele><time>2026-04-19T09:02:07Z</time></trkpt><trkpt lat="45.226385059370266" lon="7.738410083555079"><ele>270.0</ele><time>2026-04-19T09:02:08Z</time></trkpt><trkpt lat="45.22630898759521" lon="7.738398335207215"><ele>270.0</ele><time>2026-04-19T09:02:09Z</time></trkpt><trkpt lat="45.226225723148644" lon="7.738393987265816"><ele>269.6666666666667</ele><time>2026-04-19T09:02:10Z</time></trkpt><trkpt lat="45.22614170687005" lon="7.738388377637071"><ele>269.3333333333333</ele><time>2026-04-19T09:02:11Z</time></trkpt><trkpt lat="45.226055865395956" lon="7.738383195922559"><ele>269.0</ele><time>2026-04-19T09:02:12Z</time></trkpt><trkpt lat="45.22597352815444" lon="7.738381363735424"><ele>268.66666666666663</ele><time>2026-04-19T09:02:13Z</time></trkpt><trkpt lat="45.2258877334165" lon="7.738380595001776"><ele>268.3333333333333</ele><time>2026-04-19T09:02:14Z</time></trkpt><trkpt lat="45.22580067854233" lon="7.738380332341538"><ele>268.0</ele><time>2026-04-19T09:02:15Z</time></trkpt><trkpt lat="45.22571030760099" lon="7.738379136890599"><ele>268.0</ele><time>2026-04-19T09:02:16Z</time></trkpt><trkpt lat="45.22563157354155" lon="7.738376035754333"><ele>268.0</ele><time>2026-04-19T09:02:17Z</time></trkpt><trkpt lat="45.2255228591854" lon="7.738375319848878"><ele>268.0</ele><time>2026-04-19T09:02:19Z</time></trkpt><trkpt lat="45.22542358827057" lon="7.73838373475767"><ele>268.0</ele><time>2026-04-19T09:02:21Z</time></trkpt><trkpt lat="45.225313391778734" lon="7.738405077881844"><ele>268.0</ele><time>2026-04-19T09:02:23Z</time></trkpt><trkpt lat="45.22523001657746" lon="7.738411480520506"><ele>268.0</ele><time>2026-04-19T09:02:25Z</time></trkpt><trkpt lat="45.22516827646669" lon="7.738468025025621"><ele>268.0</ele><time>2026-04-19T09:02:27Z</time></trkpt><trkpt lat="45.22515028349583" lon="7.738587486524138"><ele>268.0</ele><time>2026-04-19T09:02:29Z</time></trkpt><trkpt lat="45.225168717302296" lon="7.738775163329106"><ele>268.0</ele><time>2026-04-19T09:02:31Z</time></trkpt><trkpt lat="45.22517353575037" lon="7.738879471406104"><ele>268.0</ele><time>2026-04-19T09:02:32Z</time></trkpt><trkpt lat="45.22517527015686" lon="7.738985926219767"><ele>268.0</ele><time>2026-04-19T09:02:33Z</time></trkpt><trkpt lat="45.22517954905958" lon="7.739088464369933"><ele>268.0</ele><time>2026-04-19T09:02:34Z</time></trkpt><trkpt lat="45.22517763822148" lon="7.739186117274313"><ele>268.0</ele><time>2026-04-19T09:02:35Z</time></trkpt><trkpt lat="45.22517140717379" lon="7.739287115312107"><ele>268.0</ele><time>2026-04-19T09:02:36Z</time></trkpt><trkpt lat="45.225163699445744" lon="7.739447086027682"><ele>268.0</ele><time>2026-04-19T09:02:38Z</time></trkpt><trkpt lat="45.22513604192551" lon="7.739586946016602"><ele>268.0</ele><time>2026-04-19T09:02:40Z</time></trkpt><trkpt lat="45.22507325298311" lon="7.73973349296956"><ele>268.0</ele><time>2026-04-19T09:02:42Z</time></trkpt><trkpt lat="45.22502459803179" lon="7.739816947441603"><ele>268.0</ele><time>2026-04-19T09:02:43Z</time></trkpt><trkpt lat="45.22498879609936" lon="7.739896742932754"><ele>268.0</ele><time>2026-04-19T09:02:44Z</time></trkpt><trkpt lat="45.22494786398886" lon="7.739971703568147"><ele>268.0</ele><time>2026-04-19T09:02:45Z</time></trkpt><trkpt lat="45.22490461216418" lon="7.740042824806083"><ele>268.0</ele><time>2026-04-19T09:02:46Z</time></trkpt><trkpt lat="45.22485947075509" lon="7.740120369284267"><ele>268.0</ele><time>2026-04-19T09:02:47Z</time></trkpt><trkpt lat="45.224819874045494" lon="7.7401979744761595"><ele>268.0</ele><time>2026-04-19T09:02:48Z</time></trkpt><trkpt lat="45.22475332797373" lon="7.74032047041896"><ele>267.8333333333333</ele><time>2026-04-19T09:02:50Z</time></trkpt><trkpt lat="45.22468665354792" lon="7.740417171530289"><ele>267.66666666666663</ele><time>2026-04-19T09:02:52Z</time></trkpt><trkpt lat="45.22462325613933" lon="7.740522381256681"><ele>267.5</ele><time>2026-04-19T09:02:54Z</time></trkpt><trkpt lat="45.22458386894534" lon="7.740596283071912"><ele>267.3333333333333</ele><time>2026-04-19T09:03:01Z</time></trkpt><trkpt lat="45.22452548686603" lon="7.740674315787164"><ele>267.1666666666667</ele><time>2026-04-19T09:03:03Z</time></trkpt><trkpt lat="45.224480840224416" lon="7.740764150979363"><ele>267.0</ele><time>2026-04-19T09:03:05Z</time></trkpt><trkpt lat="45.22444078656426" lon="7.740839322169198"><ele>267.0</ele><time>2026-04-19T09:03:07Z</time></trkpt><trkpt lat="45.224400437336016" lon="7.740936353351234"><ele>267.0</ele><time>2026-04-19T09:03:09Z</time></trkpt><trkpt lat="45.224320803933566" lon="7.7410454582843755"><ele>267.0</ele><time>2026-04-19T09:03:11Z</time></trkpt><trkpt lat="45.22425132609445" lon="7.741130652673107"><ele>267.0</ele><time>2026-04-19T09:03:13Z</time></trkpt><trkpt lat="45.22421901232203" lon="7.741261938405207"><ele>267.0</ele><time>2026-04-19T09:03:15Z</time></trkpt><trkpt lat="45.224203503893904" lon="7.7413510611224545"><ele>267.0</ele><time>2026-04-19T09:03:16Z</time></trkpt><trkpt lat="45.22418280064911" lon="7.741519785194831"><ele>267.2</ele><time>2026-04-19T09:03:18Z</time></trkpt><trkpt lat="45.2241676468357" lon="7.741675377862142"><ele>267.4</ele><time>2026-04-19T09:03:20Z</time></trkpt><trkpt lat="45.22415757736112" lon="7.741818214688676"><ele>267.6</ele><time>2026-04-19T09:03:22Z</time></trkpt><trkpt lat="45.224119747739614" lon="7.741932164533201"><ele>267.8</ele><time>2026-04-19T09:03:24Z</time></trkpt><trkpt lat="45.224083922312445" lon="7.74203584676884"><ele>268.0</ele><time>2026-04-19T09:03:26Z</time></trkpt><trkpt lat="45.224063328605055" lon="7.742190438282053"><ele>268.0</ele><time>2026-04-19T09:03:28Z</time></trkpt><trkpt lat="45.224037000650036" lon="7.742351704910958"><ele>268.0</ele><time>2026-04-19T09:03:30Z</time></trkpt><trkpt lat="45.224015759331685" lon="7.742546156990257"><ele>268.0</ele><time>2026-04-19T09:03:32Z</time></trkpt><trkpt lat="45.224017610394654" lon="7.742653913678557"><ele>268.0</ele><time>2026-04-19T09:03:33Z</time></trkpt><trkpt lat="45.224009331011835" lon="7.7427534560814975"><ele>268.0</ele><time>2026-04-19T09:03:34Z</time></trkpt><trkpt lat="45.22400212097636" lon="7.742853826485427"><ele>267.8333333333333</ele><time>2026-04-19T09:03:35Z</time></trkpt><trkpt lat="45.22399643046792" lon="7.742965329021659"><ele>267.66666666666663</ele><time>2026-04-19T09:03:36Z</time></trkpt><trkpt lat="45.223989738926214" lon="7.743080556575337"><ele>267.5</ele><time>2026-04-19T09:03:37Z</time></trkpt><trkpt lat="45.22398103906489" lon="7.74319569112386"><ele>267.3333333333333</ele><time>2026-04-19T09:03:38Z</time></trkpt><trkpt lat="45.223975620673706" lon="7.743323166603102"><ele>267.1666666666667</ele><time>2026-04-19T09:03:39Z</time></trkpt><trkpt lat="45.223966800306734" lon="7.743434142935402"><ele>267.0</ele><time>2026-04-19T09:03:40Z</time></trkpt><trkpt lat="45.223959182433916" lon="7.743556657861139"><ele>266.3333333333333</ele><time>2026-04-19T09:03:41Z</time></trkpt><trkpt lat="45.22395477577761" lon="7.743649927755296"><ele>265.6666666666667</ele><time>2026-04-19T09:03:42Z</time></trkpt><trkpt lat="45.22395036917742" lon="7.7437998583098135"><ele>265.0</ele><time>2026-04-19T09:03:44Z</time></trkpt><trkpt lat="45.223940224459284" lon="7.743916426743257"><ele>264.33333333333337</ele><time>2026-04-19T09:03:46Z</time></trkpt><trkpt lat="45.223926570502044" lon="7.744063635103815"><ele>263.6666666666667</ele><time>2026-04-19T09:03:48Z</time></trkpt><trkpt lat="45.223913064863694" lon="7.7441792982320194"><ele>263.0</ele><time>2026-04-19T09:03:50Z</time></trkpt><trkpt lat="45.22387417490183" lon="7.7442882164813085"><ele>263.0</ele><time>2026-04-19T09:03:53Z</time></trkpt><trkpt lat="45.22380361757748" lon="7.744348086186731"><ele>263.0</ele><time>2026-04-19T09:03:56Z</time></trkpt><trkpt lat="45.22371900533604" lon="7.744363348041922"><ele>263.0</ele><time>2026-04-19T09:03:58Z</time></trkpt><trkpt lat="45.22363791695843" lon="7.744445904979572"><ele>263.0</ele><time>2026-04-19T09:04:00Z</time></trkpt><trkpt lat="45.2235927102857" lon="7.744540366826948"><ele>263.0</ele><time>2026-04-19T09:04:02Z</time></trkpt><trkpt lat="45.22358931007586" lon="7.74463321415327"><ele>263.0</ele><time>2026-04-19T09:04:04Z</time></trkpt><trkpt lat="45.22361477112975" lon="7.7447866957966145"><ele>262.6666666666667</ele><time>2026-04-19T09:04:06Z</time></trkpt><trkpt lat="45.22364332880744" lon="7.744924565584045"><ele>262.33333333333337</ele><time>2026-04-19T09:04:08Z</time></trkpt><trkpt lat="45.22365925598124" lon="7.74504538267577"><ele>262.0</ele><time>2026-04-19T09:04:10Z</time></trkpt><trkpt lat="45.22367644656462" lon="7.7451621609394765"><ele>261.6666666666667</ele><time>2026-04-19T09:04:12Z</time></trkpt><trkpt lat="45.22369687754423" lon="7.745247010560641"><ele>261.3333333333333</ele><time>2026-04-19T09:04:14Z</time></trkpt><trkpt lat="45.22371967905536" lon="7.745335698366948"><ele>261.0</ele><time>2026-04-19T09:04:16Z</time></trkpt><trkpt lat="45.223735552868995" lon="7.745439178105868"><ele>261.0</ele><time>2026-04-19T09:04:18Z</time></trkpt><trkpt lat="45.22375631994953" lon="7.745583935630685"><ele>261.0</ele><time>2026-04-19T09:04:20Z</time></trkpt><trkpt lat="45.223779532506526" lon="7.745719019884013"><ele>261.0</ele><time>2026-04-19T09:04:22Z</time></trkpt><trkpt lat="45.2237982363639" lon="7.74583871647185"><ele>261.0</ele><time>2026-04-19T09:04:24Z</time></trkpt><trkpt lat="45.22381858193752" lon="7.745960227520915"><ele>261.0</ele><time>2026-04-19T09:04:26Z</time></trkpt><trkpt lat="45.22383238865965" lon="7.746107447670976"><ele>261.2</ele><time>2026-04-19T09:04:29Z</time></trkpt><trkpt lat="45.223852073781046" lon="7.746260498383054"><ele>261.40000000000003</ele><time>2026-04-19T09:04:31Z</time></trkpt><trkpt lat="45.223873377492076" lon="7.746410980351754"><ele>261.6</ele><time>2026-04-19T09:04:33Z</time></trkpt><trkpt lat="45.22390038564675" lon="7.746569851272089"><ele>261.8</ele><time>2026-04-19T09:04:35Z</time></trkpt><trkpt lat="45.2239297371174" lon="7.746723711799078"><ele>262.0</ele><time>2026-04-19T09:04:37Z</time></trkpt><trkpt lat="45.22396452779235" lon="7.746874796294806"><ele>262.0</ele><time>2026-04-19T09:04:39Z</time></trkpt><trkpt lat="45.22398446145975" lon="7.7470055733746275"><ele>262.0</ele><time>2026-04-19T09:04:41Z</time></trkpt><trkpt lat="45.223985620678285" lon="7.747099285496017"><ele>262.0</ele><time>2026-04-19T09:04:43Z</time></trkpt><trkpt lat="45.22392706761896" lon="7.74715959644231"><ele>262.0</ele><time>2026-04-19T09:04:45Z</time></trkpt><trkpt lat="45.22380775452535" lon="7.7471960538172455"><ele>262.0</ele><time>2026-04-19T09:04:47Z</time></trkpt><trkpt lat="45.223739915616" lon="7.747230922299277"><ele>262.0</ele><time>2026-04-19T09:04:48Z</time></trkpt><trkpt lat="45.2236725936123" lon="7.747264624031755"><ele>262.0</ele><time>2026-04-19T09:04:49Z</time></trkpt><trkpt lat="45.22359698694164" lon="7.747298423587955"><ele>262.0</ele><time>2026-04-19T09:04:50Z</time></trkpt><trkpt lat="45.2235198791041" lon="7.747333098717326"><ele>262.0</ele><time>2026-04-19T09:04:51Z</time></trkpt><trkpt lat="45.2234429208783" lon="7.747369365804849"><ele>262.0</ele><time>2026-04-19T09:04:52Z</time></trkpt><trkpt lat="45.223360722647385" lon="7.747408933013429"><ele>262.0</ele><time>2026-04-19T09:04:53Z</time></trkpt><trkpt lat="45.22328431314479" lon="7.747451113271556"><ele>262.0</ele><time>2026-04-19T09:04:54Z</time></trkpt><trkpt lat="45.22321355097637" lon="7.747498312362767"><ele>262.0</ele><time>2026-04-19T09:04:55Z</time></trkpt><trkpt lat="45.223148381012805" lon="7.747542784622767"><ele>262.0</ele><time>2026-04-19T09:04:56Z</time></trkpt><trkpt lat="45.22307518296397" lon="7.747594582515507"><ele>262.0</ele><time>2026-04-19T09:04:57Z</time></trkpt><trkpt lat="45.223007191366364" lon="7.747647852890986"><ele>262.0</ele><time>2026-04-19T09:04:58Z</time></trkpt><trkpt lat="45.22290727303955" lon="7.747717069929595"><ele>262.0</ele><time>2026-04-19T09:05:00Z</time></trkpt><trkpt lat="45.22284820001511" lon="7.747787494071724"><ele>262.0</ele><time>2026-04-19T09:05:02Z</time></trkpt><trkpt lat="45.222807641074134" lon="7.747916170213604"><ele>261.8333333333333</ele><time>2026-04-19T09:05:04Z</time></trkpt><trkpt lat="45.22278807259201" lon="7.748052139697196"><ele>261.66666666666663</ele><time>2026-04-19T09:05:06Z</time></trkpt><trkpt lat="45.222785969821985" lon="7.7482110785418605"><ele>261.5</ele><time>2026-04-19T09:05:08Z</time></trkpt><trkpt lat="45.22278581770746" lon="7.748304774608554"><ele>261.3333333333333</ele><time>2026-04-19T09:05:09Z</time></trkpt><trkpt lat="45.22278951811382" lon="7.74840771449467"><ele>261.1666666666667</ele><time>2026-04-19T09:05:10Z</time></trkpt><trkpt lat="45.222798238713835" lon="7.748507390197919"><ele>261.0</ele><time>2026-04-19T09:05:11Z</time></trkpt><trkpt lat="45.22281202513434" lon="7.748609126569231"><ele>261.0</ele><time>2026-04-19T09:05:12Z</time></trkpt><trkpt lat="45.22283116439874" lon="7.748724780853963"><ele>261.0</ele><time>2026-04-19T09:05:13Z</time></trkpt><trkpt lat="45.2228556700985" lon="7.748842183453736"><ele>261.0</ele><time>2026-04-19T09:05:14Z</time></trkpt><trkpt lat="45.22287764986926" lon="7.74894494418269"><ele>261.0</ele><time>2026-04-19T09:05:15Z</time></trkpt><trkpt lat="45.22290210936409" lon="7.749066815065978"><ele>261.0</ele><time>2026-04-19T09:05:17Z</time></trkpt><trkpt lat="45.22292903393957" lon="7.749193146444907"><ele>261.0</ele><time>2026-04-19T09:05:19Z</time></trkpt><trkpt lat="45.2229687955195" lon="7.7493358616618755"><ele>260.0</ele><time>2026-04-19T09:05:21Z</time></trkpt><trkpt lat="45.22301715524593" lon="7.7494755648092495"><ele>259.0</ele><time>2026-04-19T09:05:23Z</time></trkpt><trkpt lat="45.223078292811095" lon="7.749600395986887"><ele>258.0</ele><time>2026-04-19T09:05:25Z</time></trkpt><trkpt lat="45.22310090840742" lon="7.749698546855434"><ele>257.0</ele><time>2026-04-19T09:05:27Z</time></trkpt><trkpt lat="45.22305732684727" lon="7.749815110211517"><ele>256.0</ele><time>2026-04-19T09:05:30Z</time></trkpt><trkpt lat="45.22297751193312" lon="7.749890612840022"><ele>256.0</ele><time>2026-04-19T09:05:32Z</time></trkpt><trkpt lat="45.22287128235759" lon="7.749936095831936"><ele>256.0</ele><time>2026-04-19T09:05:34Z</time></trkpt><trkpt lat="45.2227912905465" lon="7.750006813171429"><ele>256.0</ele><time>2026-04-19T09:05:36Z</time></trkpt><trkpt lat="45.22274828545742" lon="7.750150351934587"><ele>256.0</ele><time>2026-04-19T09:05:38Z</time></trkpt><trkpt lat="45.22271119488003" lon="7.750306552482951"><ele>256.0</ele><time>2026-04-19T09:05:40Z</time></trkpt><trkpt lat="45.222656484797746" lon="7.750359007857761"><ele>254.20000000000002</ele><time>2026-04-19T09:05:41Z</time></trkpt><trkpt lat="45.22258714860109" lon="7.750427959911395"><ele>252.40000000000003</ele><time>2026-04-19T09:05:43Z</time></trkpt><trkpt lat="45.22251917446246" lon="7.75054156524974"><ele>250.6</ele><time>2026-04-19T09:05:45Z</time></trkpt><trkpt lat="45.22243441260413" lon="7.750632664382856"><ele>248.8</ele><time>2026-04-19T09:05:47Z</time></trkpt><trkpt lat="45.222367597572834" lon="7.750735296890881"><ele>247.0</ele><time>2026-04-19T09:05:49Z</time></trkpt><trkpt lat="45.22233337216812" lon="7.750821260639341"><ele>246.99999999999997</ele><time>2026-04-19T09:05:51Z</time></trkpt><trkpt lat="45.22234440102986" lon="7.750937098035876"><ele>247.0</ele><time>2026-04-19T09:05:54Z</time></trkpt><trkpt lat="45.22241786151798" lon="7.750973521802407"><ele>247.0</ele><time>2026-04-19T09:05:57Z</time></trkpt><trkpt lat="45.22247396222134" lon="7.7509159793318245"><ele>247.0</ele><time>2026-04-19T09:05:59Z</time></trkpt><trkpt lat="45.2225391138601" lon="7.750806954814344"><ele>246.99999999999997</ele><time>2026-04-19T09:06:01Z</time></trkpt><trkpt lat="45.22261158530143" lon="7.750755948194288"><ele>247.0</ele><time>2026-04-19T09:06:03Z</time></trkpt><trkpt lat="45.22271267483049" lon="7.7507104839357694"><ele>246.99999999999997</ele><time>2026-04-19T09:06:05Z</time></trkpt><trkpt lat="45.22282318384211" lon="7.750667601929633"><ele>247.0</ele><time>2026-04-19T09:06:07Z</time></trkpt><trkpt lat="45.22289614510137" lon="7.750623096451073"><ele>247.0</ele><time>2026-04-19T09:06:09Z</time></trkpt><trkpt lat="45.22297628819779" lon="7.750571696929623"><ele>247.0</ele><time>2026-04-19T09:06:11Z</time></trkpt><trkpt lat="45.22304633942577" lon="7.7505324382168945"><ele>246.99999999999997</ele><time>2026-04-19T09:06:28Z</time></trkpt><trkpt lat="45.22312074362298" lon="7.7504691374395795"><ele>247.0</ele><time>2026-04-19T09:06:31Z</time></trkpt><trkpt lat="45.223186919491226" lon="7.750393907278556"><ele>245.16666666666666</ele><time>2026-04-19T09:06:34Z</time></trkpt><trkpt lat="45.22324051822948" lon="7.750339012555465"><ele>243.33333333333331</ele><time>2026-04-19T09:06:36Z</time></trkpt><trkpt lat="45.22329426204126" lon="7.750292458652681"><ele>241.5</ele><time>2026-04-19T09:06:38Z</time></trkpt><trkpt lat="45.22338902597333" lon="7.750320579778632"><ele>239.66666666666669</ele><time>2026-04-19T09:06:42Z</time></trkpt><trkpt lat="45.223447504224985" lon="7.7503725302825"><ele>237.83333333333334</ele><time>2026-04-19T09:06:44Z</time></trkpt><trkpt lat="45.223493961934324" lon="7.750441782431421"><ele>236.0</ele><time>2026-04-19T09:06:46Z</time></trkpt><trkpt lat="45.22352612064305" lon="7.750571394581946"><ele>236.0</ele><time>2026-04-19T09:06:48Z</time></trkpt><trkpt lat="45.22357266675605" lon="7.750693384902393"><ele>236.00000000000003</ele><time>2026-04-19T09:06:50Z</time></trkpt><trkpt lat="45.22362491557041" lon="7.7507995044182385"><ele>236.00000000000003</ele><time>2026-04-19T09:06:52Z</time></trkpt><trkpt lat="45.22367633740277" lon="7.750879175209556"><ele>236.0</ele><time>2026-04-19T09:06:54Z</time></trkpt><trkpt lat="45.22377386646124" lon="7.750945757930645"><ele>236.0</ele><time>2026-04-19T09:06:56Z</time></trkpt><trkpt lat="45.22387815622881" lon="7.750980528847352"><ele>235.60000000000002</ele><time>2026-04-19T09:06:58Z</time></trkpt><trkpt lat="45.223985388493446" lon="7.750994941950003"><ele>235.20000000000002</ele><time>2026-04-19T09:07:00Z</time></trkpt><trkpt lat="45.22409726233628" lon="7.750996174374184"><ele>234.79999999999998</ele><time>2026-04-19T09:07:02Z</time></trkpt><trkpt lat="45.22421407052637" lon="7.750997628321536"><ele>234.39999999999998</ele><time>2026-04-19T09:07:04Z</time></trkpt><trkpt lat="45.22427762085373" lon="7.750997290367844"><ele>234.0</ele><time>2026-04-19T09:07:05Z</time></trkpt><trkpt lat="45.224347450244544" lon="7.750985843854595"><ele>234.0</ele><time>2026-04-19T09:07:06Z</time></trkpt><trkpt lat="45.22446563372538" lon="7.7509608433616615"><ele>233.99999999999997</ele><time>2026-04-19T09:07:08Z</time></trkpt><trkpt lat="45.224550970013695" lon="7.750938510704828"><ele>233.99999999999997</ele><time>2026-04-19T09:07:10Z</time></trkpt><trkpt lat="45.22466164997782" lon="7.75089873908409"><ele>234.0</ele><time>2026-04-19T09:07:12Z</time></trkpt><trkpt lat="45.2247287675596" lon="7.750883369069004"><ele>234.0</ele><time>2026-04-19T09:07:13Z</time></trkpt><trkpt lat="45.22484845425478" lon="7.7508431161884275"><ele>232.39999999999998</ele><time>2026-04-19T09:07:15Z</time></trkpt><trkpt lat="45.22496393352582" lon="7.750777514037807"><ele>230.79999999999998</ele><time>2026-04-19T09:07:17Z</time></trkpt><trkpt lat="45.22503785236461" lon="7.750741680008475"><ele>229.20000000000002</ele><time>2026-04-19T09:07:18Z</time></trkpt><trkpt lat="45.22510112792444" lon="7.750704278936852"><ele>227.60000000000002</ele><time>2026-04-19T09:07:19Z</time></trkpt><trkpt lat="45.225161374722866" lon="7.750668572731471"><ele>226.0</ele><time>2026-04-19T09:07:20Z</time></trkpt><trkpt lat="45.22526937148007" lon="7.750594484249472"><ele>226.0</ele><time>2026-04-19T09:07:22Z</time></trkpt><trkpt lat="45.225327337253646" lon="7.750547435160045"><ele>226.00000000000003</ele><time>2026-04-19T09:07:23Z</time></trkpt><trkpt lat="45.22544030488093" lon="7.750464902942348"><ele>226.00000000000003</ele><time>2026-04-19T09:07:25Z</time></trkpt><trkpt lat="45.22554219188305" lon="7.750376847542844"><ele>226.0</ele><time>2026-04-19T09:07:27Z</time></trkpt><trkpt lat="45.22564504714467" lon="7.750292917413964"><ele>226.0</ele><time>2026-04-19T09:07:29Z</time></trkpt><trkpt lat="45.22576042015185" lon="7.750225270034409"><ele>226.33333333333331</ele><time>2026-04-19T09:07:31Z</time></trkpt><trkpt lat="45.22582724345926" lon="7.750203960108887"><ele>226.66666666666666</ele><time>2026-04-19T09:07:32Z</time></trkpt><trkpt lat="45.225892485650185" lon="7.7501894501049815"><ele>227.0</ele><time>2026-04-19T09:07:33Z</time></trkpt><trkpt lat="45.22599985255792" lon="7.750188431839281"><ele>227.33333333333331</ele><time>2026-04-19T09:07:35Z</time></trkpt><trkpt lat="45.226081987242694" lon="7.750222202861897"><ele>227.66666666666666</ele><time>2026-04-19T09:07:37Z</time></trkpt><trkpt lat="45.22612085504906" lon="7.75032059725707"><ele>228.0</ele><time>2026-04-19T09:07:40Z</time></trkpt><trkpt lat="45.226146313568734" lon="7.750455097762417"><ele>226.60000000000002</ele><time>2026-04-19T09:07:42Z</time></trkpt><trkpt lat="45.22614633760255" lon="7.750608807675499"><ele>225.20000000000002</ele><time>2026-04-19T09:07:44Z</time></trkpt><trkpt lat="45.22614185163604" lon="7.750779241065236"><ele>223.8</ele><time>2026-04-19T09:07:46Z</time></trkpt><trkpt lat="45.22613886203918" lon="7.750954812066705"><ele>222.4</ele><time>2026-04-19T09:07:48Z</time></trkpt><trkpt lat="45.22614016189789" lon="7.751067160146314"><ele>221.0</ele><time>2026-04-19T09:07:49Z</time></trkpt><trkpt lat="45.226138969274764" lon="7.7511801039584585"><ele>220.4</ele><time>2026-04-19T09:07:50Z</time></trkpt><trkpt lat="45.22613893871272" lon="7.751272078092982"><ele>219.8</ele><time>2026-04-19T09:07:51Z</time></trkpt><trkpt lat="45.226140732129146" lon="7.751365288169575"><ele>219.20000000000002</ele><time>2026-04-19T09:07:52Z</time></trkpt><trkpt lat="45.22614404720366" lon="7.751527216752772"><ele>218.60000000000002</ele><time>2026-04-19T09:07:54Z</time></trkpt><trkpt lat="45.22614474086146" lon="7.751694178116626"><ele>218.0</ele><time>2026-04-19T09:07:56Z</time></trkpt><trkpt lat="45.22615451555973" lon="7.751841924254288"><ele>217.4</ele><time>2026-04-19T09:07:58Z</time></trkpt><trkpt lat="45.22615436216775" lon="7.751939426749024"><ele>216.8</ele><time>2026-04-19T09:07:59Z</time></trkpt><trkpt lat="45.22615293263865" lon="7.752030879681207"><ele>216.2</ele><time>2026-04-19T09:08:00Z</time></trkpt><trkpt lat="45.22615617139719" lon="7.752188608938574"><ele>215.6</ele><time>2026-04-19T09:08:02Z</time></trkpt><trkpt lat="45.22615898879033" lon="7.752333581664551"><ele>215.0</ele><time>2026-04-19T09:08:04Z</time></trkpt><trkpt lat="45.22615978593078" lon="7.752515140566104"><ele>215.0</ele><time>2026-04-19T09:08:06Z</time></trkpt><trkpt lat="45.22616181953843" lon="7.7526391397222865"><ele>215.0</ele><time>2026-04-19T09:08:07Z</time></trkpt><trkpt lat="45.22616407376793" lon="7.752762000420271"><ele>215.0</ele><time>2026-04-19T09:08:08Z</time></trkpt><trkpt lat="45.22616623855413" lon="7.752890436846635"><ele>215.0</ele><time>2026-04-19T09:08:09Z</time></trkpt><trkpt lat="45.22616906972432" lon="7.753050844439719"><ele>215.0</ele><time>2026-04-19T09:08:10Z</time></trkpt><trkpt lat="45.22616947394067" lon="7.753177994664223"><ele>215.16666666666669</ele><time>2026-04-19T09:08:11Z</time></trkpt><trkpt lat="45.2261627021066" lon="7.75328819842819"><ele>215.33333333333334</ele><time>2026-04-19T09:08:12Z</time></trkpt><trkpt lat="45.22616904976435" lon="7.753386706177202"><ele>215.5</ele><time>2026-04-19T09:08:13Z</time></trkpt><trkpt lat="45.22617198740162" lon="7.753495223572473"><ele>215.66666666666669</ele><time>2026-04-19T09:08:14Z</time></trkpt><trkpt lat="45.22616821971364" lon="7.7535996578975555"><ele>215.83333333333334</ele><time>2026-04-19T09:08:15Z</time></trkpt><trkpt lat="45.22616502092286" lon="7.753726162253278"><ele>216.0</ele><time>2026-04-19T09:08:16Z</time></trkpt><trkpt lat="45.226173389128995" lon="7.753849331124708"><ele>216.0</ele><time>2026-04-19T09:08:17Z</time></trkpt><trkpt lat="45.226173852508005" lon="7.753977273889189"><ele>216.00000000000003</ele><time>2026-04-19T09:08:18Z</time></trkpt><trkpt lat="45.2261703522708" lon="7.754104754374067"><ele>216.00000000000003</ele><time>2026-04-19T09:08:19Z</time></trkpt><trkpt lat="45.22616431819962" lon="7.7542350357844105"><ele>216.0</ele><time>2026-04-19T09:08:20Z</time></trkpt><trkpt lat="45.226162258035046" lon="7.754361433757491"><ele>216.0</ele><time>2026-04-19T09:08:21Z</time></trkpt><trkpt lat="45.226169036629315" lon="7.754490999431268"><ele>215.66666666666666</ele><time>2026-04-19T09:08:22Z</time></trkpt><trkpt lat="45.22616717939019" lon="7.754609625856875"><ele>215.33333333333331</ele><time>2026-04-19T09:08:23Z</time></trkpt><trkpt lat="45.22616648680908" lon="7.754737765743378"><ele>215.0</ele><time>2026-04-19T09:08:24Z</time></trkpt><trkpt lat="45.226162448480515" lon="7.754861364257605"><ele>214.66666666666666</ele><time>2026-04-19T09:08:25Z</time></trkpt><trkpt lat="45.22615962091753" lon="7.754986287205396"><ele>214.33333333333331</ele><time>2026-04-19T09:08:26Z</time></trkpt><trkpt lat="45.22615756278475" lon="7.755107000911741"><ele>214.0</ele><time>2026-04-19T09:08:27Z</time></trkpt><trkpt lat="45.22615670392349" lon="7.755223064618722"><ele>213.99999999999997</ele><time>2026-04-19T09:08:28Z</time></trkpt><trkpt lat="45.226162845184575" lon="7.755367217893509"><ele>214.0</ele><time>2026-04-19T09:08:29Z</time></trkpt><trkpt lat="45.226171617023574" lon="7.755470762319075"><ele>214.0</ele><time>2026-04-19T09:08:30Z</time></trkpt><trkpt lat="45.226172360244504" lon="7.755584233891035"><ele>214.0</ele><time>2026-04-19T09:08:31Z</time></trkpt><trkpt lat="45.22617116602306" lon="7.7557263399369125"><ele>213.99999999999997</ele><time>2026-04-19T09:08:32Z</time></trkpt><trkpt lat="45.226174276565196" lon="7.755846106733268"><ele>214.0</ele><time>2026-04-19T09:08:33Z</time></trkpt><trkpt lat="45.226171307020905" lon="7.755957536136348"><ele>214.49999999999997</ele><time>2026-04-19T09:08:34Z</time></trkpt><trkpt lat="45.22617129187575" lon="7.756058090486799"><ele>215.0</ele><time>2026-04-19T09:08:35Z</time></trkpt><trkpt lat="45.22618452485983" lon="7.756178433953955"><ele>215.5</ele><time>2026-04-19T09:08:36Z</time></trkpt><trkpt lat="45.226187918537285" lon="7.756285517105939"><ele>216.0</ele><time>2026-04-19T09:08:37Z</time></trkpt><trkpt lat="45.22618533627066" lon="7.7563906526485145"><ele>216.49999999999997</ele><time>2026-04-19T09:08:38Z</time></trkpt><trkpt lat="45.22618326220054" lon="7.756487415400035"><ele>217.0</ele><time>2026-04-19T09:08:39Z</time></trkpt><trkpt lat="45.22615395295752" lon="7.756663759199687"><ele>217.0</ele><time>2026-04-19T09:08:41Z</time></trkpt><trkpt lat="45.22615752455945" lon="7.756799552287711"><ele>217.0</ele><time>2026-04-19T09:08:43Z</time></trkpt><trkpt lat="45.22615943487589" lon="7.7569606410254215"><ele>217.0</ele><time>2026-04-19T09:08:45Z</time></trkpt><trkpt lat="45.226160467317136" lon="7.757131395445064"><ele>217.0</ele><time>2026-04-19T09:08:47Z</time></trkpt><trkpt lat="45.22617642493915" lon="7.7573002388325305"><ele>217.0</ele><time>2026-04-19T09:08:49Z</time></trkpt><trkpt lat="45.22616527063171" lon="7.757402539647035"><ele>216.83333333333331</ele><time>2026-04-19T09:08:50Z</time></trkpt><trkpt lat="45.22618007280615" lon="7.75749621787039"><ele>216.66666666666666</ele><time>2026-04-19T09:08:51Z</time></trkpt><trkpt lat="45.22618443121035" lon="7.757593112147635"><ele>216.5</ele><time>2026-04-19T09:08:52Z</time></trkpt><trkpt lat="45.22619761381316" lon="7.757699454898001"><ele>216.33333333333331</ele><time>2026-04-19T09:08:53Z</time></trkpt><trkpt lat="45.226193342985184" lon="7.7578503157238865"><ele>216.16666666666666</ele><time>2026-04-19T09:08:54Z</time></trkpt><trkpt lat="45.226206049032314" lon="7.758011760751307"><ele>216.0</ele><time>2026-04-19T09:08:55Z</time></trkpt><trkpt lat="45.22620461713617" lon="7.758169929367534"><ele>215.4</ele><time>2026-04-19T09:08:56Z</time></trkpt><trkpt lat="45.22620750374869" lon="7.758324022667909"><ele>214.8</ele><time>2026-04-19T09:08:57Z</time></trkpt><trkpt lat="45.22620957820628" lon="7.7584727283755255"><ele>214.20000000000002</ele><time>2026-04-19T09:08:58Z</time></trkpt><trkpt lat="45.22621229102717" lon="7.758602681169889"><ele>213.60000000000002</ele><time>2026-04-19T09:08:59Z</time></trkpt><trkpt lat="45.22621385542909" lon="7.7587449909278785"><ele>213.0</ele><time>2026-04-19T09:09:00Z</time></trkpt><trkpt lat="45.22621610371887" lon="7.758882755499231"><ele>212.83333333333334</ele><time>2026-04-19T09:09:01Z</time></trkpt><trkpt lat="45.226217072672064" lon="7.7590089121878645"><ele>212.66666666666669</ele><time>2026-04-19T09:09:02Z</time></trkpt><trkpt lat="45.22620655925311" lon="7.759118751927061"><ele>212.5</ele><time>2026-04-19T09:09:03Z</time></trkpt><trkpt lat="45.226224635674285" lon="7.759223320290968"><ele>212.33333333333334</ele><time>2026-04-19T09:09:04Z</time></trkpt><trkpt lat="45.226227524730184" lon="7.759373857521243"><ele>212.16666666666669</ele><time>2026-04-19T09:09:06Z</time></trkpt><trkpt lat="45.22622045431456" lon="7.759496776640077"><ele>212.0</ele><time>2026-04-19T09:09:08Z</time></trkpt><trkpt lat="45.22607223234439" lon="7.759595146105526"><ele>212.0</ele><time>2026-04-19T09:09:10Z</time></trkpt><trkpt lat="45.225952408332816" lon="7.7597035202186415"><ele>212.0</ele><time>2026-04-19T09:09:11Z</time></trkpt><trkpt lat="45.22580045775189" lon="7.759811166177968"><ele>212.0</ele><time>2026-04-19T09:09:12Z</time></trkpt><trkpt lat="45.225648212982435" lon="7.759931694052039"><ele>212.66666666666669</ele><time>2026-04-19T09:09:13Z</time></trkpt><trkpt lat="45.22548249509386" lon="7.760053018847614"><ele>213.33333333333331</ele><time>2026-04-19T09:09:14Z</time></trkpt><trkpt lat="45.225328198593175" lon="7.7601680842053655"><ele>214.0</ele><time>2026-04-19T09:09:15Z</time></trkpt><trkpt lat="45.22518005472958" lon="7.760271587444117"><ele>214.0</ele><time>2026-04-19T09:09:16Z</time></trkpt><trkpt lat="45.225028096657645" lon="7.760373078549998"><ele>214.0</ele><time>2026-04-19T09:09:17Z</time></trkpt><trkpt lat="45.224868160111875" lon="7.760464417230095"><ele>214.0</ele><time>2026-04-19T09:09:18Z</time></trkpt><trkpt lat="45.22470101877975" lon="7.760544137531305"><ele>214.33333333333331</ele><time>2026-04-19T09:09:19Z</time></trkpt><trkpt lat="45.2245370194469" lon="7.760606614040716"><ele>214.66666666666669</ele><time>2026-04-19T09:09:20Z</time></trkpt><trkpt lat="45.22437741706948" lon="7.7606666143704635"><ele>215.0</ele><time>2026-04-19T09:09:21Z</time></trkpt><trkpt lat="45.22421715795537" lon="7.760722326112687"><ele>215.0</ele><time>2026-04-19T09:09:22Z</time></trkpt><trkpt lat="45.22405572530616" lon="7.7607720992941545"><ele>215.0</ele><time>2026-04-19T09:09:23Z</time></trkpt><trkpt lat="45.22389850276282" lon="7.760821248870447"><ele>215.0</ele><time>2026-04-19T09:09:24Z</time></trkpt><trkpt lat="45.223738713669" lon="7.760870513327079"><ele>215.0</ele><time>2026-04-19T09:09:25Z</time></trkpt><trkpt lat="45.22358464060187" lon="7.760919835583282"><ele>215.0</ele><time>2026-04-19T09:09:26Z</time></trkpt><trkpt lat="45.223446102880715" lon="7.760969317426527"><ele>215.0</ele><time>2026-04-19T09:09:27Z</time></trkpt><trkpt lat="45.22331568407361" lon="7.76101166400577"><ele>215.0</ele><time>2026-04-19T09:09:28Z</time></trkpt><trkpt lat="45.22317991874131" lon="7.761053143427766"><ele>214.33333333333334</ele><time>2026-04-19T09:09:29Z</time></trkpt><trkpt lat="45.223035062573366" lon="7.76108939383897"><ele>213.66666666666669</ele><time>2026-04-19T09:09:30Z</time></trkpt><trkpt lat="45.222879287166656" lon="7.761132000112285"><ele>213.0</ele><time>2026-04-19T09:09:31Z</time></trkpt><trkpt lat="45.22271559481565" lon="7.761183905305697"><ele>213.0</ele><time>2026-04-19T09:09:32Z</time></trkpt><trkpt lat="45.222551169237974" lon="7.761235552839111"><ele>213.0</ele><time>2026-04-19T09:09:33Z</time></trkpt><trkpt lat="45.222406041748876" lon="7.761280849015748"><ele>213.0</ele><time>2026-04-19T09:09:34Z</time></trkpt><trkpt lat="45.22227322379904" lon="7.761317239786592"><ele>213.2</ele><time>2026-04-19T09:09:35Z</time></trkpt><trkpt lat="45.22216277961997" lon="7.761341997272215"><ele>213.4</ele><time>2026-04-19T09:09:36Z</time></trkpt><trkpt lat="45.22208006932286" lon="7.761367682228215"><ele>213.59999999999997</ele><time>2026-04-19T09:09:37Z</time></trkpt><trkpt lat="45.22201397677777" lon="7.761391311358059"><ele>213.79999999999998</ele><time>2026-04-19T09:09:38Z</time></trkpt><trkpt lat="45.221965404107664" lon="7.761607689061784"><ele>214.0</ele><time>2026-04-19T09:09:40Z</time></trkpt><trkpt lat="45.2219840875249" lon="7.76176062790998"><ele>214.25</ele><time>2026-04-19T09:09:41Z</time></trkpt><trkpt lat="45.22200715396971" lon="7.761935076728504"><ele>214.5</ele><time>2026-04-19T09:09:42Z</time></trkpt><trkpt lat="45.222031027124004" lon="7.762134179107005"><ele>214.75</ele><time>2026-04-19T09:09:43Z</time></trkpt><trkpt lat="45.222050838560804" lon="7.762345757700612"><ele>215.0</ele><time>2026-04-19T09:09:44Z</time></trkpt><trkpt lat="45.2220714618383" lon="7.762539868119733"><ele>214.5</ele><time>2026-04-19T09:09:45Z</time></trkpt><trkpt lat="45.22207798379137" lon="7.76272503942774"><ele>214.0</ele><time>2026-04-19T09:09:46Z</time></trkpt><trkpt lat="45.222118686979364" lon="7.76290397305369"><ele>213.5</ele><time>2026-04-19T09:09:47Z</time></trkpt><trkpt lat="45.222205446418286" lon="7.763059420623577"><ele>213.0</ele><time>2026-04-19T09:09:48Z</time></trkpt><trkpt lat="45.222299974887775" lon="7.763221776282668"><ele>213.0</ele><time>2026-04-19T09:09:49Z</time></trkpt><trkpt lat="45.22241088699062" lon="7.763383724608665"><ele>213.0</ele><time>2026-04-19T09:09:50Z</time></trkpt><trkpt lat="45.22253239965928" lon="7.763553751610899"><ele>213.0</ele><time>2026-04-19T09:09:51Z</time></trkpt><trkpt lat="45.22266421289423" lon="7.763732428111164"><ele>212.66666666666669</ele><time>2026-04-19T09:09:52Z</time></trkpt><trkpt lat="45.222797252562934" lon="7.763918527344414"><ele>212.33333333333334</ele><time>2026-04-19T09:09:53Z</time></trkpt><trkpt lat="45.22292796061397" lon="7.7640986353869845"><ele>212.0</ele><time>2026-04-19T09:09:54Z</time></trkpt><trkpt lat="45.22304293348639" lon="7.764267149654426"><ele>212.5</ele><time>2026-04-19T09:09:55Z</time></trkpt><trkpt lat="45.22315527715464" lon="7.764419798524693"><ele>213.0</ele><time>2026-04-19T09:09:56Z</time></trkpt><trkpt lat="45.22325712972116" lon="7.76456508811151"><ele>213.5</ele><time>2026-04-19T09:09:57Z</time></trkpt><trkpt lat="45.22335388961072" lon="7.764709286486625"><ele>214.0</ele><time>2026-04-19T09:09:58Z</time></trkpt><trkpt lat="45.223436824633275" lon="7.7648598388387695"><ele>214.0</ele><time>2026-04-19T09:09:59Z</time></trkpt><trkpt lat="45.2234950969334" lon="7.765034000218925"><ele>214.0</ele><time>2026-04-19T09:10:00Z</time></trkpt><trkpt lat="45.223525702510145" lon="7.7652271493068294"><ele>214.0</ele><time>2026-04-19T09:10:01Z</time></trkpt><trkpt lat="45.223529257295894" lon="7.765437796788818"><ele>214.0</ele><time>2026-04-19T09:10:02Z</time></trkpt><trkpt lat="45.22351397831285" lon="7.765655668245818"><ele>214.0</ele><time>2026-04-19T09:10:03Z</time></trkpt><trkpt lat="45.22348220066013" lon="7.76587988941263"><ele>214.0</ele><time>2026-04-19T09:10:04Z</time></trkpt><trkpt lat="45.22343085424526" lon="7.766102527929576"><ele>214.0</ele><time>2026-04-19T09:10:05Z</time></trkpt><trkpt lat="45.22337417701232" lon="7.7663168380056335"><ele>214.0</ele><time>2026-04-19T09:10:06Z</time></trkpt><trkpt lat="45.22331708915775" lon="7.766539119710189"><ele>214.0</ele><time>2026-04-19T09:10:07Z</time></trkpt><trkpt lat="45.22324354176477" lon="7.76676516251329"><ele>214.0</ele><time>2026-04-19T09:10:08Z</time></trkpt><trkpt lat="45.22319927504546" lon="7.7669971668561315"><ele>212.66666666666666</ele><time>2026-04-19T09:10:09Z</time></trkpt><trkpt lat="45.22313705329303" lon="7.7672207693924475"><ele>211.33333333333331</ele><time>2026-04-19T09:10:10Z</time></trkpt><trkpt lat="45.22308268957613" lon="7.7674413407519625"><ele>210.0</ele><time>2026-04-19T09:10:11Z</time></trkpt><trkpt lat="45.22303120996506" lon="7.767653730550802"><ele>210.25</ele><time>2026-04-19T09:10:12Z</time></trkpt><trkpt lat="45.22296454785092" lon="7.7678430467363135"><ele>210.5</ele><time>2026-04-19T09:10:13Z</time></trkpt><trkpt lat="45.22291337712912" lon="7.768039629067611"><ele>210.75</ele><time>2026-04-19T09:10:14Z</time></trkpt><trkpt lat="45.22286001845587" lon="7.768242590255537"><ele>211.0</ele><time>2026-04-19T09:10:15Z</time></trkpt><trkpt lat="45.222815996058756" lon="7.768450581536621"><ele>210.66666666666666</ele><time>2026-04-19T09:10:16Z</time></trkpt><trkpt lat="45.22276360717527" lon="7.7686458407766725"><ele>210.33333333333331</ele><time>2026-04-19T09:10:17Z</time></trkpt><trkpt lat="45.222716126095825" lon="7.768851149569312"><ele>210.0</ele><time>2026-04-19T09:10:18Z</time></trkpt><trkpt lat="45.22266261189742" lon="7.769059413461834"><ele>210.0</ele><time>2026-04-19T09:10:19Z</time></trkpt><trkpt lat="45.222606089827934" lon="7.769264879228408"><ele>210.0</ele><time>2026-04-19T09:10:20Z</time></trkpt><trkpt lat="45.2225522357551" lon="7.769476419376616"><ele>210.0</ele><time>2026-04-19T09:10:21Z</time></trkpt><trkpt lat="45.22249652973291" lon="7.769697149497181"><ele>210.0</ele><time>2026-04-19T09:10:22Z</time></trkpt><trkpt lat="45.2224390744188" lon="7.769919007606748"><ele>210.0</ele><time>2026-04-19T09:10:23Z</time></trkpt><trkpt lat="45.222379856032695" lon="7.770145248792912"><ele>210.0</ele><time>2026-04-19T09:10:24Z</time></trkpt><trkpt lat="45.22232451299058" lon="7.770372548660242"><ele>210.0</ele><time>2026-04-19T09:10:25Z</time></trkpt><trkpt lat="45.22225190282634" lon="7.770593105264885"><ele>210.0</ele><time>2026-04-19T09:10:26Z</time></trkpt><trkpt lat="45.22219370454891" lon="7.77082132781511"><ele>210.0</ele><time>2026-04-19T09:10:27Z</time></trkpt><trkpt lat="45.22213701533109" lon="7.771041666772484"><ele>210.0</ele><time>2026-04-19T09:10:28Z</time></trkpt><trkpt lat="45.22209440644109" lon="7.771264347712998"><ele>210.0</ele><time>2026-04-19T09:10:29Z</time></trkpt><trkpt lat="45.22203214899935" lon="7.771481258635072"><ele>210.0</ele><time>2026-04-19T09:10:30Z</time></trkpt><trkpt lat="45.221975505591196" lon="7.771701429922029"><ele>210.33333333333331</ele><time>2026-04-19T09:10:31Z</time></trkpt><trkpt lat="45.22192098407948" lon="7.771920195618731"><ele>210.66666666666666</ele><time>2026-04-19T09:10:32Z</time></trkpt><trkpt lat="45.221864496263805" lon="7.772133665930924"><ele>211.0</ele><time>2026-04-19T09:10:33Z</time></trkpt><trkpt lat="45.221808996137106" lon="7.772341174373302"><ele>211.0</ele><time>2026-04-19T09:10:34Z</time></trkpt><trkpt lat="45.221756939880535" lon="7.772548137182551"><ele>211.0</ele><time>2026-04-19T09:10:35Z</time></trkpt><trkpt lat="45.22171022141582" lon="7.772735844713034"><ele>211.0</ele><time>2026-04-19T09:10:36Z</time></trkpt><trkpt lat="45.221666595439004" lon="7.772907462127597"><ele>211.0</ele><time>2026-04-19T09:10:37Z</time></trkpt><trkpt lat="45.22163174775512" lon="7.77306253231022"><ele>210.8</ele><time>2026-04-19T09:10:38Z</time></trkpt><trkpt lat="45.221594807027195" lon="7.773210825691392"><ele>210.60000000000002</ele><time>2026-04-19T09:10:39Z</time></trkpt><trkpt lat="45.221561572661045" lon="7.7733449474529035"><ele>210.4</ele><time>2026-04-19T09:10:40Z</time></trkpt><trkpt lat="45.221530550530865" lon="7.773462627135054"><ele>210.2</ele><time>2026-04-19T09:10:41Z</time></trkpt><trkpt lat="45.221506289251074" lon="7.773547518809463"><ele>210.0</ele><time>2026-04-19T09:10:42Z</time></trkpt><trkpt lat="45.221439197687" lon="7.7736327621624355"><ele>210.0</ele><time>2026-04-19T09:10:44Z</time></trkpt><trkpt lat="45.22135839042724" lon="7.773585450845847"><ele>210.0</ele><time>2026-04-19T09:10:46Z</time></trkpt><trkpt lat="45.22128157985923" lon="7.773577111263515"><ele>210.0</ele><time>2026-04-19T09:10:47Z</time></trkpt><trkpt lat="45.2211890131691" lon="7.773545043198205"><ele>210.0</ele><time>2026-04-19T09:10:48Z</time></trkpt><trkpt lat="45.22108064745137" lon="7.77350579458602"><ele>210.0</ele><time>2026-04-19T09:10:49Z</time></trkpt><trkpt lat="45.220961397456" lon="7.773460962466152"><ele>210.0</ele><time>2026-04-19T09:10:50Z</time></trkpt><trkpt lat="45.22084095092976" lon="7.7734225171818645"><ele>210.0</ele><time>2026-04-19T09:10:51Z</time></trkpt><trkpt lat="45.22071970005508" lon="7.773372338146884"><ele>210.0</ele><time>2026-04-19T09:10:52Z</time></trkpt><trkpt lat="45.22060495868564" lon="7.7733280386695185"><ele>210.0</ele><time>2026-04-19T09:10:53Z</time></trkpt><trkpt lat="45.22050316983792" lon="7.773293190185753"><ele>210.0</ele><time>2026-04-19T09:10:54Z</time></trkpt><trkpt lat="45.22039924290541" lon="7.773258643296434"><ele>210.0</ele><time>2026-04-19T09:10:55Z</time></trkpt><trkpt lat="45.22029022066944" lon="7.773222545270976"><ele>210.0</ele><time>2026-04-19T09:10:56Z</time></trkpt><trkpt lat="45.22018997120465" lon="7.773167026820998"><ele>210.0</ele><time>2026-04-19T09:10:57Z</time></trkpt><trkpt lat="45.22009078092325" lon="7.773129791184703"><ele>210.0</ele><time>2026-04-19T09:10:58Z</time></trkpt><trkpt lat="45.21999633118337" lon="7.773094335130469"><ele>210.0</ele><time>2026-04-19T09:10:59Z</time></trkpt><trkpt lat="45.219900711214535" lon="7.773058024562598"><ele>210.0</ele><time>2026-04-19T09:11:00Z</time></trkpt><trkpt lat="45.219814671774394" lon="7.7730306531444135"><ele>210.0</ele><time>2026-04-19T09:11:01Z</time></trkpt><trkpt lat="45.21969227577673" lon="7.772983794826855"><ele>210.0</ele><time>2026-04-19T09:11:02Z</time></trkpt><trkpt lat="45.21957048087737" lon="7.772976865943888"><ele>210.0</ele><time>2026-04-19T09:11:04Z</time></trkpt><trkpt lat="45.21946006316191" lon="7.773051762097577"><ele>209.83333333333334</ele><time>2026-04-19T09:11:06Z</time></trkpt><trkpt lat="45.21942041125853" lon="7.773138042954853"><ele>209.66666666666669</ele><time>2026-04-19T09:11:07Z</time></trkpt><trkpt lat="45.21939217811832" lon="7.773253621639118"><ele>209.5</ele><time>2026-04-19T09:11:08Z</time></trkpt><trkpt lat="45.219386361324744" lon="7.773385913428966"><ele>209.33333333333334</ele><time>2026-04-19T09:11:09Z</time></trkpt><trkpt lat="45.219376370591455" lon="7.7735168266287955"><ele>209.16666666666669</ele><time>2026-04-19T09:11:10Z</time></trkpt><trkpt lat="45.21934597956618" lon="7.773626240027374"><ele>209.0</ele><time>2026-04-19T09:11:11Z</time></trkpt><trkpt lat="45.2193415339163" lon="7.7737341432502385"><ele>209.0</ele><time>2026-04-19T09:11:13Z</time></trkpt><trkpt lat="45.21930764393103" lon="7.773859079661333"><ele>209.0</ele><time>2026-04-19T09:11:16Z</time></trkpt><trkpt lat="45.21929263225036" lon="7.773952444823323"><ele>209.0</ele><time>2026-04-19T09:11:18Z</time></trkpt><trkpt lat="45.21927099976749" lon="7.77408698808678"><ele>209.0</ele><time>2026-04-19T09:11:20Z</time></trkpt><trkpt lat="45.21937555764029" lon="7.774197723730034"><ele>209.0</ele><time>2026-04-19T09:11:21Z</time></trkpt><trkpt lat="45.219396425637115" lon="7.77434027249768"><ele>209.25</ele><time>2026-04-19T09:11:23Z</time></trkpt><trkpt lat="45.21944213585275" lon="7.774485177863555"><ele>209.5</ele><time>2026-04-19T09:11:25Z</time></trkpt><trkpt lat="45.21949120411058" lon="7.7746067095380536"><ele>209.75</ele><time>2026-04-19T09:11:27Z</time></trkpt><trkpt lat="45.219547324287156" lon="7.7747500261971005"><ele>210.0</ele><time>2026-04-19T09:11:29Z</time></trkpt><trkpt lat="45.21962177990965" lon="7.774890400185235"><ele>210.0</ele><time>2026-04-19T09:11:31Z</time></trkpt><trkpt lat="45.219661587724836" lon="7.774966736738946"><ele>210.0</ele><time>2026-04-19T09:11:32Z</time></trkpt><trkpt lat="45.219706798783626" lon="7.775049702806137"><ele>210.0</ele><time>2026-04-19T09:11:33Z</time></trkpt><trkpt lat="45.21974400692358" lon="7.7751265908304035"><ele>210.0</ele><time>2026-04-19T09:11:34Z</time></trkpt><trkpt lat="45.21980048437225" lon="7.7752723544702675"><ele>210.0</ele><time>2026-04-19T09:11:36Z</time></trkpt><trkpt lat="45.219819188905475" lon="7.77536252153658"><ele>210.0</ele><time>2026-04-19T09:11:37Z</time></trkpt><trkpt lat="45.219836664036066" lon="7.775466684202765"><ele>210.0</ele><time>2026-04-19T09:11:38Z</time></trkpt><trkpt lat="45.219845863325965" lon="7.775591844193929"><ele>210.0</ele><time>2026-04-19T09:11:39Z</time></trkpt><trkpt lat="45.21985132073903" lon="7.775733539353923"><ele>210.0</ele><time>2026-04-19T09:11:40Z</time></trkpt><trkpt lat="45.21986470232983" lon="7.775884298898939"><ele>210.0</ele><time>2026-04-19T09:11:41Z</time></trkpt><trkpt lat="45.21987744286348" lon="7.776031902740916"><ele>210.0</ele><time>2026-04-19T09:11:42Z</time></trkpt><trkpt lat="45.21988733683816" lon="7.7761548816391395"><ele>209.8</ele><time>2026-04-19T09:11:43Z</time></trkpt><trkpt lat="45.21990214924504" lon="7.776270255310215"><ele>209.6</ele><time>2026-04-19T09:11:44Z</time></trkpt><trkpt lat="45.21992331328617" lon="7.776392117781838"><ele>209.39999999999998</ele><time>2026-04-19T09:11:45Z</time></trkpt><trkpt lat="45.2199543795401" lon="7.776513764095194"><ele>209.2</ele><time>2026-04-19T09:11:46Z</time></trkpt><trkpt lat="45.21998990369919" lon="7.776633205443498"><ele>209.0</ele><time>2026-04-19T09:11:47Z</time></trkpt><trkpt lat="45.22003524170183" lon="7.776756016185517"><ele>209.00000000000003</ele><time>2026-04-19T09:11:48Z</time></trkpt><trkpt lat="45.22007784490157" lon="7.77686670858935"><ele>209.0</ele><time>2026-04-19T09:11:49Z</time></trkpt><trkpt lat="45.220121119070576" lon="7.776981207769627"><ele>209.0</ele><time>2026-04-19T09:11:50Z</time></trkpt><trkpt lat="45.22015041086012" lon="7.777081099124645"><ele>209.0</ele><time>2026-04-19T09:11:51Z</time></trkpt><trkpt lat="45.22016761192664" lon="7.777196575610194"><ele>209.00000000000003</ele><time>2026-04-19T09:11:52Z</time></trkpt><trkpt lat="45.220174364904864" lon="7.777317622357994"><ele>209.0</ele><time>2026-04-19T09:11:53Z</time></trkpt><trkpt lat="45.22017857342685" lon="7.7774588908263285"><ele>209.0</ele><time>2026-04-19T09:11:54Z</time></trkpt><trkpt lat="45.220179588671215" lon="7.777616310431593"><ele>209.0</ele><time>2026-04-19T09:11:55Z</time></trkpt><trkpt lat="45.22018014955627" lon="7.777758875417205"><ele>209.0</ele><time>2026-04-19T09:11:56Z</time></trkpt><trkpt lat="45.22017782506133" lon="7.777888431837701"><ele>209.0</ele><time>2026-04-19T09:11:57Z</time></trkpt><trkpt lat="45.22017605527344" lon="7.778008793606091"><ele>209.0</ele><time>2026-04-19T09:11:58Z</time></trkpt><trkpt lat="45.220173904600856" lon="7.778114549482727"><ele>208.79999999999998</ele><time>2026-04-19T09:11:59Z</time></trkpt><trkpt lat="45.22016895946856" lon="7.778222996221023"><ele>208.6</ele><time>2026-04-19T09:12:00Z</time></trkpt><trkpt lat="45.22016743001243" lon="7.778322765757773"><ele>208.4</ele><time>2026-04-19T09:12:01Z</time></trkpt><trkpt lat="45.220184417683264" lon="7.778448367465802"><ele>208.2</ele><time>2026-04-19T09:12:03Z</time></trkpt><trkpt lat="45.22020041483831" lon="7.7785973199623335"><ele>208.0</ele><time>2026-04-19T09:12:06Z</time></trkpt><trkpt lat="45.220154361187454" lon="7.778777380961113"><ele>208.0</ele><time>2026-04-19T09:12:08Z</time></trkpt><trkpt lat="45.220100714104156" lon="7.778936582325561"><ele>208.0</ele><time>2026-04-19T09:12:09Z</time></trkpt><trkpt lat="45.22005583075675" lon="7.7791089077747895"><ele>208.0</ele><time>2026-04-19T09:12:10Z</time></trkpt><trkpt lat="45.22000900103036" lon="7.779299167319456"><ele>208.0</ele><time>2026-04-19T09:12:11Z</time></trkpt><trkpt lat="45.219961806765546" lon="7.7794918224095015"><ele>208.0</ele><time>2026-04-19T09:12:12Z</time></trkpt><trkpt lat="45.21990972022462" lon="7.7796941543781575"><ele>208.0</ele><time>2026-04-19T09:12:13Z</time></trkpt><trkpt lat="45.219860857662695" lon="7.779892052409077"><ele>208.0</ele><time>2026-04-19T09:12:14Z</time></trkpt><trkpt lat="45.219810900763804" lon="7.7800922897782545"><ele>208.0</ele><time>2026-04-19T09:12:15Z</time></trkpt><trkpt lat="45.219759713032786" lon="7.78029340744419"><ele>207.33333333333331</ele><time>2026-04-19T09:12:16Z</time></trkpt><trkpt lat="45.21971124454475" lon="7.7804923048709735"><ele>206.66666666666669</ele><time>2026-04-19T09:12:17Z</time></trkpt><trkpt lat="45.21966325322604" lon="7.780691526580638"><ele>206.0</ele><time>2026-04-19T09:12:18Z</time></trkpt><trkpt lat="45.21961618340525" lon="7.780901025544348"><ele>207.0</ele><time>2026-04-19T09:12:19Z</time></trkpt><trkpt lat="45.21956751467889" lon="7.781110703280229"><ele>208.0</ele><time>2026-04-19T09:12:20Z</time></trkpt><trkpt lat="45.21952493635375" lon="7.781323525922032"><ele>209.0</ele><time>2026-04-19T09:12:21Z</time></trkpt><trkpt lat="45.219491007689385" lon="7.781529811460984"><ele>209.0</ele><time>2026-04-19T09:12:22Z</time></trkpt><trkpt lat="45.21945409202941" lon="7.781709743239742"><ele>209.0</ele><time>2026-04-19T09:12:23Z</time></trkpt><trkpt lat="45.219421992946145" lon="7.7818720360863525"><ele>209.0</ele><time>2026-04-19T09:12:24Z</time></trkpt><trkpt lat="45.21939728309321" lon="7.782015959445788"><ele>209.0</ele><time>2026-04-19T09:12:25Z</time></trkpt><trkpt lat="45.219380070260875" lon="7.782159427137866"><ele>208.79999999999998</ele><time>2026-04-19T09:12:26Z</time></trkpt><trkpt lat="45.21935388641977" lon="7.782301718431071"><ele>208.6</ele><time>2026-04-19T09:12:27Z</time></trkpt><trkpt lat="45.219329160279514" lon="7.782454617654512"><ele>208.4</ele><time>2026-04-19T09:12:28Z</time></trkpt><trkpt lat="45.219304974321695" lon="7.782603864231109"><ele>208.2</ele><time>2026-04-19T09:12:29Z</time></trkpt><trkpt lat="45.219282390190905" lon="7.782732690264149"><ele>208.0</ele><time>2026-04-19T09:12:30Z</time></trkpt><trkpt lat="45.21925709003672" lon="7.78285089502191"><ele>207.99999999999997</ele><time>2026-04-19T09:12:31Z</time></trkpt><trkpt lat="45.21922062886883" lon="7.78296659677244"><ele>208.0</ele><time>2026-04-19T09:12:32Z</time></trkpt><trkpt lat="45.21917725963801" lon="7.783050910257644"><ele>208.0</ele><time>2026-04-19T09:12:33Z</time></trkpt><trkpt lat="45.21918208831403" lon="7.783192099639092"><ele>208.0</ele><time>2026-04-19T09:12:35Z</time></trkpt><trkpt lat="45.219234204329524" lon="7.783244903458553"><ele>207.99999999999997</ele><time>2026-04-19T09:12:36Z</time></trkpt><trkpt lat="45.21931026724809" lon="7.783254416766382"><ele>208.0</ele><time>2026-04-19T09:12:37Z</time></trkpt><trkpt lat="45.219395657052544" lon="7.7832230600218075"><ele>208.0</ele><time>2026-04-19T09:12:38Z</time></trkpt><trkpt lat="45.219485960131095" lon="7.783179363935109"><ele>208.0</ele><time>2026-04-19T09:12:39Z</time></trkpt><trkpt lat="45.21958364111436" lon="7.783161037969354"><ele>208.0</ele><time>2026-04-19T09:12:40Z</time></trkpt><trkpt lat="45.21970926486434" lon="7.783194892616398"><ele>208.0</ele><time>2026-04-19T09:12:41Z</time></trkpt><trkpt lat="45.21984986820637" lon="7.78323680247149"><ele>208.0</ele><time>2026-04-19T09:12:42Z</time></trkpt><trkpt lat="45.21998989743276" lon="7.7832648874819155"><ele>208.0</ele><time>2026-04-19T09:12:43Z</time></trkpt><trkpt lat="45.220130685088264" lon="7.783290354861251"><ele>208.0</ele><time>2026-04-19T09:12:44Z</time></trkpt><trkpt lat="45.22027759234215" lon="7.783316324826183"><ele>208.0</ele><time>2026-04-19T09:12:45Z</time></trkpt><trkpt lat="45.22043030404125" lon="7.783350289038541"><ele>208.0</ele><time>2026-04-19T09:12:46Z</time></trkpt><trkpt lat="45.22058360278681" lon="7.783377187524957"><ele>208.0</ele><time>2026-04-19T09:12:47Z</time></trkpt><trkpt lat="45.220736393637566" lon="7.7834063607582475"><ele>208.0</ele><time>2026-04-19T09:12:48Z</time></trkpt><trkpt lat="45.22087542221587" lon="7.783434667342139"><ele>208.0</ele><time>2026-04-19T09:12:49Z</time></trkpt><trkpt lat="45.22099534020257" lon="7.78345822544395"><ele>208.0</ele><time>2026-04-19T09:12:50Z</time></trkpt><trkpt lat="45.22110823323594" lon="7.783482067587245"><ele>208.0</ele><time>2026-04-19T09:12:51Z</time></trkpt><trkpt lat="45.22121672339019" lon="7.783496755053749"><ele>208.0</ele><time>2026-04-19T09:12:52Z</time></trkpt><trkpt lat="45.22132145312585" lon="7.783513952408826"><ele>208.0</ele><time>2026-04-19T09:12:53Z</time></trkpt><trkpt lat="45.221416745025415" lon="7.783535985598257"><ele>208.0</ele><time>2026-04-19T09:12:54Z</time></trkpt><trkpt lat="45.221500330939996" lon="7.783577378217639"><ele>208.60000000000002</ele><time>2026-04-19T09:12:55Z</time></trkpt><trkpt lat="45.22155843649713" lon="7.783634633231264"><ele>209.20000000000002</ele><time>2026-04-19T09:12:56Z</time></trkpt><trkpt lat="45.221598543116734" lon="7.783712921194102"><ele>209.8</ele><time>2026-04-19T09:12:57Z</time></trkpt><trkpt lat="45.22158631715595" lon="7.7838169259226095"><ele>210.4</ele><time>2026-04-19T09:12:58Z</time></trkpt><trkpt lat="45.22157504347677" lon="7.783954639837315"><ele>211.0</ele><time>2026-04-19T09:12:59Z</time></trkpt><trkpt lat="45.22156214801484" lon="7.784152697516301"><ele>211.0</ele><time>2026-04-19T09:13:00Z</time></trkpt><trkpt lat="45.22153341227903" lon="7.7843430357220615"><ele>211.0</ele><time>2026-04-19T09:13:01Z</time></trkpt><trkpt lat="45.22152795990797" lon="7.784546031926183"><ele>211.0</ele><time>2026-04-19T09:13:02Z</time></trkpt><trkpt lat="45.22152104546618" lon="7.784752466250918"><ele>211.0</ele><time>2026-04-19T09:13:03Z</time></trkpt><trkpt lat="45.22150543878258" lon="7.784964322270818"><ele>210.75</ele><time>2026-04-19T09:13:04Z</time></trkpt><trkpt lat="45.22148959072013" lon="7.785174115637194"><ele>210.5</ele><time>2026-04-19T09:13:05Z</time></trkpt><trkpt lat="45.22147694257115" lon="7.785382903070158"><ele>210.25</ele><time>2026-04-19T09:13:06Z</time></trkpt><trkpt lat="45.22146297600868" lon="7.785581945095405"><ele>210.0</ele><time>2026-04-19T09:13:07Z</time></trkpt><trkpt lat="45.22145111351222" lon="7.785778147436387"><ele>209.75</ele><time>2026-04-19T09:13:08Z</time></trkpt><trkpt lat="45.22144232385863" lon="7.785967468433828"><ele>209.5</ele><time>2026-04-19T09:13:09Z</time></trkpt><trkpt lat="45.22143472472256" lon="7.786156600795194"><ele>209.25</ele><time>2026-04-19T09:13:10Z</time></trkpt><trkpt lat="45.22142787087982" lon="7.7863493120135745"><ele>209.0</ele><time>2026-04-19T09:13:11Z</time></trkpt><trkpt lat="45.22143429161057" lon="7.78653961875287"><ele>209.0</ele><time>2026-04-19T09:13:12Z</time></trkpt><trkpt lat="45.22145652390166" lon="7.786728118510503"><ele>209.0</ele><time>2026-04-19T09:13:13Z</time></trkpt><trkpt lat="45.221494032913185" lon="7.78691421575999"><ele>209.0</ele><time>2026-04-19T09:13:14Z</time></trkpt><trkpt lat="45.221544280491045" lon="7.787095411726077"><ele>209.0</ele><time>2026-04-19T09:13:15Z</time></trkpt><trkpt lat="45.22160840288887" lon="7.787264878537705"><ele>209.0</ele><time>2026-04-19T09:13:16Z</time></trkpt><trkpt lat="45.221675758386255" lon="7.787414961352951"><ele>209.0</ele><time>2026-04-19T09:13:17Z</time></trkpt><trkpt lat="45.22174516223544" lon="7.787548343778628"><ele>209.0</ele><time>2026-04-19T09:13:18Z</time></trkpt><trkpt lat="45.221809242555224" lon="7.787664049790501"><ele>209.0</ele><time>2026-04-19T09:13:19Z</time></trkpt><trkpt lat="45.221868024105085" lon="7.787756060100808"><ele>209.0</ele><time>2026-04-19T09:13:20Z</time></trkpt><trkpt lat="45.22193369170288" lon="7.787820240365363"><ele>209.00000000000003</ele><time>2026-04-19T09:13:21Z</time></trkpt><trkpt lat="45.22201049898512" lon="7.787829144513558"><ele>209.0</ele><time>2026-04-19T09:13:22Z</time></trkpt><trkpt lat="45.222088894201235" lon="7.787802407338451"><ele>209.0</ele><time>2026-04-19T09:13:23Z</time></trkpt><trkpt lat="45.22215480942686" lon="7.787741026680628"><ele>209.0</ele><time>2026-04-19T09:13:24Z</time></trkpt><trkpt lat="45.22220494118421" lon="7.7876674767762575"><ele>209.00000000000003</ele><time>2026-04-19T09:13:25Z</time></trkpt><trkpt lat="45.22232467720259" lon="7.787692639877783"><ele>209.0</ele><time>2026-04-19T09:13:27Z</time></trkpt><trkpt lat="45.22238951116353" lon="7.787813366052609"><ele>209.25</ele><time>2026-04-19T09:13:28Z</time></trkpt><trkpt lat="45.222457560871824" lon="7.7879577916082825"><ele>209.5</ele><time>2026-04-19T09:13:29Z</time></trkpt><trkpt lat="45.222535275645214" lon="7.788097620766825"><ele>209.75</ele><time>2026-04-19T09:13:30Z</time></trkpt><trkpt lat="45.22260973928522" lon="7.788237300225027"><ele>210.0</ele><time>2026-04-19T09:13:31Z</time></trkpt><trkpt lat="45.2226733356688" lon="7.788382211650321"><ele>210.0</ele><time>2026-04-19T09:13:32Z</time></trkpt><trkpt lat="45.22272176563512" lon="7.788557056883192"><ele>210.0</ele><time>2026-04-19T09:13:33Z</time></trkpt><trkpt lat="45.22276920679313" lon="7.788736973983482"><ele>210.0</ele><time>2026-04-19T09:13:34Z</time></trkpt><trkpt lat="45.22281450381426" lon="7.788921934749601"><ele>210.0</ele><time>2026-04-19T09:13:35Z</time></trkpt><trkpt lat="45.222846866095544" lon="7.789106280509117"><ele>210.0</ele><time>2026-04-19T09:13:36Z</time></trkpt><trkpt lat="45.222869979185816" lon="7.7892712342203625"><ele>210.0</ele><time>2026-04-19T09:13:37Z</time></trkpt><trkpt lat="45.222887753546345" lon="7.789410796441701"><ele>210.0</ele><time>2026-04-19T09:13:38Z</time></trkpt><trkpt lat="45.22289033231116" lon="7.789520342728046"><ele>210.0</ele><time>2026-04-19T09:13:39Z</time></trkpt><trkpt lat="45.22293624224038" lon="7.789678416767956"><ele>210.0</ele><time>2026-04-19T09:13:41Z</time></trkpt><trkpt lat="45.22311899837349" lon="7.789741778152612"><ele>210.5</ele><time>2026-04-19T09:13:43Z</time></trkpt><trkpt lat="45.22322821247502" lon="7.789813716826974"><ele>211.0</ele><time>2026-04-19T09:13:44Z</time></trkpt><trkpt lat="45.22332203877843" lon="7.789874606650096"><ele>211.5</ele><time>2026-04-19T09:13:45Z</time></trkpt><trkpt lat="45.22341960948717" lon="7.7899379264570925"><ele>212.0</ele><time>2026-04-19T09:13:46Z</time></trkpt><trkpt lat="45.223534154829764" lon="7.789987818493975"><ele>212.0</ele><time>2026-04-19T09:13:47Z</time></trkpt><trkpt lat="45.22364115729827" lon="7.790070348985426"><ele>212.0</ele><time>2026-04-19T09:13:48Z</time></trkpt><trkpt lat="45.22374525167079" lon="7.790137974360773"><ele>212.0</ele><time>2026-04-19T09:13:49Z</time></trkpt><trkpt lat="45.223843211511785" lon="7.790209231561906"><ele>212.0</ele><time>2026-04-19T09:13:50Z</time></trkpt><trkpt lat="45.22394403642283" lon="7.790299778221932"><ele>212.0</ele><time>2026-04-19T09:13:51Z</time></trkpt><trkpt lat="45.224048267669026" lon="7.790376302241455"><ele>212.0</ele><time>2026-04-19T09:13:52Z</time></trkpt><trkpt lat="45.22417704395659" lon="7.790469974460315"><ele>212.0</ele><time>2026-04-19T09:13:53Z</time></trkpt><trkpt lat="45.2242904667126" lon="7.790536995087378"><ele>212.0</ele><time>2026-04-19T09:13:54Z</time></trkpt><trkpt lat="45.22436462233465" lon="7.790587772601167"><ele>212.0</ele><time>2026-04-19T09:13:55Z</time></trkpt><trkpt lat="45.2244721804103" lon="7.790615201132844"><ele>212.0</ele><time>2026-04-19T09:13:57Z</time></trkpt><trkpt lat="45.22457530137954" lon="7.790556701754543"><ele>212.0</ele><time>2026-04-19T09:13:59Z</time></trkpt><trkpt lat="45.22460094423842" lon="7.790411779965418"><ele>212.0</ele><time>2026-04-19T09:14:00Z</time></trkpt><trkpt lat="45.22464133041121" lon="7.790318796357582"><ele>212.0</ele><time>2026-04-19T09:14:01Z</time></trkpt><trkpt lat="45.224679558606375" lon="7.7901618397634005"><ele>212.2</ele><time>2026-04-19T09:14:02Z</time></trkpt><trkpt lat="45.22472798771632" lon="7.789995985633603"><ele>212.39999999999998</ele><time>2026-04-19T09:14:03Z</time></trkpt><trkpt lat="45.22477302225648" lon="7.789839917974141"><ele>212.60000000000002</ele><time>2026-04-19T09:14:04Z</time></trkpt><trkpt lat="45.224809370237146" lon="7.78971235563207"><ele>212.8</ele><time>2026-04-19T09:14:05Z</time></trkpt><trkpt lat="45.22484203119197" lon="7.789600742141302"><ele>213.0</ele><time>2026-04-19T09:14:06Z</time></trkpt><trkpt lat="45.22487791276404" lon="7.7894840325162855"><ele>213.0</ele><time>2026-04-19T09:14:07Z</time></trkpt><trkpt lat="45.22491280009012" lon="7.78937113689577"><ele>213.0</ele><time>2026-04-19T09:14:08Z</time></trkpt><trkpt lat="45.22497814376566" lon="7.7892727764164515"><ele>213.0</ele><time>2026-04-19T09:14:09Z</time></trkpt><trkpt lat="45.22503830176465" lon="7.789147473413845"><ele>213.0</ele><time>2026-04-19T09:14:10Z</time></trkpt><trkpt lat="45.22510363043879" lon="7.789030979674796"><ele>213.0</ele><time>2026-04-19T09:14:11Z</time></trkpt><trkpt lat="45.22516073925887" lon="7.788926100985189"><ele>213.0</ele><time>2026-04-19T09:14:12Z</time></trkpt><trkpt lat="45.22519446039038" lon="7.7887970909798145"><ele>213.0</ele><time>2026-04-19T09:14:13Z</time></trkpt><trkpt lat="45.225201250110985" lon="7.788641979491173"><ele>213.0</ele><time>2026-04-19T09:14:14Z</time></trkpt><trkpt lat="45.22518091752329" lon="7.788462682840745"><ele>213.0</ele><time>2026-04-19T09:14:15Z</time></trkpt><trkpt lat="45.22516468151708" lon="7.788298789383313"><ele>213.0</ele><time>2026-04-19T09:14:16Z</time></trkpt><trkpt lat="45.22515291826397" lon="7.788162478836247"><ele>213.0</ele><time>2026-04-19T09:14:17Z</time></trkpt><trkpt lat="45.22514416816118" lon="7.788042863208083"><ele>213.0</ele><time>2026-04-19T09:14:18Z</time></trkpt><trkpt lat="45.22513320210128" lon="7.7879306177564365"><ele>213.0</ele><time>2026-04-19T09:14:19Z</time></trkpt><trkpt lat="45.22511989265379" lon="7.787808109430891"><ele>213.0</ele><time>2026-04-19T09:14:20Z</time></trkpt><trkpt lat="45.225107067862915" lon="7.787670434446377"><ele>213.0</ele><time>2026-04-19T09:14:21Z</time></trkpt><trkpt lat="45.22509279315045" lon="7.787520482096775"><ele>213.0</ele><time>2026-04-19T09:14:22Z</time></trkpt><trkpt lat="45.22507690214756" lon="7.787355312650524"><ele>213.0</ele><time>2026-04-19T09:14:23Z</time></trkpt><trkpt lat="45.22506818052741" lon="7.787209192944129"><ele>213.0</ele><time>2026-04-19T09:14:24Z</time></trkpt><trkpt lat="45.22506586872131" lon="7.787071606151863"><ele>213.0</ele><time>2026-04-19T09:14:25Z</time></trkpt><trkpt lat="45.22507578659224" lon="7.786938321011835"><ele>213.0</ele><time>2026-04-19T09:14:26Z</time></trkpt><trkpt lat="45.225102759793266" lon="7.7868239914328115"><ele>213.0</ele><time>2026-04-19T09:14:27Z</time></trkpt><trkpt lat="45.22516444865054" lon="7.7867445694265145"><ele>213.0</ele><time>2026-04-19T09:14:28Z</time></trkpt><trkpt lat="45.2252334386883" lon="7.786688015881477"><ele>213.0</ele><time>2026-04-19T09:14:29Z</time></trkpt><trkpt lat="45.22528538684698" lon="7.786595177546159"><ele>213.0</ele><time>2026-04-19T09:14:30.001Z</time></trkpt><trkpt lat="45.225391894441714" lon="7.786641197469983"><ele>213.0</ele><time>2026-04-19T09:14:31Z</time></trkpt><trkpt lat="45.225489679332334" lon="7.7866126979899635"><ele>213.0</ele><time>2026-04-19T09:14:32Z</time></trkpt><trkpt lat="45.22559575580789" lon="7.78658486507975"><ele>213.0</ele><time>2026-04-19T09:14:33Z</time></trkpt><trkpt lat="45.22569923023725" lon="7.78655771491755"><ele>213.0</ele><time>2026-04-19T09:14:34Z</time></trkpt><trkpt lat="45.22579450658462" lon="7.78647275005161"><ele>213.0</ele><time>2026-04-19T09:14:35Z</time></trkpt><trkpt lat="45.225894313106956" lon="7.78646284022218"><ele>213.0</ele><time>2026-04-19T09:14:36Z</time></trkpt><trkpt lat="45.225996714065715" lon="7.786472676639955"><ele>212.75</ele><time>2026-04-19T09:14:37Z</time></trkpt><trkpt lat="45.22610536127632" lon="7.786498569907572"><ele>212.5</ele><time>2026-04-19T09:14:38Z</time></trkpt><trkpt lat="45.22621519060889" lon="7.786519475511794"><ele>212.25</ele><time>2026-04-19T09:14:39Z</time></trkpt><trkpt lat="45.226321365911986" lon="7.78659954666115"><ele>212.0</ele><time>2026-04-19T09:14:40Z</time></trkpt><trkpt lat="45.22644833535554" lon="7.786644968399881"><ele>212.0</ele><time>2026-04-19T09:14:41Z</time></trkpt><trkpt lat="45.226576211640406" lon="7.7866984257942455"><ele>212.0</ele><time>2026-04-19T09:14:42Z</time></trkpt><trkpt lat="45.22670490838059" lon="7.7867603848417755"><ele>212.0</ele><time>2026-04-19T09:14:43Z</time></trkpt><trkpt lat="45.226843544592214" lon="7.786841109345773"><ele>212.0</ele><time>2026-04-19T09:14:44Z</time></trkpt><trkpt lat="45.226992262009595" lon="7.786910955919373"><ele>212.25</ele><time>2026-04-19T09:14:45Z</time></trkpt><trkpt lat="45.2271089002165" lon="7.787014535833182"><ele>212.5</ele><time>2026-04-19T09:14:46Z</time></trkpt><trkpt lat="45.22722435303755" lon="7.787074532289847"><ele>212.75</ele><time>2026-04-19T09:14:47Z</time></trkpt><trkpt lat="45.22733164319584" lon="7.787156090021461"><ele>213.0</ele><time>2026-04-19T09:14:48Z</time></trkpt><trkpt lat="45.227431715522805" lon="7.78725767987811"><ele>213.0</ele><time>2026-04-19T09:14:49Z</time></trkpt><trkpt lat="45.22754283917907" lon="7.787341461962456"><ele>213.0</ele><time>2026-04-19T09:14:50Z</time></trkpt><trkpt lat="45.22765645827855" lon="7.787426034040965"><ele>213.0</ele><time>2026-04-19T09:14:51Z</time></trkpt><trkpt lat="45.22777532989558" lon="7.7874879305181475"><ele>213.0</ele><time>2026-04-19T09:14:52Z</time></trkpt><trkpt lat="45.22788001525554" lon="7.787567595946977"><ele>213.0</ele><time>2026-04-19T09:14:53Z</time></trkpt><trkpt lat="45.22798378889412" lon="7.787648713395431"><ele>213.0</ele><time>2026-04-19T09:14:54Z</time></trkpt><trkpt lat="45.22809089365591" lon="7.787727685084926"><ele>213.0</ele><time>2026-04-19T09:14:55Z</time></trkpt><trkpt lat="45.22819501497366" lon="7.787812803596484"><ele>213.0</ele><time>2026-04-19T09:14:56Z</time></trkpt><trkpt lat="45.22829604646756" lon="7.787882440151387"><ele>213.0</ele><time>2026-04-19T09:14:57Z</time></trkpt><trkpt lat="45.22838220345656" lon="7.787950702032225"><ele>213.0</ele><time>2026-04-19T09:14:58Z</time></trkpt><trkpt lat="45.22846164932431" lon="7.788011587592885"><ele>213.0</ele><time>2026-04-19T09:14:59Z</time></trkpt><trkpt lat="45.22853799173148" lon="7.788070598449678"><ele>213.0</ele><time>2026-04-19T09:15:00Z</time></trkpt><trkpt lat="45.22861685407485" lon="7.788128565998235"><ele>213.0</ele><time>2026-04-19T09:15:01Z</time></trkpt><trkpt lat="45.22870670564678" lon="7.7881945872996905"><ele>213.0</ele><time>2026-04-19T09:15:02Z</time></trkpt><trkpt lat="45.2288005626479" lon="7.788262910404038"><ele>213.0</ele><time>2026-04-19T09:15:03Z</time></trkpt><trkpt lat="45.22890003983049" lon="7.788335096910152"><ele>213.0</ele><time>2026-04-19T09:15:04Z</time></trkpt><trkpt lat="45.2289981338997" lon="7.78840578655652"><ele>213.0</ele><time>2026-04-19T09:15:05Z</time></trkpt><trkpt lat="45.22909453120812" lon="7.788491751295685"><ele>213.0</ele><time>2026-04-19T09:15:06Z</time></trkpt><trkpt lat="45.22919278913882" lon="7.788566707478638"><ele>213.5</ele><time>2026-04-19T09:15:07Z</time></trkpt><trkpt lat="45.22929444879534" lon="7.788637817368121"><ele>214.0</ele><time>2026-04-19T09:15:08Z</time></trkpt><trkpt lat="45.22940000551299" lon="7.788710281800708"><ele>214.5</ele><time>2026-04-19T09:15:09Z</time></trkpt><trkpt lat="45.2295015435712" lon="7.788788798291455"><ele>215.0</ele><time>2026-04-19T09:15:10Z</time></trkpt><trkpt lat="45.229601951715445" lon="7.788869818167992"><ele>215.00000000000003</ele><time>2026-04-19T09:15:11Z</time></trkpt><trkpt lat="45.22969096543259" lon="7.788934199545806"><ele>215.0</ele><time>2026-04-19T09:15:12Z</time></trkpt><trkpt lat="45.22977172756951" lon="7.788990464247923"><ele>215.0</ele><time>2026-04-19T09:15:13Z</time></trkpt><trkpt lat="45.22984470844979" lon="7.789046170116316"><ele>215.0</ele><time>2026-04-19T09:15:14Z</time></trkpt><trkpt lat="45.22991592946046" lon="7.789098115652903"><ele>215.00000000000003</ele><time>2026-04-19T09:15:15Z</time></trkpt><trkpt lat="45.229997648228434" lon="7.789158977203007"><ele>215.0</ele><time>2026-04-19T09:15:16Z</time></trkpt><trkpt lat="45.2300886088625" lon="7.7892242700634515"><ele>215.0</ele><time>2026-04-19T09:15:17Z</time></trkpt><trkpt lat="45.23018222012803" lon="7.789294596516984"><ele>215.0</ele><time>2026-04-19T09:15:18Z</time></trkpt><trkpt lat="45.23027797245387" lon="7.7893684442054285"><ele>215.0</ele><time>2026-04-19T09:15:19Z</time></trkpt><trkpt lat="45.23038239249595" lon="7.7894514951669205"><ele>215.0</ele><time>2026-04-19T09:15:20Z</time></trkpt><trkpt lat="45.23049535104921" lon="7.789537235944348"><ele>215.0</ele><time>2026-04-19T09:15:21Z</time></trkpt><trkpt lat="45.230616162842864" lon="7.789620506457332"><ele>215.0</ele><time>2026-04-19T09:15:22Z</time></trkpt><trkpt lat="45.23074240556799" lon="7.78971751285951"><ele>215.0</ele><time>2026-04-19T09:15:23Z</time></trkpt><trkpt lat="45.23087007120943" lon="7.789832688889028"><ele>215.0</ele><time>2026-04-19T09:15:24Z</time></trkpt><trkpt lat="45.23099388675406" lon="7.78997044028382"><ele>215.0</ele><time>2026-04-19T09:15:25Z</time></trkpt><trkpt lat="45.23111080442772" lon="7.790136834506467"><ele>215.0</ele><time>2026-04-19T09:15:26Z</time></trkpt><trkpt lat="45.23122228824796" lon="7.790312395372801"><ele>215.0</ele><time>2026-04-19T09:15:27Z</time></trkpt><trkpt lat="45.23133343154789" lon="7.790492391047621"><ele>215.0</ele><time>2026-04-19T09:15:28Z</time></trkpt><trkpt lat="45.23144974835944" lon="7.790671202528958"><ele>215.0</ele><time>2026-04-19T09:15:29Z</time></trkpt><trkpt lat="45.231565680721225" lon="7.790843445410461"><ele>215.0</ele><time>2026-04-19T09:15:30Z</time></trkpt><trkpt lat="45.231684164920274" lon="7.791014577466322"><ele>215.0</ele><time>2026-04-19T09:15:31Z</time></trkpt><trkpt lat="45.23180188471848" lon="7.791189265759581"><ele>215.0</ele><time>2026-04-19T09:15:32Z</time></trkpt><trkpt lat="45.23192353172944" lon="7.791370376528802"><ele>215.0</ele><time>2026-04-19T09:15:33Z</time></trkpt><trkpt lat="45.23204612401737" lon="7.791554255034798"><ele>215.0</ele><time>2026-04-19T09:15:34Z</time></trkpt><trkpt lat="45.23217173060846" lon="7.7917421600471775"><ele>215.0</ele><time>2026-04-19T09:15:35Z</time></trkpt><trkpt lat="45.23230719184153" lon="7.7919360738505805"><ele>215.0</ele><time>2026-04-19T09:15:36Z</time></trkpt><trkpt lat="45.23244185019253" lon="7.792135778667672"><ele>214.66666666666669</ele><time>2026-04-19T09:15:37Z</time></trkpt><trkpt lat="45.23258053871996" lon="7.7923434079262845"><ele>214.33333333333331</ele><time>2026-04-19T09:15:38Z</time></trkpt><trkpt lat="45.23271540269755" lon="7.792543749752124"><ele>214.0</ele><time>2026-04-19T09:15:39Z</time></trkpt><trkpt lat="45.232852357330025" lon="7.792733884959806"><ele>214.0</ele><time>2026-04-19T09:15:40Z</time></trkpt><trkpt lat="45.23298581367491" lon="7.792917403190011"><ele>214.0</ele><time>2026-04-19T09:15:41Z</time></trkpt><trkpt lat="45.233117408865574" lon="7.793100985067322"><ele>214.0</ele><time>2026-04-19T09:15:42Z</time></trkpt><trkpt lat="45.23324687489742" lon="7.793289798942355"><ele>214.0</ele><time>2026-04-19T09:15:43Z</time></trkpt><trkpt lat="45.23337662434445" lon="7.793476574096366"><ele>214.0</ele><time>2026-04-19T09:15:44Z</time></trkpt><trkpt lat="45.233507257627274" lon="7.793659622588748"><ele>214.0</ele><time>2026-04-19T09:15:45Z</time></trkpt><trkpt lat="45.23363727879901" lon="7.793843563251779"><ele>213.66666666666666</ele><time>2026-04-19T09:15:46Z</time></trkpt><trkpt lat="45.233765942764464" lon="7.794025167122179"><ele>213.33333333333331</ele><time>2026-04-19T09:15:47Z</time></trkpt><trkpt lat="45.23389368027989" lon="7.794201842254709"><ele>213.0</ele><time>2026-04-19T09:15:48Z</time></trkpt><trkpt lat="45.23401911886837" lon="7.794374746051203"><ele>213.66666666666669</ele><time>2026-04-19T09:15:49Z</time></trkpt><trkpt lat="45.23413872013151" lon="7.7945409248544975"><ele>214.33333333333334</ele><time>2026-04-19T09:15:50Z</time></trkpt><trkpt lat="45.23426594690109" lon="7.7947003042387735"><ele>215.0</ele><time>2026-04-19T09:15:51Z</time></trkpt><trkpt lat="45.23441444843887" lon="7.794833723123521"><ele>215.0</ele><time>2026-04-19T09:15:52Z</time></trkpt><trkpt lat="45.23458600919304" lon="7.794946236748789"><ele>215.0</ele><time>2026-04-19T09:15:53Z</time></trkpt><trkpt lat="45.23478580309516" lon="7.795037293857655"><ele>215.0</ele><time>2026-04-19T09:15:54Z</time></trkpt><trkpt lat="45.23499174849596" lon="7.795145393699767"><ele>214.66666666666669</ele><time>2026-04-19T09:15:55Z</time></trkpt><trkpt lat="45.235194067246695" lon="7.795257687021059"><ele>214.33333333333331</ele><time>2026-04-19T09:15:56Z</time></trkpt><trkpt lat="45.235402249654186" lon="7.79536169595418"><ele>214.0</ele><time>2026-04-19T09:15:57Z</time></trkpt><trkpt lat="45.23560102276251" lon="7.795467416595838"><ele>213.66666666666666</ele><time>2026-04-19T09:15:58Z</time></trkpt><trkpt lat="45.23579700875659" lon="7.795585802698638"><ele>213.33333333333331</ele><time>2026-04-19T09:15:59Z</time></trkpt><trkpt lat="45.23599365952117" lon="7.795694511442037"><ele>213.0</ele><time>2026-04-19T09:16:00Z</time></trkpt><trkpt lat="45.236181608738704" lon="7.795799756802614"><ele>213.0</ele><time>2026-04-19T09:16:01Z</time></trkpt><trkpt lat="45.23635827870384" lon="7.795892592245566"><ele>213.0</ele><time>2026-04-19T09:16:02Z</time></trkpt><trkpt lat="45.23653755787795" lon="7.795984375690098"><ele>213.0</ele><time>2026-04-19T09:16:03Z</time></trkpt><trkpt lat="45.23671748281245" lon="7.796074506825133"><ele>213.33333333333331</ele><time>2026-04-19T09:16:04Z</time></trkpt><trkpt lat="45.236903595672544" lon="7.796172061410104"><ele>213.66666666666666</ele><time>2026-04-19T09:16:05Z</time></trkpt><trkpt lat="45.23709248237337" lon="7.79627318927352"><ele>214.0</ele><time>2026-04-19T09:16:06Z</time></trkpt><trkpt lat="45.237286132445476" lon="7.796371693690577"><ele>214.0</ele><time>2026-04-19T09:16:07Z</time></trkpt><trkpt lat="45.237478651126494" lon="7.796469262125712"><ele>214.0</ele><time>2026-04-19T09:16:08Z</time></trkpt><trkpt lat="45.23767372499947" lon="7.796575057646931"><ele>214.0</ele><time>2026-04-19T09:16:09Z</time></trkpt><trkpt lat="45.23786935818395" lon="7.79668922036499"><ele>214.0</ele><time>2026-04-19T09:16:10Z</time></trkpt><trkpt lat="45.23807172560309" lon="7.796789466183544"><ele>214.0</ele><time>2026-04-19T09:16:11Z</time></trkpt><trkpt lat="45.23827189800954" lon="7.796896404920709"><ele>214.0</ele><time>2026-04-19T09:16:12Z</time></trkpt><trkpt lat="45.23847132097994" lon="7.797014476619051"><ele>214.33333333333331</ele><time>2026-04-19T09:16:13Z</time></trkpt><trkpt lat="45.23867534763293" lon="7.797116868881348"><ele>214.66666666666669</ele><time>2026-04-19T09:16:14Z</time></trkpt><trkpt lat="45.23887960765204" lon="7.797216524440564"><ele>215.0</ele><time>2026-04-19T09:16:15Z</time></trkpt><trkpt lat="45.23907529942899" lon="7.797331663186747"><ele>215.0</ele><time>2026-04-19T09:16:16Z</time></trkpt><trkpt lat="45.23927642604473" lon="7.797453335563548"><ele>215.0</ele><time>2026-04-19T09:16:17Z</time></trkpt><trkpt lat="45.239484221701716" lon="7.797544210193903"><ele>215.0</ele><time>2026-04-19T09:16:18Z</time></trkpt><trkpt lat="45.239683945378296" lon="7.797651171423735"><ele>214.33333333333334</ele><time>2026-04-19T09:16:19Z</time></trkpt><trkpt lat="45.239883653620566" lon="7.797777520730878"><ele>213.66666666666669</ele><time>2026-04-19T09:16:20Z</time></trkpt><trkpt lat="45.24008693371009" lon="7.797882858652817"><ele>213.0</ele><time>2026-04-19T09:16:21Z</time></trkpt><trkpt lat="45.24029467780482" lon="7.797976577960485"><ele>213.0</ele><time>2026-04-19T09:16:22Z</time></trkpt><trkpt lat="45.240494557000865" lon="7.798095384674639"><ele>213.0</ele><time>2026-04-19T09:16:23Z</time></trkpt><trkpt lat="45.24069144282355" lon="7.798219185431535"><ele>213.0</ele><time>2026-04-19T09:16:24Z</time></trkpt><trkpt lat="45.240898659348254" lon="7.798319220104265"><ele>213.0</ele><time>2026-04-19T09:16:25Z</time></trkpt><trkpt lat="45.24110351456934" lon="7.798410865219492"><ele>213.0</ele><time>2026-04-19T09:16:26Z</time></trkpt><trkpt lat="45.24130384930636" lon="7.798529901306119"><ele>213.0</ele><time>2026-04-19T09:16:27Z</time></trkpt><trkpt lat="45.24150306930213" lon="7.798639038835681"><ele>214.66666666666669</ele><time>2026-04-19T09:16:28Z</time></trkpt><trkpt lat="45.2417077257086" lon="7.798733328334247"><ele>216.33333333333334</ele><time>2026-04-19T09:16:29Z</time></trkpt><trkpt lat="45.241904422332176" lon="7.798848654115696"><ele>218.0</ele><time>2026-04-19T09:16:30Z</time></trkpt><trkpt lat="45.24210087494181" lon="7.798961684151697"><ele>216.66666666666669</ele><time>2026-04-19T09:16:31Z</time></trkpt><trkpt lat="45.24230088781683" lon="7.799060147396483"><ele>215.33333333333331</ele><time>2026-04-19T09:16:32Z</time></trkpt><trkpt lat="45.242482411097114" lon="7.799161657671714"><ele>214.0</ele><time>2026-04-19T09:16:33Z</time></trkpt><trkpt lat="45.24266859074842" lon="7.799286029506361"><ele>214.33333333333331</ele><time>2026-04-19T09:16:34Z</time></trkpt><trkpt lat="45.24285430016259" lon="7.799398540671037"><ele>214.66666666666669</ele><time>2026-04-19T09:16:35Z</time></trkpt><trkpt lat="45.24302687697123" lon="7.799536163870177"><ele>215.0</ele><time>2026-04-19T09:16:36Z</time></trkpt><trkpt lat="45.24319346067727" lon="7.7996978193673945"><ele>215.0</ele><time>2026-04-19T09:16:37Z</time></trkpt><trkpt lat="45.243358035274355" lon="7.799862515899898"><ele>215.0</ele><time>2026-04-19T09:16:38Z</time></trkpt><trkpt lat="45.243520860499295" lon="7.800027760398803"><ele>215.0</ele><time>2026-04-19T09:16:39Z</time></trkpt><trkpt lat="45.2436756907589" lon="7.8002184718231575"><ele>215.0</ele><time>2026-04-19T09:16:40Z</time></trkpt><trkpt lat="45.24381447853752" lon="7.800429841334501"><ele>215.0</ele><time>2026-04-19T09:16:41Z</time></trkpt><trkpt lat="45.243946284456655" lon="7.80064836133394"><ele>215.0</ele><time>2026-04-19T09:16:42Z</time></trkpt><trkpt lat="45.24406151030009" lon="7.800880424403251"><ele>215.33333333333334</ele><time>2026-04-19T09:16:43Z</time></trkpt><trkpt lat="45.24418294873309" lon="7.801108516685377"><ele>215.66666666666669</ele><time>2026-04-19T09:16:44Z</time></trkpt><trkpt lat="45.244298854468106" lon="7.801336011457803"><ele>216.0</ele><time>2026-04-19T09:16:45Z</time></trkpt><trkpt lat="45.24441339615599" lon="7.801573865755515"><ele>216.0</ele><time>2026-04-19T09:16:46Z</time></trkpt><trkpt lat="45.24453451687997" lon="7.801801640945072"><ele>216.0</ele><time>2026-04-19T09:16:47Z</time></trkpt><trkpt lat="45.24465238868236" lon="7.802041836492771"><ele>216.0</ele><time>2026-04-19T09:16:48Z</time></trkpt><trkpt lat="45.244770554301276" lon="7.802275850481744"><ele>216.0</ele><time>2026-04-19T09:16:49Z</time></trkpt><trkpt lat="45.24488523080749" lon="7.80251392708617"><ele>216.0</ele><time>2026-04-19T09:16:50Z</time></trkpt><trkpt lat="45.24500162074709" lon="7.8027526624103105"><ele>216.0</ele><time>2026-04-19T09:16:51Z</time></trkpt><trkpt lat="45.24513293725356" lon="7.802981576899276"><ele>216.0</ele><time>2026-04-19T09:16:52Z</time></trkpt><trkpt lat="45.2452465061782" lon="7.803227953580523"><ele>216.0</ele><time>2026-04-19T09:16:53Z</time></trkpt><trkpt lat="45.245366575479466" lon="7.803467604689396"><ele>216.0</ele><time>2026-04-19T09:16:54Z</time></trkpt><trkpt lat="45.24548996816624" lon="7.803703621165922"><ele>216.66666666666669</ele><time>2026-04-19T09:16:55Z</time></trkpt><trkpt lat="45.245608189299816" lon="7.803943930369672"><ele>217.33333333333334</ele><time>2026-04-19T09:16:56Z</time></trkpt><trkpt lat="45.245722678723865" lon="7.804183173858128"><ele>218.0</ele><time>2026-04-19T09:16:57Z</time></trkpt><trkpt lat="45.245841073676985" lon="7.804419259443833"><ele>218.0</ele><time>2026-04-19T09:16:58Z</time></trkpt><trkpt lat="45.245960618191916" lon="7.804655070863999"><ele>218.0</ele><time>2026-04-19T09:16:59Z</time></trkpt><trkpt lat="45.2460787634621" lon="7.804891573791454"><ele>218.0</ele><time>2026-04-19T09:17:00Z</time></trkpt><trkpt lat="45.24619716076252" lon="7.805129650396761"><ele>217.66666666666669</ele><time>2026-04-19T09:17:01Z</time></trkpt><trkpt lat="45.24631488808657" lon="7.805361890886769"><ele>217.33333333333331</ele><time>2026-04-19T09:17:02Z</time></trkpt><trkpt lat="45.24642887892368" lon="7.805584827854463"><ele>217.0</ele><time>2026-04-19T09:17:03Z</time></trkpt><trkpt lat="45.24653878222853" lon="7.805805316896081"><ele>215.0</ele><time>2026-04-19T09:17:04Z</time></trkpt><trkpt lat="45.24664744187172" lon="7.806018834700297"><ele>213.0</ele><time>2026-04-19T09:17:05Z</time></trkpt><trkpt lat="45.24675407003375" lon="7.806237743068395"><ele>211.0</ele><time>2026-04-19T09:17:06Z</time></trkpt><trkpt lat="45.24685727881893" lon="7.806451149356037"><ele>211.0</ele><time>2026-04-19T09:17:07Z</time></trkpt><trkpt lat="45.24696000079686" lon="7.8066528434283535"><ele>211.0</ele><time>2026-04-19T09:17:08Z</time></trkpt><trkpt lat="45.24705920144886" lon="7.806853636673273"><ele>211.0</ele><time>2026-04-19T09:17:09Z</time></trkpt><trkpt lat="45.24715012755956" lon="7.807056789158028"><ele>211.33333333333331</ele><time>2026-04-19T09:17:10Z</time></trkpt><trkpt lat="45.24725117827405" lon="7.807270485326216"><ele>211.66666666666669</ele><time>2026-04-19T09:17:11Z</time></trkpt><trkpt lat="45.247359504399114" lon="7.807480789554075"><ele>212.0</ele><time>2026-04-19T09:17:12Z</time></trkpt><trkpt lat="45.247471941994554" lon="7.807687311790902"><ele>214.33333333333334</ele><time>2026-04-19T09:17:13Z</time></trkpt><trkpt lat="45.247582527967324" lon="7.807893476215624"><ele>216.66666666666669</ele><time>2026-04-19T09:17:14Z</time></trkpt><trkpt lat="45.24768833948909" lon="7.8080971117215405"><ele>219.0</ele><time>2026-04-19T09:17:15Z</time></trkpt><trkpt lat="45.24779155746591" lon="7.808300834408374"><ele>219.0</ele><time>2026-04-19T09:17:16Z</time></trkpt><trkpt lat="45.24789187615697" lon="7.80848831760107"><ele>219.0</ele><time>2026-04-19T09:17:17Z</time></trkpt><trkpt lat="45.24800302557445" lon="7.808664362029532"><ele>219.0</ele><time>2026-04-19T09:17:18Z</time></trkpt><trkpt lat="45.24811745161412" lon="7.808831842849832"><ele>219.0</ele><time>2026-04-19T09:17:19Z</time></trkpt><trkpt lat="45.24824468238186" lon="7.808980589835286"><ele>219.0</ele><time>2026-04-19T09:17:20Z</time></trkpt><trkpt lat="45.24838151917182" lon="7.80911091360576"><ele>219.0</ele><time>2026-04-19T09:17:21Z</time></trkpt><trkpt lat="45.24851879388517" lon="7.809235167147561"><ele>218.0</ele><time>2026-04-19T09:17:22Z</time></trkpt><trkpt lat="45.24865857298379" lon="7.809337403746141"><ele>217.0</ele><time>2026-04-19T09:17:23Z</time></trkpt><trkpt lat="45.248800460571736" lon="7.809433301127603"><ele>216.0</ele><time>2026-04-19T09:17:24Z</time></trkpt><trkpt lat="45.248942878201944" lon="7.809510045856718"><ele>216.20000000000002</ele><time>2026-04-19T09:17:25Z</time></trkpt><trkpt lat="45.24906534967281" lon="7.809581938231025"><ele>216.40000000000003</ele><time>2026-04-19T09:17:26Z</time></trkpt><trkpt lat="45.24917113361764" lon="7.809636303574992"><ele>216.6</ele><time>2026-04-19T09:17:27Z</time></trkpt><trkpt lat="45.24925999502619" lon="7.809667129373202"><ele>216.8</ele><time>2026-04-19T09:17:28Z</time></trkpt><trkpt lat="45.24930909934744" lon="7.809737851157288"><ele>217.0</ele><time>2026-04-19T09:17:29Z</time></trkpt><trkpt lat="45.249329753432235" lon="7.809838914353574"><ele>217.0</ele><time>2026-04-19T09:17:30Z</time></trkpt><trkpt lat="45.24932604017671" lon="7.8099618239863755"><ele>217.0</ele><time>2026-04-19T09:17:31Z</time></trkpt><trkpt lat="45.24931693472845" lon="7.810109548114777"><ele>217.0</ele><time>2026-04-19T09:17:32Z</time></trkpt><trkpt lat="45.24930938690097" lon="7.810279562900705"><ele>217.0</ele><time>2026-04-19T09:17:33Z</time></trkpt><trkpt lat="45.249304922417664" lon="7.8104719371608065"><ele>217.0</ele><time>2026-04-19T09:17:34Z</time></trkpt><trkpt lat="45.24929762023253" lon="7.810683864325534"><ele>217.33333333333331</ele><time>2026-04-19T09:17:35Z</time></trkpt><trkpt lat="45.24928878931653" lon="7.810910402992806"><ele>217.66666666666669</ele><time>2026-04-19T09:17:36Z</time></trkpt><trkpt lat="45.249280741532" lon="7.811149244579175"><ele>218.0</ele><time>2026-04-19T09:17:37Z</time></trkpt><trkpt lat="45.249272140549046" lon="7.811395792110612"><ele>218.33333333333334</ele><time>2026-04-19T09:17:38Z</time></trkpt><trkpt lat="45.24926555408941" lon="7.811661705966878"><ele>218.66666666666669</ele><time>2026-04-19T09:17:39Z</time></trkpt><trkpt lat="45.24925283651447" lon="7.811936330058459"><ele>219.0</ele><time>2026-04-19T09:17:40Z</time></trkpt><trkpt lat="45.24924091641809" lon="7.812204354994153"><ele>219.0</ele><time>2026-04-19T09:17:41Z</time></trkpt><trkpt lat="45.24923830011599" lon="7.812481240047995"><ele>219.0</ele><time>2026-04-19T09:17:42Z</time></trkpt><trkpt lat="45.24922921420161" lon="7.8127621537063545"><ele>219.0</ele><time>2026-04-19T09:17:43Z</time></trkpt><trkpt lat="45.24921765874817" lon="7.813031939592817"><ele>218.66666666666669</ele><time>2026-04-19T09:17:44Z</time></trkpt><trkpt lat="45.249210790477704" lon="7.813293795126435"><ele>218.33333333333334</ele><time>2026-04-19T09:17:45Z</time></trkpt><trkpt lat="45.24920012987477" lon="7.813551705799098"><ele>218.0</ele><time>2026-04-19T09:17:46Z</time></trkpt><trkpt lat="45.24918964187615" lon="7.8138024765193705"><ele>218.33333333333334</ele><time>2026-04-19T09:17:47Z</time></trkpt><trkpt lat="45.24918046454132" lon="7.814044168129349"><ele>218.66666666666669</ele><time>2026-04-19T09:17:48Z</time></trkpt><trkpt lat="45.24918170907478" lon="7.814321920465677"><ele>219.0</ele><time>2026-04-19T09:17:49Z</time></trkpt><trkpt lat="45.249175560368954" lon="7.814566355566251"><ele>219.0</ele><time>2026-04-19T09:17:50Z</time></trkpt><trkpt lat="45.24916733798862" lon="7.814808377384989"><ele>219.0</ele><time>2026-04-19T09:17:51Z</time></trkpt><trkpt lat="45.24916049871385" lon="7.8150547977709905"><ele>219.0</ele><time>2026-04-19T09:17:52Z</time></trkpt><trkpt lat="45.249155888402285" lon="7.8153022610974086"><ele>218.33333333333331</ele><time>2026-04-19T09:17:53Z</time></trkpt><trkpt lat="45.24915140484404" lon="7.81555227536627"><ele>217.66666666666666</ele><time>2026-04-19T09:17:54Z</time></trkpt><trkpt lat="45.24914399868926" lon="7.815804589178624"><ele>217.0</ele><time>2026-04-19T09:17:55Z</time></trkpt><trkpt lat="45.249135474260804" lon="7.816057614146028"><ele>217.0</ele><time>2026-04-19T09:17:56Z</time></trkpt><trkpt lat="45.24912769903216" lon="7.8163132493218"><ele>217.0</ele><time>2026-04-19T09:17:57Z</time></trkpt><trkpt lat="45.24912382839087" lon="7.816570636927967"><ele>217.0</ele><time>2026-04-19T09:17:58Z</time></trkpt><trkpt lat="45.249116460936946" lon="7.816829182159407"><ele>216.66666666666666</ele><time>2026-04-19T09:17:59Z</time></trkpt><trkpt lat="45.249110431542356" lon="7.817084781890283"><ele>216.33333333333331</ele><time>2026-04-19T09:18:00Z</time></trkpt><trkpt lat="45.24910533324779" lon="7.8173356769691145"><ele>216.0</ele><time>2026-04-19T09:18:01Z</time></trkpt><trkpt lat="45.24909883470464" lon="7.817582330235094"><ele>216.0</ele><time>2026-04-19T09:18:02Z</time></trkpt><trkpt lat="45.24907690393702" lon="7.817828609068118"><ele>216.0</ele><time>2026-04-19T09:18:03Z</time></trkpt><trkpt lat="45.24906982530203" lon="7.818078643986237"><ele>216.0</ele><time>2026-04-19T09:18:04Z</time></trkpt><trkpt lat="45.24906276749237" lon="7.818327943289526"><ele>216.33333333333331</ele><time>2026-04-19T09:18:05Z</time></trkpt><trkpt lat="45.24905557870134" lon="7.818581869180058"><ele>216.66666666666666</ele><time>2026-04-19T09:18:06Z</time></trkpt><trkpt lat="45.249048175747255" lon="7.8188433598534495"><ele>217.0</ele><time>2026-04-19T09:18:07Z</time></trkpt><trkpt lat="45.24905647889942" lon="7.819116011321797"><ele>216.66666666666666</ele><time>2026-04-19T09:18:08Z</time></trkpt><trkpt lat="45.24903251114976" lon="7.819396672187236"><ele>216.33333333333331</ele><time>2026-04-19T09:18:09Z</time></trkpt><trkpt lat="45.2490243891178" lon="7.819683682940918"><ele>216.0</ele><time>2026-04-19T09:18:10Z</time></trkpt><trkpt lat="45.24901608503561" lon="7.819979094937856"><ele>215.66666666666669</ele><time>2026-04-19T09:18:11Z</time></trkpt><trkpt lat="45.24900741515222" lon="7.820287520037061"><ele>215.33333333333334</ele><time>2026-04-19T09:18:12Z</time></trkpt><trkpt lat="45.24899840882186" lon="7.820607913990679"><ele>215.0</ele><time>2026-04-19T09:18:13Z</time></trkpt><trkpt lat="45.24900326530869" lon="7.820933670447462"><ele>215.5</ele><time>2026-04-19T09:18:14Z</time></trkpt><trkpt lat="45.24898773544614" lon="7.821259613175807"><ele>216.0</ele><time>2026-04-19T09:18:15Z</time></trkpt><trkpt lat="45.24897604776454" lon="7.821596562648055"><ele>217.0</ele><time>2026-04-19T09:18:16Z</time></trkpt><trkpt lat="45.248966506242134" lon="7.821928968390532"><ele>218.0</ele><time>2026-04-19T09:18:17Z</time></trkpt><trkpt lat="45.24895677844387" lon="7.822261643255467"><ele>218.0</ele><time>2026-04-19T09:18:18Z</time></trkpt><trkpt lat="45.24895017071881" lon="7.822587707841082"><ele>218.0</ele><time>2026-04-19T09:18:19Z</time></trkpt><trkpt lat="45.248943868276" lon="7.822913450019018"><ele>218.0</ele><time>2026-04-19T09:18:20Z</time></trkpt><trkpt lat="45.248935775437914" lon="7.823247183113999"><ele>218.0</ele><time>2026-04-19T09:18:21Z</time></trkpt><trkpt lat="45.24892478431234" lon="7.823586847669104"><ele>217.5</ele><time>2026-04-19T09:18:22Z</time></trkpt><trkpt lat="45.24891388075542" lon="7.823929246208905"><ele>217.0</ele><time>2026-04-19T09:18:23Z</time></trkpt><trkpt lat="45.248905539931144" lon="7.824271418437892"><ele>217.0</ele><time>2026-04-19T09:18:24Z</time></trkpt><trkpt lat="45.248897891483786" lon="7.8246173296204065"><ele>217.0</ele><time>2026-04-19T09:18:25Z</time></trkpt><trkpt lat="45.248885454602544" lon="7.824972357275579"><ele>216.0</ele><time>2026-04-19T09:18:26Z</time></trkpt><trkpt lat="45.248875448335305" lon="7.825329200271052"><ele>215.0</ele><time>2026-04-19T09:18:27Z</time></trkpt><trkpt lat="45.24886618440708" lon="7.825668203495369"><ele>216.0</ele><time>2026-04-19T09:18:28Z</time></trkpt><trkpt lat="45.24885742609935" lon="7.825997190076405"><ele>217.0</ele><time>2026-04-19T09:18:29Z</time></trkpt><trkpt lat="45.24884757323835" lon="7.826341276739657"><ele>217.0</ele><time>2026-04-19T09:18:30Z</time></trkpt><trkpt lat="45.24883623623223" lon="7.826676730486379"><ele>217.0</ele><time>2026-04-19T09:18:31Z</time></trkpt><trkpt lat="45.24882669889588" lon="7.827021415643414"><ele>217.5</ele><time>2026-04-19T09:18:32Z</time></trkpt><trkpt lat="45.24882120594909" lon="7.827363011261577"><ele>218.0</ele><time>2026-04-19T09:18:33Z</time></trkpt><trkpt lat="45.248806875330644" lon="7.82770983410231"><ele>218.0</ele><time>2026-04-19T09:18:34Z</time></trkpt><trkpt lat="45.24879007389495" lon="7.828064495871981"><ele>218.0</ele><time>2026-04-19T09:18:35Z</time></trkpt><trkpt lat="45.248781599268625" lon="7.8284226428177455"><ele>217.5</ele><time>2026-04-19T09:18:36Z</time></trkpt><trkpt lat="45.248777908950196" lon="7.8287664594411766"><ele>217.0</ele><time>2026-04-19T09:18:37Z</time></trkpt><trkpt lat="45.24877126480352" lon="7.829110797460952"><ele>218.0</ele><time>2026-04-19T09:18:38Z</time></trkpt><trkpt lat="45.24876079868086" lon="7.829456439537685"><ele>219.0</ele><time>2026-04-19T09:18:39Z</time></trkpt><trkpt lat="45.248752521151715" lon="7.82980025940336"><ele>218.5</ele><time>2026-04-19T09:18:40Z</time></trkpt><trkpt lat="45.2487462846024" lon="7.830142247538254"><ele>218.0</ele><time>2026-04-19T09:18:41Z</time></trkpt><trkpt lat="45.24873762220517" lon="7.8304876898778675"><ele>218.0</ele><time>2026-04-19T09:18:42Z</time></trkpt><trkpt lat="45.24871258848938" lon="7.830845912301949"><ele>218.0</ele><time>2026-04-19T09:18:43Z</time></trkpt><trkpt lat="45.24870481066487" lon="7.831186173697355"><ele>217.5</ele><time>2026-04-19T09:18:44Z</time></trkpt><trkpt lat="45.24869447224428" lon="7.831528891679699"><ele>217.0</ele><time>2026-04-19T09:18:45Z</time></trkpt><trkpt lat="45.24868636164725" lon="7.831880338659763"><ele>217.0</ele><time>2026-04-19T09:18:46Z</time></trkpt><trkpt lat="45.24867945209766" lon="7.832231980413749"><ele>217.0</ele><time>2026-04-19T09:18:47Z</time></trkpt><trkpt lat="45.248670278075465" lon="7.832579401964022"><ele>217.5</ele><time>2026-04-19T09:18:48Z</time></trkpt><trkpt lat="45.24866063484769" lon="7.832927609762352"><ele>218.0</ele><time>2026-04-19T09:18:49Z</time></trkpt><trkpt lat="45.248651189145896" lon="7.83327808640311"><ele>217.5</ele><time>2026-04-19T09:18:50Z</time></trkpt><trkpt lat="45.248642702677984" lon="7.8336231928796085"><ele>217.0</ele><time>2026-04-19T09:18:51Z</time></trkpt><trkpt lat="45.24863106625429" lon="7.833969048614491"><ele>217.5</ele><time>2026-04-19T09:18:52Z</time></trkpt><trkpt lat="45.248622448918034" lon="7.834315626922519"><ele>218.0</ele><time>2026-04-19T09:18:53Z</time></trkpt><trkpt lat="45.248614675801974" lon="7.834663772898047"><ele>218.0</ele><time>2026-04-19T09:18:54Z</time></trkpt><trkpt lat="45.24860200383192" lon="7.835007121434777"><ele>218.0</ele><time>2026-04-19T09:18:55Z</time></trkpt><trkpt lat="45.24859374155512" lon="7.835354402473022"><ele>218.0</ele><time>2026-04-19T09:18:56Z</time></trkpt><trkpt lat="45.24858057202235" lon="7.835699020992139"><ele>218.0</ele><time>2026-04-19T09:18:57Z</time></trkpt><trkpt lat="45.24856981593976" lon="7.836043115231113"><ele>217.0</ele><time>2026-04-19T09:18:58Z</time></trkpt><trkpt lat="45.24855997298506" lon="7.836395129180566"><ele>216.0</ele><time>2026-04-19T09:18:59Z</time></trkpt><trkpt lat="45.24855037141534" lon="7.836742876823678"><ele>215.5</ele><time>2026-04-19T09:19:00Z</time></trkpt><trkpt lat="45.248541808738096" lon="7.837085753431506"><ele>215.0</ele><time>2026-04-19T09:19:01Z</time></trkpt><trkpt lat="45.248534126610146" lon="7.837430554033584"><ele>214.0</ele><time>2026-04-19T09:19:02Z</time></trkpt><trkpt lat="45.2485222960411" lon="7.837765797344263"><ele>213.0</ele><time>2026-04-19T09:19:03Z</time></trkpt><trkpt lat="45.2485131430148" lon="7.83807239161168"><ele>213.0</ele><time>2026-04-19T09:19:04Z</time></trkpt><trkpt lat="45.2485097763637" lon="7.838365586510151"><ele>213.0</ele><time>2026-04-19T09:19:05Z</time></trkpt><trkpt lat="45.24850682152839" lon="7.838653927851898"><ele>213.0</ele><time>2026-04-19T09:19:06Z</time></trkpt><trkpt lat="45.24850144044662" lon="7.838930304958451"><ele>214.0</ele><time>2026-04-19T09:19:07Z</time></trkpt><trkpt lat="45.24849594491098" lon="7.839180528722962"><ele>215.0</ele><time>2026-04-19T09:19:08Z</time></trkpt><trkpt lat="45.24848273121545" lon="7.8394212314314915"><ele>216.0</ele><time>2026-04-19T09:19:09Z</time></trkpt><trkpt lat="45.24847282858993" lon="7.839641099879583"><ele>216.5</ele><time>2026-04-19T09:19:10Z</time></trkpt><trkpt lat="45.24846574888994" lon="7.839842710107933"><ele>217.0</ele><time>2026-04-19T09:19:11Z</time></trkpt><trkpt lat="45.248461319916395" lon="7.84004081981882"><ele>217.5</ele><time>2026-04-19T09:19:12Z</time></trkpt><trkpt lat="45.24846206952378" lon="7.840159441472775"><ele>218.0</ele><time>2026-04-19T09:19:13Z</time></trkpt><trkpt lat="45.24844965446939" lon="7.840297700266779"><ele>217.2</ele><time>2026-04-19T09:19:15Z</time></trkpt><trkpt lat="45.24836593446868" lon="7.840411476820367"><ele>216.4</ele><time>2026-04-19T09:19:17Z</time></trkpt><trkpt lat="45.24828944058773" lon="7.8404661769783885"><ele>215.59999999999997</ele><time>2026-04-19T09:19:18Z</time></trkpt><trkpt lat="45.24818848601774" lon="7.840532031016644"><ele>214.79999999999998</ele><time>2026-04-19T09:19:19Z</time></trkpt><trkpt lat="45.248085701333665" lon="7.84062553847304"><ele>214.0</ele><time>2026-04-19T09:19:20Z</time></trkpt><trkpt lat="45.247972950794605" lon="7.840735154358349"><ele>214.0</ele><time>2026-04-19T09:19:21Z</time></trkpt><trkpt lat="45.247840510771596" lon="7.8408549294200105"><ele>214.0</ele><time>2026-04-19T09:19:22Z</time></trkpt><trkpt lat="45.247698851693215" lon="7.840987303662452"><ele>214.0</ele><time>2026-04-19T09:19:23Z</time></trkpt><trkpt lat="45.247553406008215" lon="7.841128042372065"><ele>214.33333333333331</ele><time>2026-04-19T09:19:24Z</time></trkpt><trkpt lat="45.24740539597074" lon="7.841264386857173"><ele>214.66666666666669</ele><time>2026-04-19T09:19:25Z</time></trkpt><trkpt lat="45.24726000848685" lon="7.841404455279967"><ele>215.0</ele><time>2026-04-19T09:19:26Z</time></trkpt><trkpt lat="45.24710824943321" lon="7.841546842302517"><ele>215.0</ele><time>2026-04-19T09:19:27Z</time></trkpt><trkpt lat="45.24695011343278" lon="7.841698614534785"><ele>215.0</ele><time>2026-04-19T09:19:28Z</time></trkpt><trkpt lat="45.246786362446045" lon="7.8418581023742275"><ele>215.0</ele><time>2026-04-19T09:19:29Z</time></trkpt><trkpt lat="45.2466232129935" lon="7.842019648872052"><ele>215.0</ele><time>2026-04-19T09:19:30Z</time></trkpt><trkpt lat="45.24645859043583" lon="7.842180997082964"><ele>215.0</ele><time>2026-04-19T09:19:31Z</time></trkpt><trkpt lat="45.246296320743824" lon="7.842331596013673"><ele>215.0</ele><time>2026-04-19T09:19:32Z</time></trkpt><trkpt lat="45.24613906357393" lon="7.842476195237426"><ele>215.0</ele><time>2026-04-19T09:19:33Z</time></trkpt><trkpt lat="45.24599823158635" lon="7.842628473223237"><ele>215.0</ele><time>2026-04-19T09:19:34Z</time></trkpt><trkpt lat="45.24585779171812" lon="7.842762726489036"><ele>215.0</ele><time>2026-04-19T09:19:35Z</time></trkpt><trkpt lat="45.24571031860797" lon="7.8429048370841175"><ele>215.0</ele><time>2026-04-19T09:19:36Z</time></trkpt><trkpt lat="45.24555537845742" lon="7.843053896379574"><ele>215.0</ele><time>2026-04-19T09:19:37Z</time></trkpt><trkpt lat="45.24539554664461" lon="7.843208316028196"><ele>215.0</ele><time>2026-04-19T09:19:38Z</time></trkpt><trkpt lat="45.245229272099756" lon="7.843370964344913"><ele>215.0</ele><time>2026-04-19T09:19:39Z</time></trkpt><trkpt lat="45.245062919997615" lon="7.8435334029642"><ele>215.0</ele><time>2026-04-19T09:19:40Z</time></trkpt><trkpt lat="45.244896471496666" lon="7.843685470602298"><ele>215.0</ele><time>2026-04-19T09:19:41Z</time></trkpt><trkpt lat="45.244728914589004" lon="7.843838157659265"><ele>215.0</ele><time>2026-04-19T09:19:42Z</time></trkpt><trkpt lat="45.244559536937594" lon="7.843994521843897"><ele>215.0</ele><time>2026-04-19T09:19:43Z</time></trkpt><trkpt lat="45.24439885176961" lon="7.844142799285059"><ele>215.0</ele><time>2026-04-19T09:19:44Z</time></trkpt><trkpt lat="45.244251649014394" lon="7.8442798996274306"><ele>215.25</ele><time>2026-04-19T09:19:45Z</time></trkpt><trkpt lat="45.24412277458662" lon="7.844398097748587"><ele>215.5</ele><time>2026-04-19T09:19:46Z</time></trkpt><trkpt lat="45.24399723626378" lon="7.84451418091701"><ele>215.75</ele><time>2026-04-19T09:19:47Z</time></trkpt><trkpt lat="45.24388894080032" lon="7.844611746682736"><ele>216.0</ele><time>2026-04-19T09:19:48Z</time></trkpt><trkpt lat="45.24379012618903" lon="7.844712201644899"><ele>216.0</ele><time>2026-04-19T09:19:49Z</time></trkpt><trkpt lat="45.24373244709888" lon="7.8448234532894"><ele>216.0</ele><time>2026-04-19T09:19:50Z</time></trkpt><trkpt lat="45.24371678139111" lon="7.844962984731212"><ele>216.0</ele><time>2026-04-19T09:19:51Z</time></trkpt><trkpt lat="45.24372710219137" lon="7.845148873282164"><ele>216.0</ele><time>2026-04-19T09:19:52Z</time></trkpt><trkpt lat="45.24373577745866" lon="7.845323701180205"><ele>218.0</ele><time>2026-04-19T09:19:53Z</time></trkpt><trkpt lat="45.24370724441532" lon="7.845519403705299"><ele>220.0</ele><time>2026-04-19T09:19:54Z</time></trkpt><trkpt lat="45.24366656834025" lon="7.8457377874934"><ele>222.0</ele><time>2026-04-19T09:19:55Z</time></trkpt><trkpt lat="45.24359287093273" lon="7.845969179582756"><ele>222.33333333333331</ele><time>2026-04-19T09:19:56Z</time></trkpt><trkpt lat="45.24354937888895" lon="7.84621117756179"><ele>222.66666666666666</ele><time>2026-04-19T09:19:57Z</time></trkpt><trkpt lat="45.24352560345886" lon="7.8464720091707"><ele>223.0</ele><time>2026-04-19T09:19:58Z</time></trkpt><trkpt lat="45.243518124559294" lon="7.846746127907729"><ele>223.0</ele><time>2026-04-19T09:19:59Z</time></trkpt><trkpt lat="45.243518585799244" lon="7.84703578188011"><ele>223.0</ele><time>2026-04-19T09:20:00Z</time></trkpt><trkpt lat="45.243527125509694" lon="7.8473320680253815"><ele>223.0</ele><time>2026-04-19T09:20:01Z</time></trkpt><trkpt lat="45.24353686627114" lon="7.8476423465577625"><ele>222.66666666666666</ele><time>2026-04-19T09:20:02Z</time></trkpt><trkpt lat="45.24354485236196" lon="7.847949794568587"><ele>222.33333333333331</ele><time>2026-04-19T09:20:03Z</time></trkpt><trkpt lat="45.24351217805219" lon="7.848260004492297"><ele>222.0</ele><time>2026-04-19T09:20:04Z</time></trkpt><trkpt lat="45.243518587623115" lon="7.848574595040414"><ele>222.0</ele><time>2026-04-19T09:20:05Z</time></trkpt><trkpt lat="45.243524263098664" lon="7.84889919487194"><ele>222.0</ele><time>2026-04-19T09:20:06Z</time></trkpt><trkpt lat="45.243526954388166" lon="7.8492332568409315"><ele>224.0</ele><time>2026-04-19T09:20:07Z</time></trkpt><trkpt lat="45.24352644847834" lon="7.849577379850173"><ele>226.0</ele><time>2026-04-19T09:20:08Z</time></trkpt><trkpt lat="45.24352288588955" lon="7.8499282176009055"><ele>227.0</ele><time>2026-04-19T09:20:09Z</time></trkpt><trkpt lat="45.24352971625015" lon="7.85027304089037"><ele>228.0</ele><time>2026-04-19T09:20:10Z</time></trkpt><trkpt lat="45.243521800693955" lon="7.8505980398202135"><ele>228.0</ele><time>2026-04-19T09:20:11Z</time></trkpt><trkpt lat="45.243493807612076" lon="7.850911727156877"><ele>228.0</ele><time>2026-04-19T09:20:12Z</time></trkpt><trkpt lat="45.24349298446317" lon="7.8512251906089325"><ele>228.0</ele><time>2026-04-19T09:20:13Z</time></trkpt><trkpt lat="45.24347087684164" lon="7.851543143784072"><ele>227.33333333333331</ele><time>2026-04-19T09:20:14Z</time></trkpt><trkpt lat="45.24344969258405" lon="7.851864565734945"><ele>226.66666666666666</ele><time>2026-04-19T09:20:15Z</time></trkpt><trkpt lat="45.24342427760939" lon="7.852177679629192"><ele>226.0</ele><time>2026-04-19T09:20:16Z</time></trkpt><trkpt lat="45.24339243265022" lon="7.852489491424308"><ele>225.0</ele><time>2026-04-19T09:20:17Z</time></trkpt><trkpt lat="45.24335766465529" lon="7.852793618354326"><ele>224.0</ele><time>2026-04-19T09:20:18Z</time></trkpt><trkpt lat="45.24332394559445" lon="7.853077908965328"><ele>223.0</ele><time>2026-04-19T09:20:19Z</time></trkpt><trkpt lat="45.24328884131074" lon="7.8533212244698385"><ele>223.0</ele><time>2026-04-19T09:20:20Z</time></trkpt><trkpt lat="45.24325470566441" lon="7.853542498008967"><ele>223.0</ele><time>2026-04-19T09:20:21Z</time></trkpt><trkpt lat="45.24322538549555" lon="7.853726335291728"><ele>223.0</ele><time>2026-04-19T09:20:22Z</time></trkpt><trkpt lat="45.24320532198914" lon="7.853851793644802"><ele>223.0</ele><time>2026-04-19T09:20:23Z</time></trkpt><trkpt lat="45.24324944228003" lon="7.853921516234833"><ele>223.0</ele><time>2026-04-19T09:20:26Z</time></trkpt><trkpt lat="45.243347794736955" lon="7.853902950254274"><ele>223.0</ele><time>2026-04-19T09:20:29Z</time></trkpt><trkpt lat="45.24346924629412" lon="7.853925414121704"><ele>223.0</ele><time>2026-04-19T09:20:31Z</time></trkpt><trkpt lat="45.24355358727571" lon="7.853930710863609"><ele>223.0</ele><time>2026-04-19T09:20:32Z</time></trkpt><trkpt lat="45.24364987836426" lon="7.853771630443086"><ele>223.0</ele><time>2026-04-19T09:20:33Z</time></trkpt><trkpt lat="45.243740005965314" lon="7.853760820924729"><ele>223.0</ele><time>2026-04-19T09:20:34Z</time></trkpt><trkpt lat="45.24383860456065" lon="7.853741811157093"><ele>222.99999999999997</ele><time>2026-04-19T09:20:35Z</time></trkpt><trkpt lat="45.24392807764168" lon="7.853723711753271"><ele>223.0</ele><time>2026-04-19T09:20:36Z</time></trkpt><trkpt lat="45.244015563519035" lon="7.853704575439522"><ele>223.0</ele><time>2026-04-19T09:20:37Z</time></trkpt><trkpt lat="45.244095431063315" lon="7.853688913315938"><ele>223.0</ele><time>2026-04-19T09:20:38Z</time></trkpt><trkpt lat="45.24417932827476" lon="7.8536777068813315"><ele>222.99999999999997</ele><time>2026-04-19T09:20:39Z</time></trkpt><trkpt lat="45.244253380390134" lon="7.853663675752682"><ele>223.0</ele><time>2026-04-19T09:20:40Z</time></trkpt><trkpt lat="45.24432738542244" lon="7.853667639111073"><ele>223.49999999999997</ele><time>2026-04-19T09:20:41Z</time></trkpt><trkpt lat="45.2444101384333" lon="7.8536838504516115"><ele>224.0</ele><time>2026-04-19T09:20:42Z</time></trkpt><trkpt lat="45.24449126026097" lon="7.853711590194598"><ele>224.5</ele><time>2026-04-19T09:20:43Z</time></trkpt><trkpt lat="45.2445777196331" lon="7.853739967281305"><ele>225.0</ele><time>2026-04-19T09:20:44Z</time></trkpt><trkpt lat="45.24466981910566" lon="7.853756834725694"><ele>225.49999999999997</ele><time>2026-04-19T09:20:45Z</time></trkpt><trkpt lat="45.24476088933918" lon="7.8537805469160995"><ele>226.0</ele><time>2026-04-19T09:20:46Z</time></trkpt><trkpt lat="45.24485546082495" lon="7.853793570263003"><ele>226.4</ele><time>2026-04-19T09:20:47Z</time></trkpt><trkpt lat="45.24494658557496" lon="7.853810175115869"><ele>226.8</ele><time>2026-04-19T09:20:48Z</time></trkpt><trkpt lat="45.24504132503854" lon="7.853823253216588"><ele>227.20000000000002</ele><time>2026-04-19T09:20:49Z</time></trkpt><trkpt lat="45.245134693064585" lon="7.853822510058077"><ele>227.60000000000002</ele><time>2026-04-19T09:20:50Z</time></trkpt><trkpt lat="45.24521703518039" lon="7.853831930492433"><ele>228.0</ele><time>2026-04-19T09:20:51Z</time></trkpt><trkpt lat="45.2453080331858" lon="7.853841483499711"><ele>228.0</ele><time>2026-04-19T09:20:52Z</time></trkpt><trkpt lat="45.245392422327235" lon="7.85385886127333"><ele>228.0</ele><time>2026-04-19T09:20:53Z</time></trkpt><trkpt lat="45.245470337054485" lon="7.853866883338822"><ele>228.0</ele><time>2026-04-19T09:20:54Z</time></trkpt><trkpt lat="45.245539421939135" lon="7.853880923233893"><ele>228.0</ele><time>2026-04-19T09:20:55Z</time></trkpt><trkpt lat="45.245628851654914" lon="7.853873350042166"><ele>228.0</ele><time>2026-04-19T09:20:56Z</time></trkpt><trkpt lat="45.24570727139093" lon="7.853887090205054"><ele>228.0</ele><time>2026-04-19T09:20:57Z</time></trkpt><trkpt lat="45.24579304849965" lon="7.853898041943466"><ele>228.16666666666666</ele><time>2026-04-19T09:20:58Z</time></trkpt><trkpt lat="45.24588260656259" lon="7.853888671983853"><ele>228.33333333333331</ele><time>2026-04-19T09:20:59Z</time></trkpt><trkpt lat="45.245976102787395" lon="7.853875722380701"><ele>228.5</ele><time>2026-04-19T09:21:00Z</time></trkpt><trkpt lat="45.24606818253372" lon="7.853875259700089"><ele>228.66666666666666</ele><time>2026-04-19T09:21:01Z</time></trkpt><trkpt lat="45.24615099268423" lon="7.853884127100134"><ele>228.83333333333331</ele><time>2026-04-19T09:21:02Z</time></trkpt><trkpt lat="45.246229206222516" lon="7.853890159403481"><ele>229.0</ele><time>2026-04-19T09:21:03Z</time></trkpt><trkpt lat="45.24630099992919" lon="7.853893143706088"><ele>228.99999999999997</ele><time>2026-04-19T09:21:04Z</time></trkpt><trkpt lat="45.24637567465711" lon="7.853894583304624"><ele>229.0</ele><time>2026-04-19T09:21:05Z</time></trkpt><trkpt lat="45.24645205649091" lon="7.8538978026828286"><ele>229.0</ele><time>2026-04-19T09:21:06Z</time></trkpt><trkpt lat="45.24651806850124" lon="7.853897060609948"><ele>229.0</ele><time>2026-04-19T09:21:07Z</time></trkpt><trkpt lat="45.24663187678891" lon="7.85390933625951"><ele>228.99999999999997</ele><time>2026-04-19T09:21:09Z</time></trkpt><trkpt lat="45.24669651921443" lon="7.853916466788529"><ele>229.0</ele><time>2026-04-19T09:21:10Z</time></trkpt><trkpt lat="45.24676467933621" lon="7.853915535544528"><ele>228.83333333333331</ele><time>2026-04-19T09:21:11Z</time></trkpt><trkpt lat="45.24683120142656" lon="7.853918036179038"><ele>228.66666666666666</ele><time>2026-04-19T09:21:12Z</time></trkpt><trkpt lat="45.246959930405765" lon="7.853907993887842"><ele>228.5</ele><time>2026-04-19T09:21:14Z</time></trkpt><trkpt lat="45.247027593178906" lon="7.85390124797117"><ele>228.33333333333331</ele><time>2026-04-19T09:21:15Z</time></trkpt><trkpt lat="45.247097212066905" lon="7.853898874039043"><ele>228.16666666666666</ele><time>2026-04-19T09:21:16Z</time></trkpt><trkpt lat="45.247165733473246" lon="7.853898346397933"><ele>228.0</ele><time>2026-04-19T09:21:17Z</time></trkpt><trkpt lat="45.24723035821643" lon="7.853889315607557"><ele>228.0</ele><time>2026-04-19T09:21:18Z</time></trkpt><trkpt lat="45.247298839041996" lon="7.853885821290739"><ele>228.0</ele><time>2026-04-19T09:21:19Z</time></trkpt><trkpt lat="45.24736629474479" lon="7.853881315623636"><ele>228.0</ele><time>2026-04-19T09:21:20Z</time></trkpt><trkpt lat="45.24743397733973" lon="7.853874633035938"><ele>228.0</ele><time>2026-04-19T09:21:21Z</time></trkpt><trkpt lat="45.24750330020346" lon="7.853871777624475"><ele>228.0</ele><time>2026-04-19T09:21:22Z</time></trkpt><trkpt lat="45.247625458900195" lon="7.853868100993042"><ele>228.0</ele><time>2026-04-19T09:21:24Z</time></trkpt><trkpt lat="45.247747666107216" lon="7.853854991966841"><ele>228.0</ele><time>2026-04-19T09:21:26Z</time></trkpt><trkpt lat="45.247822407307986" lon="7.853846850066003"><ele>228.0</ele><time>2026-04-19T09:21:27Z</time></trkpt><trkpt lat="45.24790652669549" lon="7.853843722800955"><ele>228.0</ele><time>2026-04-19T09:21:28Z</time></trkpt><trkpt lat="45.24797167891456" lon="7.853842915977897"><ele>228.0</ele><time>2026-04-19T09:21:29Z</time></trkpt><trkpt lat="45.24803859453858" lon="7.85384070023608"><ele>228.0</ele><time>2026-04-19T09:21:30Z</time></trkpt><trkpt lat="45.24815982901051" lon="7.853836433639387"><ele>228.0</ele><time>2026-04-19T09:21:32Z</time></trkpt><trkpt lat="45.248239407786485" lon="7.853842123123621"><ele>228.0</ele><time>2026-04-19T09:21:35Z</time></trkpt><trkpt lat="45.24830934082237" lon="7.853825384508908"><ele>228.0</ele><time>2026-04-19T09:23:29Z</time></trkpt><trkpt lat="45.24839891544287" lon="7.853860385918235"><ele>228.0</ele><time>2026-04-19T09:23:32Z</time></trkpt><trkpt lat="45.24851189300062" lon="7.853853204668899"><ele>228.0</ele><time>2026-04-19T09:23:34Z</time></trkpt><trkpt lat="45.24860540047287" lon="7.853867323330724"><ele>228.0</ele><time>2026-04-19T09:23:36Z</time></trkpt><trkpt lat="45.24868991243794" lon="7.8538634481857805"><ele>228.0</ele><time>2026-04-19T09:23:38Z</time></trkpt><trkpt lat="45.248758074386565" lon="7.853851411950383"><ele>228.0</ele><time>2026-04-19T09:23:40Z</time></trkpt><trkpt lat="45.24885239087432" lon="7.853857547340362"><ele>228.0</ele><time>2026-04-19T09:23:43Z</time></trkpt><trkpt lat="45.24894249420336" lon="7.85386018285036"><ele>228.0</ele><time>2026-04-19T09:23:45Z</time></trkpt><trkpt lat="45.24900765925353" lon="7.853856881879884"><ele>228.0</ele><time>2026-04-19T09:23:47Z</time></trkpt><trkpt lat="45.24908164510656" lon="7.853865239135822"><ele>228.0</ele><time>2026-04-19T09:23:49Z</time></trkpt><trkpt lat="45.24921795210885" lon="7.853874279127117"><ele>228.33333333333334</ele><time>2026-04-19T09:23:51Z</time></trkpt><trkpt lat="45.249306397427965" lon="7.8538679874234765"><ele>228.66666666666669</ele><time>2026-04-19T09:23:52Z</time></trkpt><trkpt lat="45.24938558666708" lon="7.853873160688184"><ele>229.0</ele><time>2026-04-19T09:23:53Z</time></trkpt><trkpt lat="45.24949488213181" lon="7.853877132698811"><ele>229.33333333333334</ele><time>2026-04-19T09:23:55Z</time></trkpt><trkpt lat="45.24956103683181" lon="7.853937097699743"><ele>229.66666666666669</ele><time>2026-04-19T09:23:57Z</time></trkpt><trkpt lat="45.24957029330402" lon="7.854052625396549"><ele>230.0</ele><time>2026-04-19T09:23:59Z</time></trkpt><trkpt lat="45.249555832268" lon="7.85415787491798"><ele>230.0</ele><time>2026-04-19T09:24:01Z</time></trkpt><trkpt lat="45.24960178293534" lon="7.854236834742142"><ele>230.0</ele><time>2026-04-19T09:24:06Z</time></trkpt><trkpt lat="45.24968187705355" lon="7.8542213413099615"><ele>230.0</ele><time>2026-04-19T09:24:09Z</time></trkpt><trkpt lat="45.24976892459853" lon="7.854195692825695"><ele>230.0</ele><time>2026-04-19T09:24:11Z</time></trkpt><trkpt lat="45.249879585718354" lon="7.85419265970496"><ele>230.0</ele><time>2026-04-19T09:24:13Z</time></trkpt><trkpt lat="45.24999557238397" lon="7.85417604600221"><ele>230.16666666666669</ele><time>2026-04-19T09:24:15Z</time></trkpt><trkpt lat="45.250122978550834" lon="7.8541669243442405"><ele>230.33333333333334</ele><time>2026-04-19T09:24:17Z</time></trkpt><trkpt lat="45.25019092424818" lon="7.854164352259764"><ele>230.5</ele><time>2026-04-19T09:24:18Z</time></trkpt><trkpt lat="45.25025914704714" lon="7.8541626983782855"><ele>230.66666666666669</ele><time>2026-04-19T09:24:19Z</time></trkpt><trkpt lat="45.25032965211945" lon="7.85416322599753"><ele>230.83333333333334</ele><time>2026-04-19T09:24:20Z</time></trkpt><trkpt lat="45.2504047904093" lon="7.854162984067908"><ele>231.0</ele><time>2026-04-19T09:24:21Z</time></trkpt><trkpt lat="45.25047066776137" lon="7.854165249964464"><ele>231.0</ele><time>2026-04-19T09:24:22Z</time></trkpt><trkpt lat="45.25056740100705" lon="7.854164187156209"><ele>231.00000000000003</ele><time>2026-04-19T09:24:24Z</time></trkpt><trkpt lat="45.250674270703946" lon="7.8541458517270755"><ele>231.00000000000003</ele><time>2026-04-19T09:24:26Z</time></trkpt><trkpt lat="45.25079059410707" lon="7.854107603388953"><ele>231.0</ele><time>2026-04-19T09:24:28Z</time></trkpt><trkpt lat="45.25085945958728" lon="7.854090621412045"><ele>231.0</ele><time>2026-04-19T09:24:29Z</time></trkpt><trkpt lat="45.250929251289875" lon="7.854069218761669"><ele>231.33333333333334</ele><time>2026-04-19T09:24:30Z</time></trkpt><trkpt lat="45.251001748473094" lon="7.854050597489742"><ele>231.66666666666669</ele><time>2026-04-19T09:24:31Z</time></trkpt><trkpt lat="45.251076802352266" lon="7.854034987158869"><ele>232.0</ele><time>2026-04-19T09:24:32Z</time></trkpt><trkpt lat="45.251147813275345" lon="7.8540277822086155"><ele>232.33333333333334</ele><time>2026-04-19T09:24:33Z</time></trkpt><trkpt lat="45.25127281847565" lon="7.854005612859135"><ele>232.66666666666669</ele><time>2026-04-19T09:24:35Z</time></trkpt><trkpt lat="45.251341611873045" lon="7.853993055965886"><ele>233.0</ele><time>2026-04-19T09:24:36Z</time></trkpt><trkpt lat="45.251418140185095" lon="7.8539651818045595"><ele>233.50000000000003</ele><time>2026-04-19T09:24:37Z</time></trkpt><trkpt lat="45.25149474798812" lon="7.853916687878717"><ele>234.0</ele><time>2026-04-19T09:24:38Z</time></trkpt><trkpt lat="45.25157085336198" lon="7.853855958363839"><ele>234.5</ele><time>2026-04-19T09:24:39Z</time></trkpt><trkpt lat="45.25164297793752" lon="7.853792407006563"><ele>235.0</ele><time>2026-04-19T09:24:40Z</time></trkpt><trkpt lat="45.25171453073724" lon="7.8537361591480215"><ele>235.50000000000003</ele><time>2026-04-19T09:24:41Z</time></trkpt><trkpt lat="45.25179298679987" lon="7.853687834271094"><ele>236.0</ele><time>2026-04-19T09:24:42Z</time></trkpt><trkpt lat="45.251868820990246" lon="7.85363281229413"><ele>236.00000000000003</ele><time>2026-04-19T09:24:43Z</time></trkpt><trkpt lat="45.25195175046001" lon="7.85357570184615"><ele>236.0</ele><time>2026-04-19T09:24:44Z</time></trkpt><trkpt lat="45.252034692180985" lon="7.853516939923105"><ele>236.0</ele><time>2026-04-19T09:24:45Z</time></trkpt><trkpt lat="45.25210739828405" lon="7.853456397542032"><ele>236.0</ele><time>2026-04-19T09:24:46Z</time></trkpt><trkpt lat="45.25218025474855" lon="7.85340007085622"><ele>236.00000000000003</ele><time>2026-04-19T09:24:47Z</time></trkpt><trkpt lat="45.25225055433843" lon="7.853344843348396"><ele>236.0</ele><time>2026-04-19T09:24:48Z</time></trkpt><trkpt lat="45.25233102675918" lon="7.853229524814509"><ele>235.50000000000003</ele><time>2026-04-19T09:24:50Z</time></trkpt><trkpt lat="45.25238783194533" lon="7.853147899084027"><ele>235.0</ele><time>2026-04-19T09:24:52Z</time></trkpt><trkpt lat="45.252457738905136" lon="7.8530831675665445"><ele>234.5</ele><time>2026-04-19T09:24:54Z</time></trkpt><trkpt lat="45.25251749487979" lon="7.853039245680575"><ele>234.0</ele><time>2026-04-19T09:24:55Z</time></trkpt><trkpt lat="45.252619310086516" lon="7.852970632997886"><ele>233.50000000000003</ele><time>2026-04-19T09:24:57Z</time></trkpt><trkpt lat="45.2527101797083" lon="7.85290273554031"><ele>233.0</ele><time>2026-04-19T09:24:59Z</time></trkpt><trkpt lat="45.25277620306156" lon="7.852855327264796"><ele>233.00000000000003</ele><time>2026-04-19T09:25:00Z</time></trkpt><trkpt lat="45.25284218418723" lon="7.852802996012617"><ele>233.0</ele><time>2026-04-19T09:25:01Z</time></trkpt><trkpt lat="45.25292256120671" lon="7.8527514568113155"><ele>233.0</ele><time>2026-04-19T09:25:02Z</time></trkpt><trkpt lat="45.253008176497666" lon="7.852702923797513"><ele>233.0</ele><time>2026-04-19T09:25:03Z</time></trkpt><trkpt lat="45.253094039570584" lon="7.852648537701384"><ele>233.00000000000003</ele><time>2026-04-19T09:25:04Z</time></trkpt><trkpt lat="45.25317854661476" lon="7.852588954467335"><ele>233.0</ele><time>2026-04-19T09:25:05Z</time></trkpt><trkpt lat="45.25325594785101" lon="7.852536631114648"><ele>233.4</ele><time>2026-04-19T09:25:06Z</time></trkpt><trkpt lat="45.2533271963484" lon="7.852490691095717"><ele>233.8</ele><time>2026-04-19T09:25:07Z</time></trkpt><trkpt lat="45.25339793991394" lon="7.852443053111841"><ele>234.2</ele><time>2026-04-19T09:25:08Z</time></trkpt><trkpt lat="45.253493874172946" lon="7.852397819737818"><ele>234.6</ele><time>2026-04-19T09:25:09Z</time></trkpt><trkpt lat="45.25359132475943" lon="7.852347640895469"><ele>235.0</ele><time>2026-04-19T09:25:10Z</time></trkpt><trkpt lat="45.253685059995355" lon="7.852305551183436"><ele>235.0</ele><time>2026-04-19T09:25:11Z</time></trkpt><trkpt lat="45.253765676099576" lon="7.85226564181329"><ele>235.0</ele><time>2026-04-19T09:25:12Z</time></trkpt><trkpt lat="45.25385711617447" lon="7.852223360432432"><ele>235.0</ele><time>2026-04-19T09:25:13Z</time></trkpt><trkpt lat="45.25394036004342" lon="7.852182726725099"><ele>235.0</ele><time>2026-04-19T09:25:14Z</time></trkpt><trkpt lat="45.25402775383155" lon="7.852136137153537"><ele>235.0</ele><time>2026-04-19T09:25:15Z</time></trkpt><trkpt lat="45.2541171905223" lon="7.852097829107105"><ele>234.99999999999997</ele><time>2026-04-19T09:25:16Z</time></trkpt><trkpt lat="45.25419838384563" lon="7.852059234020858"><ele>235.0</ele><time>2026-04-19T09:25:17Z</time></trkpt><trkpt lat="45.25426907096125" lon="7.85202368177051"><ele>235.0</ele><time>2026-04-19T09:25:18Z</time></trkpt><trkpt lat="45.2543685214723" lon="7.851978981370439"><ele>235.0</ele><time>2026-04-19T09:25:20Z</time></trkpt><trkpt lat="45.25443497817621" lon="7.851946640975283"><ele>234.99999999999997</ele><time>2026-04-19T09:25:23Z</time></trkpt><trkpt lat="45.254483788496984" lon="7.852050397804688"><ele>235.0</ele><time>2026-04-19T09:25:26Z</time></trkpt><trkpt lat="45.25452431976708" lon="7.852162699259258"><ele>234.99999999999997</ele><time>2026-04-19T09:25:28Z</time></trkpt><trkpt lat="45.2545982102704" lon="7.852178493575548"><ele>235.0</ele><time>2026-04-19T09:25:30Z</time></trkpt><trkpt lat="45.25465820700427" lon="7.852149374051824"><ele>235.0</ele><time>2026-04-19T09:25:31Z</time></trkpt><trkpt lat="45.254714734066425" lon="7.852099826830549"><ele>235.0</ele><time>2026-04-19T09:25:32Z</time></trkpt><trkpt lat="45.254789077327345" lon="7.852023608189531"><ele>234.99999999999997</ele><time>2026-04-19T09:25:34Z</time></trkpt><trkpt lat="45.25489030625359" lon="7.851961968853609"><ele>235.0</ele><time>2026-04-19T09:25:36Z</time></trkpt><trkpt lat="45.25500681967578" lon="7.851902310474668"><ele>234.99999999999997</ele><time>2026-04-19T09:25:38Z</time></trkpt><trkpt lat="45.255132090052356" lon="7.851839328093032"><ele>235.0</ele><time>2026-04-19T09:25:40Z</time></trkpt><trkpt lat="45.25520369323238" lon="7.85179886116285"><ele>235.0</ele><time>2026-04-19T09:25:41Z</time></trkpt><trkpt lat="45.25526507851168" lon="7.851771484362455"><ele>235.0</ele><time>2026-04-19T09:25:42Z</time></trkpt><trkpt lat="45.25533081706467" lon="7.851742385345679"><ele>234.99999999999997</ele><time>2026-04-19T09:25:43Z</time></trkpt><trkpt lat="45.25539561835511" lon="7.85170446449796"><ele>235.0</ele><time>2026-04-19T09:25:44Z</time></trkpt><trkpt lat="45.255506903964324" lon="7.851634146874972"><ele>234.8</ele><time>2026-04-19T09:25:46Z</time></trkpt><trkpt lat="45.255599977299255" lon="7.851566798920241"><ele>234.6</ele><time>2026-04-19T09:25:48Z</time></trkpt><trkpt lat="45.25567523728487" lon="7.851578985107576"><ele>234.39999999999998</ele><time>2026-04-19T09:25:52Z</time></trkpt><trkpt lat="45.25570393381123" lon="7.851706237877889"><ele>234.2</ele><time>2026-04-19T09:25:54Z</time></trkpt><trkpt lat="45.25572801116777" lon="7.851856377693686"><ele>234.0</ele><time>2026-04-19T09:25:56Z</time></trkpt><trkpt lat="45.25581776972145" lon="7.851989500655232"><ele>234.33333333333334</ele><time>2026-04-19T09:25:58Z</time></trkpt><trkpt lat="45.25585545809387" lon="7.8520750327982825"><ele>234.66666666666669</ele><time>2026-04-19T09:25:59Z</time></trkpt><trkpt lat="45.255891153385676" lon="7.85216401195434"><ele>235.0</ele><time>2026-04-19T09:26:00Z</time></trkpt><trkpt lat="45.25593087807925" lon="7.852264962355088"><ele>235.33333333333334</ele><time>2026-04-19T09:26:01Z</time></trkpt><trkpt lat="45.25597571856861" lon="7.852362006077499"><ele>235.66666666666669</ele><time>2026-04-19T09:26:02Z</time></trkpt><trkpt lat="45.25602277147687" lon="7.852440109287244"><ele>236.0</ele><time>2026-04-19T09:26:03Z</time></trkpt><trkpt lat="45.25609212214888" lon="7.8525554832707565"><ele>236.60000000000002</ele><time>2026-04-19T09:26:05Z</time></trkpt><trkpt lat="45.256148076860896" lon="7.85265946037002"><ele>237.20000000000002</ele><time>2026-04-19T09:26:07Z</time></trkpt><trkpt lat="45.25621705448636" lon="7.852753165182308"><ele>237.79999999999998</ele><time>2026-04-19T09:26:09Z</time></trkpt><trkpt lat="45.25628269581213" lon="7.85287698969886"><ele>238.39999999999998</ele><time>2026-04-19T09:26:11Z</time></trkpt><trkpt lat="45.25633145847002" lon="7.852970396731806"><ele>239.0</ele><time>2026-04-19T09:26:13Z</time></trkpt><trkpt lat="45.256370936282444" lon="7.853071459604503"><ele>239.00000000000003</ele><time>2026-04-19T09:26:15Z</time></trkpt><trkpt lat="45.25640186008912" lon="7.853157278477362"><ele>239.0</ele><time>2026-04-19T09:26:17Z</time></trkpt><trkpt lat="45.25644244266325" lon="7.853243837237209"><ele>239.0</ele><time>2026-04-19T09:26:19Z</time></trkpt><trkpt lat="45.25649059135196" lon="7.853359327320471"><ele>239.0</ele><time>2026-04-19T09:26:21Z</time></trkpt><trkpt lat="45.25652508993578" lon="7.853459490985027"><ele>239.00000000000003</ele><time>2026-04-19T09:26:22Z</time></trkpt><trkpt lat="45.25656690124577" lon="7.853570427207291"><ele>239.0</ele><time>2026-04-19T09:26:23Z</time></trkpt><trkpt lat="45.25660757211658" lon="7.853666506032599"><ele>238.83333333333334</ele><time>2026-04-19T09:26:24Z</time></trkpt><trkpt lat="45.256649088703824" lon="7.853767101892539"><ele>238.66666666666669</ele><time>2026-04-19T09:26:25Z</time></trkpt><trkpt lat="45.25668211476888" lon="7.853859292722943"><ele>238.5</ele><time>2026-04-19T09:26:26Z</time></trkpt><trkpt lat="45.25671231650156" lon="7.853944888762577"><ele>238.33333333333331</ele><time>2026-04-19T09:26:27Z</time></trkpt><trkpt lat="45.25675457003035" lon="7.854015356363094"><ele>238.16666666666666</ele><time>2026-04-19T09:26:28Z</time></trkpt><trkpt lat="45.256834264891616" lon="7.854141104861353"><ele>238.0</ele><time>2026-04-19T09:26:30Z</time></trkpt><trkpt lat="45.25688572964978" lon="7.854257894016113"><ele>237.83333333333331</ele><time>2026-04-19T09:26:32Z</time></trkpt><trkpt lat="45.25693938252631" lon="7.8543920634820585"><ele>237.66666666666666</ele><time>2026-04-19T09:26:34Z</time></trkpt><trkpt lat="45.256980505248016" lon="7.854495927868227"><ele>237.5</ele><time>2026-04-19T09:26:35Z</time></trkpt><trkpt lat="45.25702040043997" lon="7.854599063180432"><ele>237.33333333333331</ele><time>2026-04-19T09:26:36Z</time></trkpt><trkpt lat="45.25705805747919" lon="7.854700400974512"><ele>237.16666666666666</ele><time>2026-04-19T09:26:37Z</time></trkpt><trkpt lat="45.2570976133516" lon="7.854789546472376"><ele>237.0</ele><time>2026-04-19T09:26:38Z</time></trkpt><trkpt lat="45.25713786837013" lon="7.854881818589466"><ele>237.0</ele><time>2026-04-19T09:26:39Z</time></trkpt><trkpt lat="45.25717993452145" lon="7.854969010109087"><ele>237.0</ele><time>2026-04-19T09:26:40Z</time></trkpt><trkpt lat="45.257228744205015" lon="7.855067689290505"><ele>237.0</ele><time>2026-04-19T09:26:41Z</time></trkpt><trkpt lat="45.25727365761378" lon="7.855176742544795"><ele>237.0</ele><time>2026-04-19T09:26:42Z</time></trkpt><trkpt lat="45.257317748405725" lon="7.855276554812866"><ele>237.0</ele><time>2026-04-19T09:26:43Z</time></trkpt><trkpt lat="45.2573521698379" lon="7.85535877294517"><ele>237.0</ele><time>2026-04-19T09:26:44Z</time></trkpt><trkpt lat="45.257386142703574" lon="7.85543735618166"><ele>236.66666666666666</ele><time>2026-04-19T09:26:45Z</time></trkpt><trkpt lat="45.257425497486985" lon="7.855531019746106"><ele>236.33333333333331</ele><time>2026-04-19T09:26:46Z</time></trkpt><trkpt lat="45.25746395068974" lon="7.8556333896486406"><ele>236.0</ele><time>2026-04-19T09:26:47Z</time></trkpt><trkpt lat="45.257498816531836" lon="7.855734415777674"><ele>235.66666666666666</ele><time>2026-04-19T09:26:48Z</time></trkpt><trkpt lat="45.25752834082532" lon="7.855818281770764"><ele>235.33333333333331</ele><time>2026-04-19T09:26:49Z</time></trkpt><trkpt lat="45.257577357133066" lon="7.855955732621454"><ele>235.0</ele><time>2026-04-19T09:26:51Z</time></trkpt><trkpt lat="45.2576293146031" lon="7.856106578918118"><ele>234.99999999999997</ele><time>2026-04-19T09:26:53Z</time></trkpt><trkpt lat="45.25765525322577" lon="7.85621044737759"><ele>235.0</ele><time>2026-04-19T09:26:54Z</time></trkpt><trkpt lat="45.2576895985499" lon="7.856319329107376"><ele>235.0</ele><time>2026-04-19T09:26:55Z</time></trkpt><trkpt lat="45.257723861781464" lon="7.856421726346281"><ele>235.0</ele><time>2026-04-19T09:26:56Z</time></trkpt><trkpt lat="45.25775740116308" lon="7.856525604788177"><ele>234.99999999999997</ele><time>2026-04-19T09:26:57Z</time></trkpt><trkpt lat="45.25779720850384" lon="7.856614306147973"><ele>235.0</ele><time>2026-04-19T09:26:58Z</time></trkpt><trkpt lat="45.257832048917486" lon="7.856706737562055"><ele>235.16666666666666</ele><time>2026-04-19T09:26:59Z</time></trkpt><trkpt lat="45.25787141858879" lon="7.856803768529227"><ele>235.33333333333331</ele><time>2026-04-19T09:27:00Z</time></trkpt><trkpt lat="45.25791104704753" lon="7.856891165785685"><ele>235.5</ele><time>2026-04-19T09:27:01Z</time></trkpt><trkpt lat="45.257956874355095" lon="7.856993730431375"><ele>235.66666666666669</ele><time>2026-04-19T09:27:02Z</time></trkpt><trkpt lat="45.25800290671618" lon="7.857078504582192"><ele>235.83333333333334</ele><time>2026-04-19T09:27:03Z</time></trkpt><trkpt lat="45.258050525585126" lon="7.857175062590887"><ele>236.0</ele><time>2026-04-19T09:27:04Z</time></trkpt><trkpt lat="45.25809280752675" lon="7.85728706940597"><ele>235.83333333333334</ele><time>2026-04-19T09:27:05Z</time></trkpt><trkpt lat="45.258125180521056" lon="7.857378432280942"><ele>235.66666666666669</ele><time>2026-04-19T09:27:06Z</time></trkpt><trkpt lat="45.25815826679124" lon="7.857460677524015"><ele>235.5</ele><time>2026-04-19T09:27:07Z</time></trkpt><trkpt lat="45.25819419627029" lon="7.857638778189823"><ele>235.33333333333331</ele><time>2026-04-19T09:27:09Z</time></trkpt><trkpt lat="45.258214291122215" lon="7.857752064390672"><ele>235.16666666666666</ele><time>2026-04-19T09:27:10Z</time></trkpt><trkpt lat="45.25823273149883" lon="7.857864556391281"><ele>235.0</ele><time>2026-04-19T09:27:11Z</time></trkpt><trkpt lat="45.258249158360634" lon="7.857961580774731"><ele>235.0</ele><time>2026-04-19T09:27:12Z</time></trkpt><trkpt lat="45.25828826163106" lon="7.858101984487799"><ele>235.0</ele><time>2026-04-19T09:27:14Z</time></trkpt><trkpt lat="45.25834198635624" lon="7.8582436004850855"><ele>235.0</ele><time>2026-04-19T09:27:16Z</time></trkpt><trkpt lat="45.258380347215365" lon="7.8583936805446655"><ele>235.0</ele><time>2026-04-19T09:27:18Z</time></trkpt><trkpt lat="45.258426191532294" lon="7.8585249379079505"><ele>235.0</ele><time>2026-04-19T09:27:20Z</time></trkpt><trkpt lat="45.25846062012709" lon="7.858600964616851"><ele>234.99999999999997</ele><time>2026-04-19T09:27:21Z</time></trkpt><trkpt lat="45.25850250013886" lon="7.858692982966892"><ele>235.0</ele><time>2026-04-19T09:27:22Z</time></trkpt><trkpt lat="45.25853577716874" lon="7.858771331829032"><ele>235.0</ele><time>2026-04-19T09:27:23Z</time></trkpt><trkpt lat="45.258606018464725" lon="7.858918442605962"><ele>235.0</ele><time>2026-04-19T09:27:25Z</time></trkpt><trkpt lat="45.25864298492866" lon="7.8590099033906435"><ele>234.99999999999997</ele><time>2026-04-19T09:27:26Z</time></trkpt><trkpt lat="45.25867976743309" lon="7.859096276220194"><ele>235.0</ele><time>2026-04-19T09:27:27Z</time></trkpt><trkpt lat="45.258711748992866" lon="7.859182938619207"><ele>234.6</ele><time>2026-04-19T09:27:28Z</time></trkpt><trkpt lat="45.25876855070711" lon="7.859331365200287"><ele>234.2</ele><time>2026-04-19T09:27:30Z</time></trkpt><trkpt lat="45.2587993036283" lon="7.859495232085253"><ele>233.8</ele><time>2026-04-19T09:27:32Z</time></trkpt><trkpt lat="45.25880500058993" lon="7.859603033894722"><ele>233.4</ele><time>2026-04-19T09:27:33Z</time></trkpt><trkpt lat="45.258809763828445" lon="7.859730425506783"><ele>233.0</ele><time>2026-04-19T09:27:34Z</time></trkpt><trkpt lat="45.25881349764372" lon="7.8598409425903"><ele>233.0</ele><time>2026-04-19T09:27:35Z</time></trkpt><trkpt lat="45.25881867569759" lon="7.859962813539041"><ele>233.0</ele><time>2026-04-19T09:27:36Z</time></trkpt><trkpt lat="45.258823557805535" lon="7.860097551205309"><ele>233.0</ele><time>2026-04-19T09:27:37Z</time></trkpt><trkpt lat="45.25883014991632" lon="7.860232321485453"><ele>233.0</ele><time>2026-04-19T09:27:38Z</time></trkpt><trkpt lat="45.25883213598379" lon="7.860364662942529"><ele>233.0</ele><time>2026-04-19T09:27:39Z</time></trkpt><trkpt lat="45.25883248879306" lon="7.860494295393162"><ele>233.00000000000003</ele><time>2026-04-19T09:27:40Z</time></trkpt><trkpt lat="45.25883563226279" lon="7.860621117262607"><ele>233.0</ele><time>2026-04-19T09:27:41Z</time></trkpt><trkpt lat="45.258839251340234" lon="7.860752263831208"><ele>233.0</ele><time>2026-04-19T09:27:42Z</time></trkpt><trkpt lat="45.25884416805077" lon="7.860867218145934"><ele>233.0</ele><time>2026-04-19T09:27:43Z</time></trkpt><trkpt lat="45.2588471110436" lon="7.86098402154565"><ele>233.00000000000003</ele><time>2026-04-19T09:27:44Z</time></trkpt><trkpt lat="45.25885132270628" lon="7.86110571710921"><ele>233.0</ele><time>2026-04-19T09:27:45Z</time></trkpt><trkpt lat="45.25886536110535" lon="7.861229765876609"><ele>232.83333333333334</ele><time>2026-04-19T09:27:46Z</time></trkpt><trkpt lat="45.25887152462413" lon="7.8613511080771685"><ele>232.66666666666669</ele><time>2026-04-19T09:27:47Z</time></trkpt><trkpt lat="45.25888108900992" lon="7.861468138789314"><ele>232.5</ele><time>2026-04-19T09:27:48Z</time></trkpt><trkpt lat="45.25889785004687" lon="7.861601471552657"><ele>232.33333333333331</ele><time>2026-04-19T09:27:49Z</time></trkpt><trkpt lat="45.258919574609436" lon="7.861721433021036"><ele>232.16666666666666</ele><time>2026-04-19T09:27:50Z</time></trkpt><trkpt lat="45.2589393474455" lon="7.861811999298738"><ele>232.0</ele><time>2026-04-19T09:27:51Z</time></trkpt><trkpt lat="45.25897240837419" lon="7.861966667872462"><ele>231.83333333333331</ele><time>2026-04-19T09:27:53Z</time></trkpt><trkpt lat="45.25899346403888" lon="7.86212225362838"><ele>231.66666666666666</ele><time>2026-04-19T09:27:55Z</time></trkpt><trkpt lat="45.25900943298918" lon="7.862240729556077"><ele>231.5</ele><time>2026-04-19T09:27:56Z</time></trkpt><trkpt lat="45.259026285472295" lon="7.862335752526906"><ele>231.33333333333331</ele><time>2026-04-19T09:27:57Z</time></trkpt><trkpt lat="45.25903925113732" lon="7.8624336745263195"><ele>231.16666666666666</ele><time>2026-04-19T09:27:59Z</time></trkpt><trkpt lat="45.258977864638986" lon="7.862526250607713"><ele>231.0</ele><time>2026-04-19T09:28:02Z</time></trkpt><trkpt lat="45.2588310881805" lon="7.862561113402477"><ele>230.8</ele><time>2026-04-19T09:28:04Z</time></trkpt><trkpt lat="45.25872170797319" lon="7.86260886902234"><ele>230.60000000000002</ele><time>2026-04-19T09:28:05Z</time></trkpt><trkpt lat="45.2586310511467" lon="7.862649015688637"><ele>230.4</ele><time>2026-04-19T09:28:06Z</time></trkpt><trkpt lat="45.258537987826216" lon="7.862701754988125"><ele>230.2</ele><time>2026-04-19T09:28:07Z</time></trkpt><trkpt lat="45.25845478615561" lon="7.862746554773121"><ele>230.0</ele><time>2026-04-19T09:28:08Z</time></trkpt><trkpt lat="45.25838012816492" lon="7.862786130108177"><ele>229.99999999999997</ele><time>2026-04-19T09:28:09Z</time></trkpt><trkpt lat="45.25830348757792" lon="7.862819372335809"><ele>230.0</ele><time>2026-04-19T09:28:10Z</time></trkpt><trkpt lat="45.25823732850674" lon="7.862851817725547"><ele>229.99999999999997</ele><time>2026-04-19T09:28:11Z</time></trkpt><trkpt lat="45.25817225501698" lon="7.862878338022331"><ele>229.99999999999997</ele><time>2026-04-19T09:28:12Z</time></trkpt><trkpt lat="45.25810874578033" lon="7.862890398296917"><ele>230.0</ele><time>2026-04-19T09:28:13Z</time></trkpt><trkpt lat="45.25803930265464" lon="7.862883698438178"><ele>229.99999999999997</ele><time>2026-04-19T09:28:14Z</time></trkpt><trkpt lat="45.25795966447829" lon="7.862854424864238"><ele>229.99999999999997</ele><time>2026-04-19T09:28:15Z</time></trkpt><trkpt lat="45.257869713047114" lon="7.862835271355005"><ele>229.8</ele><time>2026-04-19T09:28:16Z</time></trkpt><trkpt lat="45.25777949015275" lon="7.862810930587119"><ele>229.6</ele><time>2026-04-19T09:28:17Z</time></trkpt><trkpt lat="45.25767563966644" lon="7.862789126656938"><ele>229.39999999999998</ele><time>2026-04-19T09:28:18Z</time></trkpt><trkpt lat="45.257568076250415" lon="7.862765010857975"><ele>229.2</ele><time>2026-04-19T09:28:19Z</time></trkpt><trkpt lat="45.25745846103697" lon="7.862752126835604"><ele>229.0</ele><time>2026-04-19T09:28:20Z</time></trkpt><trkpt lat="45.25735574591559" lon="7.862735402235234"><ele>228.83333333333331</ele><time>2026-04-19T09:28:21Z</time></trkpt><trkpt lat="45.257267264327965" lon="7.862722120253953"><ele>228.66666666666666</ele><time>2026-04-19T09:28:22Z</time></trkpt><trkpt lat="45.25718198075448" lon="7.862703913949752"><ele>228.5</ele><time>2026-04-19T09:28:23Z</time></trkpt><trkpt lat="45.257107659704104" lon="7.862693089837535"><ele>228.33333333333331</ele><time>2026-04-19T09:28:24Z</time></trkpt><trkpt lat="45.2570417109897" lon="7.862677041623074"><ele>228.16666666666666</ele><time>2026-04-19T09:28:25Z</time></trkpt><trkpt lat="45.256965097657584" lon="7.862659139311925"><ele>228.0</ele><time>2026-04-19T09:28:26Z</time></trkpt><trkpt lat="45.25688576176934" lon="7.862648134302017"><ele>228.0</ele><time>2026-04-19T09:28:27Z</time></trkpt><trkpt lat="45.25681043717673" lon="7.862643243630116"><ele>228.0</ele><time>2026-04-19T09:28:28Z</time></trkpt><trkpt lat="45.25674135086458" lon="7.862640821167612"><ele>228.0</ele><time>2026-04-19T09:28:29Z</time></trkpt><trkpt lat="45.25667071134329" lon="7.862635764620902"><ele>228.0</ele><time>2026-04-19T09:28:30Z</time></trkpt><trkpt lat="45.25657715900466" lon="7.862626681223364"><ele>228.0</ele><time>2026-04-19T09:28:31Z</time></trkpt><trkpt lat="45.25647269240808" lon="7.86261013990185"><ele>228.0</ele><time>2026-04-19T09:28:32Z</time></trkpt><trkpt lat="45.25637201989112" lon="7.8625943130070945"><ele>227.8</ele><time>2026-04-19T09:28:33Z</time></trkpt><trkpt lat="45.25627050261304" lon="7.862575932742671"><ele>227.60000000000002</ele><time>2026-04-19T09:28:34Z</time></trkpt><trkpt lat="45.256166943404786" lon="7.862554625354451"><ele>227.39999999999998</ele><time>2026-04-19T09:28:35Z</time></trkpt><trkpt lat="45.25606324718551" lon="7.862535349121878"><ele>227.2</ele><time>2026-04-19T09:28:36Z</time></trkpt><trkpt lat="45.25593966144818" lon="7.8625261920887475"><ele>227.0</ele><time>2026-04-19T09:28:37Z</time></trkpt><trkpt lat="45.25583794263589" lon="7.862508935550356"><ele>227.0</ele><time>2026-04-19T09:28:38Z</time></trkpt><trkpt lat="45.25573788605357" lon="7.862495222372891"><ele>227.0</ele><time>2026-04-19T09:28:39Z</time></trkpt><trkpt lat="45.25566039285868" lon="7.862481528014272"><ele>227.0</ele><time>2026-04-19T09:28:40Z</time></trkpt><trkpt lat="45.25555046081767" lon="7.8624731706247"><ele>227.0</ele><time>2026-04-19T09:28:42Z</time></trkpt><trkpt lat="45.255471337644984" lon="7.862513370292634"><ele>227.0</ele><time>2026-04-19T09:28:44Z</time></trkpt><trkpt lat="45.25544214551277" lon="7.862633175138276"><ele>227.0</ele><time>2026-04-19T09:28:46Z</time></trkpt><trkpt lat="45.25546502943816" lon="7.8627412624628255"><ele>227.0</ele><time>2026-04-19T09:28:47Z</time></trkpt><trkpt lat="45.255503358239956" lon="7.862876440931642"><ele>227.0</ele><time>2026-04-19T09:28:48Z</time></trkpt><trkpt lat="45.25553006666516" lon="7.8630124841000635"><ele>227.0</ele><time>2026-04-19T09:28:49Z</time></trkpt><trkpt lat="45.25555604465199" lon="7.863154240049587"><ele>227.0</ele><time>2026-04-19T09:28:50Z</time></trkpt><trkpt lat="45.25558230568912" lon="7.863293703886298"><ele>227.0</ele><time>2026-04-19T09:28:51Z</time></trkpt><trkpt lat="45.2555982234369" lon="7.8634452472772525"><ele>227.0</ele><time>2026-04-19T09:28:52Z</time></trkpt><trkpt lat="45.255619551200766" lon="7.863589555121435"><ele>227.0</ele><time>2026-04-19T09:28:53Z</time></trkpt><trkpt lat="45.255639109196444" lon="7.86373160881731"><ele>227.0</ele><time>2026-04-19T09:28:54Z</time></trkpt><trkpt lat="45.25566189823661" lon="7.863876354939875"><ele>227.0</ele><time>2026-04-19T09:28:55Z</time></trkpt><trkpt lat="45.25568024083504" lon="7.864019102750935"><ele>227.2</ele><time>2026-04-19T09:28:56Z</time></trkpt><trkpt lat="45.25569843078961" lon="7.86417288520985"><ele>227.39999999999998</ele><time>2026-04-19T09:28:57Z</time></trkpt><trkpt lat="45.25571974670097" lon="7.864325671287506"><ele>227.60000000000002</ele><time>2026-04-19T09:28:58Z</time></trkpt><trkpt lat="45.25574257392749" lon="7.864478252971274"><ele>227.8</ele><time>2026-04-19T09:28:59Z</time></trkpt><trkpt lat="45.2557650769901" lon="7.864612875233467"><ele>228.0</ele><time>2026-04-19T09:29:00Z</time></trkpt><trkpt lat="45.255794177288614" lon="7.864724229289024"><ele>228.4</ele><time>2026-04-19T09:29:01Z</time></trkpt><trkpt lat="45.25583003034653" lon="7.864860259567741"><ele>228.8</ele><time>2026-04-19T09:29:02Z</time></trkpt><trkpt lat="45.25584815705606" lon="7.865000945555073"><ele>229.2</ele><time>2026-04-19T09:29:03Z</time></trkpt><trkpt lat="45.25585997488071" lon="7.865136710513273"><ele>229.6</ele><time>2026-04-19T09:29:04Z</time></trkpt><trkpt lat="45.25587315433173" lon="7.865282924927299"><ele>230.0</ele><time>2026-04-19T09:29:05Z</time></trkpt><trkpt lat="45.2558927855278" lon="7.8654276087829045"><ele>230.0</ele><time>2026-04-19T09:29:06Z</time></trkpt><trkpt lat="45.25590741478162" lon="7.86556823970247"><ele>230.0</ele><time>2026-04-19T09:29:07Z</time></trkpt><trkpt lat="45.255927232212166" lon="7.865703229658419"><ele>230.0</ele><time>2026-04-19T09:29:08Z</time></trkpt><trkpt lat="45.25594630649816" lon="7.8658235986941545"><ele>230.0</ele><time>2026-04-19T09:29:09Z</time></trkpt><trkpt lat="45.25597138663325" lon="7.865942512633732"><ele>230.0</ele><time>2026-04-19T09:29:10Z</time></trkpt><trkpt lat="45.25599904436308" lon="7.866090748445169"><ele>229.83333333333334</ele><time>2026-04-19T09:29:11Z</time></trkpt><trkpt lat="45.25601648242919" lon="7.866233473992007"><ele>229.66666666666669</ele><time>2026-04-19T09:29:12Z</time></trkpt><trkpt lat="45.2560288859625" lon="7.866354351340981"><ele>229.5</ele><time>2026-04-19T09:29:13Z</time></trkpt><trkpt lat="45.25604199071065" lon="7.86646087396716"><ele>229.33333333333331</ele><time>2026-04-19T09:29:14Z</time></trkpt><trkpt lat="45.256051454507435" lon="7.866549595480433"><ele>229.16666666666666</ele><time>2026-04-19T09:29:15Z</time></trkpt><trkpt lat="45.25606333624402" lon="7.866717439838202"><ele>229.0</ele><time>2026-04-19T09:29:17Z</time></trkpt><trkpt lat="45.25604758909856" lon="7.866830268959088"><ele>229.0</ele><time>2026-04-19T09:29:19Z</time></trkpt><trkpt lat="45.25605879083226" lon="7.866926247455884"><ele>228.99999999999997</ele><time>2026-04-19T09:29:22Z</time></trkpt><trkpt lat="45.256136788623174" lon="7.866942922660967"><ele>228.99999999999997</ele><time>2026-04-19T09:29:24Z</time></trkpt><trkpt lat="45.256226798803475" lon="7.8669461936729626"><ele>229.0</ele><time>2026-04-19T09:29:25Z</time></trkpt><trkpt lat="45.256329277154684" lon="7.866980505524036"><ele>229.0</ele><time>2026-04-19T09:29:26Z</time></trkpt><trkpt lat="45.25644194268347" lon="7.867037280062"><ele>229.75</ele><time>2026-04-19T09:29:27Z</time></trkpt><trkpt lat="45.25657770361554" lon="7.867102226577701"><ele>230.5</ele><time>2026-04-19T09:29:28Z</time></trkpt><trkpt lat="45.25670405148919" lon="7.867151931517912"><ele>231.25</ele><time>2026-04-19T09:29:29Z</time></trkpt><trkpt lat="45.25683175516364" lon="7.867209335911548"><ele>232.0</ele><time>2026-04-19T09:29:30Z</time></trkpt><trkpt lat="45.25696586188935" lon="7.867258341219704"><ele>232.0</ele><time>2026-04-19T09:29:31Z</time></trkpt><trkpt lat="45.25710969209343" lon="7.867317808010205"><ele>232.0</ele><time>2026-04-19T09:29:32Z</time></trkpt><trkpt lat="45.25726277946899" lon="7.867381770821148"><ele>232.0</ele><time>2026-04-19T09:29:33Z</time></trkpt><trkpt lat="45.25742287079554" lon="7.867449441720621"><ele>231.66666666666666</ele><time>2026-04-19T09:29:34Z</time></trkpt><trkpt lat="45.25757904444198" lon="7.8675149748434565"><ele>231.33333333333331</ele><time>2026-04-19T09:29:35Z</time></trkpt><trkpt lat="45.25773973388443" lon="7.867584843132506"><ele>231.0</ele><time>2026-04-19T09:29:36Z</time></trkpt><trkpt lat="45.257906169017865" lon="7.867653040323703"><ele>231.0</ele><time>2026-04-19T09:29:37Z</time></trkpt><trkpt lat="45.25807686550425" lon="7.867719832318478"><ele>231.0</ele><time>2026-04-19T09:29:38Z</time></trkpt><trkpt lat="45.258248506029396" lon="7.867790543670562"><ele>231.0</ele><time>2026-04-19T09:29:39Z</time></trkpt><trkpt lat="45.258412979464325" lon="7.867861339879065"><ele>231.0</ele><time>2026-04-19T09:29:40Z</time></trkpt><trkpt lat="45.258572909912985" lon="7.867923977662428"><ele>231.0</ele><time>2026-04-19T09:29:41Z</time></trkpt><trkpt lat="45.25871849042114" lon="7.867985454999696"><ele>231.0</ele><time>2026-04-19T09:29:42Z</time></trkpt><trkpt lat="45.25885884168377" lon="7.86804482496397"><ele>231.5</ele><time>2026-04-19T09:29:43Z</time></trkpt><trkpt lat="45.258991783865554" lon="7.868102788095683"><ele>232.0</ele><time>2026-04-19T09:29:44Z</time></trkpt><trkpt lat="45.25912179165236" lon="7.868160542540132"><ele>232.5</ele><time>2026-04-19T09:29:45Z</time></trkpt><trkpt lat="45.25924710285581" lon="7.868215216400927"><ele>233.0</ele><time>2026-04-19T09:29:46Z</time></trkpt><trkpt lat="45.25936935099244" lon="7.8682651430932005"><ele>233.0</ele><time>2026-04-19T09:29:47Z</time></trkpt><trkpt lat="45.25948747171413" lon="7.86831472786521"><ele>233.0</ele><time>2026-04-19T09:29:48Z</time></trkpt><trkpt lat="45.25959767497883" lon="7.868362033557043"><ele>233.0</ele><time>2026-04-19T09:29:49Z</time></trkpt><trkpt lat="45.25969561585074" lon="7.868412674983438"><ele>233.0</ele><time>2026-04-19T09:29:50Z</time></trkpt><trkpt lat="45.25977398697048" lon="7.868459976914604"><ele>233.0</ele><time>2026-04-19T09:29:51Z</time></trkpt><trkpt lat="45.25983826924427" lon="7.868501826366035"><ele>233.0</ele><time>2026-04-19T09:29:52Z</time></trkpt><trkpt lat="45.259871552811596" lon="7.868785103721039"><ele>233.0</ele><time>2026-04-19T09:29:53Z</time></trkpt><trkpt lat="45.25995469763418" lon="7.868810983237045"><ele>233.0</ele><time>2026-04-19T09:29:54Z</time></trkpt><trkpt lat="45.26003478063116" lon="7.868836929379033"><ele>233.0</ele><time>2026-04-19T09:29:55Z</time></trkpt><trkpt lat="45.26011958329629" lon="7.868866728118721"><ele>233.0</ele><time>2026-04-19T09:29:56Z</time></trkpt><trkpt lat="45.26021351218656" lon="7.868904993681627"><ele>233.0</ele><time>2026-04-19T09:29:57Z</time></trkpt><trkpt lat="45.26030974810251" lon="7.868944200860808"><ele>233.0</ele><time>2026-04-19T09:29:58Z</time></trkpt><trkpt lat="45.26040641515738" lon="7.86898358186372"><ele>233.0</ele><time>2026-04-19T09:29:59Z</time></trkpt><trkpt lat="45.2604924717767" lon="7.869018640317273"><ele>233.0</ele><time>2026-04-19T09:30:00Z</time></trkpt><trkpt lat="45.26057894574454" lon="7.869053868774962"><ele>233.60000000000002</ele><time>2026-04-19T09:30:01Z</time></trkpt><trkpt lat="45.26066595892211" lon="7.869089316891086"><ele>234.20000000000002</ele><time>2026-04-19T09:30:02Z</time></trkpt><trkpt lat="45.26076743298816" lon="7.86913065622521"><ele>234.8</ele><time>2026-04-19T09:30:03Z</time></trkpt><trkpt lat="45.26086297304425" lon="7.869169578101689"><ele>235.4</ele><time>2026-04-19T09:30:04Z</time></trkpt><trkpt lat="45.26095440816153" lon="7.869206827667155"><ele>236.0</ele><time>2026-04-19T09:30:05Z</time></trkpt><trkpt lat="45.26104170385511" lon="7.869242390906041"><ele>235.8</ele><time>2026-04-19T09:30:06Z</time></trkpt><trkpt lat="45.261135662713706" lon="7.869280131805968"><ele>235.60000000000002</ele><time>2026-04-19T09:30:07Z</time></trkpt><trkpt lat="45.2612364544701" lon="7.869320266903379"><ele>235.4</ele><time>2026-04-19T09:30:08Z</time></trkpt><trkpt lat="45.26133192544778" lon="7.869358283296735"><ele>235.2</ele><time>2026-04-19T09:30:09Z</time></trkpt><trkpt lat="45.261434383196814" lon="7.869399081798652"><ele>235.0</ele><time>2026-04-19T09:30:10Z</time></trkpt><trkpt lat="45.26153244227356" lon="7.86943812877436"><ele>234.83333333333331</ele><time>2026-04-19T09:30:11Z</time></trkpt><trkpt lat="45.26161778253546" lon="7.869472111125586"><ele>234.66666666666666</ele><time>2026-04-19T09:30:12Z</time></trkpt><trkpt lat="45.26170552535848" lon="7.86950705013993"><ele>234.5</ele><time>2026-04-19T09:30:13Z</time></trkpt><trkpt lat="45.261790639577704" lon="7.869540942507809"><ele>234.33333333333331</ele><time>2026-04-19T09:30:14Z</time></trkpt><trkpt lat="45.26187219093068" lon="7.8695734161328845"><ele>234.16666666666666</ele><time>2026-04-19T09:30:15Z</time></trkpt><trkpt lat="45.26195333070812" lon="7.869605725838961"><ele>234.0</ele><time>2026-04-19T09:30:16Z</time></trkpt><trkpt lat="45.26204003988315" lon="7.8696402532867"><ele>234.0</ele><time>2026-04-19T09:30:17Z</time></trkpt><trkpt lat="45.26210927360041" lon="7.869667822044507"><ele>234.0</ele><time>2026-04-19T09:30:18Z</time></trkpt><trkpt lat="45.26222488122823" lon="7.869713856806204"><ele>234.0</ele><time>2026-04-19T09:30:20Z</time></trkpt><trkpt lat="45.2623024025712" lon="7.869744725801919"><ele>234.0</ele><time>2026-04-19T09:30:21Z</time></trkpt><trkpt lat="45.262388597825826" lon="7.8697826033133405"><ele>234.0</ele><time>2026-04-19T09:30:22Z</time></trkpt><trkpt lat="45.26246496393248" lon="7.869815423724924"><ele>234.0</ele><time>2026-04-19T09:30:23Z</time></trkpt><trkpt lat="45.26252529555855" lon="7.86984135288595"><ele>234.39999999999998</ele><time>2026-04-19T09:30:24Z</time></trkpt><trkpt lat="45.262623080703484" lon="7.8698833787511395"><ele>234.79999999999998</ele><time>2026-04-19T09:30:26Z</time></trkpt><trkpt lat="45.26271026192573" lon="7.869920847270044"><ele>235.20000000000002</ele><time>2026-04-19T09:30:28Z</time></trkpt><trkpt lat="45.262809383140905" lon="7.8699634474045235"><ele>235.60000000000002</ele><time>2026-04-19T09:30:30Z</time></trkpt><trkpt lat="45.26292397232282" lon="7.870011828032341"><ele>236.0</ele><time>2026-04-19T09:30:32Z</time></trkpt><trkpt lat="45.263025686890906" lon="7.8700548467190705"><ele>236.00000000000003</ele><time>2026-04-19T09:30:34Z</time></trkpt><trkpt lat="45.263092371682056" lon="7.870082707205661"><ele>236.0</ele><time>2026-04-19T09:30:35Z</time></trkpt><trkpt lat="45.263171961169625" lon="7.87011595921499"><ele>236.0</ele><time>2026-04-19T09:30:36Z</time></trkpt><trkpt lat="45.26326307135919" lon="7.870154024508923"><ele>236.0</ele><time>2026-04-19T09:30:37Z</time></trkpt><trkpt lat="45.26334732887826" lon="7.870189226779767"><ele>236.00000000000003</ele><time>2026-04-19T09:30:38Z</time></trkpt><trkpt lat="45.263426440062695" lon="7.870222278929931"><ele>236.0</ele><time>2026-04-19T09:30:39Z</time></trkpt><trkpt lat="45.26351105440903" lon="7.870257630290342"><ele>236.00000000000003</ele><time>2026-04-19T09:30:40Z</time></trkpt><trkpt lat="45.263588462979264" lon="7.870289971119802"><ele>236.0</ele><time>2026-04-19T09:30:41Z</time></trkpt><trkpt lat="45.263669849979" lon="7.870323974115515"><ele>236.0</ele><time>2026-04-19T09:30:42Z</time></trkpt><trkpt lat="45.263745570849224" lon="7.870355609809551"><ele>236.0</ele><time>2026-04-19T09:30:43Z</time></trkpt><trkpt lat="45.26382157259596" lon="7.870387362891898"><ele>236.00000000000003</ele><time>2026-04-19T09:30:44Z</time></trkpt><trkpt lat="45.2638946831691" lon="7.870417908032651"><ele>236.0</ele><time>2026-04-19T09:30:45Z</time></trkpt><trkpt lat="45.263964752771" lon="7.870447182686841"><ele>236.14285714285714</ele><time>2026-04-19T09:30:46Z</time></trkpt><trkpt lat="45.26403520045373" lon="7.870476615292692"><ele>236.28571428571428</ele><time>2026-04-19T09:30:47Z</time></trkpt><trkpt lat="45.264100998155676" lon="7.870503817295297"><ele>236.42857142857142</ele><time>2026-04-19T09:30:48Z</time></trkpt><trkpt lat="45.26416726814432" lon="7.870530757775791"><ele>236.57142857142856</ele><time>2026-04-19T09:30:49Z</time></trkpt><trkpt lat="45.264239623607075" lon="7.8705601722200065"><ele>236.71428571428572</ele><time>2026-04-19T09:30:50Z</time></trkpt><trkpt lat="45.26431886469932" lon="7.870592385825814"><ele>236.85714285714283</ele><time>2026-04-19T09:30:51Z</time></trkpt><trkpt lat="45.2643936631166" lon="7.870622793387861"><ele>236.99999999999997</ele><time>2026-04-19T09:30:52Z</time></trkpt><trkpt lat="45.26446748486656" lon="7.870652803902526"><ele>236.99999999999997</ele><time>2026-04-19T09:30:53Z</time></trkpt><trkpt lat="45.264537672609876" lon="7.87068133699857"><ele>237.0</ele><time>2026-04-19T09:30:54Z</time></trkpt><trkpt lat="45.26461482529233" lon="7.87071270176841"><ele>236.99999999999997</ele><time>2026-04-19T09:30:55Z</time></trkpt><trkpt lat="45.26468300835706" lon="7.870740419937104"><ele>236.99999999999997</ele><time>2026-04-19T09:30:56Z</time></trkpt><trkpt lat="45.26474490209374" lon="7.8707655812942585"><ele>237.0</ele><time>2026-04-19T09:30:57Z</time></trkpt><trkpt lat="45.264810301738" lon="7.870792168073585"><ele>236.99999999999997</ele><time>2026-04-19T09:30:58Z</time></trkpt><trkpt lat="45.26488112309767" lon="7.870820958824359"><ele>236.99999999999997</ele><time>2026-04-19T09:30:59Z</time></trkpt><trkpt lat="45.264956127219556" lon="7.870851450165618"><ele>237.0</ele><time>2026-04-19T09:31:00Z</time></trkpt><trkpt lat="45.2650366028531" lon="7.870884165514807"><ele>237.0</ele><time>2026-04-19T09:31:01Z</time></trkpt><trkpt lat="45.26512075762609" lon="7.870918376672338"><ele>237.0</ele><time>2026-04-19T09:31:02Z</time></trkpt><trkpt lat="45.26520430381244" lon="7.87095234042963"><ele>237.0</ele><time>2026-04-19T09:31:03Z</time></trkpt><trkpt lat="45.26529574275432" lon="7.8709895146995486"><ele>237.0</ele><time>2026-04-19T09:31:04Z</time></trkpt><trkpt lat="45.26536971622297" lon="7.871019586896814"><ele>237.0</ele><time>2026-04-19T09:31:05Z</time></trkpt><trkpt lat="45.26544418779871" lon="7.8710503492791615"><ele>237.0</ele><time>2026-04-19T09:31:06Z</time></trkpt><trkpt lat="45.26551515851221" lon="7.871080168912232"><ele>237.0</ele><time>2026-04-19T09:31:07Z</time></trkpt><trkpt lat="45.26558873614665" lon="7.871111083860199"><ele>237.0</ele><time>2026-04-19T09:31:08Z</time></trkpt><trkpt lat="45.265661971099696" lon="7.871141854907087"><ele>237.0</ele><time>2026-04-19T09:31:09Z</time></trkpt><trkpt lat="45.265727777508275" lon="7.871169504636644"><ele>237.0</ele><time>2026-04-19T09:31:10Z</time></trkpt><trkpt lat="45.26581601076918" lon="7.871206225372566"><ele>237.0</ele><time>2026-04-19T09:31:11Z</time></trkpt><trkpt lat="45.265905143867705" lon="7.871241559299506"><ele>237.5</ele><time>2026-04-19T09:31:12Z</time></trkpt><trkpt lat="45.2659779586533" lon="7.871273015326618"><ele>238.0</ele><time>2026-04-19T09:31:13Z</time></trkpt><trkpt lat="45.26604031358581" lon="7.871310571585395"><ele>238.5</ele><time>2026-04-19T09:31:14Z</time></trkpt><trkpt lat="45.26612544972479" lon="7.871391031903847"><ele>239.0</ele><time>2026-04-19T09:31:16Z</time></trkpt><trkpt lat="45.26622126453051" lon="7.871496129186708"><ele>239.5</ele><time>2026-04-19T09:31:18Z</time></trkpt><trkpt lat="45.26627244463864" lon="7.871563727387676"><ele>240.0</ele><time>2026-04-19T09:31:20Z</time></trkpt><trkpt lat="45.266327984681865" lon="7.871631317119967"><ele>240.0</ele><time>2026-04-19T09:31:25Z</time></trkpt><trkpt lat="45.26637000848058" lon="7.871564467719085"><ele>240.0</ele><time>2026-04-19T09:31:28Z</time></trkpt><trkpt lat="45.266451709206" lon="7.871607321623267"><ele>240.0</ele><time>2026-04-19T09:31:30Z</time></trkpt><trkpt lat="45.26643455586727" lon="7.871700645095056"><ele>240.0</ele><time>2026-04-19T09:31:31Z</time></trkpt><trkpt lat="45.26648865381683" lon="7.871778453454016"><ele>240.0</ele><time>2026-04-19T09:31:34Z</time></trkpt><trkpt lat="45.26648874171648" lon="7.871871752267893"><ele>240.0</ele><time>2026-04-19T09:31:36Z</time></trkpt><trkpt lat="45.26649387304253" lon="7.871965719542903"><ele>240.0</ele><time>2026-04-19T09:31:37Z</time></trkpt><trkpt lat="45.26649516621104" lon="7.872061822215011"><ele>240.0</ele><time>2026-04-19T09:31:38Z</time></trkpt><trkpt lat="45.266509505550225" lon="7.872209973579242"><ele>240.0</ele><time>2026-04-19T09:31:39Z</time></trkpt><trkpt lat="45.26651264019619" lon="7.872372096257501"><ele>240.0</ele><time>2026-04-19T09:31:40Z</time></trkpt><trkpt lat="45.266511227603715" lon="7.87256293911954"><ele>240.0</ele><time>2026-04-19T09:31:41Z</time></trkpt><trkpt lat="45.266510610938326" lon="7.872760455574957"><ele>240.0</ele><time>2026-04-19T09:31:42Z</time></trkpt><trkpt lat="45.26650787680024" lon="7.872938107480018"><ele>240.0</ele><time>2026-04-19T09:31:43Z</time></trkpt><trkpt lat="45.2665077029798" lon="7.873108144149834"><ele>240.0</ele><time>2026-04-19T09:31:44Z</time></trkpt><trkpt lat="45.266504786235195" lon="7.873270070679124"><ele>240.0</ele><time>2026-04-19T09:31:45Z</time></trkpt><trkpt lat="45.26650398971486" lon="7.873439201834781"><ele>239.75</ele><time>2026-04-19T09:31:46Z</time></trkpt><trkpt lat="45.26650058107072" lon="7.873604595263303"><ele>239.5</ele><time>2026-04-19T09:31:47Z</time></trkpt><trkpt lat="45.26650037923684" lon="7.8737676577322215"><ele>239.25</ele><time>2026-04-19T09:31:48Z</time></trkpt><trkpt lat="45.266502483617735" lon="7.873939023075673"><ele>239.0</ele><time>2026-04-19T09:31:49Z</time></trkpt><trkpt lat="45.26650726962785" lon="7.874127818623321"><ele>238.66666666666669</ele><time>2026-04-19T09:31:50Z</time></trkpt><trkpt lat="45.26650949947437" lon="7.874340282386168"><ele>238.33333333333331</ele><time>2026-04-19T09:31:51Z</time></trkpt><trkpt lat="45.26650929414841" lon="7.874567083757004"><ele>238.0</ele><time>2026-04-19T09:31:52Z</time></trkpt><trkpt lat="45.26650654850171" lon="7.874788430563104"><ele>238.0</ele><time>2026-04-19T09:31:53Z</time></trkpt><trkpt lat="45.266509244828626" lon="7.8749994755706805"><ele>238.0</ele><time>2026-04-19T09:31:54Z</time></trkpt><trkpt lat="45.26650812052034" lon="7.875209960339819"><ele>238.0</ele><time>2026-04-19T09:31:55Z</time></trkpt><trkpt lat="45.26650867137493" lon="7.875413743605165"><ele>238.0</ele><time>2026-04-19T09:31:56Z</time></trkpt><trkpt lat="45.26651093931337" lon="7.875606525781292"><ele>238.75</ele><time>2026-04-19T09:31:57Z</time></trkpt><trkpt lat="45.266511520701954" lon="7.875781046927337"><ele>239.5</ele><time>2026-04-19T09:31:58Z</time></trkpt><trkpt lat="45.26651078852012" lon="7.875945315664767"><ele>240.25</ele><time>2026-04-19T09:31:59Z</time></trkpt><trkpt lat="45.266511847920285" lon="7.876104364314052"><ele>241.0</ele><time>2026-04-19T09:32:00Z</time></trkpt><trkpt lat="45.266510372679875" lon="7.876260622777952"><ele>241.0</ele><time>2026-04-19T09:32:01Z</time></trkpt><trkpt lat="45.26652091366791" lon="7.876421496883262"><ele>241.0</ele><time>2026-04-19T09:32:02Z</time></trkpt><trkpt lat="45.26651741599057" lon="7.876589783393907"><ele>241.0</ele><time>2026-04-19T09:32:03Z</time></trkpt><trkpt lat="45.26649441003207" lon="7.876752544926756"><ele>241.0</ele><time>2026-04-19T09:32:04Z</time></trkpt><trkpt lat="45.26650048298386" lon="7.876904957090148"><ele>241.0</ele><time>2026-04-19T09:32:05Z</time></trkpt><trkpt lat="45.26650892175001" lon="7.877055091447126"><ele>241.00000000000003</ele><time>2026-04-19T09:32:06Z</time></trkpt><trkpt lat="45.26652417652208" lon="7.877195242555326"><ele>241.00000000000003</ele><time>2026-04-19T09:32:07Z</time></trkpt><trkpt lat="45.266513886462235" lon="7.877344405995349"><ele>241.0</ele><time>2026-04-19T09:32:08Z</time></trkpt><trkpt lat="45.26652695728181" lon="7.877479267794874"><ele>241.0</ele><time>2026-04-19T09:32:09Z</time></trkpt><trkpt lat="45.26650538984781" lon="7.8776063984852716"><ele>240.99999999999997</ele><time>2026-04-19T09:32:10Z</time></trkpt><trkpt lat="45.26649379938743" lon="7.877722858514483"><ele>241.0</ele><time>2026-04-19T09:32:11Z</time></trkpt><trkpt lat="45.26648112565431" lon="7.8778452752697445"><ele>241.0</ele><time>2026-04-19T09:32:12Z</time></trkpt><trkpt lat="45.266453893639195" lon="7.877946438596369"><ele>241.0</ele><time>2026-04-19T09:32:13Z</time></trkpt><trkpt lat="45.26643673523964" lon="7.878033292607279"><ele>240.99999999999997</ele><time>2026-04-19T09:32:14Z</time></trkpt><trkpt lat="45.26641774268924" lon="7.8781361803291095"><ele>241.0</ele><time>2026-04-19T09:32:16Z</time></trkpt><trkpt lat="45.266371158319615" lon="7.878204223776802"><ele>240.83333333333331</ele><time>2026-04-19T09:32:19Z</time></trkpt><trkpt lat="45.26630332669779" lon="7.878295960431708"><ele>240.66666666666666</ele><time>2026-04-19T09:32:22Z</time></trkpt><trkpt lat="45.2662843474282" lon="7.878398911410931"><ele>240.5</ele><time>2026-04-19T09:32:23Z</time></trkpt><trkpt lat="45.266280571943064" lon="7.878520372717327"><ele>240.33333333333331</ele><time>2026-04-19T09:32:24Z</time></trkpt><trkpt lat="45.26626216818759" lon="7.878642146490475"><ele>240.16666666666666</ele><time>2026-04-19T09:32:25Z</time></trkpt><trkpt lat="45.26625704466966" lon="7.878789486927629"><ele>240.0</ele><time>2026-04-19T09:32:26Z</time></trkpt><trkpt lat="45.26625591256923" lon="7.878931449454333"><ele>240.0</ele><time>2026-04-19T09:32:27Z</time></trkpt><trkpt lat="45.26622971469047" lon="7.879064839494756"><ele>240.0</ele><time>2026-04-19T09:32:28Z</time></trkpt><trkpt lat="45.266220623772426" lon="7.879200469412906"><ele>240.0</ele><time>2026-04-19T09:32:29Z</time></trkpt><trkpt lat="45.266230341181625" lon="7.87933486582534"><ele>240.0</ele><time>2026-04-19T09:32:30Z</time></trkpt><trkpt lat="45.26622879827103" lon="7.879465397318254"><ele>240.0</ele><time>2026-04-19T09:32:31Z</time></trkpt><trkpt lat="45.26622595322025" lon="7.879585644815785"><ele>240.0</ele><time>2026-04-19T09:32:32Z</time></trkpt><trkpt lat="45.26624475526811" lon="7.879704412550399"><ele>240.0</ele><time>2026-04-19T09:32:33Z</time></trkpt><trkpt lat="45.26627072918495" lon="7.879818768140742"><ele>240.0</ele><time>2026-04-19T09:32:34Z</time></trkpt><trkpt lat="45.26630197300334" lon="7.87991127950538"><ele>240.0</ele><time>2026-04-19T09:32:35Z</time></trkpt><trkpt lat="45.266342143697564" lon="7.879995388596818"><ele>240.0</ele><time>2026-04-19T09:32:36Z</time></trkpt><trkpt lat="45.26642780488837" lon="7.880109717644825"><ele>240.0</ele><time>2026-04-19T09:32:38Z</time></trkpt><trkpt lat="45.26643254163312" lon="7.880266323067174"><ele>239.66666666666666</ele><time>2026-04-19T09:32:40Z</time></trkpt><trkpt lat="45.26642035791178" lon="7.880370531148004"><ele>239.33333333333331</ele><time>2026-04-19T09:32:41Z</time></trkpt><trkpt lat="45.26641064734486" lon="7.8804911599328875"><ele>239.0</ele><time>2026-04-19T09:32:42Z</time></trkpt><trkpt lat="45.26637719705039" lon="7.880618730857528"><ele>238.66666666666666</ele><time>2026-04-19T09:32:43Z</time></trkpt><trkpt lat="45.26636383181744" lon="7.880754989864213"><ele>238.33333333333331</ele><time>2026-04-19T09:32:44Z</time></trkpt><trkpt lat="45.26636745374122" lon="7.880880090445678"><ele>238.0</ele><time>2026-04-19T09:32:45Z</time></trkpt><trkpt lat="45.26635371651705" lon="7.880997505615382"><ele>237.8</ele><time>2026-04-19T09:32:46Z</time></trkpt><trkpt lat="45.26636430547611" lon="7.8810998431714046"><ele>237.60000000000002</ele><time>2026-04-19T09:32:47Z</time></trkpt><trkpt lat="45.2663505040442" lon="7.8812543728743"><ele>237.39999999999998</ele><time>2026-04-19T09:32:49Z</time></trkpt><trkpt lat="45.26635522922948" lon="7.881415586323656"><ele>237.2</ele><time>2026-04-19T09:32:51Z</time></trkpt><trkpt lat="45.266355795388456" lon="7.881527776628654"><ele>237.0</ele><time>2026-04-19T09:32:52Z</time></trkpt><trkpt lat="45.26635832553377" lon="7.881643432506126"><ele>237.0</ele><time>2026-04-19T09:32:53Z</time></trkpt><trkpt lat="45.266363033261115" lon="7.881740487991465"><ele>237.0</ele><time>2026-04-19T09:32:54Z</time></trkpt><trkpt lat="45.26634437561941" lon="7.88184408474755"><ele>237.0</ele><time>2026-04-19T09:32:56Z</time></trkpt><trkpt lat="45.26618051043613" lon="7.88188914810876"><ele>237.0</ele><time>2026-04-19T09:32:59Z</time></trkpt><trkpt lat="45.26609472792789" lon="7.881918717236839"><ele>237.0</ele><time>2026-04-19T09:33:00Z</time></trkpt><trkpt lat="45.26601652935006" lon="7.8819485634144595"><ele>237.0</ele><time>2026-04-19T09:33:01Z</time></trkpt><trkpt lat="45.265942306392624" lon="7.881958630172371"><ele>237.0</ele><time>2026-04-19T09:33:02Z</time></trkpt><trkpt lat="45.26587108849031" lon="7.881993233391401"><ele>237.0</ele><time>2026-04-19T09:33:03Z</time></trkpt><trkpt lat="45.26579960217248" lon="7.882051607370468"><ele>237.0</ele><time>2026-04-19T09:33:04Z</time></trkpt><trkpt lat="45.26571884385857" lon="7.882084941377181"><ele>237.0</ele><time>2026-04-19T09:33:05Z</time></trkpt><trkpt lat="45.265656055128886" lon="7.88211797454077"><ele>237.0</ele><time>2026-04-19T09:33:06Z</time></trkpt><trkpt lat="45.26560820465774" lon="7.882187816833934"><ele>237.0</ele><time>2026-04-19T09:33:09Z</time></trkpt><trkpt lat="45.26573199189222" lon="7.882369972051838"><ele>237.0</ele><time>2026-04-19T09:33:12Z</time></trkpt><trkpt lat="45.265870548207" lon="7.882049982576771"><ele>237.0</ele><time>2026-04-19T09:33:14Z</time></trkpt><trkpt lat="45.26595896416236" lon="7.881993465805318"><ele>237.0</ele><time>2026-04-19T09:33:15Z</time></trkpt><trkpt lat="45.2660650694076" lon="7.881956159050146"><ele>237.0</ele><time>2026-04-19T09:33:16Z</time></trkpt><trkpt lat="45.26615308605511" lon="7.881918098977152"><ele>237.0</ele><time>2026-04-19T09:33:17Z</time></trkpt><trkpt lat="45.26622605111393" lon="7.881879879225373"><ele>237.0</ele><time>2026-04-19T09:33:18Z</time></trkpt><trkpt lat="45.2663371727491" lon="7.88184541834824"><ele>237.0</ele><time>2026-04-19T09:33:20Z</time></trkpt><trkpt lat="45.266354815080724" lon="7.881978737612232"><ele>237.0</ele><time>2026-04-19T09:33:24Z</time></trkpt><trkpt lat="45.26635696291649" lon="7.882075194882117"><ele>237.0</ele><time>2026-04-19T09:33:25Z</time></trkpt><trkpt lat="45.266360024027634" lon="7.882212666718091"><ele>237.0</ele><time>2026-04-19T09:33:26Z</time></trkpt><trkpt lat="45.26636380467498" lon="7.882382452191796"><ele>237.0</ele><time>2026-04-19T09:33:27Z</time></trkpt><trkpt lat="45.266366705185" lon="7.8825679099099935"><ele>237.0</ele><time>2026-04-19T09:33:28Z</time></trkpt><trkpt lat="45.266369224308825" lon="7.882733612314497"><ele>237.25</ele><time>2026-04-19T09:33:29Z</time></trkpt><trkpt lat="45.26637178879438" lon="7.882902298522465"><ele>237.5</ele><time>2026-04-19T09:33:30Z</time></trkpt><trkpt lat="45.26637451681725" lon="7.883081741752489"><ele>237.75</ele><time>2026-04-19T09:33:31Z</time></trkpt><trkpt lat="45.2663773681652" lon="7.883269297204693"><ele>238.0</ele><time>2026-04-19T09:33:32Z</time></trkpt><trkpt lat="45.26638035343492" lon="7.8834656615219645"><ele>237.33333333333331</ele><time>2026-04-19T09:33:33Z</time></trkpt><trkpt lat="45.266383500064336" lon="7.883672639774457"><ele>236.66666666666669</ele><time>2026-04-19T09:33:34Z</time></trkpt><trkpt lat="45.266386879971904" lon="7.883888499406319"><ele>236.0</ele><time>2026-04-19T09:33:35Z</time></trkpt><trkpt lat="45.26639032640871" lon="7.884107826192475"><ele>235.75</ele><time>2026-04-19T09:33:36Z</time></trkpt><trkpt lat="45.26639336283304" lon="7.884301060198278"><ele>235.5</ele><time>2026-04-19T09:33:37Z</time></trkpt><trkpt lat="45.266396065059695" lon="7.884473026498666"><ele>235.25</ele><time>2026-04-19T09:33:38Z</time></trkpt><trkpt lat="45.26639862834428" lon="7.884636150549768"><ele>235.0</ele><time>2026-04-19T09:33:39Z</time></trkpt><trkpt lat="45.26640098068197" lon="7.884785850189446"><ele>234.99999999999997</ele><time>2026-04-19T09:33:40Z</time></trkpt><trkpt lat="45.26640319539092" lon="7.884926791376418"><ele>235.0</ele><time>2026-04-19T09:33:41Z</time></trkpt><trkpt lat="45.26640516616088" lon="7.885052208610462"><ele>235.0</ele><time>2026-04-19T09:33:42Z</time></trkpt><trkpt lat="45.26640671415518" lon="7.885150720971629"><ele>235.0</ele><time>2026-04-19T09:33:43Z</time></trkpt><trkpt lat="45.26640843982492" lon="7.885260540344288"><ele>234.99999999999997</ele><time>2026-04-19T09:33:44Z</time></trkpt><trkpt lat="45.26641006076008" lon="7.885363694530448"><ele>235.0</ele><time>2026-04-19T09:33:45Z</time></trkpt><trkpt lat="45.26641787390494" lon="7.885480639357686"><ele>235.5</ele><time>2026-04-19T09:33:46Z</time></trkpt><trkpt lat="45.266418741210195" lon="7.885623961777546"><ele>236.0</ele><time>2026-04-19T09:33:47Z</time></trkpt><trkpt lat="45.26642094273011" lon="7.885786492821689"><ele>236.5</ele><time>2026-04-19T09:33:48Z</time></trkpt><trkpt lat="45.26642527492857" lon="7.885956185881174"><ele>237.0</ele><time>2026-04-19T09:33:49Z</time></trkpt><trkpt lat="45.266430567703104" lon="7.886126167979856"><ele>237.0</ele><time>2026-04-19T09:33:50Z</time></trkpt><trkpt lat="45.26643544196102" lon="7.886296245934277"><ele>237.0</ele><time>2026-04-19T09:33:51Z</time></trkpt><trkpt lat="45.26644078304321" lon="7.886455162902439"><ele>237.0</ele><time>2026-04-19T09:33:52Z</time></trkpt><trkpt lat="45.26644401403138" lon="7.8866079549924235"><ele>237.0</ele><time>2026-04-19T09:33:53Z</time></trkpt><trkpt lat="45.266445614766475" lon="7.886754148444657"><ele>237.0</ele><time>2026-04-19T09:33:54Z</time></trkpt><trkpt lat="45.266447769778736" lon="7.886898119006116"><ele>236.75</ele><time>2026-04-19T09:33:55Z</time></trkpt><trkpt lat="45.266449161094414" lon="7.88705023539988"><ele>236.5</ele><time>2026-04-19T09:33:56Z</time></trkpt><trkpt lat="45.26644923580332" lon="7.887219620898084"><ele>236.25</ele><time>2026-04-19T09:33:57Z</time></trkpt><trkpt lat="45.26645176919156" lon="7.887404384871973"><ele>236.0</ele><time>2026-04-19T09:33:58Z</time></trkpt><trkpt lat="45.26645178535304" lon="7.887606328510052"><ele>236.0</ele><time>2026-04-19T09:33:59Z</time></trkpt><trkpt lat="45.266454264468514" lon="7.88782579037133"><ele>236.0</ele><time>2026-04-19T09:34:00Z</time></trkpt><trkpt lat="45.26645923289015" lon="7.888058756218057"><ele>236.0</ele><time>2026-04-19T09:34:01Z</time></trkpt><trkpt lat="45.26646612952843" lon="7.888283952387735"><ele>236.0</ele><time>2026-04-19T09:34:02Z</time></trkpt><trkpt lat="45.26647122516519" lon="7.888519200538574"><ele>236.0</ele><time>2026-04-19T09:34:03Z</time></trkpt><trkpt lat="45.266475773495316" lon="7.888766185114725"><ele>236.0</ele><time>2026-04-19T09:34:04Z</time></trkpt><trkpt lat="45.266479103134685" lon="7.889020886757535"><ele>236.0</ele><time>2026-04-19T09:34:05Z</time></trkpt><trkpt lat="45.266484768621254" lon="7.889276287923137"><ele>236.0</ele><time>2026-04-19T09:34:06Z</time></trkpt><trkpt lat="45.26648911996923" lon="7.889532474990601"><ele>236.0</ele><time>2026-04-19T09:34:07Z</time></trkpt><trkpt lat="45.266491866764326" lon="7.889783995035729"><ele>236.0</ele><time>2026-04-19T09:34:08Z</time></trkpt><trkpt lat="45.266495417080314" lon="7.890039522580161"><ele>236.0</ele><time>2026-04-19T09:34:09Z</time></trkpt><trkpt lat="45.26650032679009" lon="7.890297863970719"><ele>236.0</ele><time>2026-04-19T09:34:10Z</time></trkpt><trkpt lat="45.26650141385269" lon="7.89054358912391"><ele>236.5</ele><time>2026-04-19T09:34:11Z</time></trkpt><trkpt lat="45.266507130796015" lon="7.8907654063960395"><ele>237.0</ele><time>2026-04-19T09:34:12Z</time></trkpt><trkpt lat="45.26651031106217" lon="7.8909711870054045"><ele>237.5</ele><time>2026-04-19T09:34:13Z</time></trkpt><trkpt lat="45.26651370290752" lon="7.89116717060183"><ele>238.0</ele><time>2026-04-19T09:34:14Z</time></trkpt><trkpt lat="45.266514277057624" lon="7.891346148602321"><ele>238.0</ele><time>2026-04-19T09:34:15Z</time></trkpt><trkpt lat="45.266519983821375" lon="7.891525351935045"><ele>238.0</ele><time>2026-04-19T09:34:16Z</time></trkpt><trkpt lat="45.266523397387" lon="7.891697190424021"><ele>238.0</ele><time>2026-04-19T09:34:17Z</time></trkpt><trkpt lat="45.266516388720454" lon="7.891848951779551"><ele>238.0</ele><time>2026-04-19T09:34:18Z</time></trkpt><trkpt lat="45.26650248429701" lon="7.89197178570157"><ele>238.0</ele><time>2026-04-19T09:34:19Z</time></trkpt><trkpt lat="45.2665109154708" lon="7.892064423233717"><ele>237.83333333333331</ele><time>2026-04-19T09:34:20Z</time></trkpt><trkpt lat="45.26645607723422" lon="7.892125848118698"><ele>237.66666666666666</ele><time>2026-04-19T09:34:21Z</time></trkpt><trkpt lat="45.26641120027489" lon="7.892192844454732"><ele>237.5</ele><time>2026-04-19T09:34:23Z</time></trkpt><trkpt lat="45.266373631967255" lon="7.8922800933790755"><ele>237.33333333333331</ele><time>2026-04-19T09:34:40Z</time></trkpt><trkpt lat="45.2664433330139" lon="7.892346260011027"><ele>237.16666666666666</ele><time>2026-04-19T09:34:41Z</time></trkpt><trkpt lat="45.26656837802573" lon="7.8923288000485465"><ele>237.0</ele><time>2026-04-19T09:34:43Z</time></trkpt><trkpt lat="45.266641545799615" lon="7.8923172195571"><ele>237.0</ele><time>2026-04-19T09:34:44Z</time></trkpt><trkpt lat="45.266728283831" lon="7.892329296586728"><ele>237.0</ele><time>2026-04-19T09:34:45Z</time></trkpt><trkpt lat="45.266840037675735" lon="7.892333592107589"><ele>237.0</ele><time>2026-04-19T09:34:46Z</time></trkpt><trkpt lat="45.26697329631983" lon="7.892335016671967"><ele>237.0</ele><time>2026-04-19T09:34:47Z</time></trkpt><trkpt lat="45.267117663134044" lon="7.892336290151733"><ele>237.0</ele><time>2026-04-19T09:34:48Z</time></trkpt><trkpt lat="45.267260228180874" lon="7.892346930433486"><ele>237.0</ele><time>2026-04-19T09:34:49Z</time></trkpt><trkpt lat="45.26740874394292" lon="7.892351654312091"><ele>237.0</ele><time>2026-04-19T09:34:50Z</time></trkpt><trkpt lat="45.267569989199046" lon="7.892353485242045"><ele>237.0</ele><time>2026-04-19T09:34:51Z</time></trkpt><trkpt lat="45.26774144290966" lon="7.89236444804421"><ele>237.0</ele><time>2026-04-19T09:34:52Z</time></trkpt><trkpt lat="45.26793282531095" lon="7.892370388223406"><ele>237.0</ele><time>2026-04-19T09:34:53Z</time></trkpt><trkpt lat="45.268119464097865" lon="7.892374559679184"><ele>237.33333333333331</ele><time>2026-04-19T09:34:54Z</time></trkpt><trkpt lat="45.26831471002493" lon="7.892378166393463"><ele>237.66666666666666</ele><time>2026-04-19T09:34:55Z</time></trkpt><trkpt lat="45.26851210097527" lon="7.892382768097081"><ele>238.0</ele><time>2026-04-19T09:34:56Z</time></trkpt><trkpt lat="45.268720448359396" lon="7.8923880077051365"><ele>238.0</ele><time>2026-04-19T09:34:57Z</time></trkpt><trkpt lat="45.268931697578786" lon="7.8923934503758595"><ele>238.0</ele><time>2026-04-19T09:34:58Z</time></trkpt><trkpt lat="45.26913547462754" lon="7.892399470225869"><ele>238.0</ele><time>2026-04-19T09:34:59Z</time></trkpt><trkpt lat="45.26933795599592" lon="7.892405810759885"><ele>238.33333333333331</ele><time>2026-04-19T09:35:00Z</time></trkpt><trkpt lat="45.26953647728304" lon="7.892410909975653"><ele>238.66666666666669</ele><time>2026-04-19T09:35:01Z</time></trkpt><trkpt lat="45.2697322175439" lon="7.892420356993597"><ele>239.0</ele><time>2026-04-19T09:35:02Z</time></trkpt><trkpt lat="45.26992855630906" lon="7.892429093101821"><ele>239.33333333333334</ele><time>2026-04-19T09:35:03Z</time></trkpt><trkpt lat="45.270123199921564" lon="7.892436319020404"><ele>239.66666666666669</ele><time>2026-04-19T09:35:04Z</time></trkpt><trkpt lat="45.27031861232446" lon="7.892438988674881"><ele>240.0</ele><time>2026-04-19T09:35:05Z</time></trkpt><trkpt lat="45.27051630870839" lon="7.892442919816245"><ele>240.0</ele><time>2026-04-19T09:35:06Z</time></trkpt><trkpt lat="45.270714020572264" lon="7.892449998753896"><ele>240.0</ele><time>2026-04-19T09:35:07Z</time></trkpt><trkpt lat="45.27091539826384" lon="7.892456544789854"><ele>240.0</ele><time>2026-04-19T09:35:08Z</time></trkpt><trkpt lat="45.27111835077005" lon="7.892463593831374"><ele>240.0</ele><time>2026-04-19T09:35:09Z</time></trkpt><trkpt lat="45.27132265070804" lon="7.89247099068187"><ele>240.0</ele><time>2026-04-19T09:35:10Z</time></trkpt><trkpt lat="45.27152831870461" lon="7.89247658435226"><ele>240.0</ele><time>2026-04-19T09:35:11Z</time></trkpt><trkpt lat="45.271734311329524" lon="7.892485009158175"><ele>240.33333333333331</ele><time>2026-04-19T09:35:12Z</time></trkpt><trkpt lat="45.27193952376662" lon="7.892492332522118"><ele>240.66666666666666</ele><time>2026-04-19T09:35:13Z</time></trkpt><trkpt lat="45.27213834420161" lon="7.892498029034946"><ele>241.0</ele><time>2026-04-19T09:35:14Z</time></trkpt><trkpt lat="45.27233039400674" lon="7.892509280317584"><ele>241.66666666666666</ele><time>2026-04-19T09:35:15Z</time></trkpt><trkpt lat="45.272511639760936" lon="7.892512679481769"><ele>242.33333333333331</ele><time>2026-04-19T09:35:16Z</time></trkpt><trkpt lat="45.27267929997308" lon="7.89252186611197"><ele>243.0</ele><time>2026-04-19T09:35:17Z</time></trkpt><trkpt lat="45.272834727097234" lon="7.892531054776128"><ele>243.0</ele><time>2026-04-19T09:35:18Z</time></trkpt><trkpt lat="45.27298267963503" lon="7.8925421846766985"><ele>243.0</ele><time>2026-04-19T09:35:19Z</time></trkpt><trkpt lat="45.27312143430406" lon="7.892552954203945"><ele>243.0</ele><time>2026-04-19T09:35:20Z</time></trkpt><trkpt lat="45.27325549043122" lon="7.89256860798533"><ele>243.0</ele><time>2026-04-19T09:35:21Z</time></trkpt><trkpt lat="45.27337309311425" lon="7.892616553926584"><ele>242.8</ele><time>2026-04-19T09:35:22Z</time></trkpt><trkpt lat="45.27347017554768" lon="7.8926954695210965"><ele>242.60000000000002</ele><time>2026-04-19T09:35:23Z</time></trkpt><trkpt lat="45.273545116317344" lon="7.892796371413581"><ele>242.39999999999998</ele><time>2026-04-19T09:35:24Z</time></trkpt><trkpt lat="45.27361363168327" lon="7.892897881636852"><ele>242.2</ele><time>2026-04-19T09:35:25Z</time></trkpt><trkpt lat="45.27369295934878" lon="7.892942352917524"><ele>242.0</ele><time>2026-04-19T09:35:26Z</time></trkpt><trkpt lat="45.27378350698826" lon="7.89295049279016"><ele>242.0</ele><time>2026-04-19T09:35:27Z</time></trkpt><trkpt lat="45.27369918357055" lon="7.893199503636477"><ele>242.0</ele><time>2026-04-19T09:35:30Z</time></trkpt><trkpt lat="45.273601268652" lon="7.89314041189791"><ele>242.0</ele><time>2026-04-19T09:35:33Z</time></trkpt><trkpt lat="45.27353426558048" lon="7.893064631754012"><ele>242.0</ele><time>2026-04-19T09:35:34Z</time></trkpt><trkpt lat="45.27345852657132" lon="7.892982062233201"><ele>242.0</ele><time>2026-04-19T09:35:35Z</time></trkpt><trkpt lat="45.27337684582085" lon="7.892905578327094"><ele>242.0</ele><time>2026-04-19T09:35:36Z</time></trkpt><trkpt lat="45.27330107371012" lon="7.892804753969853"><ele>242.0</ele><time>2026-04-19T09:35:37Z</time></trkpt><trkpt lat="45.273230501968065" lon="7.892729482289145"><ele>242.0</ele><time>2026-04-19T09:35:38Z</time></trkpt><trkpt lat="45.27312320753204" lon="7.892669316500222"><ele>242.0</ele><time>2026-04-19T09:35:39Z</time></trkpt><trkpt lat="45.27300702287691" lon="7.892634221871076"><ele>242.33333333333334</ele><time>2026-04-19T09:35:40Z</time></trkpt><trkpt lat="45.272859581567204" lon="7.892641681604445"><ele>242.66666666666669</ele><time>2026-04-19T09:35:41Z</time></trkpt><trkpt lat="45.272713289329765" lon="7.892465903210724"><ele>243.0</ele><time>2026-04-19T09:35:42Z</time></trkpt><trkpt lat="45.27257045340818" lon="7.892455691301813"><ele>243.0</ele><time>2026-04-19T09:35:43Z</time></trkpt><trkpt lat="45.27242924877946" lon="7.8924472477513"><ele>243.0</ele><time>2026-04-19T09:35:44Z</time></trkpt><trkpt lat="45.2722884861057" lon="7.892441504810858"><ele>243.0</ele><time>2026-04-19T09:35:45Z</time></trkpt><trkpt lat="45.27214739950836" lon="7.892435748643731"><ele>243.0</ele><time>2026-04-19T09:35:46Z</time></trkpt><trkpt lat="45.272007039418526" lon="7.892430022123262"><ele>242.5</ele><time>2026-04-19T09:35:47Z</time></trkpt><trkpt lat="45.27187215150893" lon="7.892424518847899"><ele>242.0</ele><time>2026-04-19T09:35:48Z</time></trkpt><trkpt lat="45.2717321240218" lon="7.8924188058842715"><ele>241.5</ele><time>2026-04-19T09:35:49Z</time></trkpt><trkpt lat="45.27159724555762" lon="7.892413303014823"><ele>241.0</ele><time>2026-04-19T09:35:50Z</time></trkpt><trkpt lat="45.27145811201039" lon="7.892407626532359"><ele>240.75</ele><time>2026-04-19T09:35:51Z</time></trkpt><trkpt lat="45.27132197417651" lon="7.892402072267319"><ele>240.5</ele><time>2026-04-19T09:35:52Z</time></trkpt><trkpt lat="45.271184399420264" lon="7.892396561690983"><ele>240.25</ele><time>2026-04-19T09:35:53Z</time></trkpt><trkpt lat="45.27104315165056" lon="7.892391672471893"><ele>240.0</ele><time>2026-04-19T09:35:54Z</time></trkpt><trkpt lat="45.27089948830863" lon="7.892386699641473"><ele>240.0</ele><time>2026-04-19T09:35:55Z</time></trkpt><trkpt lat="45.27075344452783" lon="7.892381644418718"><ele>240.0</ele><time>2026-04-19T09:35:56Z</time></trkpt><trkpt lat="45.270610935033886" lon="7.892376711529886"><ele>240.0</ele><time>2026-04-19T09:35:57Z</time></trkpt><trkpt lat="45.27047062983785" lon="7.892371854934963"><ele>240.0</ele><time>2026-04-19T09:35:58Z</time></trkpt><trkpt lat="45.27033361526786" lon="7.892367112242106"><ele>240.0</ele><time>2026-04-19T09:35:59Z</time></trkpt><trkpt lat="45.2701999315966" lon="7.8923624848613665"><ele>240.0</ele><time>2026-04-19T09:36:00Z</time></trkpt><trkpt lat="45.27006666825493" lon="7.892357872015881"><ele>240.0</ele><time>2026-04-19T09:36:01Z</time></trkpt><trkpt lat="45.26992241343227" lon="7.892352878706063"><ele>240.0</ele><time>2026-04-19T09:36:02Z</time></trkpt><trkpt lat="45.269777136618664" lon="7.892347850031568"><ele>239.75</ele><time>2026-04-19T09:36:03Z</time></trkpt><trkpt lat="45.26962338510464" lon="7.8923425280146855"><ele>239.5</ele><time>2026-04-19T09:36:04Z</time></trkpt><trkpt lat="45.26947348442662" lon="7.892337339271876"><ele>239.25</ele><time>2026-04-19T09:36:05Z</time></trkpt><trkpt lat="45.2693292232468" lon="7.892332345754558"><ele>239.0</ele><time>2026-04-19T09:36:06Z</time></trkpt><trkpt lat="45.269188961960296" lon="7.89232749068625"><ele>239.0</ele><time>2026-04-19T09:36:07Z</time></trkpt><trkpt lat="45.26904826601869" lon="7.892322663282061"><ele>239.0</ele><time>2026-04-19T09:36:08Z</time></trkpt><trkpt lat="45.26889371758927" lon="7.892317427238606"><ele>239.0</ele><time>2026-04-19T09:36:09Z</time></trkpt><trkpt lat="45.2687440173057" lon="7.892312355447786"><ele>239.0</ele><time>2026-04-19T09:36:10Z</time></trkpt><trkpt lat="45.2685929415908" lon="7.892307237060088"><ele>238.75</ele><time>2026-04-19T09:36:11Z</time></trkpt><trkpt lat="45.26844762166729" lon="7.892302313661361"><ele>238.5</ele><time>2026-04-19T09:36:12Z</time></trkpt><trkpt lat="45.268303599839264" lon="7.892297434249652"><ele>238.25</ele><time>2026-04-19T09:36:13Z</time></trkpt><trkpt lat="45.26816880986055" lon="7.892292844739563"><ele>238.0</ele><time>2026-04-19T09:36:14Z</time></trkpt><trkpt lat="45.26804579183995" lon="7.892288578225316"><ele>237.75</ele><time>2026-04-19T09:36:15Z</time></trkpt><trkpt lat="45.26792819409563" lon="7.8922844922909485"><ele>237.5</ele><time>2026-04-19T09:36:16Z</time></trkpt><trkpt lat="45.267817502444586" lon="7.8922806460581745"><ele>237.25</ele><time>2026-04-19T09:36:17Z</time></trkpt><trkpt lat="45.267699870329885" lon="7.892276558660118"><ele>237.0</ele><time>2026-04-19T09:36:18Z</time></trkpt><trkpt lat="45.26756562776246" lon="7.89227189409404"><ele>237.0</ele><time>2026-04-19T09:36:19Z</time></trkpt><trkpt lat="45.26744649035759" lon="7.892267754386333"><ele>237.0</ele><time>2026-04-19T09:36:20Z</time></trkpt><trkpt lat="45.26730270961601" lon="7.89226275839956"><ele>237.0</ele><time>2026-04-19T09:36:21Z</time></trkpt><trkpt lat="45.267188215070405" lon="7.892258781978515"><ele>237.0</ele><time>2026-04-19T09:36:22Z</time></trkpt><trkpt lat="45.267076151947954" lon="7.8922547290971625"><ele>237.0</ele><time>2026-04-19T09:36:23Z</time></trkpt><trkpt lat="45.266965527993406" lon="7.892250662787488"><ele>237.0</ele><time>2026-04-19T09:36:24Z</time></trkpt><trkpt lat="45.266872754549944" lon="7.892247252619133"><ele>237.0</ele><time>2026-04-19T09:36:25Z</time></trkpt><trkpt lat="45.266786802830154" lon="7.892244093196456"><ele>237.0</ele><time>2026-04-19T09:36:26Z</time></trkpt><trkpt lat="45.266706914415664" lon="7.892241156683795"><ele>237.0</ele><time>2026-04-19T09:36:27Z</time></trkpt><trkpt lat="45.26662916186929" lon="7.892240422879396"><ele>237.0</ele><time>2026-04-19T09:36:28Z</time></trkpt><trkpt lat="45.26652269962922" lon="7.892239081544745"><ele>237.0</ele><time>2026-04-19T09:36:30Z</time></trkpt><trkpt lat="45.26645678752264" lon="7.892274102423519"><ele>237.0</ele><time>2026-04-19T09:36:33Z</time></trkpt><trkpt lat="45.26628012215536" lon="7.892429836405339"><ele>237.0</ele><time>2026-04-19T09:36:34Z</time></trkpt><trkpt lat="45.26646693783264" lon="7.892963292822392"><ele>236.8</ele><time>2026-04-19T09:36:36Z</time></trkpt><trkpt lat="45.26647137717571" lon="7.8931066215966945"><ele>236.6</ele><time>2026-04-19T09:36:37Z</time></trkpt><trkpt lat="45.26647764807156" lon="7.8932453192386065"><ele>236.40000000000003</ele><time>2026-04-19T09:36:38Z</time></trkpt><trkpt lat="45.266482311702575" lon="7.89337977185712"><ele>236.20000000000002</ele><time>2026-04-19T09:36:39Z</time></trkpt><trkpt lat="45.26648819801002" lon="7.893515768084252"><ele>236.0</ele><time>2026-04-19T09:36:40Z</time></trkpt><trkpt lat="45.26649596422889" lon="7.893673099421988"><ele>236.0</ele><time>2026-04-19T09:36:41Z</time></trkpt><trkpt lat="45.266504644546345" lon="7.893826259043728"><ele>236.00000000000003</ele><time>2026-04-19T09:36:42Z</time></trkpt><trkpt lat="45.26651099329881" lon="7.893976658369202"><ele>236.00000000000003</ele><time>2026-04-19T09:36:43Z</time></trkpt><trkpt lat="45.26651909913963" lon="7.8941325347566185"><ele>236.0</ele><time>2026-04-19T09:36:44Z</time></trkpt><trkpt lat="45.26652450523812" lon="7.894283218636385"><ele>236.0</ele><time>2026-04-19T09:36:45Z</time></trkpt><trkpt lat="45.26652845494326" lon="7.894432689888166"><ele>236.0</ele><time>2026-04-19T09:36:46Z</time></trkpt><trkpt lat="45.26653383114433" lon="7.894586219570091"><ele>236.00000000000003</ele><time>2026-04-19T09:36:47Z</time></trkpt><trkpt lat="45.266543031624856" lon="7.894729731408821"><ele>236.00000000000003</ele><time>2026-04-19T09:36:48Z</time></trkpt><trkpt lat="45.26654566390934" lon="7.894859760627973"><ele>236.0</ele><time>2026-04-19T09:36:49Z</time></trkpt><trkpt lat="45.26655055652218" lon="7.894983347563425"><ele>236.0</ele><time>2026-04-19T09:36:50Z</time></trkpt><trkpt lat="45.26655532208344" lon="7.8950977499646084"><ele>235.8</ele><time>2026-04-19T09:36:51Z</time></trkpt><trkpt lat="45.266552820092194" lon="7.895247885115951"><ele>235.60000000000002</ele><time>2026-04-19T09:36:52Z</time></trkpt><trkpt lat="45.26655850035" lon="7.895391693449882"><ele>235.4</ele><time>2026-04-19T09:36:53Z</time></trkpt><trkpt lat="45.26656228815657" lon="7.895543302545793"><ele>235.2</ele><time>2026-04-19T09:36:54Z</time></trkpt><trkpt lat="45.26656815895156" lon="7.895688236010086"><ele>235.0</ele><time>2026-04-19T09:36:55Z</time></trkpt><trkpt lat="45.266577526918006" lon="7.895835076206598"><ele>235.0</ele><time>2026-04-19T09:36:56Z</time></trkpt><trkpt lat="45.26658477779941" lon="7.895967494150147"><ele>235.0</ele><time>2026-04-19T09:36:57Z</time></trkpt><trkpt lat="45.26659005542584" lon="7.896117787077656"><ele>235.0</ele><time>2026-04-19T09:36:58Z</time></trkpt><trkpt lat="45.26660302446805" lon="7.896261803747343"><ele>235.0</ele><time>2026-04-19T09:36:59Z</time></trkpt><trkpt lat="45.26660318575057" lon="7.896399172488766"><ele>235.0</ele><time>2026-04-19T09:37:00Z</time></trkpt><trkpt lat="45.26661113941237" lon="7.896543358782783"><ele>234.99999999999997</ele><time>2026-04-19T09:37:01Z</time></trkpt><trkpt lat="45.26662386478887" lon="7.896682820698661"><ele>235.0</ele><time>2026-04-19T09:37:02Z</time></trkpt><trkpt lat="45.266631774996455" lon="7.896821091363826"><ele>235.0</ele><time>2026-04-19T09:37:03Z</time></trkpt><trkpt lat="45.26664264890093" lon="7.8969419235929985"><ele>235.0</ele><time>2026-04-19T09:37:04Z</time></trkpt><trkpt lat="45.266642939281645" lon="7.897057951390246"><ele>234.99999999999997</ele><time>2026-04-19T09:37:05Z</time></trkpt><trkpt lat="45.266639326925045" lon="7.897176874780743"><ele>235.0</ele><time>2026-04-19T09:37:06Z</time></trkpt><trkpt lat="45.26664116903128" lon="7.897289655710859"><ele>235.16666666666666</ele><time>2026-04-19T09:37:07Z</time></trkpt><trkpt lat="45.26663234675491" lon="7.897404494227228"><ele>235.33333333333331</ele><time>2026-04-19T09:37:08Z</time></trkpt><trkpt lat="45.26661336455789" lon="7.897507547432987"><ele>235.5</ele><time>2026-04-19T09:37:09Z</time></trkpt><trkpt lat="45.26659335299203" lon="7.897612645936933"><ele>235.66666666666669</ele><time>2026-04-19T09:37:10Z</time></trkpt><trkpt lat="45.26657952236454" lon="7.8977257480898935"><ele>235.83333333333334</ele><time>2026-04-19T09:37:11Z</time></trkpt><trkpt lat="45.26658260634184" lon="7.897845177954661"><ele>236.0</ele><time>2026-04-19T09:37:12Z</time></trkpt><trkpt lat="45.26659052874937" lon="7.897971065567167"><ele>236.0</ele><time>2026-04-19T09:37:13Z</time></trkpt><trkpt lat="45.26660239884701" lon="7.898103348402874"><ele>236.00000000000003</ele><time>2026-04-19T09:37:14Z</time></trkpt><trkpt lat="45.26661181239426" lon="7.898239020410167"><ele>236.00000000000003</ele><time>2026-04-19T09:37:15Z</time></trkpt><trkpt lat="45.26662147328122" lon="7.8983764854009895"><ele>236.0</ele><time>2026-04-19T09:37:16Z</time></trkpt><trkpt lat="45.2666329696245" lon="7.898497180800692"><ele>236.0</ele><time>2026-04-19T09:37:17Z</time></trkpt><trkpt lat="45.26664840475253" lon="7.898612553010919"><ele>236.00000000000003</ele><time>2026-04-19T09:37:18Z</time></trkpt><trkpt lat="45.26666002943898" lon="7.898736634045949"><ele>236.0</ele><time>2026-04-19T09:37:19Z</time></trkpt><trkpt lat="45.26666709971843" lon="7.898870958374317"><ele>236.0</ele><time>2026-04-19T09:37:20Z</time></trkpt><trkpt lat="45.26667002561495" lon="7.899001730001902"><ele>236.0</ele><time>2026-04-19T09:37:21Z</time></trkpt><trkpt lat="45.266676902265566" lon="7.899122252813055"><ele>236.00000000000003</ele><time>2026-04-19T09:37:22Z</time></trkpt><trkpt lat="45.26668344431207" lon="7.899236457356703"><ele>236.0</ele><time>2026-04-19T09:37:23Z</time></trkpt><trkpt lat="45.26668822453176" lon="7.899348653135046"><ele>235.83333333333334</ele><time>2026-04-19T09:37:24Z</time></trkpt><trkpt lat="45.26667987672588" lon="7.899463835945531"><ele>235.66666666666669</ele><time>2026-04-19T09:37:25Z</time></trkpt><trkpt lat="45.26666416018446" lon="7.899584991928147"><ele>235.5</ele><time>2026-04-19T09:37:26Z</time></trkpt><trkpt lat="45.266656162515694" lon="7.899712878343536"><ele>235.33333333333331</ele><time>2026-04-19T09:37:27Z</time></trkpt><trkpt lat="45.26665706199546" lon="7.899846258355584"><ele>235.16666666666666</ele><time>2026-04-19T09:37:28Z</time></trkpt><trkpt lat="45.26666573550229" lon="7.899959422253213"><ele>235.0</ele><time>2026-04-19T09:37:29Z</time></trkpt><trkpt lat="45.26667061631331" lon="7.900052952803889"><ele>235.16666666666666</ele><time>2026-04-19T09:37:30Z</time></trkpt><trkpt lat="45.26667621067911" lon="7.900191018055775"><ele>235.33333333333331</ele><time>2026-04-19T09:37:32Z</time></trkpt><trkpt lat="45.2666773193833" lon="7.900289492730693"><ele>235.5</ele><time>2026-04-19T09:37:33Z</time></trkpt><trkpt lat="45.26667951529844" lon="7.900406166186947"><ele>235.66666666666669</ele><time>2026-04-19T09:37:34Z</time></trkpt><trkpt lat="45.26668535416667" lon="7.900532046011451"><ele>235.83333333333334</ele><time>2026-04-19T09:37:35Z</time></trkpt><trkpt lat="45.26669070893828" lon="7.90066351625435"><ele>236.0</ele><time>2026-04-19T09:37:36Z</time></trkpt><trkpt lat="45.26669552277707" lon="7.900788240382917"><ele>236.00000000000003</ele><time>2026-04-19T09:37:37Z</time></trkpt><trkpt lat="45.26670160640277" lon="7.9009106373404965"><ele>236.0</ele><time>2026-04-19T09:37:38Z</time></trkpt><trkpt lat="45.26670816270508" lon="7.901021673472547"><ele>236.0</ele><time>2026-04-19T09:37:39Z</time></trkpt><trkpt lat="45.26671817700373" lon="7.901133032932448"><ele>236.0</ele><time>2026-04-19T09:37:40Z</time></trkpt><trkpt lat="45.26672311666881" lon="7.9012476975443"><ele>236.00000000000003</ele><time>2026-04-19T09:37:41Z</time></trkpt><trkpt lat="45.26672803099329" lon="7.901357735404552"><ele>236.0</ele><time>2026-04-19T09:37:42Z</time></trkpt><trkpt lat="45.266724427821465" lon="7.901471025579117"><ele>236.0</ele><time>2026-04-19T09:37:43Z</time></trkpt><trkpt lat="45.266729418102585" lon="7.901575483956133"><ele>236.00000000000003</ele><time>2026-04-19T09:37:44Z</time></trkpt><trkpt lat="45.26673787739219" lon="7.901731122620408"><ele>236.00000000000003</ele><time>2026-04-19T09:37:46Z</time></trkpt><trkpt lat="45.266745595512646" lon="7.901848612929982"><ele>236.0</ele><time>2026-04-19T09:37:48Z</time></trkpt><trkpt lat="45.26673030596421" lon="7.902021021246016"><ele>236.0</ele><time>2026-04-19T09:37:50Z</time></trkpt><trkpt lat="45.26673255990185" lon="7.902123769331447"><ele>236.0</ele><time>2026-04-19T09:37:51Z</time></trkpt><trkpt lat="45.26673508033535" lon="7.90222336081885"><ele>236.0</ele><time>2026-04-19T09:37:52Z</time></trkpt><trkpt lat="45.26673225478048" lon="7.902327928311379"><ele>236.0</ele><time>2026-04-19T09:37:53Z</time></trkpt><trkpt lat="45.26673327104751" lon="7.902422659338005"><ele>236.0</ele><time>2026-04-19T09:37:54Z</time></trkpt><trkpt lat="45.26673604483816" lon="7.9025165927964185"><ele>236.0</ele><time>2026-04-19T09:37:55Z</time></trkpt><trkpt lat="45.26673642536112" lon="7.902609641572043"><ele>236.0</ele><time>2026-04-19T09:37:56Z</time></trkpt><trkpt lat="45.26672590044484" lon="7.902709240377961"><ele>236.0</ele><time>2026-04-19T09:37:57Z</time></trkpt><trkpt lat="45.2667206963243" lon="7.902811955053654"><ele>236.0</ele><time>2026-04-19T09:37:58Z</time></trkpt><trkpt lat="45.266722894130815" lon="7.902917463090591"><ele>236.0</ele><time>2026-04-19T09:37:59Z</time></trkpt><trkpt lat="45.26672749220844" lon="7.903019401078572"><ele>236.0</ele><time>2026-04-19T09:38:00Z</time></trkpt><trkpt lat="45.266724936570704" lon="7.9031116509377135"><ele>236.0</ele><time>2026-04-19T09:38:01Z</time></trkpt><trkpt lat="45.26672783951579" lon="7.903208472735367"><ele>236.0</ele><time>2026-04-19T09:38:02Z</time></trkpt><trkpt lat="45.266730744780276" lon="7.903305938837808"><ele>236.0</ele><time>2026-04-19T09:38:03Z</time></trkpt><trkpt lat="45.26673253127229" lon="7.903402132978383"><ele>236.0</ele><time>2026-04-19T09:38:04Z</time></trkpt><trkpt lat="45.26673118432862" lon="7.903563351341483"><ele>236.00000000000003</ele><time>2026-04-19T09:38:06Z</time></trkpt><trkpt lat="45.26673594573716" lon="7.903697748633762"><ele>236.0</ele><time>2026-04-19T09:38:08Z</time></trkpt><trkpt lat="45.26671142576157" lon="7.903800970248749"><ele>236.0</ele><time>2026-04-19T09:38:10Z</time></trkpt><trkpt lat="45.26662788808014" lon="7.903799126606396"><ele>236.0</ele><time>2026-04-19T09:38:12Z</time></trkpt><trkpt lat="45.266561249861844" lon="7.903805412841866"><ele>236.00000000000003</ele><time>2026-04-19T09:38:13Z</time></trkpt><trkpt lat="45.26647777177671" lon="7.903803259833738"><ele>236.0</ele><time>2026-04-19T09:38:14Z</time></trkpt><trkpt lat="45.266381356728964" lon="7.903803658495918"><ele>235.8</ele><time>2026-04-19T09:38:15Z</time></trkpt><trkpt lat="45.26627504492268" lon="7.90382444650003"><ele>235.60000000000002</ele><time>2026-04-19T09:38:16Z</time></trkpt><trkpt lat="45.266157729523" lon="7.903813616116436"><ele>235.4</ele><time>2026-04-19T09:38:17Z</time></trkpt><trkpt lat="45.26605769286444" lon="7.903806071121445"><ele>235.2</ele><time>2026-04-19T09:38:18Z</time></trkpt><trkpt lat="45.2659521511274" lon="7.9038075082545"><ele>235.0</ele><time>2026-04-19T09:38:19Z</time></trkpt><trkpt lat="45.26584644541737" lon="7.903809225414286"><ele>235.0</ele><time>2026-04-19T09:38:20Z</time></trkpt><trkpt lat="45.26574657345009" lon="7.903811774792171"><ele>235.0</ele><time>2026-04-19T09:38:21Z</time></trkpt><trkpt lat="45.26564637018599" lon="7.903815258213979"><ele>235.0</ele><time>2026-04-19T09:38:22Z</time></trkpt><trkpt lat="45.265539801370515" lon="7.903819499883128"><ele>235.0</ele><time>2026-04-19T09:38:23Z</time></trkpt><trkpt lat="45.26543301435769" lon="7.903825076536855"><ele>235.0</ele><time>2026-04-19T09:38:24Z</time></trkpt><trkpt lat="45.265325364901834" lon="7.903854187904337"><ele>234.8</ele><time>2026-04-19T09:38:25Z</time></trkpt><trkpt lat="45.26521831312314" lon="7.903853042831571"><ele>234.6</ele><time>2026-04-19T09:38:26Z</time></trkpt><trkpt lat="45.265107256485756" lon="7.903853675253754"><ele>234.39999999999998</ele><time>2026-04-19T09:38:27Z</time></trkpt><trkpt lat="45.264994015903504" lon="7.9038603802850025"><ele>234.2</ele><time>2026-04-19T09:38:28Z</time></trkpt><trkpt lat="45.26487722081943" lon="7.9038575555384805"><ele>234.0</ele><time>2026-04-19T09:38:29Z</time></trkpt><trkpt lat="45.26476108758853" lon="7.903858503787344"><ele>233.5</ele><time>2026-04-19T09:38:30Z</time></trkpt><trkpt lat="45.26464823322737" lon="7.90386241628246"><ele>233.0</ele><time>2026-04-19T09:38:31Z</time></trkpt><trkpt lat="45.26453444356503" lon="7.903877667960655"><ele>232.5</ele><time>2026-04-19T09:38:32Z</time></trkpt><trkpt lat="45.264423374286636" lon="7.9038787785468125"><ele>232.0</ele><time>2026-04-19T09:38:33Z</time></trkpt><trkpt lat="45.264309667984904" lon="7.903869325333857"><ele>232.0</ele><time>2026-04-19T09:38:34Z</time></trkpt><trkpt lat="45.264196744272475" lon="7.903875703260719"><ele>232.0</ele><time>2026-04-19T09:38:35Z</time></trkpt><trkpt lat="45.2640938484001" lon="7.903881405537236"><ele>232.0</ele><time>2026-04-19T09:38:36Z</time></trkpt><trkpt lat="45.2639846580109" lon="7.903886146101393"><ele>232.0</ele><time>2026-04-19T09:38:37Z</time></trkpt><trkpt lat="45.26387647599782" lon="7.9038908428863195"><ele>232.0</ele><time>2026-04-19T09:38:38Z</time></trkpt><trkpt lat="45.26376945562073" lon="7.903895489241136"><ele>231.75</ele><time>2026-04-19T09:38:39Z</time></trkpt><trkpt lat="45.26366471504222" lon="7.903900036614288"><ele>231.5</ele><time>2026-04-19T09:38:40Z</time></trkpt><trkpt lat="45.26354729547764" lon="7.903905134466123"><ele>231.25</ele><time>2026-04-19T09:38:41Z</time></trkpt><trkpt lat="45.26343164151219" lon="7.903913107115466"><ele>231.0</ele><time>2026-04-19T09:38:42Z</time></trkpt><trkpt lat="45.26331412453627" lon="7.90392121485675"><ele>231.0</ele><time>2026-04-19T09:38:43Z</time></trkpt><trkpt lat="45.26319625479006" lon="7.903929346948612"><ele>231.0</ele><time>2026-04-19T09:38:44Z</time></trkpt><trkpt lat="45.26308208325973" lon="7.903954717726123"><ele>231.0</ele><time>2026-04-19T09:38:45Z</time></trkpt><trkpt lat="45.2629602256887" lon="7.903958640510646"><ele>231.0</ele><time>2026-04-19T09:38:46Z</time></trkpt><trkpt lat="45.26283120084436" lon="7.903958813737223"><ele>231.25</ele><time>2026-04-19T09:38:47Z</time></trkpt><trkpt lat="45.26270183747836" lon="7.90395824070253"><ele>231.5</ele><time>2026-04-19T09:38:48Z</time></trkpt><trkpt lat="45.262580713190225" lon="7.903958236712227"><ele>231.75</ele><time>2026-04-19T09:38:49Z</time></trkpt><trkpt lat="45.26246252410553" lon="7.9039567291176995"><ele>232.0</ele><time>2026-04-19T09:38:50Z</time></trkpt><trkpt lat="45.26234246072694" lon="7.903961586663162"><ele>232.0</ele><time>2026-04-19T09:38:51Z</time></trkpt><trkpt lat="45.26222023679182" lon="7.903960455659964"><ele>232.0</ele><time>2026-04-19T09:38:52Z</time></trkpt><trkpt lat="45.26210197510276" lon="7.903961241648118"><ele>232.0</ele><time>2026-04-19T09:38:53Z</time></trkpt><trkpt lat="45.26199147073368" lon="7.903964704489409"><ele>232.0</ele><time>2026-04-19T09:38:54Z</time></trkpt><trkpt lat="45.261895152066145" lon="7.903969313732794"><ele>232.0</ele><time>2026-04-19T09:38:55Z</time></trkpt><trkpt lat="45.26180818637893" lon="7.903974416670431"><ele>231.99999999999997</ele><time>2026-04-19T09:38:56Z</time></trkpt><trkpt lat="45.261727936984904" lon="7.903981919181943"><ele>232.0</ele><time>2026-04-19T09:38:57Z</time></trkpt><trkpt lat="45.26165582671018" lon="7.903972133857729"><ele>232.0</ele><time>2026-04-19T09:38:58Z</time></trkpt><trkpt lat="45.26159021201415" lon="7.903968630659572"><ele>232.0</ele><time>2026-04-19T09:38:59Z</time></trkpt><trkpt lat="45.26148630304911" lon="7.903997235282442"><ele>231.99999999999997</ele><time>2026-04-19T09:39:01Z</time></trkpt><trkpt lat="45.261447418808245" lon="7.904074165959325"><ele>232.0</ele><time>2026-04-19T09:39:02Z</time></trkpt><trkpt lat="45.261447348268945" lon="7.904188978107768"><ele>231.5</ele><time>2026-04-19T09:39:03Z</time></trkpt><trkpt lat="45.261462480367676" lon="7.904314696223351"><ele>231.0</ele><time>2026-04-19T09:39:04Z</time></trkpt><trkpt lat="45.26148257124723" lon="7.904480973064984"><ele>230.5</ele><time>2026-04-19T09:39:05Z</time></trkpt><trkpt lat="45.261490650014885" lon="7.904656753531421"><ele>230.0</ele><time>2026-04-19T09:39:06Z</time></trkpt><trkpt lat="45.26149337158234" lon="7.904825569704785"><ele>230.0</ele><time>2026-04-19T09:39:07Z</time></trkpt><trkpt lat="45.26150046308346" lon="7.904986082483047"><ele>230.0</ele><time>2026-04-19T09:39:08Z</time></trkpt><trkpt lat="45.26150895395542" lon="7.90513543302754"><ele>230.0</ele><time>2026-04-19T09:39:09Z</time></trkpt><trkpt lat="45.26151119407768" lon="7.9052681718807705"><ele>230.0</ele><time>2026-04-19T09:39:10Z</time></trkpt><trkpt lat="45.261517143526426" lon="7.905391291084568"><ele>230.0</ele><time>2026-04-19T09:39:11Z</time></trkpt><trkpt lat="45.26152419779726" lon="7.905507080686798"><ele>230.0</ele><time>2026-04-19T09:39:12Z</time></trkpt><trkpt lat="45.26153163678078" lon="7.9056058624274455"><ele>230.0</ele><time>2026-04-19T09:39:13Z</time></trkpt><trkpt lat="45.26152288665083" lon="7.90575720277832"><ele>230.0</ele><time>2026-04-19T09:39:15Z</time></trkpt><trkpt lat="45.26146719662889" lon="7.905861935007068"><ele>230.0</ele><time>2026-04-19T09:39:17Z</time></trkpt><trkpt lat="45.261343698208634" lon="7.9058673290224135"><ele>230.0</ele><time>2026-04-19T09:39:19Z</time></trkpt><trkpt lat="45.261229198510755" lon="7.905900260576943"><ele>230.0</ele><time>2026-04-19T09:39:20Z</time></trkpt><trkpt lat="45.26108946278614" lon="7.905901186474913"><ele>230.0</ele><time>2026-04-19T09:39:21Z</time></trkpt><trkpt lat="45.26095690941448" lon="7.905919784217911"><ele>230.0</ele><time>2026-04-19T09:39:22Z</time></trkpt><trkpt lat="45.260826748136076" lon="7.905938375080307"><ele>230.0</ele><time>2026-04-19T09:39:23Z</time></trkpt><trkpt lat="45.26069762089915" lon="7.905959707686433"><ele>230.0</ele><time>2026-04-19T09:39:24Z</time></trkpt><trkpt lat="45.260565255662634" lon="7.905980826849099"><ele>230.0</ele><time>2026-04-19T09:39:25Z</time></trkpt><trkpt lat="45.26043676592337" lon="7.90599822049946"><ele>230.0</ele><time>2026-04-19T09:39:26Z</time></trkpt><trkpt lat="45.26031231225547" lon="7.906016677742238"><ele>230.0</ele><time>2026-04-19T09:39:27Z</time></trkpt><trkpt lat="45.260184858351856" lon="7.906025640288478"><ele>230.0</ele><time>2026-04-19T09:39:28Z</time></trkpt><trkpt lat="45.260076310398375" lon="7.906024502797891"><ele>230.0</ele><time>2026-04-19T09:39:29Z</time></trkpt><trkpt lat="45.25997927839596" lon="7.906051752640591"><ele>230.0</ele><time>2026-04-19T09:39:30Z</time></trkpt><trkpt lat="45.259877045239044" lon="7.906053037984718"><ele>230.0</ele><time>2026-04-19T09:39:31Z</time></trkpt><trkpt lat="45.259770938558226" lon="7.906068983576163"><ele>230.0</ele><time>2026-04-19T09:39:32Z</time></trkpt><trkpt lat="45.25966056068074" lon="7.90608581523984"><ele>229.6</ele><time>2026-04-19T09:39:33Z</time></trkpt><trkpt lat="45.25954759858451" lon="7.906103040986332"><ele>229.2</ele><time>2026-04-19T09:39:34Z</time></trkpt><trkpt lat="45.25943409749127" lon="7.906130589273301"><ele>228.8</ele><time>2026-04-19T09:39:35Z</time></trkpt><trkpt lat="45.25932866387983" lon="7.906152490782266"><ele>228.4</ele><time>2026-04-19T09:39:36Z</time></trkpt><trkpt lat="45.25922102547373" lon="7.906161522298496"><ele>228.0</ele><time>2026-04-19T09:39:37Z</time></trkpt><trkpt lat="45.259110408024256" lon="7.906176725612648"><ele>228.0</ele><time>2026-04-19T09:39:38Z</time></trkpt><trkpt lat="45.25899540678971" lon="7.906194250144817"><ele>228.0</ele><time>2026-04-19T09:39:39Z</time></trkpt><trkpt lat="45.25888664586152" lon="7.906213776854525"><ele>228.0</ele><time>2026-04-19T09:39:40Z</time></trkpt><trkpt lat="45.25877221680752" lon="7.906237140902027"><ele>228.0</ele><time>2026-04-19T09:39:41Z</time></trkpt><trkpt lat="45.258647673263994" lon="7.906234720550678"><ele>228.0</ele><time>2026-04-19T09:39:42Z</time></trkpt><trkpt lat="45.258513823905986" lon="7.906252247449794"><ele>228.0</ele><time>2026-04-19T09:39:43Z</time></trkpt><trkpt lat="45.25837315941538" lon="7.906268400781823"><ele>228.0</ele><time>2026-04-19T09:39:44Z</time></trkpt><trkpt lat="45.25823169858976" lon="7.906284951625722"><ele>228.0</ele><time>2026-04-19T09:39:45Z</time></trkpt><trkpt lat="45.258092112527834" lon="7.906304695735683"><ele>228.0</ele><time>2026-04-19T09:39:46Z</time></trkpt><trkpt lat="45.257958647634204" lon="7.906326227949868"><ele>228.0</ele><time>2026-04-19T09:39:47Z</time></trkpt><trkpt lat="45.257826863952296" lon="7.906348783997954"><ele>228.0</ele><time>2026-04-19T09:39:48Z</time></trkpt><trkpt lat="45.25769936830275" lon="7.9063715921355495"><ele>228.0</ele><time>2026-04-19T09:39:49Z</time></trkpt><trkpt lat="45.257568508380714" lon="7.906416740952132"><ele>228.0</ele><time>2026-04-19T09:39:50Z</time></trkpt><trkpt lat="45.25742771170535" lon="7.9064339083462265"><ele>228.0</ele><time>2026-04-19T09:39:51Z</time></trkpt><trkpt lat="45.25728534479578" lon="7.906457690526378"><ele>228.0</ele><time>2026-04-19T09:39:52Z</time></trkpt><trkpt lat="45.257143141412385" lon="7.906479320817298"><ele>228.0</ele><time>2026-04-19T09:39:53Z</time></trkpt><trkpt lat="45.2570121196067" lon="7.906494817522817"><ele>228.0</ele><time>2026-04-19T09:39:54Z</time></trkpt><trkpt lat="45.25689578689667" lon="7.906510881739654"><ele>228.0</ele><time>2026-04-19T09:39:55Z</time></trkpt><trkpt lat="45.2567894896314" lon="7.90652461630335"><ele>228.0</ele><time>2026-04-19T09:39:56Z</time></trkpt><trkpt lat="45.25669134643548" lon="7.9065369116848245"><ele>228.0</ele><time>2026-04-19T09:39:57Z</time></trkpt><trkpt lat="45.25660163194681" lon="7.906550248450988"><ele>228.0</ele><time>2026-04-19T09:39:58Z</time></trkpt><trkpt lat="45.256516645045444" lon="7.9065611857350016"><ele>227.5</ele><time>2026-04-19T09:39:59Z</time></trkpt><trkpt lat="45.25644198289956" lon="7.906566590187085"><ele>227.0</ele><time>2026-04-19T09:40:00Z</time></trkpt><trkpt lat="45.256375931968364" lon="7.906573693635224"><ele>226.5</ele><time>2026-04-19T09:40:01Z</time></trkpt><trkpt lat="45.256288459330534" lon="7.906590242815063"><ele>226.0</ele><time>2026-04-19T09:40:03Z</time></trkpt><trkpt lat="45.25622156562511" lon="7.906620745482751"><ele>225.5</ele><time>2026-04-19T09:40:06Z</time></trkpt><trkpt lat="45.256242382650804" lon="7.906749215266887"><ele>225.0</ele><time>2026-04-19T09:40:07Z</time></trkpt><trkpt lat="45.25627242300618" lon="7.906855951437792"><ele>224.75</ele><time>2026-04-19T09:40:08Z</time></trkpt><trkpt lat="45.256278638580596" lon="7.906982459544401"><ele>224.5</ele><time>2026-04-19T09:40:09Z</time></trkpt><trkpt lat="45.256294494841036" lon="7.907123963698416"><ele>224.25</ele><time>2026-04-19T09:40:10Z</time></trkpt><trkpt lat="45.25631408731578" lon="7.907298810576549"><ele>224.0</ele><time>2026-04-19T09:40:11Z</time></trkpt><trkpt lat="45.2563362816953" lon="7.907490952107284"><ele>224.0</ele><time>2026-04-19T09:40:12Z</time></trkpt><trkpt lat="45.25635884623885" lon="7.907685608757597"><ele>224.0</ele><time>2026-04-19T09:40:13Z</time></trkpt><trkpt lat="45.25639709531758" lon="7.907893046124922"><ele>224.0</ele><time>2026-04-19T09:40:14Z</time></trkpt><trkpt lat="45.256422613534525" lon="7.908114954356227"><ele>224.0</ele><time>2026-04-19T09:40:15Z</time></trkpt><trkpt lat="45.25644912673036" lon="7.908351359669934"><ele>224.0</ele><time>2026-04-19T09:40:16Z</time></trkpt><trkpt lat="45.2564765199409" lon="7.908582564151903"><ele>224.0</ele><time>2026-04-19T09:40:17Z</time></trkpt><trkpt lat="45.2565047834015" lon="7.908809679663201"><ele>224.0</ele><time>2026-04-19T09:40:18Z</time></trkpt><trkpt lat="45.25652886686775" lon="7.909040586090133"><ele>224.33333333333334</ele><time>2026-04-19T09:40:19Z</time></trkpt><trkpt lat="45.25655202621554" lon="7.90926944245803"><ele>224.66666666666669</ele><time>2026-04-19T09:40:20Z</time></trkpt><trkpt lat="45.256575928340396" lon="7.9094956464814485"><ele>225.0</ele><time>2026-04-19T09:40:21Z</time></trkpt><trkpt lat="45.25660189694673" lon="7.9097208207913985"><ele>225.0</ele><time>2026-04-19T09:40:22Z</time></trkpt><trkpt lat="45.25662790124531" lon="7.909936733073996"><ele>225.0</ele><time>2026-04-19T09:40:23Z</time></trkpt><trkpt lat="45.25665266692963" lon="7.9101525381083"><ele>225.0</ele><time>2026-04-19T09:40:24Z</time></trkpt><trkpt lat="45.25667647786139" lon="7.910365945249348"><ele>225.33333333333331</ele><time>2026-04-19T09:40:25Z</time></trkpt><trkpt lat="45.25670228297821" lon="7.9105792691587835"><ele>225.66666666666666</ele><time>2026-04-19T09:40:26Z</time></trkpt><trkpt lat="45.25672491151386" lon="7.910793951458574"><ele>226.0</ele><time>2026-04-19T09:40:27Z</time></trkpt><trkpt lat="45.25674108413673" lon="7.910998466954158"><ele>226.0</ele><time>2026-04-19T09:40:28Z</time></trkpt><trkpt lat="45.25676350604761" lon="7.9111779248261564"><ele>226.00000000000003</ele><time>2026-04-19T09:40:29Z</time></trkpt><trkpt lat="45.256778441509375" lon="7.911342547158899"><ele>226.00000000000003</ele><time>2026-04-19T09:40:30Z</time></trkpt><trkpt lat="45.25678857744301" lon="7.911476680178678"><ele>226.0</ele><time>2026-04-19T09:40:31Z</time></trkpt><trkpt lat="45.25679705146469" lon="7.911578554043156"><ele>226.0</ele><time>2026-04-19T09:40:32Z</time></trkpt><trkpt lat="45.25681808806338" lon="7.911713411733673"><ele>225.99999999999997</ele><time>2026-04-19T09:40:34Z</time></trkpt><trkpt lat="45.25691585064813" lon="7.911713645512187"><ele>226.0</ele><time>2026-04-19T09:40:35Z</time></trkpt><trkpt lat="45.25699394048626" lon="7.9117251920259655"><ele>226.0</ele><time>2026-04-19T09:40:36Z</time></trkpt><trkpt lat="45.25706008848211" lon="7.911722243243368"><ele>226.0</ele><time>2026-04-19T09:40:37Z</time></trkpt><trkpt lat="45.25712309336237" lon="7.9117277308005125"><ele>225.99999999999997</ele><time>2026-04-19T09:40:39Z</time></trkpt><trkpt lat="45.25715806033612" lon="7.911907551953588"><ele>226.0</ele><time>2026-04-19T09:40:42Z</time></trkpt><trkpt lat="45.2571628660161" lon="7.912038126669318"><ele>226.0</ele><time>2026-04-19T09:40:43Z</time></trkpt><trkpt lat="45.257169823495836" lon="7.9121862696593634"><ele>226.00000000000003</ele><time>2026-04-19T09:40:44Z</time></trkpt><trkpt lat="45.2571723333333" lon="7.912352422613149"><ele>226.00000000000003</ele><time>2026-04-19T09:40:45Z</time></trkpt><trkpt lat="45.25718130810232" lon="7.912513424357875"><ele>226.0</ele><time>2026-04-19T09:40:46Z</time></trkpt><trkpt lat="45.25717236659045" lon="7.9126659468945855"><ele>226.0</ele><time>2026-04-19T09:40:47Z</time></trkpt><trkpt lat="45.2571712052702" lon="7.912814346713805"><ele>226.0</ele><time>2026-04-19T09:40:48Z</time></trkpt><trkpt lat="45.25712388898319" lon="7.912955665563229"><ele>226.0</ele><time>2026-04-19T09:40:49Z</time></trkpt><trkpt lat="45.25706092539854" lon="7.913092184862413"><ele>226.0</ele><time>2026-04-19T09:40:50Z</time></trkpt><trkpt lat="45.25702294659201" lon="7.91324070003652"><ele>226.0</ele><time>2026-04-19T09:40:51Z</time></trkpt><trkpt lat="45.25701867773465" lon="7.913414767245746"><ele>224.66666666666666</ele><time>2026-04-19T09:40:52Z</time></trkpt><trkpt lat="45.25703040742517" lon="7.913613900090693"><ele>223.33333333333331</ele><time>2026-04-19T09:40:53Z</time></trkpt><trkpt lat="45.25705957852967" lon="7.91384247658099"><ele>222.0</ele><time>2026-04-19T09:40:54Z</time></trkpt><trkpt lat="45.257090667660684" lon="7.9140645231188085"><ele>222.33333333333331</ele><time>2026-04-19T09:40:55Z</time></trkpt><trkpt lat="45.25712000914516" lon="7.914288505991609"><ele>222.66666666666666</ele><time>2026-04-19T09:40:56Z</time></trkpt><trkpt lat="45.25713940655056" lon="7.914523082858204"><ele>223.0</ele><time>2026-04-19T09:40:57Z</time></trkpt><trkpt lat="45.257165637517915" lon="7.914766551536634"><ele>223.0</ele><time>2026-04-19T09:40:58Z</time></trkpt><trkpt lat="45.25719521768906" lon="7.915014474007622"><ele>223.0</ele><time>2026-04-19T09:40:59Z</time></trkpt><trkpt lat="45.25722340493319" lon="7.915264428767976"><ele>223.0</ele><time>2026-04-19T09:41:00Z</time></trkpt><trkpt lat="45.2572514602475" lon="7.915509965562777"><ele>222.66666666666666</ele><time>2026-04-19T09:41:01Z</time></trkpt><trkpt lat="45.25728208445262" lon="7.915770187310157"><ele>222.33333333333331</ele><time>2026-04-19T09:41:02Z</time></trkpt><trkpt lat="45.25730580984542" lon="7.916007104933307"><ele>222.0</ele><time>2026-04-19T09:41:03Z</time></trkpt><trkpt lat="45.25732931206814" lon="7.916222968255129"><ele>222.0</ele><time>2026-04-19T09:41:04Z</time></trkpt><trkpt lat="45.25735116120923" lon="7.916423245158089"><ele>222.0</ele><time>2026-04-19T09:41:05Z</time></trkpt><trkpt lat="45.257372483147094" lon="7.916603096190555"><ele>222.0</ele><time>2026-04-19T09:41:06Z</time></trkpt><trkpt lat="45.25738880235222" lon="7.916740215991662"><ele>222.0</ele><time>2026-04-19T09:41:07Z</time></trkpt><trkpt lat="45.2574015465694" lon="7.916836043046502"><ele>222.0</ele><time>2026-04-19T09:41:08Z</time></trkpt><trkpt lat="45.25741511319796" lon="7.91696506911544"><ele>222.0</ele><time>2026-04-19T09:41:10Z</time></trkpt><trkpt lat="45.257405380611" lon="7.917071544236236"><ele>222.0</ele><time>2026-04-19T09:41:17Z</time></trkpt><trkpt lat="45.25730152938589" lon="7.91710367602506"><ele>222.0</ele><time>2026-04-19T09:41:18Z</time></trkpt><trkpt lat="45.25722469684301" lon="7.917102806319842"><ele>222.0</ele><time>2026-04-19T09:41:19Z</time></trkpt><trkpt lat="45.2571435878455" lon="7.917110052807891"><ele>222.0</ele><time>2026-04-19T09:41:20Z</time></trkpt><trkpt lat="45.257043067915575" lon="7.917110239092711"><ele>222.0</ele><time>2026-04-19T09:41:21Z</time></trkpt><trkpt lat="45.256935636111024" lon="7.917107132316858"><ele>222.16666666666666</ele><time>2026-04-19T09:41:22Z</time></trkpt><trkpt lat="45.256845034799156" lon="7.917108587022757"><ele>222.33333333333331</ele><time>2026-04-19T09:41:23Z</time></trkpt><trkpt lat="45.256766191447035" lon="7.917115131695752"><ele>222.5</ele><time>2026-04-19T09:41:24Z</time></trkpt><trkpt lat="45.25669496858149" lon="7.91711679506091"><ele>222.66666666666666</ele><time>2026-04-19T09:41:25Z</time></trkpt><trkpt lat="45.25662960922098" lon="7.917118383620426"><ele>222.83333333333331</ele><time>2026-04-19T09:41:26Z</time></trkpt><trkpt lat="45.25652551465391" lon="7.917122094301887"><ele>223.0</ele><time>2026-04-19T09:41:28Z</time></trkpt><trkpt lat="45.25645558540965" lon="7.91717146130609"><ele>223.0</ele><time>2026-04-19T09:41:31Z</time></trkpt><trkpt lat="45.256458366098926" lon="7.917559520161778"><ele>223.0</ele><time>2026-04-19T09:41:36Z</time></trkpt><trkpt lat="45.25645593290729" lon="7.917654046563202"><ele>223.0</ele><time>2026-04-19T09:41:37Z</time></trkpt><trkpt lat="45.25645000746999" lon="7.917751302173695"><ele>223.0</ele><time>2026-04-19T09:41:38Z</time></trkpt><trkpt lat="45.25644092154921" lon="7.917857007249895"><ele>222.66666666666666</ele><time>2026-04-19T09:41:39Z</time></trkpt><trkpt lat="45.25643779727178" lon="7.917959177502826"><ele>222.33333333333331</ele><time>2026-04-19T09:41:40Z</time></trkpt><trkpt lat="45.25642947942359" lon="7.9180744168303825"><ele>222.0</ele><time>2026-04-19T09:41:41Z</time></trkpt><trkpt lat="45.25642648733522" lon="7.918186880219995"><ele>221.66666666666669</ele><time>2026-04-19T09:41:42Z</time></trkpt><trkpt lat="45.256422791170394" lon="7.918299538787089"><ele>221.33333333333334</ele><time>2026-04-19T09:41:43Z</time></trkpt><trkpt lat="45.256420414022024" lon="7.918403092770013"><ele>221.0</ele><time>2026-04-19T09:41:44Z</time></trkpt><trkpt lat="45.256419809498816" lon="7.918522772724044"><ele>221.00000000000003</ele><time>2026-04-19T09:41:45Z</time></trkpt><trkpt lat="45.256412690108405" lon="7.918638920924172"><ele>221.0</ele><time>2026-04-19T09:41:46Z</time></trkpt><trkpt lat="45.256410764932994" lon="7.918746138790914"><ele>221.0</ele><time>2026-04-19T09:41:47Z</time></trkpt><trkpt lat="45.25641118212467" lon="7.918852329708934"><ele>221.0</ele><time>2026-04-19T09:41:48Z</time></trkpt><trkpt lat="45.25640667351167" lon="7.918941824560689"><ele>221.00000000000003</ele><time>2026-04-19T09:41:49Z</time></trkpt><trkpt lat="45.25640374802705" lon="7.919103992911163"><ele>221.0</ele><time>2026-04-19T09:41:51Z</time></trkpt><trkpt lat="45.2563996410771" lon="7.9191994975221185"><ele>221.16666666666669</ele><time>2026-04-19T09:41:52Z</time></trkpt><trkpt lat="45.25639859412955" lon="7.919296962676501"><ele>221.33333333333334</ele><time>2026-04-19T09:41:53Z</time></trkpt><trkpt lat="45.25639386148008" lon="7.919397952224574"><ele>221.5</ele><time>2026-04-19T09:41:54Z</time></trkpt><trkpt lat="45.25638858806197" lon="7.91951456982626"><ele>221.66666666666669</ele><time>2026-04-19T09:41:55Z</time></trkpt><trkpt lat="45.2563804605202" lon="7.919628620958569"><ele>221.83333333333334</ele><time>2026-04-19T09:41:56Z</time></trkpt><trkpt lat="45.2563706405353" lon="7.9197344501919575"><ele>222.0</ele><time>2026-04-19T09:41:57Z</time></trkpt><trkpt lat="45.256360966388954" lon="7.919849450579635"><ele>222.0</ele><time>2026-04-19T09:41:58Z</time></trkpt><trkpt lat="45.25635840824112" lon="7.919963244164926"><ele>222.0</ele><time>2026-04-19T09:41:59Z</time></trkpt><trkpt lat="45.256357183883715" lon="7.920060271851727"><ele>222.0</ele><time>2026-04-19T09:42:00Z</time></trkpt><trkpt lat="45.25633715834712" lon="7.920218186444014"><ele>222.0</ele><time>2026-04-19T09:42:02Z</time></trkpt><trkpt lat="45.25632886202233" lon="7.920382855445476"><ele>222.0</ele><time>2026-04-19T09:42:04Z</time></trkpt><trkpt lat="45.256325782612706" lon="7.920483167746726"><ele>222.0</ele><time>2026-04-19T09:42:05Z</time></trkpt><trkpt lat="45.25632435991228" lon="7.920593139077405"><ele>222.0</ele><time>2026-04-19T09:42:06Z</time></trkpt><trkpt lat="45.256324862923506" lon="7.920695325289478"><ele>222.0</ele><time>2026-04-19T09:42:07Z</time></trkpt><trkpt lat="45.25632342558391" lon="7.92087855503259"><ele>222.0</ele><time>2026-04-19T09:42:09Z</time></trkpt><trkpt lat="45.25632562157253" lon="7.920992462667981"><ele>222.0</ele><time>2026-04-19T09:42:10Z</time></trkpt><trkpt lat="45.256320780239776" lon="7.921102503366415"><ele>222.0</ele><time>2026-04-19T09:42:11Z</time></trkpt><trkpt lat="45.25631381307872" lon="7.921212014962365"><ele>222.0</ele><time>2026-04-19T09:42:12Z</time></trkpt><trkpt lat="45.25631177536811" lon="7.921328568940333"><ele>222.66666666666666</ele><time>2026-04-19T09:42:13Z</time></trkpt><trkpt lat="45.25630868899369" lon="7.921444818978897"><ele>223.33333333333331</ele><time>2026-04-19T09:42:14.001Z</time></trkpt><trkpt lat="45.25630389516457" lon="7.921561534857124"><ele>224.0</ele><time>2026-04-19T09:42:15Z</time></trkpt><trkpt lat="45.25630127484911" lon="7.921674325841292"><ele>224.66666666666666</ele><time>2026-04-19T09:42:16Z</time></trkpt><trkpt lat="45.256296544075916" lon="7.92178681720737"><ele>225.33333333333331</ele><time>2026-04-19T09:42:17Z</time></trkpt><trkpt lat="45.2562819250403" lon="7.921891227527294"><ele>226.0</ele><time>2026-04-19T09:42:18Z</time></trkpt><trkpt lat="45.256275192156764" lon="7.921991892182248"><ele>225.99999999999997</ele><time>2026-04-19T09:42:19Z</time></trkpt><trkpt lat="45.25627380914161" lon="7.92209403690821"><ele>226.0</ele><time>2026-04-19T09:42:20Z</time></trkpt><trkpt lat="45.25627244729269" lon="7.922210234289058"><ele>226.0</ele><time>2026-04-19T09:42:21Z</time></trkpt><trkpt lat="45.25626812420401" lon="7.92232420369891"><ele>226.0</ele><time>2026-04-19T09:42:22Z</time></trkpt><trkpt lat="45.256260928212555" lon="7.922440494656415"><ele>225.99999999999997</ele><time>2026-04-19T09:42:23Z</time></trkpt><trkpt lat="45.25625481515608" lon="7.922563067987493"><ele>226.0</ele><time>2026-04-19T09:42:24Z</time></trkpt><trkpt lat="45.256250311748765" lon="7.922683722045221"><ele>226.0</ele><time>2026-04-19T09:42:25Z</time></trkpt><trkpt lat="45.2562461642872" lon="7.92279517682783"><ele>226.0</ele><time>2026-04-19T09:42:26Z</time></trkpt><trkpt lat="45.256239944029424" lon="7.92290412400705"><ele>226.0</ele><time>2026-04-19T09:42:27Z</time></trkpt><trkpt lat="45.25623454651557" lon="7.923013084360789"><ele>226.0</ele><time>2026-04-19T09:42:28Z</time></trkpt><trkpt lat="45.256233397891314" lon="7.923115102607191"><ele>226.0</ele><time>2026-04-19T09:42:29Z</time></trkpt><trkpt lat="45.25622455654364" lon="7.923216720127153"><ele>226.0</ele><time>2026-04-19T09:42:30Z</time></trkpt><trkpt lat="45.2562208539341" lon="7.923312128023662"><ele>226.0</ele><time>2026-04-19T09:42:31Z</time></trkpt><trkpt lat="45.256225871140195" lon="7.923462709281117"><ele>225.49999999999997</ele><time>2026-04-19T09:42:33Z</time></trkpt><trkpt lat="45.2562221424248" lon="7.923552408679932"><ele>225.0</ele><time>2026-04-19T09:42:34Z</time></trkpt><trkpt lat="45.256220226255856" lon="7.9236477211974226"><ele>224.5</ele><time>2026-04-19T09:42:35Z</time></trkpt><trkpt lat="45.25622234664095" lon="7.92373904258575"><ele>224.0</ele><time>2026-04-19T09:42:36Z</time></trkpt><trkpt lat="45.256214455531904" lon="7.9238293552343295"><ele>223.49999999999997</ele><time>2026-04-19T09:42:37Z</time></trkpt><trkpt lat="45.256207529293214" lon="7.923991720232567"><ele>223.0</ele><time>2026-04-19T09:42:39Z</time></trkpt><trkpt lat="45.256194667653936" lon="7.92415972982751"><ele>222.60000000000002</ele><time>2026-04-19T09:42:41Z</time></trkpt><trkpt lat="45.25618702669341" lon="7.924307281625562"><ele>222.20000000000002</ele><time>2026-04-19T09:42:43Z</time></trkpt><trkpt lat="45.25616984054918" lon="7.924488835399329"><ele>221.8</ele><time>2026-04-19T09:42:45Z</time></trkpt><trkpt lat="45.25616681301636" lon="7.92457825753376"><ele>221.4</ele><time>2026-04-19T09:42:46Z</time></trkpt><trkpt lat="45.256175579400285" lon="7.924744118256249"><ele>221.0</ele><time>2026-04-19T09:42:48Z</time></trkpt><trkpt lat="45.25616614666607" lon="7.9249050371486005"><ele>221.00000000000003</ele><time>2026-04-19T09:42:50Z</time></trkpt><trkpt lat="45.25615948828551" lon="7.9249996639470535"><ele>221.0</ele><time>2026-04-19T09:42:51Z</time></trkpt><trkpt lat="45.25615143946193" lon="7.925103143000283"><ele>221.0</ele><time>2026-04-19T09:42:52Z</time></trkpt><trkpt lat="45.25614898970686" lon="7.925197269435645"><ele>221.0</ele><time>2026-04-19T09:42:53Z</time></trkpt><trkpt lat="45.25614614608534" lon="7.9252871323209035"><ele>221.0</ele><time>2026-04-19T09:42:54Z</time></trkpt><trkpt lat="45.25614183018971" lon="7.925380586875868"><ele>221.00000000000003</ele><time>2026-04-19T09:42:55Z</time></trkpt><trkpt lat="45.256140327391904" lon="7.925470800479468"><ele>221.0</ele><time>2026-04-19T09:42:56Z</time></trkpt><trkpt lat="45.25613398732206" lon="7.925561933485577"><ele>220.83333333333334</ele><time>2026-04-19T09:42:57Z</time></trkpt><trkpt lat="45.25612834354271" lon="7.9256610201340365"><ele>220.66666666666669</ele><time>2026-04-19T09:42:58Z</time></trkpt><trkpt lat="45.25612403758188" lon="7.925763631259862"><ele>220.5</ele><time>2026-04-19T09:42:59Z</time></trkpt><trkpt lat="45.25611922333039" lon="7.9258725015540845"><ele>220.33333333333331</ele><time>2026-04-19T09:43:00Z</time></trkpt><trkpt lat="45.25611448321721" lon="7.9259856732781975"><ele>220.16666666666666</ele><time>2026-04-19T09:43:01Z</time></trkpt><trkpt lat="45.2561083731106" lon="7.926093520471203"><ele>220.0</ele><time>2026-04-19T09:43:02Z</time></trkpt><trkpt lat="45.256101143554744" lon="7.9261998826508835"><ele>220.16666666666666</ele><time>2026-04-19T09:43:03Z</time></trkpt><trkpt lat="45.256095364813405" lon="7.926301134742152"><ele>220.33333333333331</ele><time>2026-04-19T09:43:04Z</time></trkpt><trkpt lat="45.25608938772688" lon="7.926413985387267"><ele>220.5</ele><time>2026-04-19T09:43:05Z</time></trkpt><trkpt lat="45.25608215338367" lon="7.92652037908976"><ele>220.66666666666669</ele><time>2026-04-19T09:43:06Z</time></trkpt><trkpt lat="45.25607665326006" lon="7.926626912084195"><ele>220.83333333333334</ele><time>2026-04-19T09:43:07Z</time></trkpt><trkpt lat="45.25607479305016" lon="7.926735694537568"><ele>221.0</ele><time>2026-04-19T09:43:08Z</time></trkpt><trkpt lat="45.256073685692" lon="7.926848522780307"><ele>221.00000000000003</ele><time>2026-04-19T09:43:09Z</time></trkpt><trkpt lat="45.2560707968008" lon="7.926951123927487"><ele>221.0</ele><time>2026-04-19T09:43:10Z</time></trkpt><trkpt lat="45.256067652278794" lon="7.927049772085905"><ele>221.0</ele><time>2026-04-19T09:43:11Z</time></trkpt><trkpt lat="45.256064915164714" lon="7.9271733447985495"><ele>221.0</ele><time>2026-04-19T09:43:12Z</time></trkpt><trkpt lat="45.256063088243636" lon="7.92728263544238"><ele>221.00000000000003</ele><time>2026-04-19T09:43:13Z</time></trkpt><trkpt lat="45.25606634931259" lon="7.927384738198021"><ele>221.0</ele><time>2026-04-19T09:43:14Z</time></trkpt><trkpt lat="45.25606283147002" lon="7.927511905504433"><ele>221.16666666666669</ele><time>2026-04-19T09:43:15Z</time></trkpt><trkpt lat="45.25605518256039" lon="7.927630632910052"><ele>221.33333333333334</ele><time>2026-04-19T09:43:16Z</time></trkpt><trkpt lat="45.25604908836483" lon="7.927755027584227"><ele>221.5</ele><time>2026-04-19T09:43:17Z</time></trkpt><trkpt lat="45.25603841016913" lon="7.927880305732219"><ele>221.66666666666669</ele><time>2026-04-19T09:43:18Z</time></trkpt><trkpt lat="45.25603484955258" lon="7.928000489002396"><ele>221.83333333333334</ele><time>2026-04-19T09:43:19Z</time></trkpt><trkpt lat="45.25603163460281" lon="7.928125279727573"><ele>222.0</ele><time>2026-04-19T09:43:20Z</time></trkpt><trkpt lat="45.25603061857955" lon="7.928251062038341"><ele>222.0</ele><time>2026-04-19T09:43:21Z</time></trkpt><trkpt lat="45.25602837837095" lon="7.928355540326819"><ele>222.0</ele><time>2026-04-19T09:43:22Z</time></trkpt><trkpt lat="45.25602211722682" lon="7.928520603289102"><ele>222.0</ele><time>2026-04-19T09:43:24Z</time></trkpt><trkpt lat="45.25601406698512" lon="7.928661154828404"><ele>222.0</ele><time>2026-04-19T09:43:26Z</time></trkpt><trkpt lat="45.25601024218777" lon="7.928800749648065"><ele>222.0</ele><time>2026-04-19T09:43:29Z</time></trkpt><trkpt lat="45.25601016305157" lon="7.92901429700665"><ele>222.16666666666666</ele><time>2026-04-19T09:43:31Z</time></trkpt><trkpt lat="45.256004139422025" lon="7.929139143979876"><ele>222.33333333333331</ele><time>2026-04-19T09:43:32Z</time></trkpt><trkpt lat="45.25599620403437" lon="7.929258329517859"><ele>222.5</ele><time>2026-04-19T09:43:33Z</time></trkpt><trkpt lat="45.25599022720457" lon="7.929372353012536"><ele>222.66666666666666</ele><time>2026-04-19T09:43:34Z</time></trkpt><trkpt lat="45.25598481397336" lon="7.929491451645661"><ele>222.83333333333331</ele><time>2026-04-19T09:43:35Z</time></trkpt><trkpt lat="45.25598060729937" lon="7.929610787043405"><ele>223.0</ele><time>2026-04-19T09:43:36Z</time></trkpt><trkpt lat="45.25597265202339" lon="7.9297319064719805"><ele>223.0</ele><time>2026-04-19T09:43:37Z</time></trkpt><trkpt lat="45.25596649437765" lon="7.929855111233447"><ele>223.0</ele><time>2026-04-19T09:43:38Z</time></trkpt><trkpt lat="45.255965654246346" lon="7.92997609986942"><ele>223.0</ele><time>2026-04-19T09:43:39Z</time></trkpt><trkpt lat="45.25596333607656" lon="7.930098871525708"><ele>223.0</ele><time>2026-04-19T09:43:40Z</time></trkpt><trkpt lat="45.255954372230036" lon="7.930236899992018"><ele>223.0</ele><time>2026-04-19T09:43:41Z</time></trkpt><trkpt lat="45.25594614048151" lon="7.930379927125252"><ele>223.0</ele><time>2026-04-19T09:43:42Z</time></trkpt><trkpt lat="45.25594298578344" lon="7.930522445850131"><ele>223.0</ele><time>2026-04-19T09:43:43Z</time></trkpt><trkpt lat="45.255938092862294" lon="7.930673051054345"><ele>223.0</ele><time>2026-04-19T09:43:44Z</time></trkpt><trkpt lat="45.255924344529376" lon="7.93081191555271"><ele>223.0</ele><time>2026-04-19T09:43:45Z</time></trkpt><trkpt lat="45.25592298390679" lon="7.9309618989721224"><ele>223.0</ele><time>2026-04-19T09:43:46Z</time></trkpt><trkpt lat="45.255921007420724" lon="7.931104469883124"><ele>223.0</ele><time>2026-04-19T09:43:47Z</time></trkpt><trkpt lat="45.255915288408005" lon="7.931247267127817"><ele>223.0</ele><time>2026-04-19T09:43:48Z</time></trkpt><trkpt lat="45.25590704878965" lon="7.931377618886656"><ele>223.0</ele><time>2026-04-19T09:43:49Z</time></trkpt><trkpt lat="45.255902968410254" lon="7.931514559566563"><ele>223.0</ele><time>2026-04-19T09:43:50Z</time></trkpt><trkpt lat="45.25589968965055" lon="7.931655233849972"><ele>223.0</ele><time>2026-04-19T09:43:51Z</time></trkpt><trkpt lat="45.2558893386023" lon="7.931812912420216"><ele>223.0</ele><time>2026-04-19T09:43:52Z</time></trkpt><trkpt lat="45.2558817610444" lon="7.931963911534899"><ele>223.0</ele><time>2026-04-19T09:43:53Z</time></trkpt><trkpt lat="45.255876045121795" lon="7.932128294676256"><ele>223.0</ele><time>2026-04-19T09:43:54Z</time></trkpt><trkpt lat="45.255871562386616" lon="7.9322765119787055"><ele>223.0</ele><time>2026-04-19T09:43:55Z</time></trkpt><trkpt lat="45.255861570369795" lon="7.932423953819831"><ele>223.0</ele><time>2026-04-19T09:43:56Z</time></trkpt><trkpt lat="45.25585520741188" lon="7.9325716887473945"><ele>223.2</ele><time>2026-04-19T09:43:57Z</time></trkpt><trkpt lat="45.255853237046324" lon="7.932707789366403"><ele>223.4</ele><time>2026-04-19T09:43:58Z</time></trkpt><trkpt lat="45.25584827215437" lon="7.932840116134842"><ele>223.59999999999997</ele><time>2026-04-19T09:43:59Z</time></trkpt><trkpt lat="45.25584277628282" lon="7.932975536278766"><ele>223.79999999999998</ele><time>2026-04-19T09:44:00Z</time></trkpt><trkpt lat="45.2558384804193" lon="7.93310716142602"><ele>224.0</ele><time>2026-04-19T09:44:01Z</time></trkpt><trkpt lat="45.255825587445784" lon="7.933233103205954"><ele>224.0</ele><time>2026-04-19T09:44:02Z</time></trkpt><trkpt lat="45.25581975160557" lon="7.933351213575813"><ele>223.99999999999997</ele><time>2026-04-19T09:44:03Z</time></trkpt><trkpt lat="45.25582071137424" lon="7.933467005830362"><ele>223.99999999999997</ele><time>2026-04-19T09:44:04Z</time></trkpt><trkpt lat="45.255825177651815" lon="7.933573853258037"><ele>224.0</ele><time>2026-04-19T09:44:05Z</time></trkpt><trkpt lat="45.25588751214086" lon="7.933712256362238"><ele>224.0</ele><time>2026-04-19T09:44:07Z</time></trkpt><trkpt lat="45.255929769321206" lon="7.93385940569507"><ele>223.79999999999998</ele><time>2026-04-19T09:44:09Z</time></trkpt><trkpt lat="45.25581933488408" lon="7.93402204150694"><ele>223.59999999999997</ele><time>2026-04-19T09:44:10Z</time></trkpt><trkpt lat="45.25581342854805" lon="7.9341448693321235"><ele>223.4</ele><time>2026-04-19T09:44:11Z</time></trkpt><trkpt lat="45.255805643736274" lon="7.934280318531644"><ele>223.2</ele><time>2026-04-19T09:44:12Z</time></trkpt><trkpt lat="45.25579296180901" lon="7.934401528548278"><ele>223.0</ele><time>2026-04-19T09:44:13Z</time></trkpt><trkpt lat="45.25578881693473" lon="7.934529360964763"><ele>223.0</ele><time>2026-04-19T09:44:14Z</time></trkpt><trkpt lat="45.25578699397995" lon="7.934660643561747"><ele>223.0</ele><time>2026-04-19T09:44:15Z</time></trkpt><trkpt lat="45.255786857678366" lon="7.9347842267960615"><ele>223.0</ele><time>2026-04-19T09:44:16Z</time></trkpt><trkpt lat="45.255787731223236" lon="7.9349147558494675"><ele>223.0</ele><time>2026-04-19T09:44:17Z</time></trkpt><trkpt lat="45.255784263728735" lon="7.935057037110567"><ele>223.0</ele><time>2026-04-19T09:44:18Z</time></trkpt><trkpt lat="45.255779274110836" lon="7.935186884403228"><ele>222.8</ele><time>2026-04-19T09:44:19Z</time></trkpt><trkpt lat="45.2557694188268" lon="7.9353266444768575"><ele>222.60000000000002</ele><time>2026-04-19T09:44:20Z</time></trkpt><trkpt lat="45.25575646445711" lon="7.935442193677209"><ele>222.39999999999998</ele><time>2026-04-19T09:44:21Z</time></trkpt><trkpt lat="45.25574322894413" lon="7.935572540509791"><ele>222.2</ele><time>2026-04-19T09:44:22Z</time></trkpt><trkpt lat="45.25573773000272" lon="7.9357020673056455"><ele>222.0</ele><time>2026-04-19T09:44:23Z</time></trkpt><trkpt lat="45.25572962438515" lon="7.93584549163963"><ele>221.8</ele><time>2026-04-19T09:44:24Z</time></trkpt><trkpt lat="45.25571771530083" lon="7.935987137975194"><ele>221.6</ele><time>2026-04-19T09:44:25Z</time></trkpt><trkpt lat="45.25571468634919" lon="7.936142889558514"><ele>221.40000000000003</ele><time>2026-04-19T09:44:26Z</time></trkpt><trkpt lat="45.255707577836965" lon="7.936275317542556"><ele>221.20000000000002</ele><time>2026-04-19T09:44:27Z</time></trkpt><trkpt lat="45.255700774718385" lon="7.9364021505243265"><ele>221.0</ele><time>2026-04-19T09:44:28Z</time></trkpt><trkpt lat="45.255692983189704" lon="7.936539418213535"><ele>221.0</ele><time>2026-04-19T09:44:29Z</time></trkpt><trkpt lat="45.255690135980515" lon="7.936672625961054"><ele>221.00000000000003</ele><time>2026-04-19T09:44:30Z</time></trkpt><trkpt lat="45.25568496348405" lon="7.936811230097426"><ele>221.00000000000003</ele><time>2026-04-19T09:44:31Z</time></trkpt><trkpt lat="45.25567936363576" lon="7.9369458326030005"><ele>221.0</ele><time>2026-04-19T09:44:32Z</time></trkpt><trkpt lat="45.255674441265064" lon="7.937084744570119"><ele>221.0</ele><time>2026-04-19T09:44:33Z</time></trkpt><trkpt lat="45.25567012396271" lon="7.937225894478429"><ele>220.8</ele><time>2026-04-19T09:44:34Z</time></trkpt><trkpt lat="45.25566662565476" lon="7.937361692048226"><ele>220.60000000000002</ele><time>2026-04-19T09:44:35Z</time></trkpt><trkpt lat="45.25566120379295" lon="7.937488161203265"><ele>220.4</ele><time>2026-04-19T09:44:36Z</time></trkpt><trkpt lat="45.255655084190025" lon="7.9376099572878855"><ele>220.2</ele><time>2026-04-19T09:44:37Z</time></trkpt><trkpt lat="45.255645949389205" lon="7.937743390779749"><ele>220.0</ele><time>2026-04-19T09:44:38Z</time></trkpt><trkpt lat="45.25564440217727" lon="7.937868949440521"><ele>220.33333333333331</ele><time>2026-04-19T09:44:39Z</time></trkpt><trkpt lat="45.25564424361361" lon="7.937997337833293"><ele>220.66666666666666</ele><time>2026-04-19T09:44:40Z</time></trkpt><trkpt lat="45.25563746626161" lon="7.938112958273436"><ele>221.0</ele><time>2026-04-19T09:44:41Z</time></trkpt><trkpt lat="45.25563560898145" lon="7.938236649192554"><ele>221.33333333333331</ele><time>2026-04-19T09:44:42Z</time></trkpt><trkpt lat="45.255632637399245" lon="7.938349904794593"><ele>221.66666666666666</ele><time>2026-04-19T09:44:43Z</time></trkpt><trkpt lat="45.25563472870053" lon="7.938449645663793"><ele>222.0</ele><time>2026-04-19T09:44:44Z</time></trkpt><trkpt lat="45.255634202265696" lon="7.938540469634591"><ele>222.0</ele><time>2026-04-19T09:44:45Z</time></trkpt><trkpt lat="45.25563414510446" lon="7.938633340534895"><ele>222.0</ele><time>2026-04-19T09:44:46Z</time></trkpt><trkpt lat="45.25563404640406" lon="7.93872957248304"><ele>222.0</ele><time>2026-04-19T09:44:47Z</time></trkpt><trkpt lat="45.25562760636068" lon="7.938837180711677"><ele>222.0</ele><time>2026-04-19T09:44:48Z</time></trkpt><trkpt lat="45.25561848469621" lon="7.938949913733653"><ele>222.0</ele><time>2026-04-19T09:44:49Z</time></trkpt><trkpt lat="45.25560629951757" lon="7.9390569532620265"><ele>222.0</ele><time>2026-04-19T09:44:50Z</time></trkpt><trkpt lat="45.255596610636246" lon="7.939156922971052"><ele>222.0</ele><time>2026-04-19T09:44:51Z</time></trkpt><trkpt lat="45.255594387633884" lon="7.939262953924276"><ele>222.0</ele><time>2026-04-19T09:44:52Z</time></trkpt><trkpt lat="45.25558636537443" lon="7.9393817652855985"><ele>222.0</ele><time>2026-04-19T09:44:53Z</time></trkpt><trkpt lat="45.25558056897352" lon="7.939484492103596"><ele>222.0</ele><time>2026-04-19T09:44:54Z</time></trkpt><trkpt lat="45.25556538239035" lon="7.939635843259569"><ele>222.0</ele><time>2026-04-19T09:44:56Z</time></trkpt><trkpt lat="45.255574248220384" lon="7.9397487065298735"><ele>222.0</ele><time>2026-04-19T09:44:59Z</time></trkpt><trkpt lat="45.25564241850318" lon="7.9397750992028255"><ele>222.0</ele><time>2026-04-19T09:45:01Z</time></trkpt><trkpt lat="45.25571257229949" lon="7.939760922033839"><ele>222.6</ele><time>2026-04-19T09:45:02Z</time></trkpt><trkpt lat="45.25579556671603" lon="7.939749054972644"><ele>223.2</ele><time>2026-04-19T09:45:03Z</time></trkpt><trkpt lat="45.2558922839419" lon="7.939771426806312"><ele>223.8</ele><time>2026-04-19T09:45:04Z</time></trkpt><trkpt lat="45.255988726455" lon="7.939779032151376"><ele>224.4</ele><time>2026-04-19T09:45:05Z</time></trkpt><trkpt lat="45.25608719519284" lon="7.93977751851628"><ele>225.0</ele><time>2026-04-19T09:45:06Z</time></trkpt><trkpt lat="45.256181322485396" lon="7.939778647249368"><ele>225.0</ele><time>2026-04-19T09:45:07Z</time></trkpt><trkpt lat="45.25626378726784" lon="7.939785632967601"><ele>225.0</ele><time>2026-04-19T09:45:08Z</time></trkpt><trkpt lat="45.256349683737625" lon="7.939799600018261"><ele>225.0</ele><time>2026-04-19T09:45:09Z</time></trkpt><trkpt lat="45.25643220081956" lon="7.939811129921545"><ele>225.0</ele><time>2026-04-19T09:45:10Z</time></trkpt><trkpt lat="45.25652254892161" lon="7.939828820091012"><ele>225.0</ele><time>2026-04-19T09:45:11Z</time></trkpt><trkpt lat="45.25661506351475" lon="7.939841286080241"><ele>225.0</ele><time>2026-04-19T09:45:12Z</time></trkpt><trkpt lat="45.25670385073389" lon="7.939835733899757"><ele>225.4</ele><time>2026-04-19T09:45:13Z</time></trkpt><trkpt lat="45.25679729924008" lon="7.939846861929305"><ele>225.8</ele><time>2026-04-19T09:45:14Z</time></trkpt><trkpt lat="45.25689149992262" lon="7.93986000634659"><ele>226.2</ele><time>2026-04-19T09:45:15Z</time></trkpt><trkpt lat="45.25698335375622" lon="7.939869867237102"><ele>226.6</ele><time>2026-04-19T09:45:16Z</time></trkpt><trkpt lat="45.257068583431455" lon="7.939877364339457"><ele>227.0</ele><time>2026-04-19T09:45:17Z</time></trkpt><trkpt lat="45.25715547891006" lon="7.939883663818662"><ele>227.00000000000003</ele><time>2026-04-19T09:45:18Z</time></trkpt><trkpt lat="45.25723424871579" lon="7.939883955170538"><ele>227.0</ele><time>2026-04-19T09:45:19Z</time></trkpt><trkpt lat="45.25730070496496" lon="7.9398868307020445"><ele>227.0</ele><time>2026-04-19T09:45:20Z</time></trkpt><trkpt lat="45.257380775178454" lon="7.939884282252537"><ele>227.0</ele><time>2026-04-19T09:45:21Z</time></trkpt><trkpt lat="45.25746068271989" lon="7.939890454991837"><ele>227.00000000000003</ele><time>2026-04-19T09:45:22Z</time></trkpt><trkpt lat="45.257536766888755" lon="7.939884931155193"><ele>227.0</ele><time>2026-04-19T09:45:23Z</time></trkpt><trkpt lat="45.25762019389264" lon="7.939883476264866"><ele>227.00000000000003</ele><time>2026-04-19T09:45:24Z</time></trkpt><trkpt lat="45.25770053807124" lon="7.93989014067619"><ele>227.0</ele><time>2026-04-19T09:45:25Z</time></trkpt><trkpt lat="45.25777825765094" lon="7.939903077909828"><ele>227.0</ele><time>2026-04-19T09:45:26Z</time></trkpt><trkpt lat="45.25785571936016" lon="7.939913728351181"><ele>227.0</ele><time>2026-04-19T09:45:27Z</time></trkpt><trkpt lat="45.2579401007113" lon="7.939922996865039"><ele>227.00000000000003</ele><time>2026-04-19T09:45:28Z</time></trkpt><trkpt lat="45.25803140442034" lon="7.9399260621907715"><ele>227.0</ele><time>2026-04-19T09:45:29Z</time></trkpt><trkpt lat="45.2581382823914" lon="7.939935567352353"><ele>227.0</ele><time>2026-04-19T09:45:30Z</time></trkpt><trkpt lat="45.2582392319839" lon="7.939943386912077"><ele>227.0</ele><time>2026-04-19T09:45:31Z</time></trkpt><trkpt lat="45.25833701562046" lon="7.9399460764959935"><ele>227.0</ele><time>2026-04-19T09:45:32Z</time></trkpt><trkpt lat="45.258435434409925" lon="7.939938476254051"><ele>227.0</ele><time>2026-04-19T09:45:33Z</time></trkpt><trkpt lat="45.25853016718835" lon="7.939932669804558"><ele>227.0</ele><time>2026-04-19T09:45:34Z</time></trkpt><trkpt lat="45.258639410895384" lon="7.939945110394907"><ele>227.0</ele><time>2026-04-19T09:45:35Z</time></trkpt><trkpt lat="45.25875064403935" lon="7.9399641920313675"><ele>227.0</ele><time>2026-04-19T09:45:36Z</time></trkpt><trkpt lat="45.25886686370028" lon="7.939971819712333"><ele>227.0</ele><time>2026-04-19T09:45:37Z</time></trkpt><trkpt lat="45.25898341400015" lon="7.939987467662901"><ele>227.0</ele><time>2026-04-19T09:45:38Z</time></trkpt><trkpt lat="45.25910044727345" lon="7.940000710094484"><ele>227.0</ele><time>2026-04-19T09:45:39Z</time></trkpt><trkpt lat="45.259215673951324" lon="7.940006274606245"><ele>227.0</ele><time>2026-04-19T09:45:40Z</time></trkpt><trkpt lat="45.25933445103277" lon="7.940017412414884"><ele>227.0</ele><time>2026-04-19T09:45:41Z</time></trkpt><trkpt lat="45.25945734151286" lon="7.940035618829763"><ele>227.0</ele><time>2026-04-19T09:45:42Z</time></trkpt><trkpt lat="45.25957888530527" lon="7.940041273651789"><ele>226.75</ele><time>2026-04-19T09:45:43Z</time></trkpt><trkpt lat="45.259698859099515" lon="7.940054080848263"><ele>226.5</ele><time>2026-04-19T09:45:44Z</time></trkpt><trkpt lat="45.25981524940592" lon="7.940070201545008"><ele>226.25</ele><time>2026-04-19T09:45:45Z</time></trkpt><trkpt lat="45.25992913041624" lon="7.940076586343919"><ele>226.0</ele><time>2026-04-19T09:45:46Z</time></trkpt><trkpt lat="45.26004277022867" lon="7.940087305646376"><ele>226.0</ele><time>2026-04-19T09:45:47Z</time></trkpt><trkpt lat="45.2601540169893" lon="7.940096996506089"><ele>226.0</ele><time>2026-04-19T09:45:48Z</time></trkpt><trkpt lat="45.26027967377698" lon="7.940101399219658"><ele>226.0</ele><time>2026-04-19T09:45:49Z</time></trkpt><trkpt lat="45.26039640187242" lon="7.94011384793974"><ele>226.0</ele><time>2026-04-19T09:45:50Z</time></trkpt><trkpt lat="45.260503447997195" lon="7.9401249106990734"><ele>226.0</ele><time>2026-04-19T09:45:51Z</time></trkpt><trkpt lat="45.26061430674353" lon="7.940137248997349"><ele>226.0</ele><time>2026-04-19T09:45:52Z</time></trkpt><trkpt lat="45.260729534552105" lon="7.940159715347961"><ele>226.0</ele><time>2026-04-19T09:45:53Z</time></trkpt><trkpt lat="45.26084009514503" lon="7.94017490009013"><ele>226.0</ele><time>2026-04-19T09:45:54Z</time></trkpt><trkpt lat="45.26095416948762" lon="7.940182141581783"><ele>226.0</ele><time>2026-04-19T09:45:55Z</time></trkpt><trkpt lat="45.26106040214119" lon="7.940182747873738"><ele>226.00000000000003</ele><time>2026-04-19T09:45:56Z</time></trkpt><trkpt lat="45.26117398866172" lon="7.940195030553938"><ele>226.00000000000003</ele><time>2026-04-19T09:45:57Z</time></trkpt><trkpt lat="45.26128894513779" lon="7.940202059058395"><ele>226.0</ele><time>2026-04-19T09:45:58Z</time></trkpt><trkpt lat="45.26139330678776" lon="7.940211288810077"><ele>226.0</ele><time>2026-04-19T09:45:59Z</time></trkpt><trkpt lat="45.261501172393054" lon="7.940219321275061"><ele>226.25</ele><time>2026-04-19T09:46:00Z</time></trkpt><trkpt lat="45.26161770654704" lon="7.940232763100424"><ele>226.5</ele><time>2026-04-19T09:46:01Z</time></trkpt><trkpt lat="45.261732203275095" lon="7.940243298530518"><ele>226.75</ele><time>2026-04-19T09:46:02Z</time></trkpt><trkpt lat="45.26184172037955" lon="7.940247336739084"><ele>227.0</ele><time>2026-04-19T09:46:03Z</time></trkpt><trkpt lat="45.261956358220495" lon="7.940262172506545"><ele>227.0</ele><time>2026-04-19T09:46:04Z</time></trkpt><trkpt lat="45.26206125547808" lon="7.940263432203005"><ele>227.0</ele><time>2026-04-19T09:46:05Z</time></trkpt><trkpt lat="45.26218157407596" lon="7.940270377398149"><ele>227.0</ele><time>2026-04-19T09:46:06Z</time></trkpt><trkpt lat="45.262302661492804" lon="7.940285014466245"><ele>227.0</ele><time>2026-04-19T09:46:07Z</time></trkpt><trkpt lat="45.26242713601582" lon="7.940295142343185"><ele>227.25</ele><time>2026-04-19T09:46:08Z</time></trkpt><trkpt lat="45.262546478916505" lon="7.940303986459193"><ele>227.5</ele><time>2026-04-19T09:46:09Z</time></trkpt><trkpt lat="45.262659564990905" lon="7.940308926280524"><ele>227.75</ele><time>2026-04-19T09:46:10Z</time></trkpt><trkpt lat="45.26277176236214" lon="7.940327427828405"><ele>228.0</ele><time>2026-04-19T09:46:11Z</time></trkpt><trkpt lat="45.2628796789258" lon="7.940333093848785"><ele>228.0</ele><time>2026-04-19T09:46:12Z</time></trkpt><trkpt lat="45.26298211864499" lon="7.940344911161486"><ele>228.0</ele><time>2026-04-19T09:46:13Z</time></trkpt><trkpt lat="45.26309085149227" lon="7.940352747963607"><ele>228.0</ele><time>2026-04-19T09:46:14Z</time></trkpt><trkpt lat="45.26321656811468" lon="7.94034903809837"><ele>228.0</ele><time>2026-04-19T09:46:15Z</time></trkpt><trkpt lat="45.26332750291303" lon="7.9403611021655784"><ele>228.0</ele><time>2026-04-19T09:46:16Z</time></trkpt><trkpt lat="45.26342445672392" lon="7.940369761345068"><ele>228.5</ele><time>2026-04-19T09:46:17Z</time></trkpt><trkpt lat="45.26351328637275" lon="7.9403738670039266"><ele>229.0</ele><time>2026-04-19T09:46:18Z</time></trkpt><trkpt lat="45.26358932099764" lon="7.940388396234188"><ele>229.5</ele><time>2026-04-19T09:46:19Z</time></trkpt><trkpt lat="45.263652737114924" lon="7.9404058601741685"><ele>230.0</ele><time>2026-04-19T09:46:20Z</time></trkpt><trkpt lat="45.26371701806539" lon="7.9404153574331415"><ele>230.5</ele><time>2026-04-19T09:46:21Z</time></trkpt><trkpt lat="45.26377992449089" lon="7.940427514693567"><ele>231.0</ele><time>2026-04-19T09:46:22Z</time></trkpt><trkpt lat="45.26387309998541" lon="7.940440879767495"><ele>231.0</ele><time>2026-04-19T09:46:24Z</time></trkpt><trkpt lat="45.2639464553288" lon="7.940487176162599"><ele>231.0</ele><time>2026-04-19T09:46:26Z</time></trkpt><trkpt lat="45.26405776939128" lon="7.940545787978362"><ele>231.0</ele><time>2026-04-19T09:46:28Z</time></trkpt><trkpt lat="45.26412653197535" lon="7.940579723248178"><ele>231.0</ele><time>2026-04-19T09:46:29Z</time></trkpt><trkpt lat="45.264205581598276" lon="7.9406157104287685"><ele>231.0</ele><time>2026-04-19T09:46:30Z</time></trkpt><trkpt lat="45.26428931645464" lon="7.940666170777844"><ele>231.0</ele><time>2026-04-19T09:46:31Z</time></trkpt><trkpt lat="45.26437164742127" lon="7.940712977097847"><ele>230.60000000000002</ele><time>2026-04-19T09:46:32Z</time></trkpt><trkpt lat="45.2644650637879" lon="7.940761088833566"><ele>230.20000000000002</ele><time>2026-04-19T09:46:33Z</time></trkpt><trkpt lat="45.26455137048578" lon="7.940805198880082"><ele>229.79999999999998</ele><time>2026-04-19T09:46:34Z</time></trkpt><trkpt lat="45.26463778057087" lon="7.940833875530665"><ele>229.39999999999998</ele><time>2026-04-19T09:46:35Z</time></trkpt><trkpt lat="45.26472474522921" lon="7.940873086458327"><ele>229.0</ele><time>2026-04-19T09:46:36Z</time></trkpt><trkpt lat="45.26481586669913" lon="7.94091562688622"><ele>229.0</ele><time>2026-04-19T09:46:37Z</time></trkpt><trkpt lat="45.26490338732045" lon="7.94097078831958"><ele>228.99999999999997</ele><time>2026-04-19T09:46:38Z</time></trkpt><trkpt lat="45.26499258726116" lon="7.941016209322826"><ele>228.99999999999997</ele><time>2026-04-19T09:46:39Z</time></trkpt><trkpt lat="45.265080210776915" lon="7.941060832229746"><ele>229.0</ele><time>2026-04-19T09:46:40Z</time></trkpt><trkpt lat="45.26516367785067" lon="7.941096334978521"><ele>229.0</ele><time>2026-04-19T09:46:41Z</time></trkpt><trkpt lat="45.26524493830679" lon="7.941140442607769"><ele>229.0</ele><time>2026-04-19T09:46:42Z</time></trkpt><trkpt lat="45.26531897367368" lon="7.941173163693874"><ele>228.99999999999997</ele><time>2026-04-19T09:46:43Z</time></trkpt><trkpt lat="45.26540032611473" lon="7.941210985065803"><ele>228.99999999999997</ele><time>2026-04-19T09:46:44Z</time></trkpt><trkpt lat="45.26548969101821" lon="7.94124935320672"><ele>229.0</ele><time>2026-04-19T09:46:45Z</time></trkpt><trkpt lat="45.26558602192612" lon="7.9412961053543185"><ele>229.0</ele><time>2026-04-19T09:46:46Z</time></trkpt><trkpt lat="45.265678175420774" lon="7.94135448549333"><ele>228.83333333333331</ele><time>2026-04-19T09:46:47Z</time></trkpt><trkpt lat="45.265763211410615" lon="7.941404618141771"><ele>228.66666666666666</ele><time>2026-04-19T09:46:48Z</time></trkpt><trkpt lat="45.26584887361542" lon="7.941452928735231"><ele>228.5</ele><time>2026-04-19T09:46:49Z</time></trkpt><trkpt lat="45.26592075950241" lon="7.941496007437608"><ele>228.33333333333331</ele><time>2026-04-19T09:46:50Z</time></trkpt><trkpt lat="45.2659853464787" lon="7.941539291613659"><ele>228.16666666666666</ele><time>2026-04-19T09:46:51Z</time></trkpt><trkpt lat="45.26605330820863" lon="7.9415771381089115"><ele>228.0</ele><time>2026-04-19T09:46:52Z</time></trkpt><trkpt lat="45.26614364489534" lon="7.941614627784431"><ele>228.0</ele><time>2026-04-19T09:46:53Z</time></trkpt><trkpt lat="45.266234871685704" lon="7.941672126176234"><ele>228.0</ele><time>2026-04-19T09:46:54Z</time></trkpt><trkpt lat="45.26634862809204" lon="7.9417378254230995"><ele>228.0</ele><time>2026-04-19T09:46:55Z</time></trkpt><trkpt lat="45.26644443674014" lon="7.941795908964216"><ele>228.0</ele><time>2026-04-19T09:46:56Z</time></trkpt><trkpt lat="45.26655375089037" lon="7.941848178772854"><ele>228.0</ele><time>2026-04-19T09:46:57Z</time></trkpt><trkpt lat="45.2666649272829" lon="7.94191277164162"><ele>228.4</ele><time>2026-04-19T09:46:58Z</time></trkpt><trkpt lat="45.266767687522176" lon="7.941971986867306"><ele>228.8</ele><time>2026-04-19T09:46:59Z</time></trkpt><trkpt lat="45.26686246451908" lon="7.94202683123661"><ele>229.2</ele><time>2026-04-19T09:47:00Z</time></trkpt><trkpt lat="45.266952225158754" lon="7.942076453778385"><ele>229.6</ele><time>2026-04-19T09:47:01Z</time></trkpt><trkpt lat="45.26703302455891" lon="7.942124448257187"><ele>230.0</ele><time>2026-04-19T09:47:02Z</time></trkpt><trkpt lat="45.26710355827602" lon="7.942153523417486"><ele>230.00000000000003</ele><time>2026-04-19T09:47:03Z</time></trkpt><trkpt lat="45.26718010425127" lon="7.9421826705359555"><ele>230.0</ele><time>2026-04-19T09:47:04Z</time></trkpt><trkpt lat="45.267252800211345" lon="7.9422092932057335"><ele>230.0</ele><time>2026-04-19T09:47:05Z</time></trkpt><trkpt lat="45.267321350481524" lon="7.942237635867178"><ele>230.0</ele><time>2026-04-19T09:47:06Z</time></trkpt><trkpt lat="45.26741204524976" lon="7.942292890254172"><ele>230.00000000000003</ele><time>2026-04-19T09:47:07Z</time></trkpt><trkpt lat="45.26749979015296" lon="7.942364851714406"><ele>230.0</ele><time>2026-04-19T09:47:08Z</time></trkpt><trkpt lat="45.26760555877432" lon="7.942434231537741"><ele>230.0</ele><time>2026-04-19T09:47:09Z</time></trkpt><trkpt lat="45.26771214688922" lon="7.942487841764743"><ele>230.0</ele><time>2026-04-19T09:47:10Z</time></trkpt><trkpt lat="45.267819467985305" lon="7.9425459752864995"><ele>230.0</ele><time>2026-04-19T09:47:11Z</time></trkpt><trkpt lat="45.267913960700184" lon="7.942594119937704"><ele>230.0</ele><time>2026-04-19T09:47:12Z</time></trkpt><trkpt lat="45.268015279678984" lon="7.942651261328944"><ele>230.0</ele><time>2026-04-19T09:47:13Z</time></trkpt><trkpt lat="45.26811261668597" lon="7.942701543079982"><ele>230.0</ele><time>2026-04-19T09:47:14Z</time></trkpt><trkpt lat="45.26820738726472" lon="7.9427523940676235"><ele>230.0</ele><time>2026-04-19T09:47:15Z</time></trkpt><trkpt lat="45.268303776990265" lon="7.942809509779263"><ele>230.0</ele><time>2026-04-19T09:47:16Z</time></trkpt><trkpt lat="45.2683996880168" lon="7.9428595949485565"><ele>230.0</ele><time>2026-04-19T09:47:17Z</time></trkpt><trkpt lat="45.26849352555082" lon="7.942909790479244"><ele>230.0</ele><time>2026-04-19T09:47:18Z</time></trkpt><trkpt lat="45.26859888661793" lon="7.942966383218628"><ele>230.0</ele><time>2026-04-19T09:47:19Z</time></trkpt><trkpt lat="45.268701590261976" lon="7.943002966564933"><ele>230.0</ele><time>2026-04-19T09:47:20Z</time></trkpt><trkpt lat="45.268804949624446" lon="7.943029307592925"><ele>230.0</ele><time>2026-04-19T09:47:21Z</time></trkpt><trkpt lat="45.26890362512508" lon="7.943052415489359"><ele>230.0</ele><time>2026-04-19T09:47:22Z</time></trkpt><trkpt lat="45.269012457035" lon="7.943082909119175"><ele>230.0</ele><time>2026-04-19T09:47:23Z</time></trkpt><trkpt lat="45.269114687075806" lon="7.943111485309609"><ele>230.8</ele><time>2026-04-19T09:47:24Z</time></trkpt><trkpt lat="45.26921782216525" lon="7.9431423226141895"><ele>231.6</ele><time>2026-04-19T09:47:25Z</time></trkpt><trkpt lat="45.26932676433742" lon="7.943176801156617"><ele>232.39999999999998</ele><time>2026-04-19T09:47:26Z</time></trkpt><trkpt lat="45.26943402288336" lon="7.94320801591834"><ele>233.2</ele><time>2026-04-19T09:47:27Z</time></trkpt><trkpt lat="45.26954735590908" lon="7.943238054279938"><ele>234.0</ele><time>2026-04-19T09:47:28Z</time></trkpt><trkpt lat="45.26965925761811" lon="7.943271591178951"><ele>233.75</ele><time>2026-04-19T09:47:29Z</time></trkpt><trkpt lat="45.26977774842342" lon="7.9432982955875"><ele>233.5</ele><time>2026-04-19T09:47:30Z</time></trkpt><trkpt lat="45.26989086650948" lon="7.943329322211703"><ele>233.25</ele><time>2026-04-19T09:47:31Z</time></trkpt><trkpt lat="45.27000000805267" lon="7.943360622235262"><ele>233.0</ele><time>2026-04-19T09:47:32Z</time></trkpt><trkpt lat="45.27010282285746" lon="7.943390792972158"><ele>233.0</ele><time>2026-04-19T09:47:33Z</time></trkpt><trkpt lat="45.2701925240812" lon="7.943421386931229"><ele>233.0</ele><time>2026-04-19T09:47:34Z</time></trkpt><trkpt lat="45.27028043760811" lon="7.943448380964805"><ele>233.0</ele><time>2026-04-19T09:47:35Z</time></trkpt><trkpt lat="45.2703687157232" lon="7.943475990635805"><ele>233.0</ele><time>2026-04-19T09:47:36Z</time></trkpt><trkpt lat="45.270450985419814" lon="7.9435013398821965"><ele>233.0</ele><time>2026-04-19T09:47:37Z</time></trkpt><trkpt lat="45.270543824798324" lon="7.9435364372862844"><ele>232.60000000000002</ele><time>2026-04-19T09:47:38Z</time></trkpt><trkpt lat="45.270643224447326" lon="7.943576787291243"><ele>232.20000000000002</ele><time>2026-04-19T09:47:39Z</time></trkpt><trkpt lat="45.270750297362625" lon="7.943603335776095"><ele>231.8</ele><time>2026-04-19T09:47:40Z</time></trkpt><trkpt lat="45.27085773846959" lon="7.943630630968636"><ele>231.4</ele><time>2026-04-19T09:47:41Z</time></trkpt><trkpt lat="45.270964318934766" lon="7.943665233623902"><ele>231.0</ele><time>2026-04-19T09:47:42Z</time></trkpt><trkpt lat="45.27108310681569" lon="7.943685349996791"><ele>231.0</ele><time>2026-04-19T09:47:43Z</time></trkpt><trkpt lat="45.27119760984482" lon="7.9437083368122785"><ele>231.0</ele><time>2026-04-19T09:47:44Z</time></trkpt><trkpt lat="45.271312026676526" lon="7.943729702613364"><ele>231.0</ele><time>2026-04-19T09:47:45Z</time></trkpt><trkpt lat="45.27142168843931" lon="7.943751001519516"><ele>231.0</ele><time>2026-04-19T09:47:46Z</time></trkpt><trkpt lat="45.271531285774756" lon="7.943774530907386"><ele>231.4</ele><time>2026-04-19T09:47:47Z</time></trkpt><trkpt lat="45.27163755026749" lon="7.9437907680125255"><ele>231.8</ele><time>2026-04-19T09:47:48Z</time></trkpt><trkpt lat="45.27175727104247" lon="7.943818338978388"><ele>232.20000000000002</ele><time>2026-04-19T09:47:49Z</time></trkpt><trkpt lat="45.27186132447971" lon="7.94383871755533"><ele>232.60000000000002</ele><time>2026-04-19T09:47:50Z</time></trkpt><trkpt lat="45.271964872434495" lon="7.94385302270239"><ele>233.0</ele><time>2026-04-19T09:47:51Z</time></trkpt><trkpt lat="45.27206451082143" lon="7.943871140653901"><ele>233.0</ele><time>2026-04-19T09:47:52Z</time></trkpt><trkpt lat="45.272171221823534" lon="7.943898938363571"><ele>233.0</ele><time>2026-04-19T09:47:53Z</time></trkpt><trkpt lat="45.27228302541251" lon="7.943919168274"><ele>233.0</ele><time>2026-04-19T09:47:54Z</time></trkpt><trkpt lat="45.27239454320041" lon="7.943946648828635"><ele>233.0</ele><time>2026-04-19T09:47:55Z</time></trkpt><trkpt lat="45.2724957929239" lon="7.943969111722851"><ele>233.0</ele><time>2026-04-19T09:47:56Z</time></trkpt><trkpt lat="45.272605195365664" lon="7.94399181868853"><ele>233.0</ele><time>2026-04-19T09:47:57Z</time></trkpt><trkpt lat="45.27270150136476" lon="7.944009767909938"><ele>233.0</ele><time>2026-04-19T09:47:58Z</time></trkpt><trkpt lat="45.272803291770785" lon="7.944026475990323"><ele>233.0</ele><time>2026-04-19T09:47:59Z</time></trkpt><trkpt lat="45.27290120945549" lon="7.944048503476508"><ele>233.0</ele><time>2026-04-19T09:48:00Z</time></trkpt><trkpt lat="45.27300829726686" lon="7.944069107519585"><ele>233.0</ele><time>2026-04-19T09:48:01Z</time></trkpt><trkpt lat="45.2731116376192" lon="7.944094457356838"><ele>233.2</ele><time>2026-04-19T09:48:02Z</time></trkpt><trkpt lat="45.273194591798266" lon="7.944114469684376"><ele>233.4</ele><time>2026-04-19T09:48:03Z</time></trkpt><trkpt lat="45.27326042191897" lon="7.944120957397419"><ele>233.59999999999997</ele><time>2026-04-19T09:48:04Z</time></trkpt><trkpt lat="45.273344929397545" lon="7.944174678320525"><ele>233.79999999999998</ele><time>2026-04-19T09:48:06Z</time></trkpt><trkpt lat="45.27341541868234" lon="7.944183552083615"><ele>234.0</ele><time>2026-04-19T09:48:12Z</time></trkpt><trkpt lat="45.273361679235734" lon="7.944475162851764"><ele>234.0</ele><time>2026-04-19T09:48:14Z</time></trkpt><trkpt lat="45.27334367378695" lon="7.944587616684947"><ele>234.0</ele><time>2026-04-19T09:48:15Z</time></trkpt><trkpt lat="45.27332889198135" lon="7.944753330023184"><ele>234.0</ele><time>2026-04-19T09:48:16Z</time></trkpt><trkpt lat="45.273303931287806" lon="7.944949934234532"><ele>234.0</ele><time>2026-04-19T09:48:17Z</time></trkpt><trkpt lat="45.27328567424555" lon="7.9451344312173555"><ele>234.0</ele><time>2026-04-19T09:48:18Z</time></trkpt><trkpt lat="45.27326797440608" lon="7.945309501081562"><ele>234.0</ele><time>2026-04-19T09:48:19Z</time></trkpt><trkpt lat="45.27324903317935" lon="7.945471016511227"><ele>234.0</ele><time>2026-04-19T09:48:20Z</time></trkpt><trkpt lat="45.2732272619993" lon="7.9456340986278935"><ele>234.0</ele><time>2026-04-19T09:48:21Z</time></trkpt><trkpt lat="45.27320796967542" lon="7.945810919505664"><ele>233.75</ele><time>2026-04-19T09:48:22Z</time></trkpt><trkpt lat="45.273197494159206" lon="7.945983841315702"><ele>233.5</ele><time>2026-04-19T09:48:23Z</time></trkpt><trkpt lat="45.27316264227427" lon="7.94614374942528"><ele>233.25</ele><time>2026-04-19T09:48:24Z</time></trkpt><trkpt lat="45.27313550095141" lon="7.946311177975157"><ele>233.0</ele><time>2026-04-19T09:48:25Z</time></trkpt><trkpt lat="45.273113350089936" lon="7.946459745637907"><ele>233.2</ele><time>2026-04-19T09:48:26Z</time></trkpt><trkpt lat="45.273099004683424" lon="7.946598171507366"><ele>233.4</ele><time>2026-04-19T09:48:27Z</time></trkpt><trkpt lat="45.27308979327243" lon="7.946753658207423"><ele>233.59999999999997</ele><time>2026-04-19T09:48:28Z</time></trkpt><trkpt lat="45.273069728521136" lon="7.9469267382767885"><ele>233.79999999999998</ele><time>2026-04-19T09:48:29Z</time></trkpt><trkpt lat="45.27306185827553" lon="7.947087438899443"><ele>234.0</ele><time>2026-04-19T09:48:30Z</time></trkpt><trkpt lat="45.273053149921545" lon="7.947237947909463"><ele>234.0</ele><time>2026-04-19T09:48:31Z</time></trkpt><trkpt lat="45.27303928993501" lon="7.947394063145703"><ele>233.99999999999997</ele><time>2026-04-19T09:48:32Z</time></trkpt><trkpt lat="45.27301731795196" lon="7.947566495629963"><ele>233.99999999999997</ele><time>2026-04-19T09:48:33Z</time></trkpt><trkpt lat="45.272997178583104" lon="7.947718949345789"><ele>234.0</ele><time>2026-04-19T09:48:34Z</time></trkpt><trkpt lat="45.27297524162079" lon="7.9478584648644945"><ele>234.0</ele><time>2026-04-19T09:48:35Z</time></trkpt><trkpt lat="45.27296203884397" lon="7.947992314077651"><ele>234.0</ele><time>2026-04-19T09:48:36Z</time></trkpt><trkpt lat="45.27295224974487" lon="7.948129983345727"><ele>233.99999999999997</ele><time>2026-04-19T09:48:37Z</time></trkpt><trkpt lat="45.272940947116844" lon="7.9482559634809995"><ele>233.99999999999997</ele><time>2026-04-19T09:48:38Z</time></trkpt><trkpt lat="45.272932401472005" lon="7.9483941773991855"><ele>234.0</ele><time>2026-04-19T09:48:39Z</time></trkpt><trkpt lat="45.272909159091206" lon="7.948530438027899"><ele>234.0</ele><time>2026-04-19T09:48:40Z</time></trkpt><trkpt lat="45.27289859664365" lon="7.948671707477646"><ele>233.79999999999998</ele><time>2026-04-19T09:48:41Z</time></trkpt><trkpt lat="45.27289269097919" lon="7.948811364332667"><ele>233.59999999999997</ele><time>2026-04-19T09:48:42Z</time></trkpt><trkpt lat="45.272873038484796" lon="7.948953630254252"><ele>233.4</ele><time>2026-04-19T09:48:43Z</time></trkpt><trkpt lat="45.27285577793884" lon="7.949094743415028"><ele>233.2</ele><time>2026-04-19T09:48:44Z</time></trkpt><trkpt lat="45.272839312155355" lon="7.949238066588238"><ele>233.0</ele><time>2026-04-19T09:48:45Z</time></trkpt><trkpt lat="45.27282071391196" lon="7.9493819853905725"><ele>233.4</ele><time>2026-04-19T09:48:46Z</time></trkpt><trkpt lat="45.272802989303536" lon="7.949529537501431"><ele>233.8</ele><time>2026-04-19T09:48:47Z</time></trkpt><trkpt lat="45.27278034954432" lon="7.949674461145695"><ele>234.2</ele><time>2026-04-19T09:48:48Z</time></trkpt><trkpt lat="45.27276623606806" lon="7.949821132386651"><ele>234.6</ele><time>2026-04-19T09:48:49Z</time></trkpt><trkpt lat="45.27275395973968" lon="7.949970046586644"><ele>235.0</ele><time>2026-04-19T09:48:50Z</time></trkpt><trkpt lat="45.27274444132419" lon="7.950123513051271"><ele>235.0</ele><time>2026-04-19T09:48:51Z</time></trkpt><trkpt lat="45.27273284344388" lon="7.950281702306973"><ele>235.0</ele><time>2026-04-19T09:48:52Z</time></trkpt><trkpt lat="45.272722773156914" lon="7.950436161803849"><ele>235.0</ele><time>2026-04-19T09:48:53Z</time></trkpt><trkpt lat="45.27270298740347" lon="7.950580726018449"><ele>235.0</ele><time>2026-04-19T09:48:54Z</time></trkpt><trkpt lat="45.27268474362671" lon="7.950736953686179"><ele>235.0</ele><time>2026-04-19T09:48:55Z</time></trkpt><trkpt lat="45.272666402544694" lon="7.950891573150803"><ele>235.2</ele><time>2026-04-19T09:48:56Z</time></trkpt><trkpt lat="45.27265114638765" lon="7.951035278339081"><ele>235.4</ele><time>2026-04-19T09:48:57Z</time></trkpt><trkpt lat="45.2726347132309" lon="7.9511933364254315"><ele>235.60000000000002</ele><time>2026-04-19T09:48:58Z</time></trkpt><trkpt lat="45.272618222196726" lon="7.951335777037646"><ele>235.8</ele><time>2026-04-19T09:48:59Z</time></trkpt><trkpt lat="45.27260387394179" lon="7.951469713422807"><ele>236.0</ele><time>2026-04-19T09:49:00Z</time></trkpt><trkpt lat="45.27258760850376" lon="7.951613649114107"><ele>235.5</ele><time>2026-04-19T09:49:01Z</time></trkpt><trkpt lat="45.27257306108202" lon="7.951746866104805"><ele>235.0</ele><time>2026-04-19T09:49:02Z</time></trkpt><trkpt lat="45.27256454886313" lon="7.951917455930466"><ele>234.5</ele><time>2026-04-19T09:49:03Z</time></trkpt><trkpt lat="45.272550290147564" lon="7.952088944523714"><ele>234.0</ele><time>2026-04-19T09:49:04Z</time></trkpt><trkpt lat="45.2725326600621" lon="7.952258268201567"><ele>234.0</ele><time>2026-04-19T09:49:05Z</time></trkpt><trkpt lat="45.27251384199982" lon="7.952414593157439"><ele>234.0</ele><time>2026-04-19T09:49:06Z</time></trkpt><trkpt lat="45.27248844938537" lon="7.95259668102239"><ele>234.0</ele><time>2026-04-19T09:49:07Z</time></trkpt><trkpt lat="45.27247897803617" lon="7.952753016433507"><ele>234.0</ele><time>2026-04-19T09:49:08Z</time></trkpt><trkpt lat="45.27246778278345" lon="7.952892914863353"><ele>234.2</ele><time>2026-04-19T09:49:09Z</time></trkpt><trkpt lat="45.27245001999054" lon="7.953036688463382"><ele>234.39999999999998</ele><time>2026-04-19T09:49:10Z</time></trkpt><trkpt lat="45.27243272481071" lon="7.953189381794334"><ele>234.6</ele><time>2026-04-19T09:49:11Z</time></trkpt><trkpt lat="45.27242095559938" lon="7.953327345704409"><ele>234.8</ele><time>2026-04-19T09:49:12Z</time></trkpt><trkpt lat="45.27240498309388" lon="7.953469799265445"><ele>235.0</ele><time>2026-04-19T09:49:13Z</time></trkpt><trkpt lat="45.27238799843617" lon="7.953615064421741"><ele>234.99999999999997</ele><time>2026-04-19T09:49:14Z</time></trkpt><trkpt lat="45.27237337768415" lon="7.953733468969726"><ele>235.0</ele><time>2026-04-19T09:49:15Z</time></trkpt><trkpt lat="45.272362952043004" lon="7.9538284873243414"><ele>235.0</ele><time>2026-04-19T09:49:16Z</time></trkpt><trkpt lat="45.27234420557275" lon="7.9539635555776025"><ele>235.0</ele><time>2026-04-19T09:49:18Z</time></trkpt><trkpt lat="45.27230104614155" lon="7.954077491937154"><ele>234.99999999999997</ele><time>2026-04-19T09:49:20Z</time></trkpt><trkpt lat="45.272205670440826" lon="7.954131445731445"><ele>235.0</ele><time>2026-04-19T09:49:22Z</time></trkpt><trkpt lat="45.272139508321715" lon="7.954155928236781"><ele>235.2</ele><time>2026-04-19T09:49:23Z</time></trkpt><trkpt lat="45.27203758926788" lon="7.954211577873861"><ele>235.4</ele><time>2026-04-19T09:49:25Z</time></trkpt><trkpt lat="45.27205978394719" lon="7.954421695104497"><ele>235.60000000000002</ele><time>2026-04-19T09:49:28Z</time></trkpt><trkpt lat="45.272105110001895" lon="7.954498307773863"><ele>235.8</ele><time>2026-04-19T09:49:29Z</time></trkpt><trkpt lat="45.27217163360116" lon="7.954630744004853"><ele>236.0</ele><time>2026-04-19T09:49:31Z</time></trkpt><trkpt lat="45.27227260636119" lon="7.954729084790319"><ele>235.83333333333334</ele><time>2026-04-19T09:49:33Z</time></trkpt><trkpt lat="45.272328253405355" lon="7.954786133726769"><ele>235.66666666666669</ele><time>2026-04-19T09:49:34Z</time></trkpt><trkpt lat="45.27238950981756" lon="7.954848891950958"><ele>235.5</ele><time>2026-04-19T09:49:35Z</time></trkpt><trkpt lat="45.27245193256173" lon="7.9548935426156415"><ele>235.33333333333331</ele><time>2026-04-19T09:49:36Z</time></trkpt><trkpt lat="45.27249236908922" lon="7.954965244553787"><ele>235.16666666666666</ele><time>2026-04-19T09:49:37Z</time></trkpt><trkpt lat="45.272572359449924" lon="7.955059641508366"><ele>235.0</ele><time>2026-04-19T09:49:39Z</time></trkpt><trkpt lat="45.27263809112301" lon="7.955153666014241"><ele>234.8</ele><time>2026-04-19T09:49:41Z</time></trkpt><trkpt lat="45.272658664310015" lon="7.955299940778327"><ele>234.6</ele><time>2026-04-19T09:49:43Z</time></trkpt><trkpt lat="45.27267321552307" lon="7.955451600648175"><ele>234.39999999999998</ele><time>2026-04-19T09:49:45Z</time></trkpt><trkpt lat="45.27268594661022" lon="7.955612907820877"><ele>234.2</ele><time>2026-04-19T09:49:47Z</time></trkpt><trkpt lat="45.27267203360639" lon="7.955767931049585"><ele>234.0</ele><time>2026-04-19T09:49:49Z</time></trkpt><trkpt lat="45.27265346799889" lon="7.955891555465234"><ele>232.6</ele><time>2026-04-19T09:49:51Z</time></trkpt><trkpt lat="45.27263389856554" lon="7.956021998229164"><ele>231.2</ele><time>2026-04-19T09:49:53Z</time></trkpt><trkpt lat="45.27257088768589" lon="7.956145860640422"><ele>229.79999999999998</ele><time>2026-04-19T09:49:55Z</time></trkpt><trkpt lat="45.272517901598796" lon="7.956258945185701"><ele>228.39999999999998</ele><time>2026-04-19T09:49:57Z</time></trkpt><trkpt lat="45.2724665881789" lon="7.956369749465679"><ele>227.0</ele><time>2026-04-19T09:49:59Z</time></trkpt><trkpt lat="45.272417474368204" lon="7.956503064567452"><ele>227.0</ele><time>2026-04-19T09:50:01Z</time></trkpt><trkpt lat="45.27239673065088" lon="7.956587989795248"><ele>227.00000000000003</ele><time>2026-04-19T09:50:02Z</time></trkpt><trkpt lat="45.272364694770395" lon="7.956686838675598"><ele>227.0</ele><time>2026-04-19T09:50:03Z</time></trkpt><trkpt lat="45.272352483476624" lon="7.95679356776692"><ele>227.0</ele><time>2026-04-19T09:50:04Z</time></trkpt><trkpt lat="45.272346711812425" lon="7.956899604511368"><ele>227.00000000000003</ele><time>2026-04-19T09:50:05Z</time></trkpt><trkpt lat="45.27234495447906" lon="7.956994768038183"><ele>227.0</ele><time>2026-04-19T09:50:06Z</time></trkpt><trkpt lat="45.27234511613145" lon="7.957095976983579"><ele>227.0</ele><time>2026-04-19T09:50:07Z</time></trkpt><trkpt lat="45.27234834890014" lon="7.957206428815063"><ele>225.50000000000003</ele><time>2026-04-19T09:50:08Z</time></trkpt><trkpt lat="45.27236629296319" lon="7.9572974876207345"><ele>224.0</ele><time>2026-04-19T09:50:09Z</time></trkpt><trkpt lat="45.2723940649967" lon="7.957477735522094"><ele>222.5</ele><time>2026-04-19T09:50:11Z</time></trkpt><trkpt lat="45.27241006882938" lon="7.95757850376265"><ele>221.0</ele><time>2026-04-19T09:50:12Z</time></trkpt><trkpt lat="45.27243291968565" lon="7.95772766081135"><ele>219.50000000000003</ele><time>2026-04-19T09:50:14Z</time></trkpt><trkpt lat="45.27245111181924" lon="7.957818556974635"><ele>218.0</ele><time>2026-04-19T09:50:15Z</time></trkpt><trkpt lat="45.27245899471304" lon="7.957976309191562"><ele>216.0</ele><time>2026-04-19T09:50:17Z</time></trkpt><trkpt lat="45.27247477715192" lon="7.9581125318784665"><ele>214.0</ele><time>2026-04-19T09:50:19Z</time></trkpt><trkpt lat="45.272473661851045" lon="7.958258133261"><ele>212.0</ele><time>2026-04-19T09:50:21Z</time></trkpt><trkpt lat="45.272457206036975" lon="7.9584031122288055"><ele>210.0</ele><time>2026-04-19T09:50:23Z</time></trkpt><trkpt lat="45.2724438487482" lon="7.958590872827909"><ele>208.0</ele><time>2026-04-19T09:50:25Z</time></trkpt><trkpt lat="45.272438474651125" lon="7.95871428557619"><ele>206.99999999999997</ele><time>2026-04-19T09:50:26Z</time></trkpt><trkpt lat="45.2724236386596" lon="7.958829043302643"><ele>206.0</ele><time>2026-04-19T09:50:27Z</time></trkpt><trkpt lat="45.272412587576895" lon="7.958932721647998"><ele>205.0</ele><time>2026-04-19T09:50:28Z</time></trkpt><trkpt lat="45.272384126174224" lon="7.959019794202569"><ele>204.0</ele><time>2026-04-19T09:50:29Z</time></trkpt><trkpt lat="45.272347021551646" lon="7.9591744756346685"><ele>202.99999999999997</ele><time>2026-04-19T09:50:31Z</time></trkpt><trkpt lat="45.272286560785105" lon="7.959274444936139"><ele>202.0</ele><time>2026-04-19T09:50:33Z</time></trkpt><trkpt lat="45.27223231967442" lon="7.959390084806377"><ele>201.6</ele><time>2026-04-19T09:50:35Z</time></trkpt><trkpt lat="45.27215886462836" lon="7.959493418205682"><ele>201.2</ele><time>2026-04-19T09:50:37Z</time></trkpt><trkpt lat="45.272066281568634" lon="7.959618749552402"><ele>200.8</ele><time>2026-04-19T09:50:39Z</time></trkpt><trkpt lat="45.271993179230755" lon="7.959751605232207"><ele>200.4</ele><time>2026-04-19T09:50:41Z</time></trkpt><trkpt lat="45.271937204655245" lon="7.9598055933335505"><ele>200.0</ele><time>2026-04-19T09:50:42Z</time></trkpt><trkpt lat="45.27187295318342" lon="7.959868330717668"><ele>200.00000000000003</ele><time>2026-04-19T09:50:43Z</time></trkpt><trkpt lat="45.27182208046121" lon="7.959959460032703"><ele>200.0</ele><time>2026-04-19T09:50:44Z</time></trkpt><trkpt lat="45.27175902252395" lon="7.9600197571819145"><ele>200.0</ele><time>2026-04-19T09:50:45Z</time></trkpt><trkpt lat="45.271698492288834" lon="7.960078916121351"><ele>200.0</ele><time>2026-04-19T09:50:46Z</time></trkpt><trkpt lat="45.271645242065404" lon="7.960135795798143"><ele>200.0</ele><time>2026-04-19T09:50:47Z</time></trkpt><trkpt lat="45.2715764667734" lon="7.960168040131077"><ele>200.00000000000003</ele><time>2026-04-19T09:50:48Z</time></trkpt><trkpt lat="45.271518545696445" lon="7.9602156936220645"><ele>200.0</ele><time>2026-04-19T09:50:49Z</time></trkpt><trkpt lat="45.27139335848867" lon="7.960291191097688"><ele>199.83333333333334</ele><time>2026-04-19T09:50:51Z</time></trkpt><trkpt lat="45.27131662946785" lon="7.960333599331298"><ele>199.66666666666669</ele><time>2026-04-19T09:50:52Z</time></trkpt><trkpt lat="45.27123383915443" lon="7.96037966969825"><ele>199.5</ele><time>2026-04-19T09:50:53Z</time></trkpt><trkpt lat="45.27116733609622" lon="7.9604428119296085"><ele>199.33333333333331</ele><time>2026-04-19T09:50:54Z</time></trkpt><trkpt lat="45.271090491860434" lon="7.9604692628322065"><ele>199.16666666666666</ele><time>2026-04-19T09:50:55Z</time></trkpt><trkpt lat="45.27100556938318" lon="7.960523661947355"><ele>199.0</ele><time>2026-04-19T09:50:56Z</time></trkpt><trkpt lat="45.270916249232506" lon="7.960580878252804"><ele>199.0</ele><time>2026-04-19T09:50:57Z</time></trkpt><trkpt lat="45.27083200833083" lon="7.96063082413647"><ele>199.0</ele><time>2026-04-19T09:50:58Z</time></trkpt><trkpt lat="45.27075754433425" lon="7.960694572079841"><ele>199.0</ele><time>2026-04-19T09:50:59Z</time></trkpt><trkpt lat="45.27067735157659" lon="7.960737071714249"><ele>199.0</ele><time>2026-04-19T09:51:00Z</time></trkpt><trkpt lat="45.27057735695084" lon="7.960782000097088"><ele>199.0</ele><time>2026-04-19T09:51:01Z</time></trkpt><trkpt lat="45.27048700550469" lon="7.9608202257844125"><ele>198.99999999999997</ele><time>2026-04-19T09:51:02Z</time></trkpt><trkpt lat="45.27039365311168" lon="7.960837110140918"><ele>199.0</ele><time>2026-04-19T09:51:03Z</time></trkpt><trkpt lat="45.27030562310841" lon="7.960874175249414"><ele>199.0</ele><time>2026-04-19T09:51:04Z</time></trkpt><trkpt lat="45.2702227896355" lon="7.960909052513426"><ele>199.0</ele><time>2026-04-19T09:51:05Z</time></trkpt><trkpt lat="45.2701472327629" lon="7.960960845875976"><ele>198.99999999999997</ele><time>2026-04-19T09:51:06Z</time></trkpt><trkpt lat="45.27006453778826" lon="7.960995768240113"><ele>199.0</ele><time>2026-04-19T09:51:07Z</time></trkpt><trkpt lat="45.26998847451962" lon="7.961027364361373"><ele>198.39999999999998</ele><time>2026-04-19T09:51:08Z</time></trkpt><trkpt lat="45.26989612467574" lon="7.961069078511983"><ele>197.8</ele><time>2026-04-19T09:51:09Z</time></trkpt><trkpt lat="45.26981494935921" lon="7.961143184975338"><ele>197.2</ele><time>2026-04-19T09:51:10Z</time></trkpt><trkpt lat="45.26972338157271" lon="7.961178423878055"><ele>196.60000000000002</ele><time>2026-04-19T09:51:11Z</time></trkpt><trkpt lat="45.26964252836257" lon="7.961234923768514"><ele>196.0</ele><time>2026-04-19T09:51:12Z</time></trkpt><trkpt lat="45.26955769011934" lon="7.9612942084187255"><ele>195.8</ele><time>2026-04-19T09:51:13Z</time></trkpt><trkpt lat="45.26947929108145" lon="7.961348993318457"><ele>195.60000000000002</ele><time>2026-04-19T09:51:14Z</time></trkpt><trkpt lat="45.26940249083799" lon="7.961418624488015"><ele>195.4</ele><time>2026-04-19T09:51:15Z</time></trkpt><trkpt lat="45.26931982976125" lon="7.961479130184251"><ele>195.2</ele><time>2026-04-19T09:51:16Z</time></trkpt><trkpt lat="45.26923100214754" lon="7.961544667439352"><ele>195.0</ele><time>2026-04-19T09:51:17Z</time></trkpt><trkpt lat="45.269155324992525" lon="7.9615801650969376"><ele>195.0</ele><time>2026-04-19T09:51:18Z</time></trkpt><trkpt lat="45.26908246685153" lon="7.96163273292624"><ele>195.0</ele><time>2026-04-19T09:51:19Z</time></trkpt><trkpt lat="45.26901210348116" lon="7.961682615877894"><ele>195.0</ele><time>2026-04-19T09:51:20Z</time></trkpt><trkpt lat="45.26893159793061" lon="7.961738513299358"><ele>195.0</ele><time>2026-04-19T09:51:21Z</time></trkpt><trkpt lat="45.26885111932441" lon="7.9617915019309065"><ele>195.0</ele><time>2026-04-19T09:51:22Z</time></trkpt><trkpt lat="45.26876925197892" lon="7.96184355802286"><ele>195.0</ele><time>2026-04-19T09:51:23Z</time></trkpt><trkpt lat="45.26869572377579" lon="7.96188835492495"><ele>195.0</ele><time>2026-04-19T09:51:24Z</time></trkpt><trkpt lat="45.26861906774552" lon="7.961935057430968"><ele>195.0</ele><time>2026-04-19T09:51:25Z</time></trkpt><trkpt lat="45.26853161312468" lon="7.961989455517546"><ele>195.0</ele><time>2026-04-19T09:51:26Z</time></trkpt><trkpt lat="45.26844321280336" lon="7.962068904083039"><ele>195.0</ele><time>2026-04-19T09:51:27Z</time></trkpt><trkpt lat="45.26835581349895" lon="7.962121028375039"><ele>195.0</ele><time>2026-04-19T09:51:28Z</time></trkpt><trkpt lat="45.26827797607262" lon="7.9621985898865555"><ele>195.0</ele><time>2026-04-19T09:51:29Z</time></trkpt><trkpt lat="45.268191865200144" lon="7.96228443879108"><ele>195.0</ele><time>2026-04-19T09:51:30Z</time></trkpt><trkpt lat="45.26812258518002" lon="7.962389853820264"><ele>195.0</ele><time>2026-04-19T09:51:31Z</time></trkpt><trkpt lat="45.26806175741764" lon="7.9624787201577725"><ele>195.0</ele><time>2026-04-19T09:51:32Z</time></trkpt><trkpt lat="45.26799501936182" lon="7.962579346133688"><ele>195.0</ele><time>2026-04-19T09:51:33Z</time></trkpt><trkpt lat="45.26793477295891" lon="7.962677219934411"><ele>195.16666666666666</ele><time>2026-04-19T09:51:34Z</time></trkpt><trkpt lat="45.26788931445136" lon="7.96277193673023"><ele>195.33333333333331</ele><time>2026-04-19T09:51:35Z</time></trkpt><trkpt lat="45.267839067103324" lon="7.962883049327251"><ele>195.5</ele><time>2026-04-19T09:51:36Z</time></trkpt><trkpt lat="45.26779005210305" lon="7.963005483223712"><ele>195.66666666666666</ele><time>2026-04-19T09:51:37Z</time></trkpt><trkpt lat="45.26775114620006" lon="7.963120490645625"><ele>195.83333333333331</ele><time>2026-04-19T09:51:38Z</time></trkpt><trkpt lat="45.26773869520485" lon="7.963233915034379"><ele>196.0</ele><time>2026-04-19T09:51:39Z</time></trkpt><trkpt lat="45.26769947412764" lon="7.9633448011146415"><ele>195.83333333333331</ele><time>2026-04-19T09:51:40Z</time></trkpt><trkpt lat="45.26767318481328" lon="7.963453562802421"><ele>195.66666666666666</ele><time>2026-04-19T09:51:41Z</time></trkpt><trkpt lat="45.26764348928321" lon="7.9635573187682125"><ele>195.5</ele><time>2026-04-19T09:51:42Z</time></trkpt><trkpt lat="45.267600073786305" lon="7.963654632255242"><ele>195.33333333333331</ele><time>2026-04-19T09:51:43Z</time></trkpt><trkpt lat="45.26755577118353" lon="7.9637423954564905"><ele>195.16666666666666</ele><time>2026-04-19T09:51:44Z</time></trkpt><trkpt lat="45.267521439164966" lon="7.963835197734345"><ele>195.0</ele><time>2026-04-19T09:51:45Z</time></trkpt><trkpt lat="45.2674978480458" lon="7.963945538206392"><ele>195.0</ele><time>2026-04-19T09:51:46Z</time></trkpt><trkpt lat="45.26748515343521" lon="7.964050543185733"><ele>195.0</ele><time>2026-04-19T09:51:47Z</time></trkpt><trkpt lat="45.26747121546715" lon="7.96415377246714"><ele>195.0</ele><time>2026-04-19T09:51:48Z</time></trkpt><trkpt lat="45.26746555833507" lon="7.964273868604215"><ele>195.0</ele><time>2026-04-19T09:51:49Z</time></trkpt><trkpt lat="45.2674364875571" lon="7.964385980733531"><ele>195.0</ele><time>2026-04-19T09:51:50Z</time></trkpt><trkpt lat="45.26741315576623" lon="7.964499587188894"><ele>195.0</ele><time>2026-04-19T09:51:51Z</time></trkpt><trkpt lat="45.2673911883031" lon="7.964606460989247"><ele>195.0</ele><time>2026-04-19T09:51:52Z</time></trkpt><trkpt lat="45.2673672737791" lon="7.964721419204875"><ele>195.0</ele><time>2026-04-19T09:51:53Z</time></trkpt><trkpt lat="45.267341367772545" lon="7.964842989806443"><ele>195.0</ele><time>2026-04-19T09:51:54Z</time></trkpt><trkpt lat="45.26731547263023" lon="7.964968344142376"><ele>195.0</ele><time>2026-04-19T09:51:55Z</time></trkpt><trkpt lat="45.267293479881666" lon="7.9650876525719445"><ele>195.0</ele><time>2026-04-19T09:51:56Z</time></trkpt><trkpt lat="45.267267268028185" lon="7.965199542493374"><ele>195.0</ele><time>2026-04-19T09:51:57Z</time></trkpt><trkpt lat="45.26724524203842" lon="7.965312397435643"><ele>195.0</ele><time>2026-04-19T09:51:58Z</time></trkpt><trkpt lat="45.267209555115976" lon="7.9654090407781775"><ele>195.0</ele><time>2026-04-19T09:51:59Z</time></trkpt><trkpt lat="45.2671895089657" lon="7.9654967639856045"><ele>195.0</ele><time>2026-04-19T09:52:00Z</time></trkpt><trkpt lat="45.26715769209571" lon="7.965669189635461"><ele>195.0</ele><time>2026-04-19T09:52:02Z</time></trkpt><trkpt lat="45.26714065794815" lon="7.9657569722226915"><ele>195.0</ele><time>2026-04-19T09:52:03Z</time></trkpt><trkpt lat="45.267117321929476" lon="7.965865463847515"><ele>195.0</ele><time>2026-04-19T09:52:04Z</time></trkpt><trkpt lat="45.26707391021943" lon="7.965985222072245"><ele>195.0</ele><time>2026-04-19T09:52:05Z</time></trkpt><trkpt lat="45.26705427228817" lon="7.966133687054379"><ele>195.0</ele><time>2026-04-19T09:52:06Z</time></trkpt><trkpt lat="45.26702065793837" lon="7.966252705749891"><ele>195.0</ele><time>2026-04-19T09:52:07Z</time></trkpt><trkpt lat="45.26698990848619" lon="7.966379416164451"><ele>195.0</ele><time>2026-04-19T09:52:08Z</time></trkpt><trkpt lat="45.266964963479616" lon="7.966508353797812"><ele>195.0</ele><time>2026-04-19T09:52:09Z</time></trkpt><trkpt lat="45.266940240190316" lon="7.966627015698987"><ele>194.8</ele><time>2026-04-19T09:52:10Z</time></trkpt><trkpt lat="45.26691227220407" lon="7.966738861886573"><ele>194.6</ele><time>2026-04-19T09:52:11Z</time></trkpt><trkpt lat="45.26689463877165" lon="7.966830592123074"><ele>194.39999999999998</ele><time>2026-04-19T09:52:12Z</time></trkpt><trkpt lat="45.26686117747522" lon="7.966986648360177"><ele>194.2</ele><time>2026-04-19T09:52:14Z</time></trkpt><trkpt lat="45.26683308947855" lon="7.967090620706998"><ele>194.0</ele><time>2026-04-19T09:52:16Z</time></trkpt><trkpt lat="45.26672787280826" lon="7.967024169161725"><ele>194.00000000000003</ele><time>2026-04-19T09:52:17Z</time></trkpt><trkpt lat="45.26663303628613" lon="7.967136685214517"><ele>194.0</ele><time>2026-04-19T09:52:21Z</time></trkpt><trkpt lat="45.26658583956262" lon="7.9672041963110924"><ele>194.0</ele><time>2026-04-19T09:52:22Z</time></trkpt><trkpt lat="45.266518248527966" lon="7.967244718319086"><ele>194.0</ele><time>2026-04-19T09:52:23Z</time></trkpt><trkpt lat="45.26645588671183" lon="7.967278600243031"><ele>194.00000000000003</ele><time>2026-04-19T09:52:24Z</time></trkpt><trkpt lat="45.26639203719907" lon="7.967308848319214"><ele>194.0</ele><time>2026-04-19T09:52:25Z</time></trkpt><trkpt lat="45.26631920060379" lon="7.967339314967899"><ele>193.83333333333334</ele><time>2026-04-19T09:52:26Z</time></trkpt><trkpt lat="45.26624906247141" lon="7.967373347103112"><ele>193.66666666666669</ele><time>2026-04-19T09:52:27Z</time></trkpt><trkpt lat="45.26618562930502" lon="7.967432894872898"><ele>193.5</ele><time>2026-04-19T09:52:28Z</time></trkpt><trkpt lat="45.2660713772514" lon="7.9675179482178695"><ele>193.33333333333331</ele><time>2026-04-19T09:52:30Z</time></trkpt><trkpt lat="45.266008225545235" lon="7.967575472250928"><ele>193.16666666666666</ele><time>2026-04-19T09:52:31Z</time></trkpt><trkpt lat="45.26594204831802" lon="7.967640696427535"><ele>193.0</ele><time>2026-04-19T09:52:32Z</time></trkpt><trkpt lat="45.26587865764147" lon="7.967707398468539"><ele>192.99999999999997</ele><time>2026-04-19T09:52:33Z</time></trkpt><trkpt lat="45.26583004344279" lon="7.967794830966387"><ele>193.0</ele><time>2026-04-19T09:52:34Z</time></trkpt><trkpt lat="45.26577329038172" lon="7.96786640524219"><ele>193.0</ele><time>2026-04-19T09:52:35Z</time></trkpt><trkpt lat="45.26570947486815" lon="7.967941826539693"><ele>193.0</ele><time>2026-04-19T09:52:36Z</time></trkpt><trkpt lat="45.265665776651" lon="7.968016401737631"><ele>192.99999999999997</ele><time>2026-04-19T09:52:37Z</time></trkpt><trkpt lat="45.26561369962693" lon="7.968095439335666"><ele>193.0</ele><time>2026-04-19T09:52:38Z</time></trkpt><trkpt lat="45.26556905449143" lon="7.968180305803056"><ele>192.60000000000002</ele><time>2026-04-19T09:52:39Z</time></trkpt><trkpt lat="45.2655307136712" lon="7.96827274474597"><ele>192.20000000000002</ele><time>2026-04-19T09:52:40Z</time></trkpt><trkpt lat="45.26547194524511" lon="7.968418205936226"><ele>191.8</ele><time>2026-04-19T09:52:42Z</time></trkpt><trkpt lat="45.265427841985215" lon="7.96853665981312"><ele>191.4</ele><time>2026-04-19T09:52:44Z</time></trkpt><trkpt lat="45.26537750721816" lon="7.968639571440082"><ele>191.0</ele><time>2026-04-19T09:52:46Z</time></trkpt><trkpt lat="45.26535127905199" lon="7.968745979304694"><ele>191.0</ele><time>2026-04-19T09:52:48Z</time></trkpt><trkpt lat="45.26531486176428" lon="7.968845741635029"><ele>191.0</ele><time>2026-04-19T09:52:50Z</time></trkpt><trkpt lat="45.265280617776526" lon="7.968933815254934"><ele>191.0</ele><time>2026-04-19T09:52:52Z</time></trkpt><trkpt lat="45.265244481028674" lon="7.9690312951334175"><ele>191.0</ele><time>2026-04-19T09:52:54Z</time></trkpt><trkpt lat="45.26520741004596" lon="7.9691244506800665"><ele>191.0</ele><time>2026-04-19T09:52:56Z</time></trkpt><trkpt lat="45.265157377981524" lon="7.969253792932898"><ele>191.0</ele><time>2026-04-19T09:52:58Z</time></trkpt><trkpt lat="45.26512612828882" lon="7.969335066384396"><ele>191.0</ele><time>2026-04-19T09:52:59Z</time></trkpt><trkpt lat="45.26507110581297" lon="7.969480687341057"><ele>191.0</ele><time>2026-04-19T09:53:01Z</time></trkpt><trkpt lat="45.26502671932043" lon="7.9695551119799415"><ele>191.0</ele><time>2026-04-19T09:53:02Z</time></trkpt><trkpt lat="45.2650036652329" lon="7.969651800994972"><ele>191.0</ele><time>2026-04-19T09:53:03Z</time></trkpt><trkpt lat="45.26496707090953" lon="7.969740752746558"><ele>191.0</ele><time>2026-04-19T09:53:04Z</time></trkpt><trkpt lat="45.264935396199974" lon="7.9698279301494175"><ele>191.0</ele><time>2026-04-19T09:53:05Z</time></trkpt><trkpt lat="45.26490432368463" lon="7.969918396906392"><ele>191.5</ele><time>2026-04-19T09:53:06Z</time></trkpt><trkpt lat="45.26488928653607" lon="7.970028046505051"><ele>192.0</ele><time>2026-04-19T09:53:07Z</time></trkpt><trkpt lat="45.264919299903745" lon="7.970155118482103"><ele>192.5</ele><time>2026-04-19T09:53:08Z</time></trkpt><trkpt lat="45.26493682888322" lon="7.970272246656783"><ele>193.0</ele><time>2026-04-19T09:53:09Z</time></trkpt><trkpt lat="45.26495852293335" lon="7.970357834411972"><ele>193.50000000000003</ele><time>2026-04-19T09:53:10Z</time></trkpt><trkpt lat="45.26496331389816" lon="7.970459178806554"><ele>194.0</ele><time>2026-04-19T09:53:11Z</time></trkpt><trkpt lat="45.26499664613787" lon="7.970601191848852"><ele>194.0</ele><time>2026-04-19T09:53:13Z</time></trkpt><trkpt lat="45.2649777999231" lon="7.970745311807853"><ele>194.0</ele><time>2026-04-19T09:53:15Z</time></trkpt><trkpt lat="45.26492365648016" lon="7.970802329882987"><ele>194.0</ele><time>2026-04-19T09:53:16Z</time></trkpt><trkpt lat="45.26479325515098" lon="7.970856474737106"><ele>194.0</ele><time>2026-04-19T09:53:18Z</time></trkpt><trkpt lat="45.26471860899353" lon="7.970937984251031"><ele>194.0</ele><time>2026-04-19T09:53:19Z</time></trkpt><trkpt lat="45.26462406434029" lon="7.9709696305271995"><ele>193.83333333333334</ele><time>2026-04-19T09:53:20Z</time></trkpt><trkpt lat="45.26456412934906" lon="7.9710255362152305"><ele>193.66666666666669</ele><time>2026-04-19T09:53:21Z</time></trkpt><trkpt lat="45.2645256089635" lon="7.9711207750986315"><ele>193.5</ele><time>2026-04-19T09:53:22Z</time></trkpt><trkpt lat="45.26448965962364" lon="7.9712131591275615"><ele>193.33333333333331</ele><time>2026-04-19T09:53:23Z</time></trkpt><trkpt lat="45.26450651502919" lon="7.971352630176321"><ele>193.16666666666666</ele><time>2026-04-19T09:53:24Z</time></trkpt><trkpt lat="45.26453240900567" lon="7.971518845593313"><ele>193.0</ele><time>2026-04-19T09:53:25Z</time></trkpt><trkpt lat="45.26457388752674" lon="7.971710652936773"><ele>193.0</ele><time>2026-04-19T09:53:26Z</time></trkpt><trkpt lat="45.264602802645825" lon="7.971887898463647"><ele>193.0</ele><time>2026-04-19T09:53:27Z</time></trkpt><trkpt lat="45.26462359726761" lon="7.972045381594393"><ele>193.0</ele><time>2026-04-19T09:53:28Z</time></trkpt><trkpt lat="45.264638143922" lon="7.972143043242165"><ele>193.0</ele><time>2026-04-19T09:53:29Z</time></trkpt><trkpt lat="45.26465298131731" lon="7.972248097518236"><ele>193.0</ele><time>2026-04-19T09:53:30Z</time></trkpt><trkpt lat="45.26465329042132" lon="7.972343556943405"><ele>193.0</ele><time>2026-04-19T09:53:31Z</time></trkpt><trkpt lat="45.264663951867526" lon="7.9724352047408225"><ele>193.0</ele><time>2026-04-19T09:53:32Z</time></trkpt><trkpt lat="45.26466326128142" lon="7.972624621797422"><ele>193.0</ele><time>2026-04-19T09:53:34Z</time></trkpt><trkpt lat="45.26461948632088" lon="7.972724999167311"><ele>193.0</ele><time>2026-04-19T09:53:35Z</time></trkpt><trkpt lat="45.26456942476799" lon="7.972849357751505"><ele>193.0</ele><time>2026-04-19T09:53:36Z</time></trkpt><trkpt lat="45.26451537290894" lon="7.973002180869896"><ele>193.25</ele><time>2026-04-19T09:53:37Z</time></trkpt><trkpt lat="45.26445665938738" lon="7.973163789279943"><ele>193.5</ele><time>2026-04-19T09:53:38Z</time></trkpt><trkpt lat="45.26441484666595" lon="7.973327838296899"><ele>193.75</ele><time>2026-04-19T09:53:39Z</time></trkpt><trkpt lat="45.26437794876025" lon="7.973472383864533"><ele>194.0</ele><time>2026-04-19T09:53:40Z</time></trkpt><trkpt lat="45.264340567423965" lon="7.973612232146944"><ele>194.0</ele><time>2026-04-19T09:53:41Z</time></trkpt><trkpt lat="45.26429236246072" lon="7.973750225749985"><ele>194.0</ele><time>2026-04-19T09:53:42Z</time></trkpt><trkpt lat="45.264254899041156" lon="7.973882801753935"><ele>194.0</ele><time>2026-04-19T09:53:43Z</time></trkpt><trkpt lat="45.264210479161726" lon="7.9740115392188535"><ele>194.0</ele><time>2026-04-19T09:53:44Z</time></trkpt><trkpt lat="45.264161004544654" lon="7.9741337160451105"><ele>194.0</ele><time>2026-04-19T09:53:45Z</time></trkpt><trkpt lat="45.26410381584052" lon="7.974275444429358"><ele>193.66666666666669</ele><time>2026-04-19T09:53:46Z</time></trkpt><trkpt lat="45.26404759387075" lon="7.974418065131489"><ele>193.33333333333334</ele><time>2026-04-19T09:53:47Z</time></trkpt><trkpt lat="45.26399668474634" lon="7.974547506281573"><ele>193.0</ele><time>2026-04-19T09:53:48Z</time></trkpt><trkpt lat="45.263952985331386" lon="7.974655985984288"><ele>192.66666666666669</ele><time>2026-04-19T09:53:49Z</time></trkpt><trkpt lat="45.26391628469212" lon="7.974743070059878"><ele>192.33333333333334</ele><time>2026-04-19T09:53:50Z</time></trkpt><trkpt lat="45.26387886246509" lon="7.974825274640107"><ele>192.0</ele><time>2026-04-19T09:53:51Z</time></trkpt><trkpt lat="45.2638362566258" lon="7.974911623826937"><ele>192.0</ele><time>2026-04-19T09:53:52Z</time></trkpt><trkpt lat="45.263788214634204" lon="7.974994709634245"><ele>192.0</ele><time>2026-04-19T09:53:53Z</time></trkpt><trkpt lat="45.2637398767666" lon="7.975052556632382"><ele>192.0</ele><time>2026-04-19T09:53:54Z</time></trkpt><trkpt lat="45.2636368493893" lon="7.975088010270642"><ele>192.0</ele><time>2026-04-19T09:53:56Z</time></trkpt><trkpt lat="45.26359129844899" lon="7.97501668528677"><ele>192.0</ele><time>2026-04-19T09:53:57Z</time></trkpt><trkpt lat="45.263524501406366" lon="7.974966801537982"><ele>192.0</ele><time>2026-04-19T09:53:58Z</time></trkpt><trkpt lat="45.26339625447771" lon="7.974943721866278"><ele>192.0</ele><time>2026-04-19T09:54:00Z</time></trkpt><trkpt lat="45.26333596836322" lon="7.974887960386749"><ele>192.0</ele><time>2026-04-19T09:54:02Z</time></trkpt><trkpt lat="45.263425352543585" lon="7.975095588654571"><ele>192.0</ele><time>2026-04-19T09:54:10Z</time></trkpt><trkpt lat="45.263484295917706" lon="7.975131428969784"><ele>192.0</ele><time>2026-04-19T09:54:11Z</time></trkpt><trkpt lat="45.26355825865904" lon="7.975192995303718"><ele>192.0</ele><time>2026-04-19T09:54:12Z</time></trkpt><trkpt lat="45.26366664225989" lon="7.975285728059814"><ele>192.0</ele><time>2026-04-19T09:54:13Z</time></trkpt><trkpt lat="45.26379250919522" lon="7.97537573459805"><ele>192.0</ele><time>2026-04-19T09:54:14Z</time></trkpt><trkpt lat="45.263916437663084" lon="7.975443916186495"><ele>192.0</ele><time>2026-04-19T09:54:15Z</time></trkpt><trkpt lat="45.26403743920594" lon="7.9755372974936805"><ele>192.0</ele><time>2026-04-19T09:54:16Z</time></trkpt><trkpt lat="45.264156992601826" lon="7.975624620959256"><ele>191.25</ele><time>2026-04-19T09:54:17Z</time></trkpt><trkpt lat="45.264276711152334" lon="7.975701354911009"><ele>190.5</ele><time>2026-04-19T09:54:18Z</time></trkpt><trkpt lat="45.26438514251754" lon="7.975799169196829"><ele>189.75</ele><time>2026-04-19T09:54:19Z</time></trkpt><trkpt lat="45.264510389113305" lon="7.975888654914776"><ele>189.0</ele><time>2026-04-19T09:54:20Z</time></trkpt><trkpt lat="45.26465632671973" lon="7.975973253016106"><ele>188.66666666666666</ele><time>2026-04-19T09:54:21Z</time></trkpt><trkpt lat="45.264793809382866" lon="7.9760734637673885"><ele>188.33333333333331</ele><time>2026-04-19T09:54:22Z</time></trkpt><trkpt lat="45.264935608446976" lon="7.976174758973949"><ele>188.0</ele><time>2026-04-19T09:54:23Z</time></trkpt><trkpt lat="45.26508805178605" lon="7.976289019483141"><ele>188.0</ele><time>2026-04-19T09:54:24Z</time></trkpt><trkpt lat="45.26525322930039" lon="7.97641011980743"><ele>188.0</ele><time>2026-04-19T09:54:25Z</time></trkpt><trkpt lat="45.26543195735065" lon="7.97653655199196"><ele>188.0</ele><time>2026-04-19T09:54:26Z</time></trkpt><trkpt lat="45.26561895091999" lon="7.976668555448777"><ele>188.66666666666666</ele><time>2026-04-19T09:54:27Z</time></trkpt><trkpt lat="45.26580476000225" lon="7.976801734135973"><ele>189.33333333333334</ele><time>2026-04-19T09:54:28Z</time></trkpt><trkpt lat="45.26599963327845" lon="7.9769433960258995"><ele>190.0</ele><time>2026-04-19T09:54:29Z</time></trkpt><trkpt lat="45.26620258970029" lon="7.97709159242828"><ele>190.0</ele><time>2026-04-19T09:54:30Z</time></trkpt><trkpt lat="45.266414330482284" lon="7.9772417498761445"><ele>190.0</ele><time>2026-04-19T09:54:31Z</time></trkpt><trkpt lat="45.26662512855075" lon="7.977393322211518"><ele>189.5</ele><time>2026-04-19T09:54:32Z</time></trkpt><trkpt lat="45.266831733290566" lon="7.977540332628279"><ele>189.0</ele><time>2026-04-19T09:54:33Z</time></trkpt><trkpt lat="45.26703556596253" lon="7.9776804150422045"><ele>189.0</ele><time>2026-04-19T09:54:34Z</time></trkpt><trkpt lat="45.2672350564086" lon="7.977826318823734"><ele>189.0</ele><time>2026-04-19T09:54:35Z</time></trkpt><trkpt lat="45.26743385445532" lon="7.977969691656832"><ele>189.0</ele><time>2026-04-19T09:54:36Z</time></trkpt><trkpt lat="45.26763098232382" lon="7.9781111908211795"><ele>190.0</ele><time>2026-04-19T09:54:37Z</time></trkpt><trkpt lat="45.267826356182525" lon="7.978251520625276"><ele>191.0</ele><time>2026-04-19T09:54:38Z</time></trkpt><trkpt lat="45.26801745075226" lon="7.978390068366676"><ele>192.0</ele><time>2026-04-19T09:54:39Z</time></trkpt><trkpt lat="45.26820633317552" lon="7.978526753771872"><ele>192.33333333333331</ele><time>2026-04-19T09:54:40Z</time></trkpt><trkpt lat="45.26839327582954" lon="7.978664973270478"><ele>192.66666666666666</ele><time>2026-04-19T09:54:41Z</time></trkpt><trkpt lat="45.26857459519733" lon="7.978797364890942"><ele>193.0</ele><time>2026-04-19T09:54:42Z</time></trkpt><trkpt lat="45.26875496375637" lon="7.97892381241999"><ele>193.0</ele><time>2026-04-19T09:54:43Z</time></trkpt><trkpt lat="45.26893270050072" lon="7.979050632847218"><ele>193.0</ele><time>2026-04-19T09:54:44Z</time></trkpt><trkpt lat="45.26910287115098" lon="7.979175797511947"><ele>193.0</ele><time>2026-04-19T09:54:45Z</time></trkpt><trkpt lat="45.26927519910652" lon="7.9792949107452085"><ele>193.33333333333331</ele><time>2026-04-19T09:54:46Z</time></trkpt><trkpt lat="45.2694433807083" lon="7.9794147340589925"><ele>193.66666666666669</ele><time>2026-04-19T09:54:47Z</time></trkpt><trkpt lat="45.26961378532967" lon="7.979526702428301"><ele>194.0</ele><time>2026-04-19T09:54:48Z</time></trkpt><trkpt lat="45.26977207203412" lon="7.979641855353456"><ele>194.66666666666669</ele><time>2026-04-19T09:54:49Z</time></trkpt><trkpt lat="45.26993027836987" lon="7.97975445717036"><ele>195.33333333333331</ele><time>2026-04-19T09:54:50Z</time></trkpt><trkpt lat="45.27008120540174" lon="7.979864079540613"><ele>196.0</ele><time>2026-04-19T09:54:51Z</time></trkpt><trkpt lat="45.27021970112236" lon="7.979961842522873"><ele>196.4</ele><time>2026-04-19T09:54:52Z</time></trkpt><trkpt lat="45.270350512553215" lon="7.9800429718766575"><ele>196.8</ele><time>2026-04-19T09:54:53Z</time></trkpt><trkpt lat="45.27045858589671" lon="7.980088940048656"><ele>197.20000000000002</ele><time>2026-04-19T09:54:54Z</time></trkpt><trkpt lat="45.27055201763897" lon="7.980135353591476"><ele>197.60000000000002</ele><time>2026-04-19T09:54:55Z</time></trkpt><trkpt lat="45.270619505959324" lon="7.98020483414114"><ele>198.0</ele><time>2026-04-19T09:54:56Z</time></trkpt><trkpt lat="45.27065695953286" lon="7.980320587885364"><ele>198.0</ele><time>2026-04-19T09:54:57Z</time></trkpt><trkpt lat="45.27070785923968" lon="7.980385416296312"><ele>198.0</ele><time>2026-04-19T09:54:58Z</time></trkpt><trkpt lat="45.27055800578156" lon="7.980563050778674"><ele>198.0</ele><time>2026-04-19T09:54:59Z</time></trkpt><trkpt lat="45.27048652521556" lon="7.980691614145083"><ele>198.0</ele><time>2026-04-19T09:55:00Z</time></trkpt><trkpt lat="45.27042077248895" lon="7.980825706019626"><ele>198.75</ele><time>2026-04-19T09:55:01Z</time></trkpt><trkpt lat="45.27035555381516" lon="7.980974890185178"><ele>199.5</ele><time>2026-04-19T09:55:02Z</time></trkpt><trkpt lat="45.27030378365614" lon="7.981145825115274"><ele>200.25</ele><time>2026-04-19T09:55:03Z</time></trkpt><trkpt lat="45.27025736461115" lon="7.981325728786971"><ele>201.0</ele><time>2026-04-19T09:55:04Z</time></trkpt><trkpt lat="45.270217200724375" lon="7.9815067220178015"><ele>201.0</ele><time>2026-04-19T09:55:05Z</time></trkpt><trkpt lat="45.2701371405043" lon="7.9816650126297635"><ele>201.0</ele><time>2026-04-19T09:55:06Z</time></trkpt><trkpt lat="45.27005332578884" lon="7.9818272666394074"><ele>201.0</ele><time>2026-04-19T09:55:07Z</time></trkpt><trkpt lat="45.26995704168419" lon="7.982002999199916"><ele>201.0</ele><time>2026-04-19T09:55:08Z</time></trkpt><trkpt lat="45.26985135967932" lon="7.9821730761009455"><ele>200.66666666666669</ele><time>2026-04-19T09:55:09Z</time></trkpt><trkpt lat="45.26973313796986" lon="7.982338179824841"><ele>200.33333333333334</ele><time>2026-04-19T09:55:10Z</time></trkpt><trkpt lat="45.26961535384484" lon="7.9825071847371705"><ele>200.0</ele><time>2026-04-19T09:55:11Z</time></trkpt><trkpt lat="45.26948196597292" lon="7.9826476072188335"><ele>202.0</ele><time>2026-04-19T09:55:12Z</time></trkpt><trkpt lat="45.269338271976245" lon="7.982746903260429"><ele>204.0</ele><time>2026-04-19T09:55:13Z</time></trkpt><trkpt lat="45.26919621601986" lon="7.982849526559456"><ele>206.0</ele><time>2026-04-19T09:55:14Z</time></trkpt><trkpt lat="45.26904295287654" lon="7.982955823109782"><ele>205.66666666666669</ele><time>2026-04-19T09:55:15Z</time></trkpt><trkpt lat="45.26887295975075" lon="7.982985046313001"><ele>205.33333333333331</ele><time>2026-04-19T09:55:16Z</time></trkpt><trkpt lat="45.268700994577564" lon="7.9830125412081205"><ele>205.0</ele><time>2026-04-19T09:55:17Z</time></trkpt><trkpt lat="45.2685211114687" lon="7.983028650851242"><ele>205.0</ele><time>2026-04-19T09:55:18Z</time></trkpt><trkpt lat="45.26833863506479" lon="7.983029392613875"><ele>205.0</ele><time>2026-04-19T09:55:19Z</time></trkpt><trkpt lat="45.268155887825515" lon="7.983007506428629"><ele>205.0</ele><time>2026-04-19T09:55:20Z</time></trkpt><trkpt lat="45.267982738517205" lon="7.982960318481837"><ele>206.0</ele><time>2026-04-19T09:55:21Z</time></trkpt><trkpt lat="45.26780537025541" lon="7.982927155737895"><ele>207.0</ele><time>2026-04-19T09:55:22Z</time></trkpt><trkpt lat="45.26762254738517" lon="7.982855277936596"><ele>208.0</ele><time>2026-04-19T09:55:23Z</time></trkpt><trkpt lat="45.26743912977266" lon="7.982785769590657"><ele>208.33333333333331</ele><time>2026-04-19T09:55:24Z</time></trkpt><trkpt lat="45.267252406877326" lon="7.982716809880856"><ele>208.66666666666669</ele><time>2026-04-19T09:55:25Z</time></trkpt><trkpt lat="45.26706762728726" lon="7.9826489741936735"><ele>209.0</ele><time>2026-04-19T09:55:26Z</time></trkpt><trkpt lat="45.2669001927483" lon="7.98255030007492"><ele>208.33333333333334</ele><time>2026-04-19T09:55:27Z</time></trkpt><trkpt lat="45.26673367431439" lon="7.982452201004396"><ele>207.66666666666669</ele><time>2026-04-19T09:55:28Z</time></trkpt><trkpt lat="45.26656756255515" lon="7.982360482583297"><ele>207.0</ele><time>2026-04-19T09:55:29Z</time></trkpt><trkpt lat="45.26641053429424" lon="7.982250369318553"><ele>207.0</ele><time>2026-04-19T09:55:30Z</time></trkpt><trkpt lat="45.26625718347072" lon="7.982145659677605"><ele>207.0</ele><time>2026-04-19T09:55:31Z</time></trkpt><trkpt lat="45.26610970450482" lon="7.982045099904147"><ele>207.0</ele><time>2026-04-19T09:55:32Z</time></trkpt><trkpt lat="45.26597650765488" lon="7.981951420682922"><ele>207.0</ele><time>2026-04-19T09:55:33Z</time></trkpt><trkpt lat="45.26584915166496" lon="7.981865481049234"><ele>207.0</ele><time>2026-04-19T09:55:34Z</time></trkpt><trkpt lat="45.26572893942273" lon="7.981789020051663"><ele>207.0</ele><time>2026-04-19T09:55:35Z</time></trkpt><trkpt lat="45.265610418939346" lon="7.981744127243381"><ele>207.0</ele><time>2026-04-19T09:55:36Z</time></trkpt><trkpt lat="45.265485703569965" lon="7.981750130939357"><ele>206.25</ele><time>2026-04-19T09:55:37Z</time></trkpt><trkpt lat="45.265360596109446" lon="7.981807052940923"><ele>205.5</ele><time>2026-04-19T09:55:38Z</time></trkpt><trkpt lat="45.265232744926976" lon="7.981911106356945"><ele>204.75</ele><time>2026-04-19T09:55:39Z</time></trkpt><trkpt lat="45.26510015135315" lon="7.982030135122965"><ele>204.0</ele><time>2026-04-19T09:55:40Z</time></trkpt><trkpt lat="45.2649554314903" lon="7.982139267785164"><ele>204.0</ele><time>2026-04-19T09:55:41Z</time></trkpt><trkpt lat="45.26480228455576" lon="7.982257341529346"><ele>204.0</ele><time>2026-04-19T09:55:42Z</time></trkpt><trkpt lat="45.26464801337101" lon="7.9823937680932495"><ele>204.0</ele><time>2026-04-19T09:55:43Z</time></trkpt><trkpt lat="45.26448747535031" lon="7.982547496614134"><ele>203.66666666666669</ele><time>2026-04-19T09:55:44Z</time></trkpt><trkpt lat="45.264320988301925" lon="7.98270169189525"><ele>203.33333333333334</ele><time>2026-04-19T09:55:45Z</time></trkpt><trkpt lat="45.264165669625406" lon="7.982857953510188"><ele>203.0</ele><time>2026-04-19T09:55:46Z</time></trkpt><trkpt lat="45.264009432807995" lon="7.983020871232793"><ele>203.0</ele><time>2026-04-19T09:55:47Z</time></trkpt><trkpt lat="45.263850778661876" lon="7.983189891811227"><ele>203.0</ele><time>2026-04-19T09:55:48Z</time></trkpt><trkpt lat="45.26369585503046" lon="7.983354590707491"><ele>203.0</ele><time>2026-04-19T09:55:49Z</time></trkpt><trkpt lat="45.26354633090462" lon="7.983520304397246"><ele>203.0</ele><time>2026-04-19T09:55:50Z</time></trkpt><trkpt lat="45.26340876169172" lon="7.98369936811762"><ele>203.0</ele><time>2026-04-19T09:55:51Z</time></trkpt><trkpt lat="45.263280805305115" lon="7.983905072469558"><ele>203.0</ele><time>2026-04-19T09:55:52Z</time></trkpt><trkpt lat="45.26315292790775" lon="7.984132317365918"><ele>203.0</ele><time>2026-04-19T09:55:53Z</time></trkpt><trkpt lat="45.263021341838375" lon="7.984364774148939"><ele>203.0</ele><time>2026-04-19T09:55:54Z</time></trkpt><trkpt lat="45.26288952315932" lon="7.984581528455948"><ele>203.0</ele><time>2026-04-19T09:55:55Z</time></trkpt><trkpt lat="45.26275065563251" lon="7.984811277395866"><ele>202.66666666666669</ele><time>2026-04-19T09:55:56Z</time></trkpt><trkpt lat="45.26260542277221" lon="7.985046470077398"><ele>202.33333333333331</ele><time>2026-04-19T09:55:57Z</time></trkpt><trkpt lat="45.26245778055811" lon="7.985275352996211"><ele>202.0</ele><time>2026-04-19T09:55:58Z</time></trkpt><trkpt lat="45.2623094740522" lon="7.985510838830061"><ele>202.0</ele><time>2026-04-19T09:55:59Z</time></trkpt><trkpt lat="45.26216754352553" lon="7.9857421108996895"><ele>202.0</ele><time>2026-04-19T09:56:00Z</time></trkpt><trkpt lat="45.26203022822938" lon="7.985965989656516"><ele>202.0</ele><time>2026-04-19T09:56:01Z</time></trkpt><trkpt lat="45.26189639163151" lon="7.9861863276433365"><ele>201.66666666666666</ele><time>2026-04-19T09:56:02Z</time></trkpt><trkpt lat="45.26176342828657" lon="7.98640387606205"><ele>201.33333333333331</ele><time>2026-04-19T09:56:03Z</time></trkpt><trkpt lat="45.2616323776703" lon="7.986616209673333"><ele>201.0</ele><time>2026-04-19T09:56:04Z</time></trkpt><trkpt lat="45.261502184414056" lon="7.986831765564272"><ele>201.33333333333331</ele><time>2026-04-19T09:56:05Z</time></trkpt><trkpt lat="45.26136383371852" lon="7.987043503204696"><ele>201.66666666666666</ele><time>2026-04-19T09:56:06Z</time></trkpt><trkpt lat="45.26121650352655" lon="7.987246863248829"><ele>202.0</ele><time>2026-04-19T09:56:07Z</time></trkpt><trkpt lat="45.26106930916346" lon="7.987455998599521"><ele>202.66666666666666</ele><time>2026-04-19T09:56:08Z</time></trkpt><trkpt lat="45.260931353427374" lon="7.9876816837247775"><ele>203.33333333333331</ele><time>2026-04-19T09:56:09Z</time></trkpt><trkpt lat="45.26079395926242" lon="7.987917906673014"><ele>204.0</ele><time>2026-04-19T09:56:10Z</time></trkpt><trkpt lat="45.26065601522361" lon="7.988152022328203"><ele>203.33333333333331</ele><time>2026-04-19T09:56:11Z</time></trkpt><trkpt lat="45.260514966030286" lon="7.9883804162209975"><ele>202.66666666666666</ele><time>2026-04-19T09:56:12Z</time></trkpt><trkpt lat="45.26037424401036" lon="7.988604568928679"><ele>202.0</ele><time>2026-04-19T09:56:13Z</time></trkpt><trkpt lat="45.26023405471349" lon="7.988824993720472"><ele>202.0</ele><time>2026-04-19T09:56:14Z</time></trkpt><trkpt lat="45.260098099671865" lon="7.989046166728631"><ele>202.0</ele><time>2026-04-19T09:56:15Z</time></trkpt><trkpt lat="45.259958620090785" lon="7.989272262433245"><ele>202.0</ele><time>2026-04-19T09:56:16Z</time></trkpt><trkpt lat="45.25981568505987" lon="7.98948947911553"><ele>201.66666666666666</ele><time>2026-04-19T09:56:17Z</time></trkpt><trkpt lat="45.2596484691627" lon="7.989681006774428"><ele>201.33333333333331</ele><time>2026-04-19T09:56:18Z</time></trkpt><trkpt lat="45.25948223134285" lon="7.989872868777039"><ele>201.0</ele><time>2026-04-19T09:56:19Z</time></trkpt><trkpt lat="45.25931931291558" lon="7.990072599423541"><ele>201.0</ele><time>2026-04-19T09:56:20Z</time></trkpt><trkpt lat="45.25914613340438" lon="7.990263337979764"><ele>201.0</ele><time>2026-04-19T09:56:21Z</time></trkpt><trkpt lat="45.258972276994804" lon="7.990460140061749"><ele>201.0</ele><time>2026-04-19T09:56:22Z</time></trkpt><trkpt lat="45.25879756499818" lon="7.990654486722421"><ele>201.0</ele><time>2026-04-19T09:56:23Z</time></trkpt><trkpt lat="45.258628701231615" lon="7.990843355421492"><ele>201.0</ele><time>2026-04-19T09:56:24Z</time></trkpt><trkpt lat="45.25846112260735" lon="7.991024660982447"><ele>201.0</ele><time>2026-04-19T09:56:25Z</time></trkpt><trkpt lat="45.25829524973782" lon="7.991203488434304"><ele>201.0</ele><time>2026-04-19T09:56:26Z</time></trkpt><trkpt lat="45.2581263780855" lon="7.9913768361754824"><ele>201.0</ele><time>2026-04-19T09:56:27Z</time></trkpt><trkpt lat="45.25795501078127" lon="7.991539157926282"><ele>201.0</ele><time>2026-04-19T09:56:28Z</time></trkpt><trkpt lat="45.25777795505626" lon="7.991705041871539"><ele>201.66666666666669</ele><time>2026-04-19T09:56:29Z</time></trkpt><trkpt lat="45.257605072022464" lon="7.991877864707217"><ele>202.33333333333334</ele><time>2026-04-19T09:56:30Z</time></trkpt><trkpt lat="45.257438875712594" lon="7.992047448914583"><ele>203.0</ele><time>2026-04-19T09:56:31Z</time></trkpt><trkpt lat="45.257280317763744" lon="7.99219865138869"><ele>203.0</ele><time>2026-04-19T09:56:32Z</time></trkpt><trkpt lat="45.25713201419106" lon="7.992338593912815"><ele>203.0</ele><time>2026-04-19T09:56:33Z</time></trkpt><trkpt lat="45.25698611782538" lon="7.992474768929732"><ele>203.0</ele><time>2026-04-19T09:56:34Z</time></trkpt><trkpt lat="45.25683780540656" lon="7.992607342604221"><ele>202.66666666666669</ele><time>2026-04-19T09:56:35Z</time></trkpt><trkpt lat="45.256686553798" lon="7.992736938817438"><ele>202.33333333333331</ele><time>2026-04-19T09:56:36Z</time></trkpt><trkpt lat="45.256533691811605" lon="7.992862484174837"><ele>202.0</ele><time>2026-04-19T09:56:37Z</time></trkpt><trkpt lat="45.25637904611365" lon="7.992978835097297"><ele>202.0</ele><time>2026-04-19T09:56:38Z</time></trkpt><trkpt lat="45.25622220941946" lon="7.993092504671543"><ele>202.0</ele><time>2026-04-19T09:56:39Z</time></trkpt><trkpt lat="45.2560619831285" lon="7.993205479288811"><ele>202.0</ele><time>2026-04-19T09:56:40Z</time></trkpt><trkpt lat="45.25589524607681" lon="7.99331437956813"><ele>202.66666666666666</ele><time>2026-04-19T09:56:41Z</time></trkpt><trkpt lat="45.25573138699447" lon="7.9934271490329705"><ele>203.33333333333331</ele><time>2026-04-19T09:56:42Z</time></trkpt><trkpt lat="45.255570020753204" lon="7.993539295039204"><ele>204.0</ele><time>2026-04-19T09:56:43Z</time></trkpt><trkpt lat="45.25542608812029" lon="7.99363504008659"><ele>204.0</ele><time>2026-04-19T09:56:44Z</time></trkpt><trkpt lat="45.255297688257045" lon="7.993718698782103"><ele>204.0</ele><time>2026-04-19T09:56:45Z</time></trkpt><trkpt lat="45.25519540694162" lon="7.99378630613327"><ele>204.0</ele><time>2026-04-19T09:56:46Z</time></trkpt><trkpt lat="45.25512138909673" lon="7.99382189686582"><ele>204.0</ele><time>2026-04-19T09:56:47Z</time></trkpt><trkpt lat="45.25503131241073" lon="7.993827964258843"><ele>204.0</ele><time>2026-04-19T09:56:49Z</time></trkpt><trkpt lat="45.25499040052553" lon="7.99367300748486"><ele>204.0</ele><time>2026-04-19T09:56:50Z</time></trkpt><trkpt lat="45.25494776979592" lon="7.993571551262614"><ele>204.0</ele><time>2026-04-19T09:56:51Z</time></trkpt><trkpt lat="45.25488394517119" lon="7.993526825923863"><ele>204.0</ele><time>2026-04-19T09:56:52Z</time></trkpt><trkpt lat="45.25480694514285" lon="7.993502920623626"><ele>204.0</ele><time>2026-04-19T09:56:53Z</time></trkpt><trkpt lat="45.25470487360416" lon="7.993554723873072"><ele>204.0</ele><time>2026-04-19T09:56:54Z</time></trkpt><trkpt lat="45.2546255172985" lon="7.993619605230085"><ele>204.0</ele><time>2026-04-19T09:56:55Z</time></trkpt><trkpt lat="45.254531702938735" lon="7.993697450013238"><ele>203.0</ele><time>2026-04-19T09:56:56Z</time></trkpt><trkpt lat="45.254425518732276" lon="7.99384136586123"><ele>202.0</ele><time>2026-04-19T09:56:57Z</time></trkpt><trkpt lat="45.254301800696254" lon="7.9939651674537116"><ele>201.0</ele><time>2026-04-19T09:56:58Z</time></trkpt><trkpt lat="45.25416655436516" lon="7.99409409271479"><ele>201.0</ele><time>2026-04-19T09:56:59Z</time></trkpt><trkpt lat="45.25402719282014" lon="7.994226387053181"><ele>201.0</ele><time>2026-04-19T09:57:00Z</time></trkpt><trkpt lat="45.25388661796287" lon="7.99433276557569"><ele>201.0</ele><time>2026-04-19T09:57:01Z</time></trkpt><trkpt lat="45.25373804315208" lon="7.994416042735067"><ele>201.0</ele><time>2026-04-19T09:57:02Z</time></trkpt><trkpt lat="45.253574381634984" lon="7.994478888208309"><ele>201.0</ele><time>2026-04-19T09:57:03Z</time></trkpt><trkpt lat="45.25340218635286" lon="7.994520009321319"><ele>201.0</ele><time>2026-04-19T09:57:04Z</time></trkpt><trkpt lat="45.2532328321082" lon="7.994495245897102"><ele>200.66666666666669</ele><time>2026-04-19T09:57:05Z</time></trkpt><trkpt lat="45.25307015823654" lon="7.994530977293882"><ele>200.33333333333334</ele><time>2026-04-19T09:57:06Z</time></trkpt><trkpt lat="45.25291397132167" lon="7.9945652838887815"><ele>200.0</ele><time>2026-04-19T09:57:07Z</time></trkpt><trkpt lat="45.2527659911695" lon="7.994596756249562"><ele>200.0</ele><time>2026-04-19T09:57:08Z</time></trkpt><trkpt lat="45.25264429232341" lon="7.994621238517161"><ele>200.0</ele><time>2026-04-19T09:57:09Z</time></trkpt><trkpt lat="45.25256444100154" lon="7.9946361494448315"><ele>200.0</ele><time>2026-04-19T09:57:10Z</time></trkpt><trkpt lat="45.25263630557979" lon="7.994877816163583"><ele>200.0</ele><time>2026-04-19T09:57:14Z</time></trkpt><trkpt lat="45.252700469355815" lon="7.995002603985655"><ele>200.25</ele><time>2026-04-19T09:57:15Z</time></trkpt><trkpt lat="45.252761412003046" lon="7.995154873347475"><ele>200.5</ele><time>2026-04-19T09:57:16Z</time></trkpt><trkpt lat="45.25281669759373" lon="7.995316288221008"><ele>200.75</ele><time>2026-04-19T09:57:17Z</time></trkpt><trkpt lat="45.252907376408395" lon="7.9955165008946905"><ele>201.0</ele><time>2026-04-19T09:57:18Z</time></trkpt><trkpt lat="45.252964691412906" lon="7.995695939516737"><ele>200.75</ele><time>2026-04-19T09:57:19Z</time></trkpt><trkpt lat="45.2530076676707" lon="7.995855442595125"><ele>200.5</ele><time>2026-04-19T09:57:20Z</time></trkpt><trkpt lat="45.25306156465514" lon="7.996012493304267"><ele>200.25</ele><time>2026-04-19T09:57:21Z</time></trkpt><trkpt lat="45.25312319675477" lon="7.996156169950146"><ele>200.0</ele><time>2026-04-19T09:57:22Z</time></trkpt><trkpt lat="45.25319559749063" lon="7.996297776653309"><ele>200.0</ele><time>2026-04-19T09:57:23Z</time></trkpt><trkpt lat="45.25328608193225" lon="7.996431698920961"><ele>200.0</ele><time>2026-04-19T09:57:24Z</time></trkpt><trkpt lat="45.253386387389554" lon="7.996568004578176"><ele>200.0</ele><time>2026-04-19T09:57:25Z</time></trkpt><trkpt lat="45.2534861102539" lon="7.996719736202859"><ele>200.0</ele><time>2026-04-19T09:57:26Z</time></trkpt><trkpt lat="45.25358156705294" lon="7.996863337259227"><ele>200.25</ele><time>2026-04-19T09:57:27Z</time></trkpt><trkpt lat="45.2536826660388" lon="7.997005728313002"><ele>200.5</ele><time>2026-04-19T09:57:28Z</time></trkpt><trkpt lat="45.253783702770086" lon="7.997155441921369"><ele>200.75</ele><time>2026-04-19T09:57:29Z</time></trkpt><trkpt lat="45.25387453591624" lon="7.99729737601053"><ele>201.0</ele><time>2026-04-19T09:57:30Z</time></trkpt><trkpt lat="45.25395358377074" lon="7.997425570266242"><ele>202.25</ele><time>2026-04-19T09:57:31Z</time></trkpt><trkpt lat="45.254038317181276" lon="7.997552068726924"><ele>203.5</ele><time>2026-04-19T09:57:32Z</time></trkpt><trkpt lat="45.25412747815991" lon="7.997685169264817"><ele>204.75</ele><time>2026-04-19T09:57:33Z</time></trkpt><trkpt lat="45.254221505269925" lon="7.997827030769925"><ele>206.0</ele><time>2026-04-19T09:57:34Z</time></trkpt><trkpt lat="45.254319640602326" lon="7.997967277947992"><ele>206.0</ele><time>2026-04-19T09:57:35Z</time></trkpt><trkpt lat="45.254413324757486" lon="7.998103397222216"><ele>206.0</ele><time>2026-04-19T09:57:36Z</time></trkpt><trkpt lat="45.25448970171418" lon="7.998234092693071"><ele>206.0</ele><time>2026-04-19T09:57:37Z</time></trkpt><trkpt lat="45.25456861840589" lon="7.998352080307267"><ele>206.0</ele><time>2026-04-19T09:57:38Z</time></trkpt><trkpt lat="45.25464792299774" lon="7.998454018643579"><ele>205.60000000000002</ele><time>2026-04-19T09:57:39Z</time></trkpt><trkpt lat="45.254731646590706" lon="7.998537723860948"><ele>205.2</ele><time>2026-04-19T09:57:40Z</time></trkpt><trkpt lat="45.25482598151499" lon="7.998601113907186"><ele>204.8</ele><time>2026-04-19T09:57:41Z</time></trkpt><trkpt lat="45.25493170194153" lon="7.998618022318442"><ele>204.39999999999998</ele><time>2026-04-19T09:57:42Z</time></trkpt><trkpt lat="45.255039553700534" lon="7.998598057133241"><ele>204.0</ele><time>2026-04-19T09:57:43Z</time></trkpt><trkpt lat="45.25515332152936" lon="7.998561368261051"><ele>204.0</ele><time>2026-04-19T09:57:44Z</time></trkpt><trkpt lat="45.255271115459124" lon="7.998504703594317"><ele>204.0</ele><time>2026-04-19T09:57:45Z</time></trkpt><trkpt lat="45.25540046289377" lon="7.998451280818906"><ele>204.0</ele><time>2026-04-19T09:57:46Z</time></trkpt><trkpt lat="45.25553510884815" lon="7.998406392169736"><ele>204.0</ele><time>2026-04-19T09:57:47Z</time></trkpt><trkpt lat="45.25565442225778" lon="7.998370360773927"><ele>204.0</ele><time>2026-04-19T09:57:48Z</time></trkpt><trkpt lat="45.25575721968326" lon="7.998338834262005"><ele>204.0</ele><time>2026-04-19T09:57:49Z</time></trkpt><trkpt lat="45.25585028285184" lon="7.998304758083141"><ele>204.0</ele><time>2026-04-19T09:57:50Z</time></trkpt><trkpt lat="45.25593472587366" lon="7.99827311063326"><ele>204.0</ele><time>2026-04-19T09:57:51Z</time></trkpt><trkpt lat="45.2560064316971" lon="7.998258207197719"><ele>204.0</ele><time>2026-04-19T09:57:52Z</time></trkpt><trkpt lat="45.25607286494566" lon="7.998240498746078"><ele>204.0</ele><time>2026-04-19T09:57:54Z</time></trkpt><trkpt lat="45.25614290672062" lon="7.998229143275351"><ele>204.2</ele><time>2026-04-19T09:57:57Z</time></trkpt><trkpt lat="45.256225563769455" lon="7.998200544952077"><ele>204.39999999999998</ele><time>2026-04-19T09:57:59Z</time></trkpt><trkpt lat="45.25633660719565" lon="7.998157888612942"><ele>204.6</ele><time>2026-04-19T09:58:01Z</time></trkpt><trkpt lat="45.256429258598004" lon="7.998150279011189"><ele>204.8</ele><time>2026-04-19T09:58:03Z</time></trkpt><trkpt lat="45.2564902630469" lon="7.998251601402813"><ele>205.0</ele><time>2026-04-19T09:58:05Z</time></trkpt><trkpt lat="45.256527765455544" lon="7.998348874631687"><ele>205.0</ele><time>2026-04-19T09:58:06Z</time></trkpt><trkpt lat="45.25657969802752" lon="7.998444000556984"><ele>205.0</ele><time>2026-04-19T09:58:07Z</time></trkpt><trkpt lat="45.2566477236306" lon="7.9985281342127665"><ele>205.0</ele><time>2026-04-19T09:58:08Z</time></trkpt><trkpt lat="45.25672766763336" lon="7.998614412099431"><ele>205.0</ele><time>2026-04-19T09:58:09Z</time></trkpt><trkpt lat="45.25680578607031" lon="7.998694892642173"><ele>205.0</ele><time>2026-04-19T09:58:10Z</time></trkpt><trkpt lat="45.25688350941514" lon="7.998772133957136"><ele>204.99999999999997</ele><time>2026-04-19T09:58:11Z</time></trkpt><trkpt lat="45.256954097507986" lon="7.998846549156561"><ele>205.0</ele><time>2026-04-19T09:58:12Z</time></trkpt><trkpt lat="45.257023368432066" lon="7.998922351190735"><ele>205.0</ele><time>2026-04-19T09:58:13Z</time></trkpt><trkpt lat="45.25708631859974" lon="7.9989906590970214"><ele>205.0</ele><time>2026-04-19T09:58:14Z</time></trkpt><trkpt lat="45.25714612257823" lon="7.999056996702185"><ele>204.99999999999997</ele><time>2026-04-19T09:58:15Z</time></trkpt><trkpt lat="45.2572054226008" lon="7.999109183055503"><ele>205.0</ele><time>2026-04-19T09:58:16Z</time></trkpt><trkpt lat="45.257263631461186" lon="7.999147260563862"><ele>205.16666666666666</ele><time>2026-04-19T09:58:17Z</time></trkpt><trkpt lat="45.25732011089136" lon="7.999200042862728"><ele>205.33333333333331</ele><time>2026-04-19T09:58:18Z</time></trkpt><trkpt lat="45.25737906288294" lon="7.999267359969561"><ele>205.5</ele><time>2026-04-19T09:58:19Z</time></trkpt><trkpt lat="45.257426812642535" lon="7.999337993388158"><ele>205.66666666666669</ele><time>2026-04-19T09:58:20Z</time></trkpt><trkpt lat="45.2574900824915" lon="7.99940812495199"><ele>205.83333333333334</ele><time>2026-04-19T09:58:21Z</time></trkpt><trkpt lat="45.25755460739987" lon="7.999493407953728"><ele>206.0</ele><time>2026-04-19T09:58:22Z</time></trkpt><trkpt lat="45.257622545880565" lon="7.999578333750257"><ele>206.0</ele><time>2026-04-19T09:58:23Z</time></trkpt><trkpt lat="45.257684556800825" lon="7.999650880135203"><ele>206.0</ele><time>2026-04-19T09:58:24Z</time></trkpt><trkpt lat="45.257742655948974" lon="7.999714871061814"><ele>206.0</ele><time>2026-04-19T09:58:25Z</time></trkpt><trkpt lat="45.257842005671634" lon="7.999787298999251"><ele>206.0</ele><time>2026-04-19T09:58:27Z</time></trkpt><trkpt lat="45.25796490217919" lon="7.999747998085038"><ele>206.0</ele><time>2026-04-19T09:58:29Z</time></trkpt><trkpt lat="45.258044875328466" lon="7.9996811077254995"><ele>206.0</ele><time>2026-04-19T09:58:30Z</time></trkpt><trkpt lat="45.258120936376095" lon="7.99960752205121"><ele>206.0</ele><time>2026-04-19T09:58:31Z</time></trkpt><trkpt lat="45.25820396533269" lon="7.999519830443337"><ele>206.0</ele><time>2026-04-19T09:58:32Z</time></trkpt><trkpt lat="45.25828907338769" lon="7.999422492821217"><ele>206.0</ele><time>2026-04-19T09:58:33Z</time></trkpt><trkpt lat="45.25836547878504" lon="7.999332135691806"><ele>206.0</ele><time>2026-04-19T09:58:34Z</time></trkpt><trkpt lat="45.258443141449426" lon="7.999237095355025"><ele>206.0</ele><time>2026-04-19T09:58:35Z</time></trkpt><trkpt lat="45.258520320082425" lon="7.99914478192817"><ele>206.0</ele><time>2026-04-19T09:58:36Z</time></trkpt><trkpt lat="45.25859935262184" lon="7.9990524168675465"><ele>206.0</ele><time>2026-04-19T09:58:37Z</time></trkpt><trkpt lat="45.25867857279022" lon="7.998963478323123"><ele>206.0</ele><time>2026-04-19T09:58:38Z</time></trkpt><trkpt lat="45.25874877859577" lon="7.998883894591317"><ele>206.0</ele><time>2026-04-19T09:58:39Z</time></trkpt><trkpt lat="45.258822071259075" lon="7.998810060426405"><ele>206.0</ele><time>2026-04-19T09:58:40Z</time></trkpt><trkpt lat="45.25889827410438" lon="7.998747835600252"><ele>206.0</ele><time>2026-04-19T09:58:41Z</time></trkpt><trkpt lat="45.25896017156296" lon="7.998696729469051"><ele>206.0</ele><time>2026-04-19T09:58:42Z</time></trkpt><trkpt lat="45.259054782119485" lon="7.998642673552362"><ele>206.0</ele><time>2026-04-19T09:58:44Z</time></trkpt><trkpt lat="45.25914087637993" lon="7.9986309986711825"><ele>206.0</ele><time>2026-04-19T09:58:46Z</time></trkpt><trkpt lat="45.25924704793633" lon="7.9985844138810265"><ele>205.83333333333334</ele><time>2026-04-19T09:58:48Z</time></trkpt><trkpt lat="45.2593355660861" lon="7.998501966926596"><ele>205.66666666666669</ele><time>2026-04-19T09:58:50Z</time></trkpt><trkpt lat="45.25942163557528" lon="7.99849130806832"><ele>205.5</ele><time>2026-04-19T09:58:52Z</time></trkpt><trkpt lat="45.25951710298653" lon="7.998539921392182"><ele>205.33333333333331</ele><time>2026-04-19T09:58:54Z</time></trkpt><trkpt lat="45.25958322579505" lon="7.99858393632513"><ele>205.16666666666666</ele><time>2026-04-19T09:58:55Z</time></trkpt><trkpt lat="45.25964856415502" lon="7.99863054385177"><ele>205.0</ele><time>2026-04-19T09:58:56Z</time></trkpt><trkpt lat="45.259766720574376" lon="7.998679170021085"><ele>205.8</ele><time>2026-04-19T09:58:58Z</time></trkpt><trkpt lat="45.259880023737864" lon="7.998744777738859"><ele>206.6</ele><time>2026-04-19T09:59:00Z</time></trkpt><trkpt lat="45.2599563217822" lon="7.9987749649691215"><ele>207.39999999999998</ele><time>2026-04-19T09:59:03Z</time></trkpt><trkpt lat="45.260012599042355" lon="7.998645714401185"><ele>208.2</ele><time>2026-04-19T09:59:06Z</time></trkpt><trkpt lat="45.26000952321731" lon="7.998541776588604"><ele>209.0</ele><time>2026-04-19T09:59:07Z</time></trkpt><trkpt lat="45.26000203984153" lon="7.9984341817930655"><ele>208.83333333333334</ele><time>2026-04-19T09:59:08Z</time></trkpt><trkpt lat="45.25998247841958" lon="7.998315815885693"><ele>208.66666666666669</ele><time>2026-04-19T09:59:09Z</time></trkpt><trkpt lat="45.259961688723" lon="7.998194907109054"><ele>208.5</ele><time>2026-04-19T09:59:10Z</time></trkpt><trkpt lat="45.259944512357634" lon="7.998077520282083"><ele>208.33333333333331</ele><time>2026-04-19T09:59:11Z</time></trkpt><trkpt lat="45.25993424820498" lon="7.997970846601544"><ele>208.16666666666666</ele><time>2026-04-19T09:59:12Z</time></trkpt><trkpt lat="45.259923753755174" lon="7.99785604753229"><ele>208.0</ele><time>2026-04-19T09:59:13Z</time></trkpt><trkpt lat="45.25991226074506" lon="7.997741902772915"><ele>207.99999999999997</ele><time>2026-04-19T09:59:14Z</time></trkpt><trkpt lat="45.25989910569777" lon="7.997625309065256"><ele>208.0</ele><time>2026-04-19T09:59:15Z</time></trkpt><trkpt lat="45.25988816049373" lon="7.997512766637038"><ele>208.0</ele><time>2026-04-19T09:59:16Z</time></trkpt><trkpt lat="45.25987661154579" lon="7.997401774667696"><ele>208.0</ele><time>2026-04-19T09:59:17Z</time></trkpt><trkpt lat="45.25986480440107" lon="7.997293106174823"><ele>207.99999999999997</ele><time>2026-04-19T09:59:18Z</time></trkpt><trkpt lat="45.25985764711417" lon="7.997195591461327"><ele>208.0</ele><time>2026-04-19T09:59:19Z</time></trkpt><trkpt lat="45.25986949112304" lon="7.997037514624509"><ele>207.99999999999997</ele><time>2026-04-19T09:59:21Z</time></trkpt><trkpt lat="45.25989693593644" lon="7.9969531959592235"><ele>208.0</ele><time>2026-04-19T09:59:22Z</time></trkpt><trkpt lat="45.259941264617" lon="7.996869967313048"><ele>208.0</ele><time>2026-04-19T09:59:23Z</time></trkpt><trkpt lat="45.2599861422392" lon="7.996784779514654"><ele>208.0</ele><time>2026-04-19T09:59:24Z</time></trkpt><trkpt lat="45.26003176994087" lon="7.996697230161946"><ele>207.99999999999997</ele><time>2026-04-19T09:59:25Z</time></trkpt><trkpt lat="45.26008008151859" lon="7.996601251678989"><ele>208.0</ele><time>2026-04-19T09:59:26Z</time></trkpt><trkpt lat="45.260125874383164" lon="7.99650462247481"><ele>207.99999999999997</ele><time>2026-04-19T09:59:27Z</time></trkpt><trkpt lat="45.26017405189038" lon="7.996396949712755"><ele>208.0</ele><time>2026-04-19T09:59:28Z</time></trkpt><trkpt lat="45.26021760033424" lon="7.996311427706551"><ele>208.0</ele><time>2026-04-19T09:59:29Z</time></trkpt><trkpt lat="45.26026009376311" lon="7.996230582736993"><ele>208.0</ele><time>2026-04-19T09:59:30Z</time></trkpt><trkpt lat="45.26030422689132" lon="7.996153289651589"><ele>207.99999999999997</ele><time>2026-04-19T09:59:31Z</time></trkpt><trkpt lat="45.26034915969734" lon="7.996069869636084"><ele>208.0</ele><time>2026-04-19T09:59:32Z</time></trkpt><trkpt lat="45.260401146021586" lon="7.995962790864948"><ele>207.99999999999997</ele><time>2026-04-19T09:59:33Z</time></trkpt><trkpt lat="45.26044970712552" lon="7.995863290196827"><ele>208.0</ele><time>2026-04-19T09:59:34Z</time></trkpt><trkpt lat="45.260499238858856" lon="7.9957608106289895"><ele>208.0</ele><time>2026-04-19T09:59:35Z</time></trkpt><trkpt lat="45.26055075065005" lon="7.995654660862413"><ele>208.0</ele><time>2026-04-19T09:59:36Z</time></trkpt><trkpt lat="45.26060562385083" lon="7.995548629969044"><ele>207.99999999999997</ele><time>2026-04-19T09:59:37Z</time></trkpt><trkpt lat="45.260650340196136" lon="7.995456538223666"><ele>208.0</ele><time>2026-04-19T09:59:38Z</time></trkpt><trkpt lat="45.26069544935512" lon="7.995361458743013"><ele>208.16666666666666</ele><time>2026-04-19T09:59:39Z</time></trkpt><trkpt lat="45.260746222237735" lon="7.995259831782093"><ele>208.33333333333331</ele><time>2026-04-19T09:59:40Z</time></trkpt><trkpt lat="45.26079335731124" lon="7.995167884635578"><ele>208.5</ele><time>2026-04-19T09:59:41Z</time></trkpt><trkpt lat="45.260859678693485" lon="7.9950373235476455"><ele>208.66666666666669</ele><time>2026-04-19T09:59:43Z</time></trkpt><trkpt lat="45.26092345777136" lon="7.994970803950645"><ele>208.83333333333334</ele><time>2026-04-19T09:59:45Z</time></trkpt><trkpt lat="45.26099273502586" lon="7.99498726517791"><ele>209.0</ele><time>2026-04-19T09:59:47Z</time></trkpt><trkpt lat="45.26110011543081" lon="7.995078797483697"><ele>209.0</ele><time>2026-04-19T09:59:49Z</time></trkpt><trkpt lat="45.26117358804671" lon="7.995144913487231"><ele>209.0</ele><time>2026-04-19T09:59:50Z</time></trkpt><trkpt lat="45.261259785484334" lon="7.9952174919144365"><ele>209.0</ele><time>2026-04-19T09:59:51Z</time></trkpt><trkpt lat="45.26133104312015" lon="7.995273582517562"><ele>209.0</ele><time>2026-04-19T09:59:52Z</time></trkpt><trkpt lat="45.26142575521578" lon="7.995354263752779"><ele>209.0</ele><time>2026-04-19T09:59:54Z</time></trkpt><trkpt lat="45.26153796851537" lon="7.995366796065545"><ele>209.16666666666669</ele><time>2026-04-19T09:59:56Z</time></trkpt><trkpt lat="45.26161015250756" lon="7.995314665245692"><ele>209.33333333333334</ele><time>2026-04-19T09:59:57Z</time></trkpt><trkpt lat="45.26165973451131" lon="7.995236009170151"><ele>209.5</ele><time>2026-04-19T09:59:58Z</time></trkpt><trkpt lat="45.261716948922526" lon="7.995150446357742"><ele>209.66666666666669</ele><time>2026-04-19T09:59:59Z</time></trkpt><trkpt lat="45.26177565868681" lon="7.995067271873943"><ele>209.83333333333334</ele><time>2026-04-19T10:00:00Z</time></trkpt><trkpt lat="45.261850366132904" lon="7.994993775793928"><ele>210.0</ele><time>2026-04-19T10:00:01Z</time></trkpt><trkpt lat="45.261926176281236" lon="7.99492049791444"><ele>210.0</ele><time>2026-04-19T10:00:02Z</time></trkpt><trkpt lat="45.2620005636415" lon="7.994859913734496"><ele>210.0</ele><time>2026-04-19T10:00:03Z</time></trkpt><trkpt lat="45.262074016899746" lon="7.9948012927685355"><ele>210.0</ele><time>2026-04-19T10:00:04Z</time></trkpt><trkpt lat="45.26214707695084" lon="7.9947335784534825"><ele>210.0</ele><time>2026-04-19T10:00:05Z</time></trkpt><trkpt lat="45.26222069659626" lon="7.994661621773107"><ele>210.0</ele><time>2026-04-19T10:00:06Z</time></trkpt><trkpt lat="45.26228801810889" lon="7.994585725996472"><ele>210.0</ele><time>2026-04-19T10:00:07Z</time></trkpt><trkpt lat="45.26235058215937" lon="7.994500858497701"><ele>210.16666666666666</ele><time>2026-04-19T10:00:08Z</time></trkpt><trkpt lat="45.26241013999263" lon="7.994410943528216"><ele>210.33333333333331</ele><time>2026-04-19T10:00:09Z</time></trkpt><trkpt lat="45.262464812287185" lon="7.994320072970594"><ele>210.5</ele><time>2026-04-19T10:00:10Z</time></trkpt><trkpt lat="45.26251758769938" lon="7.994225145539775"><ele>210.66666666666666</ele><time>2026-04-19T10:00:11Z</time></trkpt><trkpt lat="45.26256343648131" lon="7.994115647156446"><ele>210.83333333333331</ele><time>2026-04-19T10:00:12Z</time></trkpt><trkpt lat="45.26261125364141" lon="7.994017177552416"><ele>211.0</ele><time>2026-04-19T10:00:13Z</time></trkpt><trkpt lat="45.26266324591429" lon="7.993929216811147"><ele>210.99999999999997</ele><time>2026-04-19T10:00:14Z</time></trkpt><trkpt lat="45.26272284444532" lon="7.993857135185099"><ele>211.0</ele><time>2026-04-19T10:00:15Z</time></trkpt><trkpt lat="45.262789300654134" lon="7.993773421011398"><ele>211.0</ele><time>2026-04-19T10:00:16Z</time></trkpt><trkpt lat="45.262854198042874" lon="7.993693437169335"><ele>211.0</ele><time>2026-04-19T10:00:17Z</time></trkpt><trkpt lat="45.262916700202894" lon="7.993603595406867"><ele>210.99999999999997</ele><time>2026-04-19T10:00:18Z</time></trkpt><trkpt lat="45.26297757966689" lon="7.99350206067773"><ele>211.0</ele><time>2026-04-19T10:00:19Z</time></trkpt><trkpt lat="45.26304422669686" lon="7.993418605601234"><ele>211.16666666666666</ele><time>2026-04-19T10:00:20Z</time></trkpt><trkpt lat="45.26309579253234" lon="7.9933112893229925"><ele>211.33333333333331</ele><time>2026-04-19T10:00:21Z</time></trkpt><trkpt lat="45.26314407815578" lon="7.993219359332115"><ele>211.5</ele><time>2026-04-19T10:00:22Z</time></trkpt><trkpt lat="45.263194855408464" lon="7.9931350290896654"><ele>211.66666666666669</ele><time>2026-04-19T10:00:23Z</time></trkpt><trkpt lat="45.26325464795758" lon="7.993044655333088"><ele>211.83333333333334</ele><time>2026-04-19T10:00:24Z</time></trkpt><trkpt lat="45.26331827744512" lon="7.9929479594191"><ele>212.0</ele><time>2026-04-19T10:00:25Z</time></trkpt><trkpt lat="45.26337866672682" lon="7.992856187541898"><ele>212.39999999999998</ele><time>2026-04-19T10:00:26Z</time></trkpt><trkpt lat="45.263436485170764" lon="7.99277043292649"><ele>212.79999999999998</ele><time>2026-04-19T10:00:27Z</time></trkpt><trkpt lat="45.26349971485483" lon="7.992688352545557"><ele>213.2</ele><time>2026-04-19T10:00:28Z</time></trkpt><trkpt lat="45.263561342689414" lon="7.992563775662111"><ele>213.6</ele><time>2026-04-19T10:00:29Z</time></trkpt><trkpt lat="45.263624477162644" lon="7.99245123093392"><ele>214.0</ele><time>2026-04-19T10:00:30Z</time></trkpt><trkpt lat="45.26367646250043" lon="7.9923484770569235"><ele>214.0</ele><time>2026-04-19T10:00:31Z</time></trkpt><trkpt lat="45.26372969518549" lon="7.99225145773295"><ele>213.99999999999997</ele><time>2026-04-19T10:00:32Z</time></trkpt><trkpt lat="45.26378863877521" lon="7.992154527640008"><ele>213.99999999999997</ele><time>2026-04-19T10:00:33Z</time></trkpt><trkpt lat="45.26386091106077" lon="7.992053696590989"><ele>214.0</ele><time>2026-04-19T10:00:34Z</time></trkpt><trkpt lat="45.263945785079684" lon="7.99196670880902"><ele>214.0</ele><time>2026-04-19T10:00:35Z</time></trkpt><trkpt lat="45.26404425919697" lon="7.991878595972258"><ele>214.0</ele><time>2026-04-19T10:00:36Z</time></trkpt><trkpt lat="45.264151225134896" lon="7.991783730653751"><ele>214.0</ele><time>2026-04-19T10:00:37Z</time></trkpt><trkpt lat="45.26425253191135" lon="7.9916913370164595"><ele>214.0</ele><time>2026-04-19T10:00:38Z</time></trkpt><trkpt lat="45.26435460735" lon="7.991606674218312"><ele>214.0</ele><time>2026-04-19T10:00:39Z</time></trkpt><trkpt lat="45.26445690787212" lon="7.99152175996016"><ele>214.0</ele><time>2026-04-19T10:00:40Z</time></trkpt><trkpt lat="45.26455953980646" lon="7.991438370888271"><ele>214.0</ele><time>2026-04-19T10:00:41Z</time></trkpt><trkpt lat="45.26466434507527" lon="7.991353025332866"><ele>214.0</ele><time>2026-04-19T10:00:42Z</time></trkpt><trkpt lat="45.264773450760806" lon="7.991264363153829"><ele>214.0</ele><time>2026-04-19T10:00:43Z</time></trkpt><trkpt lat="45.26488099886388" lon="7.99118064162999"><ele>214.0</ele><time>2026-04-19T10:00:44Z</time></trkpt><trkpt lat="45.26497699083584" lon="7.991083689264551"><ele>214.0</ele><time>2026-04-19T10:00:45Z</time></trkpt><trkpt lat="45.26507339914368" lon="7.9909980148139965"><ele>214.0</ele><time>2026-04-19T10:00:46Z</time></trkpt><trkpt lat="45.265156546698655" lon="7.990892584173133"><ele>214.0</ele><time>2026-04-19T10:00:47Z</time></trkpt><trkpt lat="45.265237809063954" lon="7.990784984112764"><ele>214.0</ele><time>2026-04-19T10:00:48Z</time></trkpt><trkpt lat="45.26531795631599" lon="7.990684396602246"><ele>213.99999999999997</ele><time>2026-04-19T10:00:49Z</time></trkpt><trkpt lat="45.26539167099137" lon="7.990592346951482"><ele>213.99999999999997</ele><time>2026-04-19T10:00:50Z</time></trkpt><trkpt lat="45.265465996170484" lon="7.990509012837212"><ele>214.0</ele><time>2026-04-19T10:00:51Z</time></trkpt><trkpt lat="45.265537055117925" lon="7.9904404866156415"><ele>214.0</ele><time>2026-04-19T10:00:52Z</time></trkpt><trkpt lat="45.26560378411209" lon="7.990389287798764"><ele>214.6</ele><time>2026-04-19T10:00:53Z</time></trkpt><trkpt lat="45.26567491739481" lon="7.990358854135739"><ele>215.2</ele><time>2026-04-19T10:00:54Z</time></trkpt><trkpt lat="45.265753973488714" lon="7.990347226100129"><ele>215.79999999999998</ele><time>2026-04-19T10:00:55Z</time></trkpt><trkpt lat="45.26585286455067" lon="7.990354005299772"><ele>216.39999999999998</ele><time>2026-04-19T10:00:56Z</time></trkpt><trkpt lat="45.26596191358992" lon="7.990380074520122"><ele>217.0</ele><time>2026-04-19T10:00:57Z</time></trkpt><trkpt lat="45.26608347140575" lon="7.990402016511513"><ele>217.0</ele><time>2026-04-19T10:00:58Z</time></trkpt><trkpt lat="45.2662014669292" lon="7.9904041803090875"><ele>217.0</ele><time>2026-04-19T10:00:59Z</time></trkpt><trkpt lat="45.26631234348478" lon="7.990417648013514"><ele>217.0</ele><time>2026-04-19T10:01:00Z</time></trkpt><trkpt lat="45.26642181657892" lon="7.990429374636005"><ele>217.0</ele><time>2026-04-19T10:01:01Z</time></trkpt><trkpt lat="45.26652806976019" lon="7.990431560251614"><ele>217.0</ele><time>2026-04-19T10:01:02Z</time></trkpt><trkpt lat="45.26663463295229" lon="7.990439664621002"><ele>217.49999999999997</ele><time>2026-04-19T10:01:03Z</time></trkpt><trkpt lat="45.26673538603372" lon="7.990445552446176"><ele>218.0</ele><time>2026-04-19T10:01:04Z</time></trkpt><trkpt lat="45.26682328292778" lon="7.990452293705203"><ele>218.5</ele><time>2026-04-19T10:01:05Z</time></trkpt><trkpt lat="45.266888648192264" lon="7.990433806418385"><ele>219.0</ele><time>2026-04-19T10:01:06Z</time></trkpt><trkpt lat="45.26695462183848" lon="7.990430190178286"><ele>219.49999999999997</ele><time>2026-04-19T10:01:08Z</time></trkpt><trkpt lat="45.26705634397702" lon="7.990387184277449"><ele>220.0</ele><time>2026-04-19T10:01:11Z</time></trkpt><trkpt lat="45.26713145041674" lon="7.990352016654454"><ele>220.0</ele><time>2026-04-19T10:01:12Z</time></trkpt><trkpt lat="45.26723127960576" lon="7.990335817562019"><ele>220.0</ele><time>2026-04-19T10:01:13Z</time></trkpt><trkpt lat="45.26735805411959" lon="7.9903479124850625"><ele>220.0</ele><time>2026-04-19T10:01:14Z</time></trkpt><trkpt lat="45.26750135376135" lon="7.990372717163607"><ele>220.0</ele><time>2026-04-19T10:01:15Z</time></trkpt><trkpt lat="45.26763873120803" lon="7.990392021093876"><ele>220.25</ele><time>2026-04-19T10:01:16Z</time></trkpt><trkpt lat="45.267764742624934" lon="7.990404931704096"><ele>220.5</ele><time>2026-04-19T10:01:17Z</time></trkpt><trkpt lat="45.267891594184285" lon="7.990427543668271"><ele>220.75</ele><time>2026-04-19T10:01:18Z</time></trkpt><trkpt lat="45.2680222704926" lon="7.990449235549849"><ele>221.0</ele><time>2026-04-19T10:01:19Z</time></trkpt><trkpt lat="45.26814868223557" lon="7.990467985111587"><ele>221.0</ele><time>2026-04-19T10:01:20Z</time></trkpt><trkpt lat="45.268273023598596" lon="7.990489506442927"><ele>221.0</ele><time>2026-04-19T10:01:21Z</time></trkpt><trkpt lat="45.26840004162066" lon="7.990511313188486"><ele>221.0</ele><time>2026-04-19T10:01:22Z</time></trkpt><trkpt lat="45.26852592288963" lon="7.990535495291958"><ele>221.0</ele><time>2026-04-19T10:01:23Z</time></trkpt><trkpt lat="45.268654171833404" lon="7.990558578244857"><ele>221.0</ele><time>2026-04-19T10:01:24Z</time></trkpt><trkpt lat="45.268788608502646" lon="7.990579999009726"><ele>221.0</ele><time>2026-04-19T10:01:25Z</time></trkpt><trkpt lat="45.26893401720224" lon="7.990601096713513"><ele>221.0</ele><time>2026-04-19T10:01:26Z</time></trkpt><trkpt lat="45.269084507397885" lon="7.990617346857118"><ele>221.0</ele><time>2026-04-19T10:01:27Z</time></trkpt><trkpt lat="45.26923524350173" lon="7.990623453109974"><ele>221.25</ele><time>2026-04-19T10:01:28Z</time></trkpt><trkpt lat="45.26937070085202" lon="7.990635061267792"><ele>221.5</ele><time>2026-04-19T10:01:29Z</time></trkpt><trkpt lat="45.26949065367216" lon="7.990660569796943"><ele>221.75</ele><time>2026-04-19T10:01:30Z</time></trkpt><trkpt lat="45.269598520936015" lon="7.990698593954934"><ele>222.0</ele><time>2026-04-19T10:01:31Z</time></trkpt><trkpt lat="45.26968721122586" lon="7.990754505861711"><ele>222.0</ele><time>2026-04-19T10:01:32Z</time></trkpt><trkpt lat="45.26976374890832" lon="7.990818528918388"><ele>222.0</ele><time>2026-04-19T10:01:33Z</time></trkpt><trkpt lat="45.26983530245721" lon="7.99086211672393"><ele>222.0</ele><time>2026-04-19T10:01:34Z</time></trkpt><trkpt lat="45.26990440889515" lon="7.9908670666325605"><ele>222.0</ele><time>2026-04-19T10:01:35Z</time></trkpt><trkpt lat="45.26998031080003" lon="7.990843446407456"><ele>222.0</ele><time>2026-04-19T10:01:36Z</time></trkpt><trkpt lat="45.27006288868484" lon="7.990784528553962"><ele>222.0</ele><time>2026-04-19T10:01:38Z</time></trkpt><trkpt lat="45.270189078026796" lon="7.990738421060943"><ele>222.0</ele><time>2026-04-19T10:01:40Z</time></trkpt><trkpt lat="45.27027088372372" lon="7.990728217535065"><ele>222.0</ele><time>2026-04-19T10:01:41Z</time></trkpt><trkpt lat="45.27035274730498" lon="7.990729923068603"><ele>222.0</ele><time>2026-04-19T10:01:42Z</time></trkpt><trkpt lat="45.270433339840096" lon="7.9907371441065305"><ele>222.0</ele><time>2026-04-19T10:01:43Z</time></trkpt><trkpt lat="45.270519476864855" lon="7.990755820821501"><ele>222.0</ele><time>2026-04-19T10:01:44Z</time></trkpt><trkpt lat="45.27061593171092" lon="7.990772287717938"><ele>222.0</ele><time>2026-04-19T10:01:45Z</time></trkpt><trkpt lat="45.27071089771397" lon="7.99078591097564"><ele>222.0</ele><time>2026-04-19T10:01:46Z</time></trkpt><trkpt lat="45.27080293711704" lon="7.9908050495304135"><ele>222.0</ele><time>2026-04-19T10:01:47Z</time></trkpt><trkpt lat="45.2708864968097" lon="7.990826725987566"><ele>222.0</ele><time>2026-04-19T10:01:48Z</time></trkpt><trkpt lat="45.27094698652171" lon="7.990856335019822"><ele>222.0</ele><time>2026-04-19T10:01:49Z</time></trkpt><trkpt lat="45.270993933898666" lon="7.990946298026618"><ele>222.0</ele><time>2026-04-19T10:01:50Z</time></trkpt><trkpt lat="45.27102369748365" lon="7.991069262959336"><ele>222.0</ele><time>2026-04-19T10:01:51Z</time></trkpt><trkpt lat="45.27105360218964" lon="7.991206450225524"><ele>222.25</ele><time>2026-04-19T10:01:52Z</time></trkpt><trkpt lat="45.27109359322977" lon="7.991357447051722"><ele>222.5</ele><time>2026-04-19T10:01:53Z</time></trkpt><trkpt lat="45.27114602827855" lon="7.991506204180759"><ele>222.75</ele><time>2026-04-19T10:01:54Z</time></trkpt><trkpt lat="45.27121383715377" lon="7.991650729628391"><ele>223.0</ele><time>2026-04-19T10:01:55Z</time></trkpt><trkpt lat="45.271300233338636" lon="7.991786069999584"><ele>223.25</ele><time>2026-04-19T10:01:56Z</time></trkpt><trkpt lat="45.27140035798866" lon="7.9919242966660695"><ele>223.5</ele><time>2026-04-19T10:01:57Z</time></trkpt><trkpt lat="45.27151261454146" lon="7.992078011306762"><ele>223.75</ele><time>2026-04-19T10:01:58Z</time></trkpt><trkpt lat="45.271619474827226" lon="7.992221415576649"><ele>224.0</ele><time>2026-04-19T10:01:59Z</time></trkpt><trkpt lat="45.27172428737209" lon="7.992363302577152"><ele>224.0</ele><time>2026-04-19T10:02:00Z</time></trkpt><trkpt lat="45.2718283743285" lon="7.992508856307757"><ele>224.0</ele><time>2026-04-19T10:02:01Z</time></trkpt><trkpt lat="45.27192839103425" lon="7.992653783630986"><ele>224.0</ele><time>2026-04-19T10:02:02Z</time></trkpt><trkpt lat="45.272025292232485" lon="7.992792794295881"><ele>224.0</ele><time>2026-04-19T10:02:03Z</time></trkpt><trkpt lat="45.27211382227861" lon="7.992924813775731"><ele>224.0</ele><time>2026-04-19T10:02:04Z</time></trkpt><trkpt lat="45.27219084624822" lon="7.993061119710333"><ele>224.0</ele><time>2026-04-19T10:02:05Z</time></trkpt><trkpt lat="45.27225295611658" lon="7.993196173591917"><ele>224.0</ele><time>2026-04-19T10:02:06Z</time></trkpt><trkpt lat="45.272300514320584" lon="7.993337385770173"><ele>224.0</ele><time>2026-04-19T10:02:07Z</time></trkpt><trkpt lat="45.27233792002053" lon="7.993493278207564"><ele>224.25</ele><time>2026-04-19T10:02:08Z</time></trkpt><trkpt lat="45.27236614325385" lon="7.993658937692829"><ele>224.5</ele><time>2026-04-19T10:02:09Z</time></trkpt><trkpt lat="45.27239013876864" lon="7.993834690478996"><ele>224.75</ele><time>2026-04-19T10:02:10Z</time></trkpt><trkpt lat="45.2724080960118" lon="7.99402980420501"><ele>225.0</ele><time>2026-04-19T10:02:11Z</time></trkpt><trkpt lat="45.272441029701184" lon="7.994223602849703"><ele>224.75</ele><time>2026-04-19T10:02:12Z</time></trkpt><trkpt lat="45.27247449654149" lon="7.994418401134243"><ele>224.5</ele><time>2026-04-19T10:02:13Z</time></trkpt><trkpt lat="45.272521416856364" lon="7.99460941570697"><ele>224.25</ele><time>2026-04-19T10:02:14Z</time></trkpt><trkpt lat="45.2725508254075" lon="7.994811616585498"><ele>224.0</ele><time>2026-04-19T10:02:15Z</time></trkpt><trkpt lat="45.272577361858275" lon="7.995015565023684"><ele>224.0</ele><time>2026-04-19T10:02:16Z</time></trkpt><trkpt lat="45.27260604579227" lon="7.99521990210046"><ele>224.0</ele><time>2026-04-19T10:02:17Z</time></trkpt><trkpt lat="45.272639996240926" lon="7.995423754884044"><ele>224.0</ele><time>2026-04-19T10:02:18Z</time></trkpt><trkpt lat="45.27267288912406" lon="7.995636735322575"><ele>224.0</ele><time>2026-04-19T10:02:19Z</time></trkpt><trkpt lat="45.27270576720873" lon="7.995864447006865"><ele>223.66666666666669</ele><time>2026-04-19T10:02:20Z</time></trkpt><trkpt lat="45.27274042796837" lon="7.9960895665374965"><ele>223.33333333333331</ele><time>2026-04-19T10:02:21Z</time></trkpt><trkpt lat="45.272776279382605" lon="7.9963078088560495"><ele>223.0</ele><time>2026-04-19T10:02:22Z</time></trkpt><trkpt lat="45.272813838506636" lon="7.996522909420445"><ele>222.66666666666666</ele><time>2026-04-19T10:02:23Z</time></trkpt><trkpt lat="45.272851584650105" lon="7.9967285416903096"><ele>222.33333333333331</ele><time>2026-04-19T10:02:24Z</time></trkpt><trkpt lat="45.27289397939233" lon="7.996932685845294"><ele>222.0</ele><time>2026-04-19T10:02:25Z</time></trkpt><trkpt lat="45.27294602923461" lon="7.997138053646602"><ele>222.0</ele><time>2026-04-19T10:02:26Z</time></trkpt><trkpt lat="45.27301531127786" lon="7.997333000043048"><ele>222.0</ele><time>2026-04-19T10:02:27Z</time></trkpt><trkpt lat="45.27310284308674" lon="7.997522770234283"><ele>222.0</ele><time>2026-04-19T10:02:28Z</time></trkpt><trkpt lat="45.27319799896964" lon="7.997714315604249"><ele>222.33333333333331</ele><time>2026-04-19T10:02:29Z</time></trkpt><trkpt lat="45.27329196678772" lon="7.99791823581652"><ele>222.66666666666666</ele><time>2026-04-19T10:02:30Z</time></trkpt><trkpt lat="45.273399685920666" lon="7.99811913793091"><ele>223.0</ele><time>2026-04-19T10:02:31Z</time></trkpt><trkpt lat="45.273507066138684" lon="7.99831970167071"><ele>222.66666666666666</ele><time>2026-04-19T10:02:32Z</time></trkpt><trkpt lat="45.27361262544707" lon="7.998516864466837"><ele>222.33333333333331</ele><time>2026-04-19T10:02:33Z</time></trkpt><trkpt lat="45.27372130200745" lon="7.998717144645046"><ele>222.0</ele><time>2026-04-19T10:02:34Z</time></trkpt><trkpt lat="45.27383653220187" lon="7.998914520902481"><ele>222.33333333333331</ele><time>2026-04-19T10:02:35Z</time></trkpt><trkpt lat="45.27396643872324" lon="7.999097163557752"><ele>222.66666666666666</ele><time>2026-04-19T10:02:36Z</time></trkpt><trkpt lat="45.274079604603315" lon="7.9992982148162595"><ele>223.0</ele><time>2026-04-19T10:02:37Z</time></trkpt><trkpt lat="45.27419038229275" lon="7.9994952800287"><ele>223.0</ele><time>2026-04-19T10:02:38Z</time></trkpt><trkpt lat="45.27429650428135" lon="7.99969191335079"><ele>223.0</ele><time>2026-04-19T10:02:39Z</time></trkpt><trkpt lat="45.27440109344872" lon="7.999890569434861"><ele>223.0</ele><time>2026-04-19T10:02:40Z</time></trkpt><trkpt lat="45.274499767939794" lon="8.000092137313802"><ele>223.0</ele><time>2026-04-19T10:02:41Z</time></trkpt><trkpt lat="45.274594922076375" lon="8.000297581925238"><ele>223.0</ele><time>2026-04-19T10:02:42Z</time></trkpt><trkpt lat="45.27468661797655" lon="8.000508958433599"><ele>223.0</ele><time>2026-04-19T10:02:43Z</time></trkpt><trkpt lat="45.27477088521311" lon="8.000728482572452"><ele>222.66666666666666</ele><time>2026-04-19T10:02:44Z</time></trkpt><trkpt lat="45.27485355400415" lon="8.000949331266591"><ele>222.33333333333331</ele><time>2026-04-19T10:02:45Z</time></trkpt><trkpt lat="45.2749381384196" lon="8.001174662438832"><ele>222.0</ele><time>2026-04-19T10:02:46Z</time></trkpt><trkpt lat="45.27502291072659" lon="8.001405603211357"><ele>222.0</ele><time>2026-04-19T10:02:47Z</time></trkpt><trkpt lat="45.275105029274805" lon="8.00163345144722"><ele>222.0</ele><time>2026-04-19T10:02:48Z</time></trkpt><trkpt lat="45.27518193677096" lon="8.00184307642985"><ele>222.0</ele><time>2026-04-19T10:02:49Z</time></trkpt><trkpt lat="45.275252213331875" lon="8.002038795051075"><ele>222.25</ele><time>2026-04-19T10:02:50Z</time></trkpt><trkpt lat="45.2753187939599" lon="8.002224221857576"><ele>222.5</ele><time>2026-04-19T10:02:51Z</time></trkpt><trkpt lat="45.275382440145606" lon="8.002393749250846"><ele>222.75</ele><time>2026-04-19T10:02:52Z</time></trkpt><trkpt lat="45.27544051848216" lon="8.002539837543104"><ele>223.0</ele><time>2026-04-19T10:02:53Z</time></trkpt><trkpt lat="45.2754882696567" lon="8.002649452882004"><ele>222.99999999999997</ele><time>2026-04-19T10:02:54Z</time></trkpt><trkpt lat="45.27552530238798" lon="8.002728267478348"><ele>223.0</ele><time>2026-04-19T10:02:55Z</time></trkpt><trkpt lat="45.27556383179326" lon="8.002806363195992"><ele>223.0</ele><time>2026-04-19T10:02:56Z</time></trkpt><trkpt lat="45.27562062387817" lon="8.002845463713983"><ele>223.0</ele><time>2026-04-19T10:02:57Z</time></trkpt><trkpt lat="45.275719883071424" lon="8.00295306948227"><ele>222.99999999999997</ele><time>2026-04-19T10:02:59Z</time></trkpt><trkpt lat="45.27577940988058" lon="8.003017601765075"><ele>223.0</ele><time>2026-04-19T10:03:00Z</time></trkpt><trkpt lat="45.27577220960245" lon="8.003370076236699"><ele>222.99999999999997</ele><time>2026-04-19T10:03:02Z</time></trkpt><trkpt lat="45.27581319374917" lon="8.003463056797397"><ele>223.0</ele><time>2026-04-19T10:03:03Z</time></trkpt><trkpt lat="45.27585695313465" lon="8.003550510835737"><ele>223.0</ele><time>2026-04-19T10:03:04Z</time></trkpt><trkpt lat="45.27591298578425" lon="8.003634055389888"><ele>223.0</ele><time>2026-04-19T10:03:05Z</time></trkpt><trkpt lat="45.275977458844636" lon="8.003715295032857"><ele>222.99999999999997</ele><time>2026-04-19T10:03:06Z</time></trkpt><trkpt lat="45.27604713393744" lon="8.003802231090905"><ele>223.0</ele><time>2026-04-19T10:03:07Z</time></trkpt><trkpt lat="45.276122021790584" lon="8.003888042070827"><ele>223.0</ele><time>2026-04-19T10:03:08Z</time></trkpt><trkpt lat="45.27619778200455" lon="8.003978863417526"><ele>223.0</ele><time>2026-04-19T10:03:09Z</time></trkpt><trkpt lat="45.27627778167414" lon="8.004075981469732"><ele>223.0</ele><time>2026-04-19T10:03:10Z</time></trkpt><trkpt lat="45.27635880743595" lon="8.004171329153774"><ele>223.0</ele><time>2026-04-19T10:03:11Z</time></trkpt><trkpt lat="45.27644199726223" lon="8.004267801400383"><ele>223.0</ele><time>2026-04-19T10:03:12Z</time></trkpt><trkpt lat="45.27652707454471" lon="8.004369963914145"><ele>223.2</ele><time>2026-04-19T10:03:13Z</time></trkpt><trkpt lat="45.276605316256486" lon="8.004466357888218"><ele>223.4</ele><time>2026-04-19T10:03:14Z</time></trkpt><trkpt lat="45.27668534782221" lon="8.004565167560827"><ele>223.59999999999997</ele><time>2026-04-19T10:03:15Z</time></trkpt><trkpt lat="45.27676519071805" lon="8.004657832465293"><ele>223.79999999999998</ele><time>2026-04-19T10:03:16Z</time></trkpt><trkpt lat="45.27684206095966" lon="8.004738634150453"><ele>224.0</ele><time>2026-04-19T10:03:17Z</time></trkpt><trkpt lat="45.276921775901705" lon="8.00483494197722"><ele>224.0</ele><time>2026-04-19T10:03:18Z</time></trkpt><trkpt lat="45.27700271678973" lon="8.004932076242358"><ele>223.99999999999997</ele><time>2026-04-19T10:03:19Z</time></trkpt><trkpt lat="45.27708505002156" lon="8.00502895213331"><ele>223.99999999999997</ele><time>2026-04-19T10:03:20Z</time></trkpt><trkpt lat="45.27716906524741" lon="8.005126765509829"><ele>224.0</ele><time>2026-04-19T10:03:21Z</time></trkpt><trkpt lat="45.27725965526817" lon="8.005225769970433"><ele>224.0</ele><time>2026-04-19T10:03:22Z</time></trkpt><trkpt lat="45.2773425545059" lon="8.005341509582708"><ele>223.75</ele><time>2026-04-19T10:03:23Z</time></trkpt><trkpt lat="45.27742636017152" lon="8.005455113943711"><ele>223.5</ele><time>2026-04-19T10:03:24Z</time></trkpt><trkpt lat="45.2775111041777" lon="8.00555671109176"><ele>223.25</ele><time>2026-04-19T10:03:25Z</time></trkpt><trkpt lat="45.2775988063267" lon="8.005649465847673"><ele>223.0</ele><time>2026-04-19T10:03:26Z</time></trkpt><trkpt lat="45.27769419136768" lon="8.005739444156472"><ele>222.75</ele><time>2026-04-19T10:03:27Z</time></trkpt><trkpt lat="45.277800343630595" lon="8.005829445602012"><ele>222.5</ele><time>2026-04-19T10:03:28Z</time></trkpt><trkpt lat="45.277905645747026" lon="8.00592329585093"><ele>222.25</ele><time>2026-04-19T10:03:29Z</time></trkpt><trkpt lat="45.27800476886703" lon="8.006017609404402"><ele>222.0</ele><time>2026-04-19T10:03:30Z</time></trkpt><trkpt lat="45.278103187963424" lon="8.006107934135482"><ele>222.0</ele><time>2026-04-19T10:03:31Z</time></trkpt><trkpt lat="45.27821000497499" lon="8.0061990148464"><ele>222.0</ele><time>2026-04-19T10:03:32Z</time></trkpt><trkpt lat="45.27832065797541" lon="8.006292389763011"><ele>222.0</ele><time>2026-04-19T10:03:33Z</time></trkpt><trkpt lat="45.278430380052775" lon="8.006380845809208"><ele>222.0</ele><time>2026-04-19T10:03:34Z</time></trkpt><trkpt lat="45.27854387310185" lon="8.00646879303315"><ele>222.0</ele><time>2026-04-19T10:03:35Z</time></trkpt><trkpt lat="45.278657273897174" lon="8.006555694467217"><ele>222.0</ele><time>2026-04-19T10:03:36Z</time></trkpt><trkpt lat="45.27876663682525" lon="8.006642654057115"><ele>222.0</ele><time>2026-04-19T10:03:37Z</time></trkpt><trkpt lat="45.27887270295089" lon="8.006724359006839"><ele>222.0</ele><time>2026-04-19T10:03:38Z</time></trkpt><trkpt lat="45.27897475583373" lon="8.00680116913916"><ele>222.5</ele><time>2026-04-19T10:03:39Z</time></trkpt><trkpt lat="45.27907959252038" lon="8.006882866392715"><ele>223.0</ele><time>2026-04-19T10:03:40Z</time></trkpt><trkpt lat="45.27918108797118" lon="8.006965924740115"><ele>223.5</ele><time>2026-04-19T10:03:41Z</time></trkpt><trkpt lat="45.279274722523105" lon="8.007045225544754"><ele>224.0</ele><time>2026-04-19T10:03:42Z</time></trkpt><trkpt lat="45.27936826785059" lon="8.007123635212114"><ele>224.0</ele><time>2026-04-19T10:03:43Z</time></trkpt><trkpt lat="45.27945651234382" lon="8.00719921031708"><ele>223.99999999999997</ele><time>2026-04-19T10:03:44Z</time></trkpt><trkpt lat="45.279541436421155" lon="8.007276308893552"><ele>223.99999999999997</ele><time>2026-04-19T10:03:45Z</time></trkpt><trkpt lat="45.27962141212109" lon="8.007356396843942"><ele>224.0</ele><time>2026-04-19T10:03:46Z</time></trkpt><trkpt lat="45.279698612690986" lon="8.007439273543815"><ele>224.0</ele><time>2026-04-19T10:03:47Z</time></trkpt><trkpt lat="45.2797680025694" lon="8.007530691968816"><ele>223.6</ele><time>2026-04-19T10:03:48Z</time></trkpt><trkpt lat="45.2798367369829" lon="8.007635086531351"><ele>223.2</ele><time>2026-04-19T10:03:49Z</time></trkpt><trkpt lat="45.279908867407066" lon="8.007755474348222"><ele>222.79999999999998</ele><time>2026-04-19T10:03:50Z</time></trkpt><trkpt lat="45.2799817266846" lon="8.007888458134952"><ele>222.39999999999998</ele><time>2026-04-19T10:03:51Z</time></trkpt><trkpt lat="45.28005265698076" lon="8.0080190762418"><ele>222.0</ele><time>2026-04-19T10:03:52Z</time></trkpt><trkpt lat="45.28011904833869" lon="8.00814427429619"><ele>222.0</ele><time>2026-04-19T10:03:53Z</time></trkpt><trkpt lat="45.28017871205106" lon="8.008276308306217"><ele>222.0</ele><time>2026-04-19T10:03:54Z</time></trkpt><trkpt lat="45.28023190718534" lon="8.008421833988557"><ele>222.0</ele><time>2026-04-19T10:03:55Z</time></trkpt><trkpt lat="45.28028331259382" lon="8.008578774127388"><ele>222.0</ele><time>2026-04-19T10:03:56Z</time></trkpt><trkpt lat="45.28034057413462" lon="8.008741861804724"><ele>221.75</ele><time>2026-04-19T10:03:57Z</time></trkpt><trkpt lat="45.280400873667524" lon="8.008901708712353"><ele>221.5</ele><time>2026-04-19T10:03:58Z</time></trkpt><trkpt lat="45.28046571789882" lon="8.009061369753333"><ele>221.25</ele><time>2026-04-19T10:03:59Z</time></trkpt><trkpt lat="45.28053164186414" lon="8.009219706738993"><ele>221.0</ele><time>2026-04-19T10:04:00Z</time></trkpt><trkpt lat="45.28059959126096" lon="8.009370551672877"><ele>221.4</ele><time>2026-04-19T10:04:01Z</time></trkpt><trkpt lat="45.28066720840304" lon="8.009513174674627"><ele>221.8</ele><time>2026-04-19T10:04:02Z</time></trkpt><trkpt lat="45.2807307084601" lon="8.009648252220913"><ele>222.20000000000002</ele><time>2026-04-19T10:04:03Z</time></trkpt><trkpt lat="45.280793358644516" lon="8.009764147220656"><ele>222.60000000000002</ele><time>2026-04-19T10:04:04Z</time></trkpt><trkpt lat="45.280858279444274" lon="8.00985940843213"><ele>223.0</ele><time>2026-04-19T10:04:05Z</time></trkpt><trkpt lat="45.28091931896589" lon="8.009926785020907"><ele>223.0</ele><time>2026-04-19T10:04:06Z</time></trkpt><trkpt lat="45.28099714293881" lon="8.009955005224336"><ele>223.0</ele><time>2026-04-19T10:04:07Z</time></trkpt><trkpt lat="45.28107216191922" lon="8.009970585878438"><ele>223.0</ele><time>2026-04-19T10:04:08Z</time></trkpt><trkpt lat="45.281167305295064" lon="8.00996869354568"><ele>223.0</ele><time>2026-04-19T10:04:09Z</time></trkpt><trkpt lat="45.281275267646" lon="8.009951617686047"><ele>223.0</ele><time>2026-04-19T10:04:10Z</time></trkpt><trkpt lat="45.28139135524596" lon="8.009955906811667"><ele>223.0</ele><time>2026-04-19T10:04:11Z</time></trkpt><trkpt lat="45.28151575498547" lon="8.00997130807475"><ele>223.0</ele><time>2026-04-19T10:04:12Z</time></trkpt><trkpt lat="45.281641531201686" lon="8.00998973971758"><ele>223.0</ele><time>2026-04-19T10:04:13Z</time></trkpt><trkpt lat="45.28176474623147" lon="8.010006484707745"><ele>223.0</ele><time>2026-04-19T10:04:14Z</time></trkpt><trkpt lat="45.28187366280911" lon="8.010024999661464"><ele>222.83333333333331</ele><time>2026-04-19T10:04:15Z</time></trkpt><trkpt lat="45.281968254984534" lon="8.010043559785736"><ele>222.66666666666666</ele><time>2026-04-19T10:04:16Z</time></trkpt><trkpt lat="45.28205447579201" lon="8.010063843122563"><ele>222.5</ele><time>2026-04-19T10:04:17Z</time></trkpt><trkpt lat="45.28212930339348" lon="8.010083509997727"><ele>222.33333333333331</ele><time>2026-04-19T10:04:18Z</time></trkpt><trkpt lat="45.28219658231109" lon="8.010104544197784"><ele>222.16666666666666</ele><time>2026-04-19T10:04:19Z</time></trkpt><trkpt lat="45.282257425809654" lon="8.010136283895648"><ele>222.0</ele><time>2026-04-19T10:04:20Z</time></trkpt><trkpt lat="45.28231559414719" lon="8.01018571808294"><ele>222.39999999999998</ele><time>2026-04-19T10:04:21Z</time></trkpt><trkpt lat="45.282368634367835" lon="8.010245714240456"><ele>222.79999999999998</ele><time>2026-04-19T10:04:22Z</time></trkpt><trkpt lat="45.282426935748646" lon="8.010377795338147"><ele>223.2</ele><time>2026-04-19T10:04:24Z</time></trkpt><trkpt lat="45.282450713503046" lon="8.010518482403281"><ele>223.6</ele><time>2026-04-19T10:04:26Z</time></trkpt><trkpt lat="45.282446569331746" lon="8.010630358811898"><ele>224.0</ele><time>2026-04-19T10:04:27Z</time></trkpt><trkpt lat="45.28242412255262" lon="8.01076207023676"><ele>224.0</ele><time>2026-04-19T10:04:28Z</time></trkpt><trkpt lat="45.282392030361535" lon="8.010922798738628"><ele>224.0</ele><time>2026-04-19T10:04:29Z</time></trkpt><trkpt lat="45.28236229194713" lon="8.01110727856421"><ele>224.0</ele><time>2026-04-19T10:04:30Z</time></trkpt><trkpt lat="45.28233333285596" lon="8.011281434760564"><ele>224.0</ele><time>2026-04-19T10:04:31Z</time></trkpt><trkpt lat="45.282299273791125" lon="8.011461695458168"><ele>224.0</ele><time>2026-04-19T10:04:32Z</time></trkpt><trkpt lat="45.28226682502509" lon="8.01162505133593"><ele>223.99999999999997</ele><time>2026-04-19T10:04:33Z</time></trkpt><trkpt lat="45.282238891098224" lon="8.011766442645872"><ele>223.99999999999997</ele><time>2026-04-19T10:04:34Z</time></trkpt><trkpt lat="45.28221073287925" lon="8.011887044141037"><ele>224.0</ele><time>2026-04-19T10:04:35Z</time></trkpt><trkpt lat="45.282181311422114" lon="8.012002760081192"><ele>224.0</ele><time>2026-04-19T10:04:36Z</time></trkpt><trkpt lat="45.28215048154499" lon="8.012109349090684"><ele>223.0</ele><time>2026-04-19T10:04:37Z</time></trkpt><trkpt lat="45.2821076614102" lon="8.012254307411753"><ele>223.0</ele><time>2026-04-19T10:04:39Z</time></trkpt><trkpt lat="45.282080025686135" lon="8.01234125674409"><ele>223.0</ele><time>2026-04-19T10:04:41Z</time></trkpt><trkpt lat="45.2819471182568" lon="8.012280996370798"><ele>223.0</ele><time>2026-04-19T10:04:43Z</time></trkpt><trkpt lat="45.28187707967777" lon="8.012288137448554"><ele>223.0</ele><time>2026-04-19T10:04:45Z</time></trkpt><trkpt lat="45.28187707967777" lon="8.012288137448554"><ele>223.0</ele><time>2026-04-19T10:04:45Z</time></trkpt></trkseg></trk></gpx>